<?xml version="1.0" encoding="UTF-8" standalone="no" ?>
<gpx xmlns="http://www.topografix.com/GPX/1/1" xmlns:xsi="http://www.w3.org/2001/XMLSchema-instance" xsi:schemaLocation="http://www.topografix.com/GPX/1/1 http://www.topografix.com/GPX/1/1/gpx.xsd" version="1.1" creator="VisuGPX - https://www.visugpx.com">
  <metadata>
    <name>E17/20 Le tour du Grand Paris via le GR1 par étapes de 30 km ou + étape 17 - Dourdan - Lardy</name>
    <desc><![CDATA[Quelques libertés dans la foret de ST yON]]></desc>
  </metadata>
  <trk>
    <name><![CDATA[SityTrail - Le tour du Grand Paris via le GR1 étape 17 - Dourdan - Lardy]]></name>
    <desc><![CDATA[Quelques libertés dans la foret de ST yON]]></desc>
    <trkseg>
      <trkpt lat="48.53368" lon="2.00853">
        <ele>118</ele>
        <time>2022-08-09T06:19:02.082Z</time>
      </trkpt>
      <trkpt lat="48.53368" lon="2.00852">
        <ele>118</ele>
        <time>2022-08-09T06:19:03.197Z</time>
      </trkpt>
      <trkpt lat="48.53368" lon="2.00855">
        <ele>118</ele>
        <time>2022-08-09T06:19:07.217Z</time>
      </trkpt>
      <trkpt lat="48.53367" lon="2.00858">
        <ele>118</ele>
        <time>2022-08-09T06:19:11.212Z</time>
      </trkpt>
      <trkpt lat="48.53367" lon="2.00862">
        <ele>118</ele>
        <time>2022-08-09T06:19:16.236Z</time>
      </trkpt>
      <trkpt lat="48.53367" lon="2.00874">
        <ele>118</ele>
        <time>2022-08-09T06:19:21.226Z</time>
      </trkpt>
      <trkpt lat="48.53365" lon="2.00881">
        <ele>117</ele>
        <time>2022-08-09T06:19:26.246Z</time>
      </trkpt>
      <trkpt lat="48.53365" lon="2.00889">
        <ele>117</ele>
        <time>2022-08-09T06:19:31.222Z</time>
      </trkpt>
      <trkpt lat="48.53363" lon="2.00898">
        <ele>117</ele>
        <time>2022-08-09T06:19:35.226Z</time>
      </trkpt>
      <trkpt lat="48.53362" lon="2.00903">
        <ele>116</ele>
        <time>2022-08-09T06:19:39.242Z</time>
      </trkpt>
      <trkpt lat="48.5336" lon="2.00911">
        <ele>116</ele>
        <time>2022-08-09T06:19:44.248Z</time>
      </trkpt>
      <trkpt lat="48.53358" lon="2.00919">
        <ele>116</ele>
        <time>2022-08-09T06:19:49.203Z</time>
      </trkpt>
      <trkpt lat="48.53357" lon="2.00925">
        <ele>116</ele>
        <time>2022-08-09T06:19:53.234Z</time>
      </trkpt>
      <trkpt lat="48.53355" lon="2.00934">
        <ele>116</ele>
        <time>2022-08-09T06:19:58.249Z</time>
      </trkpt>
      <trkpt lat="48.53356" lon="2.0094">
        <ele>116</ele>
        <time>2022-08-09T06:20:02.267Z</time>
      </trkpt>
      <trkpt lat="48.53356" lon="2.00949">
        <ele>116</ele>
        <time>2022-08-09T06:20:07.242Z</time>
      </trkpt>
      <trkpt lat="48.53355" lon="2.00956">
        <ele>116</ele>
        <time>2022-08-09T06:20:12.241Z</time>
      </trkpt>
      <trkpt lat="48.53354" lon="2.00964">
        <ele>116</ele>
        <time>2022-08-09T06:20:17.223Z</time>
      </trkpt>
      <trkpt lat="48.53353" lon="2.0097">
        <ele>116</ele>
        <time>2022-08-09T06:20:21.247Z</time>
      </trkpt>
      <trkpt lat="48.53352" lon="2.00982">
        <ele>116</ele>
        <time>2022-08-09T06:20:26.239Z</time>
      </trkpt>
      <trkpt lat="48.53352" lon="2.00986">
        <ele>116</ele>
        <time>2022-08-09T06:20:30.239Z</time>
      </trkpt>
      <trkpt lat="48.53352" lon="2.0099">
        <ele>116</ele>
        <time>2022-08-09T06:20:35.228Z</time>
      </trkpt>
      <trkpt lat="48.53344" lon="2.00988">
        <ele>117</ele>
        <time>2022-08-09T06:21:49.238Z</time>
      </trkpt>
      <trkpt lat="48.53343" lon="2.00985">
        <ele>117</ele>
        <time>2022-08-09T06:21:54.224Z</time>
      </trkpt>
      <trkpt lat="48.53339" lon="2.0098">
        <ele>117</ele>
        <time>2022-08-09T06:21:58.229Z</time>
      </trkpt>
      <trkpt lat="48.53335" lon="2.00977">
        <ele>117</ele>
        <time>2022-08-09T06:22:02.265Z</time>
      </trkpt>
      <trkpt lat="48.53332" lon="2.0097">
        <ele>117</ele>
        <time>2022-08-09T06:22:07.223Z</time>
      </trkpt>
      <trkpt lat="48.53327" lon="2.00967">
        <ele>117</ele>
        <time>2022-08-09T06:22:11.233Z</time>
      </trkpt>
      <trkpt lat="48.53321" lon="2.00964">
        <ele>117</ele>
        <time>2022-08-09T06:22:16.253Z</time>
      </trkpt>
      <trkpt lat="48.53315" lon="2.00963">
        <ele>117</ele>
        <time>2022-08-09T06:22:21.236Z</time>
      </trkpt>
      <trkpt lat="48.53308" lon="2.0096">
        <ele>117</ele>
        <time>2022-08-09T06:22:26.233Z</time>
      </trkpt>
      <trkpt lat="48.53301" lon="2.00959">
        <ele>117</ele>
        <time>2022-08-09T06:22:31.238Z</time>
      </trkpt>
      <trkpt lat="48.53296" lon="2.00958">
        <ele>118</ele>
        <time>2022-08-09T06:22:36.248Z</time>
      </trkpt>
      <trkpt lat="48.5329" lon="2.00955">
        <ele>117</ele>
        <time>2022-08-09T06:22:41.238Z</time>
      </trkpt>
      <trkpt lat="48.53283" lon="2.00955">
        <ele>117</ele>
        <time>2022-08-09T06:22:46.246Z</time>
      </trkpt>
      <trkpt lat="48.53277" lon="2.00953">
        <ele>117</ele>
        <time>2022-08-09T06:22:51.238Z</time>
      </trkpt>
      <trkpt lat="48.53271" lon="2.00951">
        <ele>117</ele>
        <time>2022-08-09T06:22:56.256Z</time>
      </trkpt>
      <trkpt lat="48.53264" lon="2.00949">
        <ele>116</ele>
        <time>2022-08-09T06:23:01.217Z</time>
      </trkpt>
      <trkpt lat="48.53258" lon="2.00947">
        <ele>116</ele>
        <time>2022-08-09T06:23:06.230Z</time>
      </trkpt>
      <trkpt lat="48.53252" lon="2.00945">
        <ele>116</ele>
        <time>2022-08-09T06:23:11.270Z</time>
      </trkpt>
      <trkpt lat="48.53246" lon="2.00943">
        <ele>116</ele>
        <time>2022-08-09T06:23:16.224Z</time>
      </trkpt>
      <trkpt lat="48.53239" lon="2.00942">
        <ele>116</ele>
        <time>2022-08-09T06:23:21.238Z</time>
      </trkpt>
      <trkpt lat="48.53232" lon="2.00941">
        <ele>116</ele>
        <time>2022-08-09T06:23:26.240Z</time>
      </trkpt>
      <trkpt lat="48.53226" lon="2.00942">
        <ele>116</ele>
        <time>2022-08-09T06:23:30.264Z</time>
      </trkpt>
      <trkpt lat="48.53222" lon="2.00948">
        <ele>116</ele>
        <time>2022-08-09T06:23:35.241Z</time>
      </trkpt>
      <trkpt lat="48.53219" lon="2.00958">
        <ele>116</ele>
        <time>2022-08-09T06:23:40.242Z</time>
      </trkpt>
      <trkpt lat="48.53217" lon="2.00965">
        <ele>115</ele>
        <time>2022-08-09T06:23:44.244Z</time>
      </trkpt>
      <trkpt lat="48.53215" lon="2.00973">
        <ele>115</ele>
        <time>2022-08-09T06:23:48.259Z</time>
      </trkpt>
      <trkpt lat="48.53213" lon="2.00983">
        <ele>115</ele>
        <time>2022-08-09T06:23:53.244Z</time>
      </trkpt>
      <trkpt lat="48.53212" lon="2.00992">
        <ele>115</ele>
        <time>2022-08-09T06:23:58.228Z</time>
      </trkpt>
      <trkpt lat="48.5321" lon="2.01001">
        <ele>115</ele>
        <time>2022-08-09T06:24:02.249Z</time>
      </trkpt>
      <trkpt lat="48.53208" lon="2.01009">
        <ele>114</ele>
        <time>2022-08-09T06:24:07.235Z</time>
      </trkpt>
      <trkpt lat="48.53207" lon="2.01019">
        <ele>113</ele>
        <time>2022-08-09T06:24:12.220Z</time>
      </trkpt>
      <trkpt lat="48.53204" lon="2.01029">
        <ele>113</ele>
        <time>2022-08-09T06:24:17.215Z</time>
      </trkpt>
      <trkpt lat="48.53203" lon="2.01033">
        <ele>113</ele>
        <time>2022-08-09T06:24:21.228Z</time>
      </trkpt>
      <trkpt lat="48.53194" lon="2.01047">
        <ele>112</ele>
        <time>2022-08-09T06:24:30.247Z</time>
      </trkpt>
      <trkpt lat="48.53193" lon="2.01048">
        <ele>112</ele>
        <time>2022-08-09T06:24:35.261Z</time>
      </trkpt>
      <trkpt lat="48.53192" lon="2.01046">
        <ele>112</ele>
        <time>2022-08-09T06:24:40.263Z</time>
      </trkpt>
      <trkpt lat="48.53191" lon="2.01045">
        <ele>112</ele>
        <time>2022-08-09T06:24:44.259Z</time>
      </trkpt>
      <trkpt lat="48.53187" lon="2.01048">
        <ele>112</ele>
        <time>2022-08-09T06:24:49.270Z</time>
      </trkpt>
      <trkpt lat="48.53181" lon="2.01051">
        <ele>112</ele>
        <time>2022-08-09T06:24:54.238Z</time>
      </trkpt>
      <trkpt lat="48.53176" lon="2.01046">
        <ele>112</ele>
        <time>2022-08-09T06:24:59.243Z</time>
      </trkpt>
      <trkpt lat="48.53171" lon="2.01039">
        <ele>113</ele>
        <time>2022-08-09T06:25:04.236Z</time>
      </trkpt>
      <trkpt lat="48.53167" lon="2.01033">
        <ele>113</ele>
        <time>2022-08-09T06:25:09.228Z</time>
      </trkpt>
      <trkpt lat="48.53164" lon="2.01028">
        <ele>113</ele>
        <time>2022-08-09T06:25:13.270Z</time>
      </trkpt>
      <trkpt lat="48.5316" lon="2.0102">
        <ele>113</ele>
        <time>2022-08-09T06:25:18.237Z</time>
      </trkpt>
      <trkpt lat="48.53156" lon="2.01014">
        <ele>113</ele>
        <time>2022-08-09T06:25:22.229Z</time>
      </trkpt>
      <trkpt lat="48.53152" lon="2.0101">
        <ele>114</ele>
        <time>2022-08-09T06:25:27.246Z</time>
      </trkpt>
      <trkpt lat="48.53146" lon="2.01011">
        <ele>114</ele>
        <time>2022-08-09T06:25:31.247Z</time>
      </trkpt>
      <trkpt lat="48.5314" lon="2.01012">
        <ele>114</ele>
        <time>2022-08-09T06:25:36.251Z</time>
      </trkpt>
      <trkpt lat="48.53134" lon="2.01015">
        <ele>113</ele>
        <time>2022-08-09T06:25:41.241Z</time>
      </trkpt>
      <trkpt lat="48.5313" lon="2.01018">
        <ele>113</ele>
        <time>2022-08-09T06:25:45.263Z</time>
      </trkpt>
      <trkpt lat="48.53124" lon="2.01021">
        <ele>112</ele>
        <time>2022-08-09T06:25:50.253Z</time>
      </trkpt>
      <trkpt lat="48.53116" lon="2.01027">
        <ele>112</ele>
        <time>2022-08-09T06:25:55.203Z</time>
      </trkpt>
      <trkpt lat="48.5311" lon="2.0103">
        <ele>112</ele>
        <time>2022-08-09T06:25:59.231Z</time>
      </trkpt>
      <trkpt lat="48.53104" lon="2.01036">
        <ele>112</ele>
        <time>2022-08-09T06:26:04.191Z</time>
      </trkpt>
      <trkpt lat="48.53102" lon="2.01053">
        <ele>112</ele>
        <time>2022-08-09T06:26:08.200Z</time>
      </trkpt>
      <trkpt lat="48.53097" lon="2.0106">
        <ele>112</ele>
        <time>2022-08-09T06:26:13.185Z</time>
      </trkpt>
      <trkpt lat="48.53091" lon="2.01053">
        <ele>110</ele>
        <time>2022-08-09T06:26:18.190Z</time>
      </trkpt>
      <trkpt lat="48.53085" lon="2.0107">
        <ele>111</ele>
        <time>2022-08-09T06:26:22.193Z</time>
      </trkpt>
      <trkpt lat="48.53075" lon="2.01063">
        <ele>110</ele>
        <time>2022-08-09T06:26:27.184Z</time>
      </trkpt>
      <trkpt lat="48.53069" lon="2.01063">
        <ele>110</ele>
        <time>2022-08-09T06:26:32.195Z</time>
      </trkpt>
      <trkpt lat="48.53065" lon="2.01068">
        <ele>110</ele>
        <time>2022-08-09T06:26:37.195Z</time>
      </trkpt>
      <trkpt lat="48.53061" lon="2.01075">
        <ele>109</ele>
        <time>2022-08-09T06:26:42.193Z</time>
      </trkpt>
      <trkpt lat="48.53058" lon="2.01079">
        <ele>109</ele>
        <time>2022-08-09T06:26:47.186Z</time>
      </trkpt>
      <trkpt lat="48.53059" lon="2.01075">
        <ele>109</ele>
        <time>2022-08-09T06:26:51.193Z</time>
      </trkpt>
      <trkpt lat="48.53057" lon="2.01066">
        <ele>110</ele>
        <time>2022-08-09T06:26:56.186Z</time>
      </trkpt>
      <trkpt lat="48.53052" lon="2.01063">
        <ele>110</ele>
        <time>2022-08-09T06:27:00.194Z</time>
      </trkpt>
      <trkpt lat="48.53051" lon="2.01061">
        <ele>110</ele>
        <time>2022-08-09T06:27:04.201Z</time>
      </trkpt>
      <trkpt lat="48.53049" lon="2.01059">
        <ele>110</ele>
        <time>2022-08-09T06:27:09.194Z</time>
      </trkpt>
      <trkpt lat="48.53047" lon="2.01056">
        <ele>110</ele>
        <time>2022-08-09T06:27:14.201Z</time>
      </trkpt>
      <trkpt lat="48.53041" lon="2.01053">
        <ele>109</ele>
        <time>2022-08-09T06:27:19.203Z</time>
      </trkpt>
      <trkpt lat="48.53038" lon="2.01044">
        <ele>109</ele>
        <time>2022-08-09T06:27:24.190Z</time>
      </trkpt>
      <trkpt lat="48.53035" lon="2.01037">
        <ele>108</ele>
        <time>2022-08-09T06:27:28.195Z</time>
      </trkpt>
      <trkpt lat="48.53029" lon="2.0103">
        <ele>108</ele>
        <time>2022-08-09T06:27:33.198Z</time>
      </trkpt>
      <trkpt lat="48.53023" lon="2.01034">
        <ele>108</ele>
        <time>2022-08-09T06:27:38.209Z</time>
      </trkpt>
      <trkpt lat="48.53021" lon="2.01037">
        <ele>108</ele>
        <time>2022-08-09T06:27:43.182Z</time>
      </trkpt>
      <trkpt lat="48.53021" lon="2.01032">
        <ele>108</ele>
        <time>2022-08-09T06:27:48.200Z</time>
      </trkpt>
      <trkpt lat="48.53017" lon="2.01027">
        <ele>108</ele>
        <time>2022-08-09T06:27:52.200Z</time>
      </trkpt>
      <trkpt lat="48.53013" lon="2.0102">
        <ele>107</ele>
        <time>2022-08-09T06:27:57.194Z</time>
      </trkpt>
      <trkpt lat="48.53009" lon="2.01017">
        <ele>107</ele>
        <time>2022-08-09T06:28:02.207Z</time>
      </trkpt>
      <trkpt lat="48.53006" lon="2.01012">
        <ele>106</ele>
        <time>2022-08-09T06:28:06.210Z</time>
      </trkpt>
      <trkpt lat="48.53" lon="2.01004">
        <ele>106</ele>
        <time>2022-08-09T06:28:11.184Z</time>
      </trkpt>
      <trkpt lat="48.52995" lon="2.00999">
        <ele>106</ele>
        <time>2022-08-09T06:28:16.192Z</time>
      </trkpt>
      <trkpt lat="48.52992" lon="2.00994">
        <ele>106</ele>
        <time>2022-08-09T06:28:20.205Z</time>
      </trkpt>
      <trkpt lat="48.52989" lon="2.00994">
        <ele>106</ele>
        <time>2022-08-09T06:28:24.209Z</time>
      </trkpt>
      <trkpt lat="48.52986" lon="2.01001">
        <ele>103</ele>
        <time>2022-08-09T06:28:29.187Z</time>
      </trkpt>
      <trkpt lat="48.52983" lon="2.01005">
        <ele>103</ele>
        <time>2022-08-09T06:28:34.196Z</time>
      </trkpt>
      <trkpt lat="48.52982" lon="2.01014">
        <ele>103</ele>
        <time>2022-08-09T06:28:38.198Z</time>
      </trkpt>
      <trkpt lat="48.52976" lon="2.01022">
        <ele>103</ele>
        <time>2022-08-09T06:28:43.203Z</time>
      </trkpt>
      <trkpt lat="48.52972" lon="2.01027">
        <ele>103</ele>
        <time>2022-08-09T06:28:47.208Z</time>
      </trkpt>
      <trkpt lat="48.52969" lon="2.01032">
        <ele>103</ele>
        <time>2022-08-09T06:28:52.196Z</time>
      </trkpt>
      <trkpt lat="48.52965" lon="2.01039">
        <ele>103</ele>
        <time>2022-08-09T06:28:56.205Z</time>
      </trkpt>
      <trkpt lat="48.52956" lon="2.01049">
        <ele>103</ele>
        <time>2022-08-09T06:29:01.201Z</time>
      </trkpt>
      <trkpt lat="48.52952" lon="2.01056">
        <ele>103</ele>
        <time>2022-08-09T06:29:06.202Z</time>
      </trkpt>
      <trkpt lat="48.5295" lon="2.01064">
        <ele>103</ele>
        <time>2022-08-09T06:29:11.201Z</time>
      </trkpt>
      <trkpt lat="48.52945" lon="2.01072">
        <ele>104</ele>
        <time>2022-08-09T06:29:16.206Z</time>
      </trkpt>
      <trkpt lat="48.52941" lon="2.0108">
        <ele>104</ele>
        <time>2022-08-09T06:29:21.188Z</time>
      </trkpt>
      <trkpt lat="48.52938" lon="2.01087">
        <ele>104</ele>
        <time>2022-08-09T06:29:25.196Z</time>
      </trkpt>
      <trkpt lat="48.52936" lon="2.01094">
        <ele>104</ele>
        <time>2022-08-09T06:29:30.195Z</time>
      </trkpt>
      <trkpt lat="48.52939" lon="2.01101">
        <ele>104</ele>
        <time>2022-08-09T06:29:34.191Z</time>
      </trkpt>
      <trkpt lat="48.52942" lon="2.01107">
        <ele>104</ele>
        <time>2022-08-09T06:29:39.194Z</time>
      </trkpt>
      <trkpt lat="48.52946" lon="2.01115">
        <ele>104</ele>
        <time>2022-08-09T06:29:44.202Z</time>
      </trkpt>
      <trkpt lat="48.52946" lon="2.01122">
        <ele>104</ele>
        <time>2022-08-09T06:29:49.188Z</time>
      </trkpt>
      <trkpt lat="48.52942" lon="2.01131">
        <ele>105</ele>
        <time>2022-08-09T06:29:58.191Z</time>
      </trkpt>
      <trkpt lat="48.52939" lon="2.0113">
        <ele>105</ele>
        <time>2022-08-09T06:30:02.231Z</time>
      </trkpt>
      <trkpt lat="48.52937" lon="2.01131">
        <ele>105</ele>
        <time>2022-08-09T06:30:07.195Z</time>
      </trkpt>
      <trkpt lat="48.52937" lon="2.01131">
        <ele>105</ele>
        <time>2022-08-09T06:30:12.182Z</time>
      </trkpt>
      <trkpt lat="48.52932" lon="2.01141">
        <ele>105</ele>
        <time>2022-08-09T06:30:16.188Z</time>
      </trkpt>
      <trkpt lat="48.52927" lon="2.01151">
        <ele>103</ele>
        <time>2022-08-09T06:30:20.196Z</time>
      </trkpt>
      <trkpt lat="48.52931" lon="2.01148">
        <ele>105</ele>
        <time>2022-08-09T06:30:25.183Z</time>
      </trkpt>
      <trkpt lat="48.52936" lon="2.01146">
        <ele>105</ele>
        <time>2022-08-09T06:30:29.191Z</time>
      </trkpt>
      <trkpt lat="48.52944" lon="2.01147">
        <ele>105</ele>
        <time>2022-08-09T06:30:33.197Z</time>
      </trkpt>
      <trkpt lat="48.52954" lon="2.01151">
        <ele>105</ele>
        <time>2022-08-09T06:30:43.190Z</time>
      </trkpt>
      <trkpt lat="48.52955" lon="2.0115">
        <ele>105</ele>
        <time>2022-08-09T06:30:48.200Z</time>
      </trkpt>
      <trkpt lat="48.52957" lon="2.0115">
        <ele>105</ele>
        <time>2022-08-09T06:30:52.201Z</time>
      </trkpt>
      <trkpt lat="48.52958" lon="2.01153">
        <ele>106</ele>
        <time>2022-08-09T06:30:57.197Z</time>
      </trkpt>
      <trkpt lat="48.52955" lon="2.01164">
        <ele>106</ele>
        <time>2022-08-09T06:31:02.210Z</time>
      </trkpt>
      <trkpt lat="48.52954" lon="2.01175">
        <ele>106</ele>
        <time>2022-08-09T06:31:06.207Z</time>
      </trkpt>
      <trkpt lat="48.52954" lon="2.01177">
        <ele>106</ele>
        <time>2022-08-09T06:31:11.194Z</time>
      </trkpt>
      <trkpt lat="48.52949" lon="2.01184">
        <ele>105</ele>
        <time>2022-08-09T06:31:15.195Z</time>
      </trkpt>
      <trkpt lat="48.52946" lon="2.01195">
        <ele>105</ele>
        <time>2022-08-09T06:31:20.199Z</time>
      </trkpt>
      <trkpt lat="48.52945" lon="2.01199">
        <ele>105</ele>
        <time>2022-08-09T06:31:25.195Z</time>
      </trkpt>
      <trkpt lat="48.5294" lon="2.01202">
        <ele>105</ele>
        <time>2022-08-09T06:31:29.194Z</time>
      </trkpt>
      <trkpt lat="48.52937" lon="2.012">
        <ele>105</ele>
        <time>2022-08-09T06:31:34.200Z</time>
      </trkpt>
      <trkpt lat="48.52935" lon="2.01198">
        <ele>105</ele>
        <time>2022-08-09T06:31:38.193Z</time>
      </trkpt>
      <trkpt lat="48.52929" lon="2.01211">
        <ele>105</ele>
        <time>2022-08-09T06:31:43.198Z</time>
      </trkpt>
      <trkpt lat="48.52923" lon="2.01214">
        <ele>105</ele>
        <time>2022-08-09T06:31:47.216Z</time>
      </trkpt>
      <trkpt lat="48.5292" lon="2.0122">
        <ele>105</ele>
        <time>2022-08-09T06:31:52.192Z</time>
      </trkpt>
      <trkpt lat="48.52919" lon="2.0122">
        <ele>105</ele>
        <time>2022-08-09T06:31:56.194Z</time>
      </trkpt>
      <trkpt lat="48.52913" lon="2.01228">
        <ele>105</ele>
        <time>2022-08-09T06:32:01.202Z</time>
      </trkpt>
      <trkpt lat="48.52909" lon="2.01241">
        <ele>104</ele>
        <time>2022-08-09T06:32:06.196Z</time>
      </trkpt>
      <trkpt lat="48.52911" lon="2.01253">
        <ele>104</ele>
        <time>2022-08-09T06:32:10.211Z</time>
      </trkpt>
      <trkpt lat="48.52914" lon="2.01264">
        <ele>103</ele>
        <time>2022-08-09T06:32:15.199Z</time>
      </trkpt>
      <trkpt lat="48.52913" lon="2.01273">
        <ele>103</ele>
        <time>2022-08-09T06:32:20.188Z</time>
      </trkpt>
      <trkpt lat="48.52915" lon="2.01279">
        <ele>103</ele>
        <time>2022-08-09T06:32:25.194Z</time>
      </trkpt>
      <trkpt lat="48.52913" lon="2.01289">
        <ele>103</ele>
        <time>2022-08-09T06:32:30.205Z</time>
      </trkpt>
      <trkpt lat="48.5291" lon="2.01291">
        <ele>103</ele>
        <time>2022-08-09T06:32:34.199Z</time>
      </trkpt>
      <trkpt lat="48.52907" lon="2.01287">
        <ele>103</ele>
        <time>2022-08-09T06:33:07.193Z</time>
      </trkpt>
      <trkpt lat="48.52905" lon="2.01299">
        <ele>103</ele>
        <time>2022-08-09T06:33:12.199Z</time>
      </trkpt>
      <trkpt lat="48.52905" lon="2.0131">
        <ele>103</ele>
        <time>2022-08-09T06:33:16.204Z</time>
      </trkpt>
      <trkpt lat="48.52906" lon="2.01317">
        <ele>103</ele>
        <time>2022-08-09T06:33:20.225Z</time>
      </trkpt>
      <trkpt lat="48.52905" lon="2.01328">
        <ele>102</ele>
        <time>2022-08-09T06:33:25.198Z</time>
      </trkpt>
      <trkpt lat="48.52905" lon="2.01337">
        <ele>102</ele>
        <time>2022-08-09T06:33:29.202Z</time>
      </trkpt>
      <trkpt lat="48.52904" lon="2.01347">
        <ele>102</ele>
        <time>2022-08-09T06:33:34.205Z</time>
      </trkpt>
      <trkpt lat="48.52903" lon="2.01359">
        <ele>100</ele>
        <time>2022-08-09T06:33:39.193Z</time>
      </trkpt>
      <trkpt lat="48.52903" lon="2.01373">
        <ele>100</ele>
        <time>2022-08-09T06:33:44.202Z</time>
      </trkpt>
      <trkpt lat="48.52901" lon="2.01386">
        <ele>100</ele>
        <time>2022-08-09T06:33:49.198Z</time>
      </trkpt>
      <trkpt lat="48.52901" lon="2.01394">
        <ele>100</ele>
        <time>2022-08-09T06:33:53.195Z</time>
      </trkpt>
      <trkpt lat="48.529" lon="2.01404">
        <ele>101</ele>
        <time>2022-08-09T06:33:58.193Z</time>
      </trkpt>
      <trkpt lat="48.52898" lon="2.01409">
        <ele>101</ele>
        <time>2022-08-09T06:34:03.201Z</time>
      </trkpt>
      <trkpt lat="48.52893" lon="2.01412">
        <ele>101</ele>
        <time>2022-08-09T06:34:08.198Z</time>
      </trkpt>
      <trkpt lat="48.52891" lon="2.0141">
        <ele>101</ele>
        <time>2022-08-09T06:34:12.196Z</time>
      </trkpt>
      <trkpt lat="48.5289" lon="2.01418">
        <ele>101</ele>
        <time>2022-08-09T06:34:17.216Z</time>
      </trkpt>
      <trkpt lat="48.52893" lon="2.01422">
        <ele>101</ele>
        <time>2022-08-09T06:34:22.189Z</time>
      </trkpt>
      <trkpt lat="48.52892" lon="2.01432">
        <ele>102</ele>
        <time>2022-08-09T06:34:26.205Z</time>
      </trkpt>
      <trkpt lat="48.52889" lon="2.01444">
        <ele>102</ele>
        <time>2022-08-09T06:34:30.229Z</time>
      </trkpt>
      <trkpt lat="48.52883" lon="2.01455">
        <ele>102</ele>
        <time>2022-08-09T06:34:35.187Z</time>
      </trkpt>
      <trkpt lat="48.52882" lon="2.01464">
        <ele>104</ele>
        <time>2022-08-09T06:34:39.193Z</time>
      </trkpt>
      <trkpt lat="48.52883" lon="2.01476">
        <ele>104</ele>
        <time>2022-08-09T06:34:44.199Z</time>
      </trkpt>
      <trkpt lat="48.52882" lon="2.01482">
        <ele>104</ele>
        <time>2022-08-09T06:34:49.190Z</time>
      </trkpt>
      <trkpt lat="48.5288" lon="2.01487">
        <ele>104</ele>
        <time>2022-08-09T06:34:53.193Z</time>
      </trkpt>
      <trkpt lat="48.52879" lon="2.01493">
        <ele>104</ele>
        <time>2022-08-09T06:34:57.202Z</time>
      </trkpt>
      <trkpt lat="48.52884" lon="2.01505">
        <ele>104</ele>
        <time>2022-08-09T06:35:02.214Z</time>
      </trkpt>
      <trkpt lat="48.5289" lon="2.01515">
        <ele>106</ele>
        <time>2022-08-09T06:35:07.196Z</time>
      </trkpt>
      <trkpt lat="48.52895" lon="2.01525">
        <ele>106</ele>
        <time>2022-08-09T06:35:12.200Z</time>
      </trkpt>
      <trkpt lat="48.52899" lon="2.01531">
        <ele>106</ele>
        <time>2022-08-09T06:35:16.214Z</time>
      </trkpt>
      <trkpt lat="48.52905" lon="2.01538">
        <ele>106</ele>
        <time>2022-08-09T06:35:21.197Z</time>
      </trkpt>
      <trkpt lat="48.52907" lon="2.01546">
        <ele>107</ele>
        <time>2022-08-09T06:35:25.196Z</time>
      </trkpt>
      <trkpt lat="48.52913" lon="2.01552">
        <ele>107</ele>
        <time>2022-08-09T06:35:30.195Z</time>
      </trkpt>
      <trkpt lat="48.52921" lon="2.01558">
        <ele>107</ele>
        <time>2022-08-09T06:35:35.192Z</time>
      </trkpt>
      <trkpt lat="48.52926" lon="2.01563">
        <ele>107</ele>
        <time>2022-08-09T06:35:39.225Z</time>
      </trkpt>
      <trkpt lat="48.52927" lon="2.0157">
        <ele>107</ele>
        <time>2022-08-09T06:35:44.219Z</time>
      </trkpt>
      <trkpt lat="48.5293" lon="2.01579">
        <ele>107</ele>
        <time>2022-08-09T06:35:49.192Z</time>
      </trkpt>
      <trkpt lat="48.52932" lon="2.01586">
        <ele>107</ele>
        <time>2022-08-09T06:35:54.205Z</time>
      </trkpt>
      <trkpt lat="48.52936" lon="2.01597">
        <ele>107</ele>
        <time>2022-08-09T06:35:59.199Z</time>
      </trkpt>
      <trkpt lat="48.52935" lon="2.01604">
        <ele>107</ele>
        <time>2022-08-09T06:36:03.192Z</time>
      </trkpt>
      <trkpt lat="48.5293" lon="2.0161">
        <ele>106</ele>
        <time>2022-08-09T06:36:08.199Z</time>
      </trkpt>
      <trkpt lat="48.52923" lon="2.01609">
        <ele>106</ele>
        <time>2022-08-09T06:36:13.202Z</time>
      </trkpt>
      <trkpt lat="48.52917" lon="2.01607">
        <ele>106</ele>
        <time>2022-08-09T06:36:18.196Z</time>
      </trkpt>
      <trkpt lat="48.529" lon="2.01606">
        <ele>104</ele>
        <time>2022-08-09T06:37:26.209Z</time>
      </trkpt>
      <trkpt lat="48.52898" lon="2.01607">
        <ele>104</ele>
        <time>2022-08-09T06:37:31.204Z</time>
      </trkpt>
      <trkpt lat="48.52893" lon="2.01612">
        <ele>104</ele>
        <time>2022-08-09T06:37:36.199Z</time>
      </trkpt>
      <trkpt lat="48.52891" lon="2.01615">
        <ele>104</ele>
        <time>2022-08-09T06:37:40.198Z</time>
      </trkpt>
      <trkpt lat="48.52887" lon="2.01614">
        <ele>104</ele>
        <time>2022-08-09T06:37:45.183Z</time>
      </trkpt>
      <trkpt lat="48.52883" lon="2.01616">
        <ele>104</ele>
        <time>2022-08-09T06:37:49.195Z</time>
      </trkpt>
      <trkpt lat="48.5288" lon="2.01614">
        <ele>104</ele>
        <time>2022-08-09T06:37:53.245Z</time>
      </trkpt>
      <trkpt lat="48.52874" lon="2.01608">
        <ele>102</ele>
        <time>2022-08-09T06:37:58.207Z</time>
      </trkpt>
      <trkpt lat="48.5287" lon="2.01601">
        <ele>102</ele>
        <time>2022-08-09T06:38:02.231Z</time>
      </trkpt>
      <trkpt lat="48.52866" lon="2.01593">
        <ele>103</ele>
        <time>2022-08-09T06:38:07.239Z</time>
      </trkpt>
      <trkpt lat="48.52862" lon="2.01587">
        <ele>103</ele>
        <time>2022-08-09T06:38:12.201Z</time>
      </trkpt>
      <trkpt lat="48.52858" lon="2.01581">
        <ele>103</ele>
        <time>2022-08-09T06:38:16.237Z</time>
      </trkpt>
      <trkpt lat="48.52855" lon="2.01575">
        <ele>103</ele>
        <time>2022-08-09T06:38:21.214Z</time>
      </trkpt>
      <trkpt lat="48.52848" lon="2.01569">
        <ele>103</ele>
        <time>2022-08-09T06:38:26.199Z</time>
      </trkpt>
      <trkpt lat="48.52848" lon="2.01562">
        <ele>103</ele>
        <time>2022-08-09T06:38:30.219Z</time>
      </trkpt>
      <trkpt lat="48.52849" lon="2.01551">
        <ele>103</ele>
        <time>2022-08-09T06:38:35.206Z</time>
      </trkpt>
      <trkpt lat="48.52853" lon="2.01544">
        <ele>103</ele>
        <time>2022-08-09T06:38:40.193Z</time>
      </trkpt>
      <trkpt lat="48.52857" lon="2.01542">
        <ele>102</ele>
        <time>2022-08-09T06:38:44.195Z</time>
      </trkpt>
      <trkpt lat="48.52857" lon="2.01541">
        <ele>102</ele>
        <time>2022-08-09T06:38:48.221Z</time>
      </trkpt>
      <trkpt lat="48.5286" lon="2.01541">
        <ele>102</ele>
        <time>2022-08-09T06:38:53.192Z</time>
      </trkpt>
      <trkpt lat="48.52864" lon="2.01541">
        <ele>102</ele>
        <time>2022-08-09T06:38:58.231Z</time>
      </trkpt>
      <trkpt lat="48.52869" lon="2.01545">
        <ele>103</ele>
        <time>2022-08-09T06:39:03.228Z</time>
      </trkpt>
      <trkpt lat="48.52872" lon="2.01547">
        <ele>103</ele>
        <time>2022-08-09T06:39:07.232Z</time>
      </trkpt>
      <trkpt lat="48.52881" lon="2.01543">
        <ele>107</ele>
        <time>2022-08-09T06:39:12.198Z</time>
      </trkpt>
      <trkpt lat="48.52885" lon="2.01542">
        <ele>107</ele>
        <time>2022-08-09T06:39:16.202Z</time>
      </trkpt>
      <trkpt lat="48.52887" lon="2.01543">
        <ele>107</ele>
        <time>2022-08-09T06:39:21.185Z</time>
      </trkpt>
      <trkpt lat="48.52889" lon="2.01535">
        <ele>106</ele>
        <time>2022-08-09T06:39:34.200Z</time>
      </trkpt>
      <trkpt lat="48.52889" lon="2.01532">
        <ele>106</ele>
        <time>2022-08-09T06:39:39.187Z</time>
      </trkpt>
      <trkpt lat="48.52887" lon="2.01528">
        <ele>106</ele>
        <time>2022-08-09T06:39:44.197Z</time>
      </trkpt>
      <trkpt lat="48.52883" lon="2.01518">
        <ele>106</ele>
        <time>2022-08-09T06:39:49.220Z</time>
      </trkpt>
      <trkpt lat="48.52883" lon="2.01512">
        <ele>104</ele>
        <time>2022-08-09T06:39:53.243Z</time>
      </trkpt>
      <trkpt lat="48.52886" lon="2.01512">
        <ele>104</ele>
        <time>2022-08-09T06:39:58.193Z</time>
      </trkpt>
      <trkpt lat="48.52884" lon="2.0151">
        <ele>104</ele>
        <time>2022-08-09T06:40:03.208Z</time>
      </trkpt>
      <trkpt lat="48.52881" lon="2.01506">
        <ele>104</ele>
        <time>2022-08-09T06:40:08.196Z</time>
      </trkpt>
      <trkpt lat="48.52879" lon="2.01503">
        <ele>104</ele>
        <time>2022-08-09T06:40:12.234Z</time>
      </trkpt>
      <trkpt lat="48.52875" lon="2.01505">
        <ele>104</ele>
        <time>2022-08-09T06:40:17.237Z</time>
      </trkpt>
      <trkpt lat="48.52871" lon="2.01509">
        <ele>102</ele>
        <time>2022-08-09T06:40:21.248Z</time>
      </trkpt>
      <trkpt lat="48.52866" lon="2.01515">
        <ele>102</ele>
        <time>2022-08-09T06:40:26.227Z</time>
      </trkpt>
      <trkpt lat="48.52862" lon="2.01518">
        <ele>102</ele>
        <time>2022-08-09T06:40:31.195Z</time>
      </trkpt>
      <trkpt lat="48.52858" lon="2.01523">
        <ele>102</ele>
        <time>2022-08-09T06:40:35.223Z</time>
      </trkpt>
      <trkpt lat="48.52852" lon="2.0153">
        <ele>102</ele>
        <time>2022-08-09T06:40:40.202Z</time>
      </trkpt>
      <trkpt lat="48.52849" lon="2.01534">
        <ele>102</ele>
        <time>2022-08-09T06:40:44.197Z</time>
      </trkpt>
      <trkpt lat="48.52843" lon="2.0154">
        <ele>99</ele>
        <time>2022-08-09T06:40:49.195Z</time>
      </trkpt>
      <trkpt lat="48.52841" lon="2.01544">
        <ele>99</ele>
        <time>2022-08-09T06:40:53.193Z</time>
      </trkpt>
      <trkpt lat="48.5284" lon="2.01546">
        <ele>99</ele>
        <time>2022-08-09T06:40:57.202Z</time>
      </trkpt>
      <trkpt lat="48.5284" lon="2.01555">
        <ele>99</ele>
        <time>2022-08-09T06:41:02.194Z</time>
      </trkpt>
      <trkpt lat="48.52839" lon="2.01561">
        <ele>99</ele>
        <time>2022-08-09T06:41:06.198Z</time>
      </trkpt>
      <trkpt lat="48.52837" lon="2.0157">
        <ele>99</ele>
        <time>2022-08-09T06:41:10.222Z</time>
      </trkpt>
      <trkpt lat="48.52836" lon="2.01581">
        <ele>99</ele>
        <time>2022-08-09T06:41:15.203Z</time>
      </trkpt>
      <trkpt lat="48.52835" lon="2.01589">
        <ele>99</ele>
        <time>2022-08-09T06:41:19.213Z</time>
      </trkpt>
      <trkpt lat="48.52833" lon="2.01599">
        <ele>99</ele>
        <time>2022-08-09T06:41:23.224Z</time>
      </trkpt>
      <trkpt lat="48.52829" lon="2.01601">
        <ele>99</ele>
        <time>2022-08-09T06:41:28.193Z</time>
      </trkpt>
      <trkpt lat="48.52827" lon="2.01597">
        <ele>99</ele>
        <time>2022-08-09T06:41:32.201Z</time>
      </trkpt>
      <trkpt lat="48.52822" lon="2.01599">
        <ele>99</ele>
        <time>2022-08-09T06:41:36.216Z</time>
      </trkpt>
      <trkpt lat="48.5282" lon="2.01593">
        <ele>99</ele>
        <time>2022-08-09T06:41:40.232Z</time>
      </trkpt>
      <trkpt lat="48.52814" lon="2.01589">
        <ele>96</ele>
        <time>2022-08-09T06:41:45.230Z</time>
      </trkpt>
      <trkpt lat="48.5281" lon="2.0159">
        <ele>96</ele>
        <time>2022-08-09T06:41:50.197Z</time>
      </trkpt>
      <trkpt lat="48.52807" lon="2.01586">
        <ele>96</ele>
        <time>2022-08-09T06:41:54.197Z</time>
      </trkpt>
      <trkpt lat="48.52802" lon="2.01581">
        <ele>96</ele>
        <time>2022-08-09T06:41:58.226Z</time>
      </trkpt>
      <trkpt lat="48.52792" lon="2.01577">
        <ele>96</ele>
        <time>2022-08-09T06:42:03.206Z</time>
      </trkpt>
      <trkpt lat="48.52786" lon="2.01574">
        <ele>95</ele>
        <time>2022-08-09T06:42:07.212Z</time>
      </trkpt>
      <trkpt lat="48.52779" lon="2.01572">
        <ele>95</ele>
        <time>2022-08-09T06:42:12.221Z</time>
      </trkpt>
      <trkpt lat="48.52775" lon="2.01565">
        <ele>95</ele>
        <time>2022-08-09T06:42:17.196Z</time>
      </trkpt>
      <trkpt lat="48.52771" lon="2.01555">
        <ele>95</ele>
        <time>2022-08-09T06:42:22.230Z</time>
      </trkpt>
      <trkpt lat="48.52768" lon="2.01546">
        <ele>95</ele>
        <time>2022-08-09T06:42:27.195Z</time>
      </trkpt>
      <trkpt lat="48.52766" lon="2.01539">
        <ele>96</ele>
        <time>2022-08-09T06:42:31.206Z</time>
      </trkpt>
      <trkpt lat="48.52764" lon="2.01532">
        <ele>96</ele>
        <time>2022-08-09T06:42:35.217Z</time>
      </trkpt>
      <trkpt lat="48.5276" lon="2.01522">
        <ele>96</ele>
        <time>2022-08-09T06:42:40.202Z</time>
      </trkpt>
      <trkpt lat="48.52756" lon="2.01515">
        <ele>96</ele>
        <time>2022-08-09T06:42:44.227Z</time>
      </trkpt>
      <trkpt lat="48.52751" lon="2.01507">
        <ele>96</ele>
        <time>2022-08-09T06:42:49.187Z</time>
      </trkpt>
      <trkpt lat="48.52748" lon="2.015">
        <ele>96</ele>
        <time>2022-08-09T06:42:53.203Z</time>
      </trkpt>
      <trkpt lat="48.52747" lon="2.0149">
        <ele>96</ele>
        <time>2022-08-09T06:42:58.201Z</time>
      </trkpt>
      <trkpt lat="48.52745" lon="2.01481">
        <ele>96</ele>
        <time>2022-08-09T06:43:03.206Z</time>
      </trkpt>
      <trkpt lat="48.52744" lon="2.01473">
        <ele>96</ele>
        <time>2022-08-09T06:43:08.212Z</time>
      </trkpt>
      <trkpt lat="48.5274" lon="2.01468">
        <ele>96</ele>
        <time>2022-08-09T06:43:13.203Z</time>
      </trkpt>
      <trkpt lat="48.52735" lon="2.01466">
        <ele>95</ele>
        <time>2022-08-09T06:43:17.232Z</time>
      </trkpt>
      <trkpt lat="48.52729" lon="2.01468">
        <ele>95</ele>
        <time>2022-08-09T06:43:22.201Z</time>
      </trkpt>
      <trkpt lat="48.52721" lon="2.01466">
        <ele>95</ele>
        <time>2022-08-09T06:43:27.192Z</time>
      </trkpt>
      <trkpt lat="48.52714" lon="2.01463">
        <ele>95</ele>
        <time>2022-08-09T06:43:31.198Z</time>
      </trkpt>
      <trkpt lat="48.52708" lon="2.01469">
        <ele>93</ele>
        <time>2022-08-09T06:43:36.195Z</time>
      </trkpt>
      <trkpt lat="48.52705" lon="2.01474">
        <ele>93</ele>
        <time>2022-08-09T06:43:40.193Z</time>
      </trkpt>
      <trkpt lat="48.52703" lon="2.01483">
        <ele>93</ele>
        <time>2022-08-09T06:43:45.201Z</time>
      </trkpt>
      <trkpt lat="48.527" lon="2.01492">
        <ele>92</ele>
        <time>2022-08-09T06:43:50.230Z</time>
      </trkpt>
      <trkpt lat="48.52699" lon="2.015">
        <ele>92</ele>
        <time>2022-08-09T06:43:55.208Z</time>
      </trkpt>
      <trkpt lat="48.52696" lon="2.01511">
        <ele>92</ele>
        <time>2022-08-09T06:44:00.201Z</time>
      </trkpt>
      <trkpt lat="48.52693" lon="2.01521">
        <ele>93</ele>
        <time>2022-08-09T06:44:05.218Z</time>
      </trkpt>
      <trkpt lat="48.52691" lon="2.01529">
        <ele>93</ele>
        <time>2022-08-09T06:44:09.218Z</time>
      </trkpt>
      <trkpt lat="48.52689" lon="2.01537">
        <ele>93</ele>
        <time>2022-08-09T06:44:13.228Z</time>
      </trkpt>
      <trkpt lat="48.52686" lon="2.01547">
        <ele>95</ele>
        <time>2022-08-09T06:44:18.229Z</time>
      </trkpt>
      <trkpt lat="48.52683" lon="2.01556">
        <ele>95</ele>
        <time>2022-08-09T06:44:23.222Z</time>
      </trkpt>
      <trkpt lat="48.52681" lon="2.01566">
        <ele>95</ele>
        <time>2022-08-09T06:44:28.254Z</time>
      </trkpt>
      <trkpt lat="48.52676" lon="2.01574">
        <ele>94</ele>
        <time>2022-08-09T06:44:33.227Z</time>
      </trkpt>
      <trkpt lat="48.5267" lon="2.01581">
        <ele>94</ele>
        <time>2022-08-09T06:44:38.250Z</time>
      </trkpt>
      <trkpt lat="48.52667" lon="2.0159">
        <ele>94</ele>
        <time>2022-08-09T06:44:43.201Z</time>
      </trkpt>
      <trkpt lat="48.52664" lon="2.01597">
        <ele>94</ele>
        <time>2022-08-09T06:44:48.206Z</time>
      </trkpt>
      <trkpt lat="48.52661" lon="2.01602">
        <ele>96</ele>
        <time>2022-08-09T06:44:52.273Z</time>
      </trkpt>
      <trkpt lat="48.52659" lon="2.01612">
        <ele>96</ele>
        <time>2022-08-09T06:44:57.235Z</time>
      </trkpt>
      <trkpt lat="48.52656" lon="2.0162">
        <ele>96</ele>
        <time>2022-08-09T06:45:01.214Z</time>
      </trkpt>
      <trkpt lat="48.52652" lon="2.01629">
        <ele>95</ele>
        <time>2022-08-09T06:45:06.245Z</time>
      </trkpt>
      <trkpt lat="48.5265" lon="2.0164">
        <ele>95</ele>
        <time>2022-08-09T06:45:11.224Z</time>
      </trkpt>
      <trkpt lat="48.52646" lon="2.01651">
        <ele>95</ele>
        <time>2022-08-09T06:45:16.219Z</time>
      </trkpt>
      <trkpt lat="48.52643" lon="2.01659">
        <ele>95</ele>
        <time>2022-08-09T06:45:21.254Z</time>
      </trkpt>
      <trkpt lat="48.52639" lon="2.0167">
        <ele>95</ele>
        <time>2022-08-09T06:45:26.233Z</time>
      </trkpt>
      <trkpt lat="48.52636" lon="2.01678">
        <ele>95</ele>
        <time>2022-08-09T06:45:31.243Z</time>
      </trkpt>
      <trkpt lat="48.52632" lon="2.01685">
        <ele>95</ele>
        <time>2022-08-09T06:45:35.254Z</time>
      </trkpt>
      <trkpt lat="48.52628" lon="2.01694">
        <ele>95</ele>
        <time>2022-08-09T06:45:40.251Z</time>
      </trkpt>
      <trkpt lat="48.52623" lon="2.01699">
        <ele>95</ele>
        <time>2022-08-09T06:45:44.244Z</time>
      </trkpt>
      <trkpt lat="48.52617" lon="2.01705">
        <ele>95</ele>
        <time>2022-08-09T06:45:49.208Z</time>
      </trkpt>
      <trkpt lat="48.52613" lon="2.0171">
        <ele>94</ele>
        <time>2022-08-09T06:45:53.237Z</time>
      </trkpt>
      <trkpt lat="48.52606" lon="2.01716">
        <ele>94</ele>
        <time>2022-08-09T06:45:58.204Z</time>
      </trkpt>
      <trkpt lat="48.52601" lon="2.0172">
        <ele>94</ele>
        <time>2022-08-09T06:46:02.235Z</time>
      </trkpt>
      <trkpt lat="48.52595" lon="2.01725">
        <ele>94</ele>
        <time>2022-08-09T06:46:07.247Z</time>
      </trkpt>
      <trkpt lat="48.52588" lon="2.01731">
        <ele>94</ele>
        <time>2022-08-09T06:46:12.200Z</time>
      </trkpt>
      <trkpt lat="48.52583" lon="2.01734">
        <ele>94</ele>
        <time>2022-08-09T06:46:16.237Z</time>
      </trkpt>
      <trkpt lat="48.52576" lon="2.01737">
        <ele>93</ele>
        <time>2022-08-09T06:46:21.257Z</time>
      </trkpt>
      <trkpt lat="48.52568" lon="2.01734">
        <ele>94</ele>
        <time>2022-08-09T06:46:26.247Z</time>
      </trkpt>
      <trkpt lat="48.52563" lon="2.01731">
        <ele>94</ele>
        <time>2022-08-09T06:46:30.249Z</time>
      </trkpt>
      <trkpt lat="48.52557" lon="2.0173">
        <ele>94</ele>
        <time>2022-08-09T06:46:34.257Z</time>
      </trkpt>
      <trkpt lat="48.52552" lon="2.01727">
        <ele>94</ele>
        <time>2022-08-09T06:46:39.232Z</time>
      </trkpt>
      <trkpt lat="48.52547" lon="2.01726">
        <ele>94</ele>
        <time>2022-08-09T06:46:44.240Z</time>
      </trkpt>
      <trkpt lat="48.52542" lon="2.01722">
        <ele>94</ele>
        <time>2022-08-09T06:46:48.233Z</time>
      </trkpt>
      <trkpt lat="48.52535" lon="2.01718">
        <ele>94</ele>
        <time>2022-08-09T06:46:53.218Z</time>
      </trkpt>
      <trkpt lat="48.5253" lon="2.01716">
        <ele>94</ele>
        <time>2022-08-09T06:46:57.241Z</time>
      </trkpt>
      <trkpt lat="48.52522" lon="2.01713">
        <ele>94</ele>
        <time>2022-08-09T06:47:02.251Z</time>
      </trkpt>
      <trkpt lat="48.52516" lon="2.01716">
        <ele>94</ele>
        <time>2022-08-09T06:47:06.255Z</time>
      </trkpt>
      <trkpt lat="48.52514" lon="2.01726">
        <ele>94</ele>
        <time>2022-08-09T06:47:11.238Z</time>
      </trkpt>
      <trkpt lat="48.52511" lon="2.01733">
        <ele>94</ele>
        <time>2022-08-09T06:47:16.253Z</time>
      </trkpt>
      <trkpt lat="48.52509" lon="2.01742">
        <ele>94</ele>
        <time>2022-08-09T06:47:20.229Z</time>
      </trkpt>
      <trkpt lat="48.52508" lon="2.01754">
        <ele>94</ele>
        <time>2022-08-09T06:47:25.239Z</time>
      </trkpt>
      <trkpt lat="48.52506" lon="2.01764">
        <ele>94</ele>
        <time>2022-08-09T06:47:30.233Z</time>
      </trkpt>
      <trkpt lat="48.52505" lon="2.01771">
        <ele>94</ele>
        <time>2022-08-09T06:47:34.257Z</time>
      </trkpt>
      <trkpt lat="48.52505" lon="2.0178">
        <ele>94</ele>
        <time>2022-08-09T06:47:38.258Z</time>
      </trkpt>
      <trkpt lat="48.52504" lon="2.0179">
        <ele>94</ele>
        <time>2022-08-09T06:47:43.251Z</time>
      </trkpt>
      <trkpt lat="48.52503" lon="2.01802">
        <ele>94</ele>
        <time>2022-08-09T06:47:48.245Z</time>
      </trkpt>
      <trkpt lat="48.52503" lon="2.0181">
        <ele>94</ele>
        <time>2022-08-09T06:47:52.247Z</time>
      </trkpt>
      <trkpt lat="48.52502" lon="2.01822">
        <ele>95</ele>
        <time>2022-08-09T06:47:57.251Z</time>
      </trkpt>
      <trkpt lat="48.52502" lon="2.01833">
        <ele>95</ele>
        <time>2022-08-09T06:48:02.200Z</time>
      </trkpt>
      <trkpt lat="48.52503" lon="2.01842">
        <ele>95</ele>
        <time>2022-08-09T06:48:06.227Z</time>
      </trkpt>
      <trkpt lat="48.52505" lon="2.01851">
        <ele>96</ele>
        <time>2022-08-09T06:48:11.195Z</time>
      </trkpt>
      <trkpt lat="48.52506" lon="2.01859">
        <ele>96</ele>
        <time>2022-08-09T06:48:15.248Z</time>
      </trkpt>
      <trkpt lat="48.52508" lon="2.01869">
        <ele>96</ele>
        <time>2022-08-09T06:48:20.198Z</time>
      </trkpt>
      <trkpt lat="48.52508" lon="2.0188">
        <ele>97</ele>
        <time>2022-08-09T06:48:25.232Z</time>
      </trkpt>
      <trkpt lat="48.52509" lon="2.01889">
        <ele>97</ele>
        <time>2022-08-09T06:48:30.246Z</time>
      </trkpt>
      <trkpt lat="48.52509" lon="2.01899">
        <ele>97</ele>
        <time>2022-08-09T06:48:35.244Z</time>
      </trkpt>
      <trkpt lat="48.52508" lon="2.0191">
        <ele>98</ele>
        <time>2022-08-09T06:48:40.253Z</time>
      </trkpt>
      <trkpt lat="48.52507" lon="2.01922">
        <ele>98</ele>
        <time>2022-08-09T06:48:45.240Z</time>
      </trkpt>
      <trkpt lat="48.52507" lon="2.01933">
        <ele>99</ele>
        <time>2022-08-09T06:48:50.228Z</time>
      </trkpt>
      <trkpt lat="48.52505" lon="2.01941">
        <ele>99</ele>
        <time>2022-08-09T06:48:54.241Z</time>
      </trkpt>
      <trkpt lat="48.52502" lon="2.01951">
        <ele>99</ele>
        <time>2022-08-09T06:48:59.257Z</time>
      </trkpt>
      <trkpt lat="48.525" lon="2.0196">
        <ele>100</ele>
        <time>2022-08-09T06:49:04.239Z</time>
      </trkpt>
      <trkpt lat="48.52499" lon="2.01971">
        <ele>100</ele>
        <time>2022-08-09T06:49:09.237Z</time>
      </trkpt>
      <trkpt lat="48.52498" lon="2.01979">
        <ele>100</ele>
        <time>2022-08-09T06:49:13.264Z</time>
      </trkpt>
      <trkpt lat="48.52497" lon="2.01989">
        <ele>103</ele>
        <time>2022-08-09T06:49:18.243Z</time>
      </trkpt>
      <trkpt lat="48.52496" lon="2.01997">
        <ele>103</ele>
        <time>2022-08-09T06:49:22.264Z</time>
      </trkpt>
      <trkpt lat="48.52494" lon="2.02007">
        <ele>103</ele>
        <time>2022-08-09T06:49:27.266Z</time>
      </trkpt>
      <trkpt lat="48.52492" lon="2.02017">
        <ele>105</ele>
        <time>2022-08-09T06:49:32.242Z</time>
      </trkpt>
      <trkpt lat="48.52491" lon="2.02027">
        <ele>105</ele>
        <time>2022-08-09T06:49:37.242Z</time>
      </trkpt>
      <trkpt lat="48.52489" lon="2.02036">
        <ele>105</ele>
        <time>2022-08-09T06:49:41.253Z</time>
      </trkpt>
      <trkpt lat="48.52488" lon="2.02047">
        <ele>106</ele>
        <time>2022-08-09T06:49:46.247Z</time>
      </trkpt>
      <trkpt lat="48.52487" lon="2.02055">
        <ele>106</ele>
        <time>2022-08-09T06:49:50.243Z</time>
      </trkpt>
      <trkpt lat="48.52485" lon="2.02064">
        <ele>103</ele>
        <time>2022-08-09T06:49:55.249Z</time>
      </trkpt>
      <trkpt lat="48.52484" lon="2.02072">
        <ele>103</ele>
        <time>2022-08-09T06:49:59.262Z</time>
      </trkpt>
      <trkpt lat="48.52486" lon="2.02082">
        <ele>107</ele>
        <time>2022-08-09T06:50:04.203Z</time>
      </trkpt>
      <trkpt lat="48.52489" lon="2.0209">
        <ele>107</ele>
        <time>2022-08-09T06:50:08.245Z</time>
      </trkpt>
      <trkpt lat="48.52495" lon="2.02095">
        <ele>107</ele>
        <time>2022-08-09T06:50:13.241Z</time>
      </trkpt>
      <trkpt lat="48.52501" lon="2.02096">
        <ele>107</ele>
        <time>2022-08-09T06:50:17.247Z</time>
      </trkpt>
      <trkpt lat="48.52507" lon="2.02098">
        <ele>106</ele>
        <time>2022-08-09T06:50:22.226Z</time>
      </trkpt>
      <trkpt lat="48.52513" lon="2.02101">
        <ele>106</ele>
        <time>2022-08-09T06:50:26.251Z</time>
      </trkpt>
      <trkpt lat="48.5252" lon="2.02105">
        <ele>108</ele>
        <time>2022-08-09T06:50:31.193Z</time>
      </trkpt>
      <trkpt lat="48.52525" lon="2.02107">
        <ele>108</ele>
        <time>2022-08-09T06:50:35.250Z</time>
      </trkpt>
      <trkpt lat="48.5253" lon="2.02111">
        <ele>108</ele>
        <time>2022-08-09T06:50:39.231Z</time>
      </trkpt>
      <trkpt lat="48.52534" lon="2.02115">
        <ele>108</ele>
        <time>2022-08-09T06:50:43.242Z</time>
      </trkpt>
      <trkpt lat="48.5254" lon="2.0212">
        <ele>108</ele>
        <time>2022-08-09T06:50:48.234Z</time>
      </trkpt>
      <trkpt lat="48.52546" lon="2.02125">
        <ele>110</ele>
        <time>2022-08-09T06:50:52.243Z</time>
      </trkpt>
      <trkpt lat="48.52553" lon="2.0213">
        <ele>109</ele>
        <time>2022-08-09T06:50:57.206Z</time>
      </trkpt>
      <trkpt lat="48.52558" lon="2.02134">
        <ele>109</ele>
        <time>2022-08-09T06:51:01.242Z</time>
      </trkpt>
      <trkpt lat="48.52562" lon="2.02136">
        <ele>109</ele>
        <time>2022-08-09T06:51:05.245Z</time>
      </trkpt>
      <trkpt lat="48.52569" lon="2.02142">
        <ele>109</ele>
        <time>2022-08-09T06:51:10.263Z</time>
      </trkpt>
      <trkpt lat="48.52574" lon="2.02144">
        <ele>110</ele>
        <time>2022-08-09T06:51:15.243Z</time>
      </trkpt>
      <trkpt lat="48.52579" lon="2.02145">
        <ele>110</ele>
        <time>2022-08-09T06:51:20.223Z</time>
      </trkpt>
      <trkpt lat="48.52583" lon="2.02147">
        <ele>110</ele>
        <time>2022-08-09T06:51:24.239Z</time>
      </trkpt>
      <trkpt lat="48.52588" lon="2.02149">
        <ele>110</ele>
        <time>2022-08-09T06:51:28.246Z</time>
      </trkpt>
      <trkpt lat="48.52593" lon="2.02152">
        <ele>110</ele>
        <time>2022-08-09T06:51:32.247Z</time>
      </trkpt>
      <trkpt lat="48.526" lon="2.02156">
        <ele>110</ele>
        <time>2022-08-09T06:51:37.249Z</time>
      </trkpt>
      <trkpt lat="48.52607" lon="2.02161">
        <ele>110</ele>
        <time>2022-08-09T06:51:42.264Z</time>
      </trkpt>
      <trkpt lat="48.52612" lon="2.02165">
        <ele>110</ele>
        <time>2022-08-09T06:51:47.261Z</time>
      </trkpt>
      <trkpt lat="48.52618" lon="2.02168">
        <ele>110</ele>
        <time>2022-08-09T06:51:52.248Z</time>
      </trkpt>
      <trkpt lat="48.52622" lon="2.0217">
        <ele>110</ele>
        <time>2022-08-09T06:51:56.257Z</time>
      </trkpt>
      <trkpt lat="48.52627" lon="2.02173">
        <ele>106</ele>
        <time>2022-08-09T06:52:01.264Z</time>
      </trkpt>
      <trkpt lat="48.52632" lon="2.02177">
        <ele>106</ele>
        <time>2022-08-09T06:52:06.262Z</time>
      </trkpt>
      <trkpt lat="48.52637" lon="2.02182">
        <ele>108</ele>
        <time>2022-08-09T06:52:11.236Z</time>
      </trkpt>
      <trkpt lat="48.52642" lon="2.02186">
        <ele>108</ele>
        <time>2022-08-09T06:52:15.254Z</time>
      </trkpt>
      <trkpt lat="48.52646" lon="2.0219">
        <ele>108</ele>
        <time>2022-08-09T06:52:19.257Z</time>
      </trkpt>
      <trkpt lat="48.52652" lon="2.02198">
        <ele>108</ele>
        <time>2022-08-09T06:52:24.237Z</time>
      </trkpt>
      <trkpt lat="48.52659" lon="2.02206">
        <ele>100</ele>
        <time>2022-08-09T06:52:29.238Z</time>
      </trkpt>
      <trkpt lat="48.52665" lon="2.02212">
        <ele>101</ele>
        <time>2022-08-09T06:52:33.246Z</time>
      </trkpt>
      <trkpt lat="48.52669" lon="2.02221">
        <ele>101</ele>
        <time>2022-08-09T06:52:38.239Z</time>
      </trkpt>
      <trkpt lat="48.52673" lon="2.02227">
        <ele>101</ele>
        <time>2022-08-09T06:52:42.237Z</time>
      </trkpt>
      <trkpt lat="48.52677" lon="2.02234">
        <ele>101</ele>
        <time>2022-08-09T06:52:47.239Z</time>
      </trkpt>
      <trkpt lat="48.5268" lon="2.02242">
        <ele>100</ele>
        <time>2022-08-09T06:52:52.232Z</time>
      </trkpt>
      <trkpt lat="48.52683" lon="2.02249">
        <ele>94</ele>
        <time>2022-08-09T06:52:57.236Z</time>
      </trkpt>
      <trkpt lat="48.52687" lon="2.02256">
        <ele>94</ele>
        <time>2022-08-09T06:53:02.199Z</time>
      </trkpt>
      <trkpt lat="48.52689" lon="2.02262">
        <ele>94</ele>
        <time>2022-08-09T06:53:06.211Z</time>
      </trkpt>
      <trkpt lat="48.52691" lon="2.02269">
        <ele>95</ele>
        <time>2022-08-09T06:53:10.248Z</time>
      </trkpt>
      <trkpt lat="48.52694" lon="2.02276">
        <ele>95</ele>
        <time>2022-08-09T06:53:15.243Z</time>
      </trkpt>
      <trkpt lat="48.52698" lon="2.02284">
        <ele>95</ele>
        <time>2022-08-09T06:53:19.250Z</time>
      </trkpt>
      <trkpt lat="48.52702" lon="2.02291">
        <ele>95</ele>
        <time>2022-08-09T06:53:23.245Z</time>
      </trkpt>
      <trkpt lat="48.52707" lon="2.023">
        <ele>97</ele>
        <time>2022-08-09T06:53:28.235Z</time>
      </trkpt>
      <trkpt lat="48.52709" lon="2.02308">
        <ele>94</ele>
        <time>2022-08-09T06:53:32.253Z</time>
      </trkpt>
      <trkpt lat="48.52713" lon="2.02315">
        <ele>94</ele>
        <time>2022-08-09T06:53:36.258Z</time>
      </trkpt>
      <trkpt lat="48.52715" lon="2.02325">
        <ele>97</ele>
        <time>2022-08-09T06:53:41.251Z</time>
      </trkpt>
      <trkpt lat="48.52719" lon="2.02333">
        <ele>97</ele>
        <time>2022-08-09T06:53:46.244Z</time>
      </trkpt>
      <trkpt lat="48.52723" lon="2.02339">
        <ele>97</ele>
        <time>2022-08-09T06:53:50.235Z</time>
      </trkpt>
      <trkpt lat="48.52727" lon="2.02347">
        <ele>98</ele>
        <time>2022-08-09T06:53:55.232Z</time>
      </trkpt>
      <trkpt lat="48.52731" lon="2.02353">
        <ele>98</ele>
        <time>2022-08-09T06:53:59.240Z</time>
      </trkpt>
      <trkpt lat="48.52735" lon="2.0236">
        <ele>98</ele>
        <time>2022-08-09T06:54:03.256Z</time>
      </trkpt>
      <trkpt lat="48.52738" lon="2.02367">
        <ele>95</ele>
        <time>2022-08-09T06:54:07.253Z</time>
      </trkpt>
      <trkpt lat="48.52741" lon="2.02375">
        <ele>95</ele>
        <time>2022-08-09T06:54:12.247Z</time>
      </trkpt>
      <trkpt lat="48.52745" lon="2.02382">
        <ele>95</ele>
        <time>2022-08-09T06:54:17.246Z</time>
      </trkpt>
      <trkpt lat="48.52747" lon="2.0239">
        <ele>95</ele>
        <time>2022-08-09T06:54:21.275Z</time>
      </trkpt>
      <trkpt lat="48.52749" lon="2.02398">
        <ele>95</ele>
        <time>2022-08-09T06:54:26.239Z</time>
      </trkpt>
      <trkpt lat="48.52752" lon="2.02407">
        <ele>95</ele>
        <time>2022-08-09T06:54:30.251Z</time>
      </trkpt>
      <trkpt lat="48.52754" lon="2.02416">
        <ele>95</ele>
        <time>2022-08-09T06:54:35.244Z</time>
      </trkpt>
      <trkpt lat="48.52757" lon="2.02428">
        <ele>95</ele>
        <time>2022-08-09T06:54:40.246Z</time>
      </trkpt>
      <trkpt lat="48.52762" lon="2.02437">
        <ele>97</ele>
        <time>2022-08-09T06:54:45.191Z</time>
      </trkpt>
      <trkpt lat="48.52765" lon="2.02441">
        <ele>93</ele>
        <time>2022-08-09T06:54:49.194Z</time>
      </trkpt>
      <trkpt lat="48.52767" lon="2.02452">
        <ele>93</ele>
        <time>2022-08-09T06:54:54.186Z</time>
      </trkpt>
      <trkpt lat="48.52773" lon="2.02458">
        <ele>93</ele>
        <time>2022-08-09T06:54:58.232Z</time>
      </trkpt>
      <trkpt lat="48.52779" lon="2.02464">
        <ele>93</ele>
        <time>2022-08-09T06:55:03.210Z</time>
      </trkpt>
      <trkpt lat="48.52784" lon="2.02471">
        <ele>93</ele>
        <time>2022-08-09T06:55:07.240Z</time>
      </trkpt>
      <trkpt lat="48.52789" lon="2.02479">
        <ele>93</ele>
        <time>2022-08-09T06:55:12.250Z</time>
      </trkpt>
      <trkpt lat="48.52793" lon="2.02489">
        <ele>91</ele>
        <time>2022-08-09T06:55:17.254Z</time>
      </trkpt>
      <trkpt lat="48.52796" lon="2.02497">
        <ele>91</ele>
        <time>2022-08-09T06:55:22.245Z</time>
      </trkpt>
      <trkpt lat="48.528" lon="2.02506">
        <ele>91</ele>
        <time>2022-08-09T06:55:27.198Z</time>
      </trkpt>
      <trkpt lat="48.52803" lon="2.02515">
        <ele>92</ele>
        <time>2022-08-09T06:55:31.201Z</time>
      </trkpt>
      <trkpt lat="48.52807" lon="2.02524">
        <ele>92</ele>
        <time>2022-08-09T06:55:36.204Z</time>
      </trkpt>
      <trkpt lat="48.5281" lon="2.02531">
        <ele>92</ele>
        <time>2022-08-09T06:55:40.217Z</time>
      </trkpt>
      <trkpt lat="48.52811" lon="2.02539">
        <ele>92</ele>
        <time>2022-08-09T06:55:44.229Z</time>
      </trkpt>
      <trkpt lat="48.52813" lon="2.02547">
        <ele>92</ele>
        <time>2022-08-09T06:55:48.248Z</time>
      </trkpt>
      <trkpt lat="48.52817" lon="2.02558">
        <ele>92</ele>
        <time>2022-08-09T06:55:53.254Z</time>
      </trkpt>
      <trkpt lat="48.52818" lon="2.02569">
        <ele>92</ele>
        <time>2022-08-09T06:55:58.252Z</time>
      </trkpt>
      <trkpt lat="48.52818" lon="2.02578">
        <ele>92</ele>
        <time>2022-08-09T06:56:03.245Z</time>
      </trkpt>
      <trkpt lat="48.52818" lon="2.02586">
        <ele>92</ele>
        <time>2022-08-09T06:56:07.239Z</time>
      </trkpt>
      <trkpt lat="48.52818" lon="2.02596">
        <ele>92</ele>
        <time>2022-08-09T06:56:12.251Z</time>
      </trkpt>
      <trkpt lat="48.52819" lon="2.02607">
        <ele>92</ele>
        <time>2022-08-09T06:56:17.226Z</time>
      </trkpt>
      <trkpt lat="48.52821" lon="2.02618">
        <ele>90</ele>
        <time>2022-08-09T06:56:22.258Z</time>
      </trkpt>
      <trkpt lat="48.52823" lon="2.02629">
        <ele>91</ele>
        <time>2022-08-09T06:56:27.197Z</time>
      </trkpt>
      <trkpt lat="48.52824" lon="2.02638">
        <ele>91</ele>
        <time>2022-08-09T06:56:31.224Z</time>
      </trkpt>
      <trkpt lat="48.52824" lon="2.02647">
        <ele>91</ele>
        <time>2022-08-09T06:56:35.229Z</time>
      </trkpt>
      <trkpt lat="48.52824" lon="2.02658">
        <ele>91</ele>
        <time>2022-08-09T06:56:40.246Z</time>
      </trkpt>
      <trkpt lat="48.52822" lon="2.02668">
        <ele>91</ele>
        <time>2022-08-09T06:56:45.238Z</time>
      </trkpt>
      <trkpt lat="48.52819" lon="2.02676">
        <ele>92</ele>
        <time>2022-08-09T06:56:50.254Z</time>
      </trkpt>
      <trkpt lat="48.52817" lon="2.02684">
        <ele>92</ele>
        <time>2022-08-09T06:56:55.242Z</time>
      </trkpt>
      <trkpt lat="48.52816" lon="2.02692">
        <ele>92</ele>
        <time>2022-08-09T06:57:00.232Z</time>
      </trkpt>
      <trkpt lat="48.52813" lon="2.027">
        <ele>92</ele>
        <time>2022-08-09T06:57:04.237Z</time>
      </trkpt>
      <trkpt lat="48.5281" lon="2.02707">
        <ele>92</ele>
        <time>2022-08-09T06:57:08.272Z</time>
      </trkpt>
      <trkpt lat="48.5281" lon="2.02717">
        <ele>92</ele>
        <time>2022-08-09T06:57:13.230Z</time>
      </trkpt>
      <trkpt lat="48.52807" lon="2.02723">
        <ele>92</ele>
        <time>2022-08-09T06:57:18.263Z</time>
      </trkpt>
      <trkpt lat="48.52803" lon="2.02726">
        <ele>92</ele>
        <time>2022-08-09T06:57:23.244Z</time>
      </trkpt>
      <trkpt lat="48.528" lon="2.02734">
        <ele>92</ele>
        <time>2022-08-09T06:57:28.242Z</time>
      </trkpt>
      <trkpt lat="48.52795" lon="2.02737">
        <ele>92</ele>
        <time>2022-08-09T06:57:32.227Z</time>
      </trkpt>
      <trkpt lat="48.5279" lon="2.02744">
        <ele>94</ele>
        <time>2022-08-09T06:57:37.230Z</time>
      </trkpt>
      <trkpt lat="48.52784" lon="2.0275">
        <ele>94</ele>
        <time>2022-08-09T06:57:42.239Z</time>
      </trkpt>
      <trkpt lat="48.52778" lon="2.02756">
        <ele>94</ele>
        <time>2022-08-09T06:57:47.231Z</time>
      </trkpt>
      <trkpt lat="48.52773" lon="2.02762">
        <ele>94</ele>
        <time>2022-08-09T06:57:52.257Z</time>
      </trkpt>
      <trkpt lat="48.52767" lon="2.02769">
        <ele>94</ele>
        <time>2022-08-09T06:57:57.245Z</time>
      </trkpt>
      <trkpt lat="48.52761" lon="2.02776">
        <ele>95</ele>
        <time>2022-08-09T06:58:02.257Z</time>
      </trkpt>
      <trkpt lat="48.52757" lon="2.02781">
        <ele>95</ele>
        <time>2022-08-09T06:58:06.235Z</time>
      </trkpt>
      <trkpt lat="48.52752" lon="2.02786">
        <ele>95</ele>
        <time>2022-08-09T06:58:10.229Z</time>
      </trkpt>
      <trkpt lat="48.52747" lon="2.02792">
        <ele>94</ele>
        <time>2022-08-09T06:58:15.225Z</time>
      </trkpt>
      <trkpt lat="48.52743" lon="2.02797">
        <ele>94</ele>
        <time>2022-08-09T06:58:19.236Z</time>
      </trkpt>
      <trkpt lat="48.52739" lon="2.02801">
        <ele>94</ele>
        <time>2022-08-09T06:58:23.246Z</time>
      </trkpt>
      <trkpt lat="48.52735" lon="2.02809">
        <ele>94</ele>
        <time>2022-08-09T06:58:28.227Z</time>
      </trkpt>
      <trkpt lat="48.52729" lon="2.02811">
        <ele>94</ele>
        <time>2022-08-09T06:58:32.236Z</time>
      </trkpt>
      <trkpt lat="48.52722" lon="2.02812">
        <ele>94</ele>
        <time>2022-08-09T06:58:36.223Z</time>
      </trkpt>
      <trkpt lat="48.52715" lon="2.02813">
        <ele>94</ele>
        <time>2022-08-09T06:58:41.227Z</time>
      </trkpt>
      <trkpt lat="48.52708" lon="2.02814">
        <ele>94</ele>
        <time>2022-08-09T06:58:46.258Z</time>
      </trkpt>
      <trkpt lat="48.52701" lon="2.02817">
        <ele>94</ele>
        <time>2022-08-09T06:58:51.253Z</time>
      </trkpt>
      <trkpt lat="48.52694" lon="2.02819">
        <ele>94</ele>
        <time>2022-08-09T06:58:56.250Z</time>
      </trkpt>
      <trkpt lat="48.52687" lon="2.02822">
        <ele>94</ele>
        <time>2022-08-09T06:59:01.232Z</time>
      </trkpt>
      <trkpt lat="48.52679" lon="2.02825">
        <ele>94</ele>
        <time>2022-08-09T06:59:06.231Z</time>
      </trkpt>
      <trkpt lat="48.52673" lon="2.02828">
        <ele>94</ele>
        <time>2022-08-09T06:59:11.227Z</time>
      </trkpt>
      <trkpt lat="48.52667" lon="2.0283">
        <ele>94</ele>
        <time>2022-08-09T06:59:16.225Z</time>
      </trkpt>
      <trkpt lat="48.52662" lon="2.02832">
        <ele>94</ele>
        <time>2022-08-09T06:59:20.225Z</time>
      </trkpt>
      <trkpt lat="48.52656" lon="2.02835">
        <ele>94</ele>
        <time>2022-08-09T06:59:24.239Z</time>
      </trkpt>
      <trkpt lat="48.5265" lon="2.02836">
        <ele>93</ele>
        <time>2022-08-09T06:59:29.230Z</time>
      </trkpt>
      <trkpt lat="48.52645" lon="2.02838">
        <ele>93</ele>
        <time>2022-08-09T06:59:33.240Z</time>
      </trkpt>
      <trkpt lat="48.52637" lon="2.0284">
        <ele>93</ele>
        <time>2022-08-09T06:59:38.227Z</time>
      </trkpt>
      <trkpt lat="48.5263" lon="2.02843">
        <ele>93</ele>
        <time>2022-08-09T06:59:43.218Z</time>
      </trkpt>
      <trkpt lat="48.52628" lon="2.0285">
        <ele>93</ele>
        <time>2022-08-09T06:59:48.250Z</time>
      </trkpt>
      <trkpt lat="48.52629" lon="2.0286">
        <ele>93</ele>
        <time>2022-08-09T06:59:52.247Z</time>
      </trkpt>
      <trkpt lat="48.52628" lon="2.02867">
        <ele>93</ele>
        <time>2022-08-09T06:59:56.229Z</time>
      </trkpt>
      <trkpt lat="48.52623" lon="2.02874">
        <ele>93</ele>
        <time>2022-08-09T07:00:01.242Z</time>
      </trkpt>
      <trkpt lat="48.52622" lon="2.02882">
        <ele>92</ele>
        <time>2022-08-09T07:00:05.248Z</time>
      </trkpt>
      <trkpt lat="48.52615" lon="2.02885">
        <ele>92</ele>
        <time>2022-08-09T07:00:10.228Z</time>
      </trkpt>
      <trkpt lat="48.5261" lon="2.02886">
        <ele>92</ele>
        <time>2022-08-09T07:00:14.226Z</time>
      </trkpt>
      <trkpt lat="48.52604" lon="2.02888">
        <ele>92</ele>
        <time>2022-08-09T07:00:18.248Z</time>
      </trkpt>
      <trkpt lat="48.52598" lon="2.02889">
        <ele>92</ele>
        <time>2022-08-09T07:00:22.259Z</time>
      </trkpt>
      <trkpt lat="48.52591" lon="2.02892">
        <ele>94</ele>
        <time>2022-08-09T07:00:27.253Z</time>
      </trkpt>
      <trkpt lat="48.52585" lon="2.02894">
        <ele>94</ele>
        <time>2022-08-09T07:00:32.234Z</time>
      </trkpt>
      <trkpt lat="48.5258" lon="2.02898">
        <ele>94</ele>
        <time>2022-08-09T07:00:36.235Z</time>
      </trkpt>
      <trkpt lat="48.52578" lon="2.02906">
        <ele>96</ele>
        <time>2022-08-09T07:00:41.198Z</time>
      </trkpt>
      <trkpt lat="48.52578" lon="2.02912">
        <ele>96</ele>
        <time>2022-08-09T07:00:45.222Z</time>
      </trkpt>
      <trkpt lat="48.52577" lon="2.02921">
        <ele>96</ele>
        <time>2022-08-09T07:00:50.206Z</time>
      </trkpt>
      <trkpt lat="48.52577" lon="2.02929">
        <ele>96</ele>
        <time>2022-08-09T07:00:54.231Z</time>
      </trkpt>
      <trkpt lat="48.52577" lon="2.02934">
        <ele>97</ele>
        <time>2022-08-09T07:00:58.239Z</time>
      </trkpt>
      <trkpt lat="48.52577" lon="2.02941">
        <ele>97</ele>
        <time>2022-08-09T07:01:02.242Z</time>
      </trkpt>
      <trkpt lat="48.52578" lon="2.0295">
        <ele>97</ele>
        <time>2022-08-09T07:01:07.233Z</time>
      </trkpt>
      <trkpt lat="48.52579" lon="2.02957">
        <ele>97</ele>
        <time>2022-08-09T07:01:11.263Z</time>
      </trkpt>
      <trkpt lat="48.5258" lon="2.02965">
        <ele>98</ele>
        <time>2022-08-09T07:01:16.231Z</time>
      </trkpt>
      <trkpt lat="48.52581" lon="2.02975">
        <ele>98</ele>
        <time>2022-08-09T07:01:21.250Z</time>
      </trkpt>
      <trkpt lat="48.52581" lon="2.02986">
        <ele>98</ele>
        <time>2022-08-09T07:01:26.253Z</time>
      </trkpt>
      <trkpt lat="48.52581" lon="2.02997">
        <ele>98</ele>
        <time>2022-08-09T07:01:31.240Z</time>
      </trkpt>
      <trkpt lat="48.52582" lon="2.03008">
        <ele>98</ele>
        <time>2022-08-09T07:01:36.242Z</time>
      </trkpt>
      <trkpt lat="48.52582" lon="2.03019">
        <ele>99</ele>
        <time>2022-08-09T07:01:41.237Z</time>
      </trkpt>
      <trkpt lat="48.52583" lon="2.0303">
        <ele>99</ele>
        <time>2022-08-09T07:01:46.238Z</time>
      </trkpt>
      <trkpt lat="48.52583" lon="2.03042">
        <ele>98</ele>
        <time>2022-08-09T07:01:51.249Z</time>
      </trkpt>
      <trkpt lat="48.52585" lon="2.0305">
        <ele>98</ele>
        <time>2022-08-09T07:01:55.253Z</time>
      </trkpt>
      <trkpt lat="48.52585" lon="2.03059">
        <ele>98</ele>
        <time>2022-08-09T07:02:00.223Z</time>
      </trkpt>
      <trkpt lat="48.52586" lon="2.03068">
        <ele>98</ele>
        <time>2022-08-09T07:02:04.221Z</time>
      </trkpt>
      <trkpt lat="48.52587" lon="2.03077">
        <ele>96</ele>
        <time>2022-08-09T07:02:08.241Z</time>
      </trkpt>
      <trkpt lat="48.52587" lon="2.03089">
        <ele>96</ele>
        <time>2022-08-09T07:02:13.240Z</time>
      </trkpt>
      <trkpt lat="48.52589" lon="2.03101">
        <ele>96</ele>
        <time>2022-08-09T07:02:18.236Z</time>
      </trkpt>
      <trkpt lat="48.52591" lon="2.03112">
        <ele>96</ele>
        <time>2022-08-09T07:02:22.230Z</time>
      </trkpt>
      <trkpt lat="48.52593" lon="2.0312">
        <ele>96</ele>
        <time>2022-08-09T07:02:26.253Z</time>
      </trkpt>
      <trkpt lat="48.52596" lon="2.03132">
        <ele>95</ele>
        <time>2022-08-09T07:02:31.234Z</time>
      </trkpt>
      <trkpt lat="48.52599" lon="2.03141">
        <ele>92</ele>
        <time>2022-08-09T07:02:35.252Z</time>
      </trkpt>
      <trkpt lat="48.52602" lon="2.0315">
        <ele>92</ele>
        <time>2022-08-09T07:02:40.246Z</time>
      </trkpt>
      <trkpt lat="48.52604" lon="2.03158">
        <ele>92</ele>
        <time>2022-08-09T07:02:44.261Z</time>
      </trkpt>
      <trkpt lat="48.52605" lon="2.0317">
        <ele>92</ele>
        <time>2022-08-09T07:02:49.249Z</time>
      </trkpt>
      <trkpt lat="48.52607" lon="2.03182">
        <ele>92</ele>
        <time>2022-08-09T07:02:54.240Z</time>
      </trkpt>
      <trkpt lat="48.52609" lon="2.03193">
        <ele>92</ele>
        <time>2022-08-09T07:02:59.229Z</time>
      </trkpt>
      <trkpt lat="48.5261" lon="2.032">
        <ele>92</ele>
        <time>2022-08-09T07:03:03.246Z</time>
      </trkpt>
      <trkpt lat="48.52613" lon="2.03209">
        <ele>93</ele>
        <time>2022-08-09T07:03:07.237Z</time>
      </trkpt>
      <trkpt lat="48.52616" lon="2.03217">
        <ele>93</ele>
        <time>2022-08-09T07:03:11.237Z</time>
      </trkpt>
      <trkpt lat="48.52618" lon="2.03229">
        <ele>93</ele>
        <time>2022-08-09T07:03:16.239Z</time>
      </trkpt>
      <trkpt lat="48.5262" lon="2.03241">
        <ele>93</ele>
        <time>2022-08-09T07:03:21.228Z</time>
      </trkpt>
      <trkpt lat="48.52622" lon="2.03252">
        <ele>93</ele>
        <time>2022-08-09T07:03:25.228Z</time>
      </trkpt>
      <trkpt lat="48.52624" lon="2.03262">
        <ele>93</ele>
        <time>2022-08-09T07:03:30.258Z</time>
      </trkpt>
      <trkpt lat="48.52626" lon="2.03272">
        <ele>90</ele>
        <time>2022-08-09T07:03:35.243Z</time>
      </trkpt>
      <trkpt lat="48.52627" lon="2.03283">
        <ele>90</ele>
        <time>2022-08-09T07:03:40.226Z</time>
      </trkpt>
      <trkpt lat="48.52628" lon="2.03291">
        <ele>90</ele>
        <time>2022-08-09T07:03:44.221Z</time>
      </trkpt>
      <trkpt lat="48.52628" lon="2.03299">
        <ele>90</ele>
        <time>2022-08-09T07:03:48.245Z</time>
      </trkpt>
      <trkpt lat="48.52629" lon="2.0331">
        <ele>90</ele>
        <time>2022-08-09T07:03:53.212Z</time>
      </trkpt>
      <trkpt lat="48.52629" lon="2.03319">
        <ele>90</ele>
        <time>2022-08-09T07:03:57.229Z</time>
      </trkpt>
      <trkpt lat="48.5263" lon="2.03327">
        <ele>91</ele>
        <time>2022-08-09T07:04:01.229Z</time>
      </trkpt>
      <trkpt lat="48.5263" lon="2.03338">
        <ele>91</ele>
        <time>2022-08-09T07:04:06.220Z</time>
      </trkpt>
      <trkpt lat="48.5263" lon="2.03346">
        <ele>91</ele>
        <time>2022-08-09T07:04:10.246Z</time>
      </trkpt>
      <trkpt lat="48.5263" lon="2.03355">
        <ele>91</ele>
        <time>2022-08-09T07:04:14.239Z</time>
      </trkpt>
      <trkpt lat="48.52629" lon="2.03366">
        <ele>91</ele>
        <time>2022-08-09T07:04:19.233Z</time>
      </trkpt>
      <trkpt lat="48.52628" lon="2.03375">
        <ele>91</ele>
        <time>2022-08-09T07:04:23.274Z</time>
      </trkpt>
      <trkpt lat="48.52625" lon="2.03385">
        <ele>90</ele>
        <time>2022-08-09T07:04:28.239Z</time>
      </trkpt>
      <trkpt lat="48.52622" lon="2.03396">
        <ele>93</ele>
        <time>2022-08-09T07:04:33.235Z</time>
      </trkpt>
      <trkpt lat="48.52619" lon="2.03404">
        <ele>92</ele>
        <time>2022-08-09T07:04:37.234Z</time>
      </trkpt>
      <trkpt lat="48.52616" lon="2.03415">
        <ele>92</ele>
        <time>2022-08-09T07:04:42.218Z</time>
      </trkpt>
      <trkpt lat="48.52614" lon="2.03424">
        <ele>92</ele>
        <time>2022-08-09T07:04:46.230Z</time>
      </trkpt>
      <trkpt lat="48.52611" lon="2.03434">
        <ele>92</ele>
        <time>2022-08-09T07:04:51.253Z</time>
      </trkpt>
      <trkpt lat="48.52608" lon="2.03443">
        <ele>92</ele>
        <time>2022-08-09T07:04:55.245Z</time>
      </trkpt>
      <trkpt lat="48.52607" lon="2.03457">
        <ele>92</ele>
        <time>2022-08-09T07:05:00.226Z</time>
      </trkpt>
      <trkpt lat="48.52606" lon="2.03466">
        <ele>92</ele>
        <time>2022-08-09T07:05:04.235Z</time>
      </trkpt>
      <trkpt lat="48.52604" lon="2.03474">
        <ele>92</ele>
        <time>2022-08-09T07:05:08.233Z</time>
      </trkpt>
      <trkpt lat="48.52601" lon="2.03483">
        <ele>92</ele>
        <time>2022-08-09T07:05:13.223Z</time>
      </trkpt>
      <trkpt lat="48.52599" lon="2.03495">
        <ele>92</ele>
        <time>2022-08-09T07:05:18.246Z</time>
      </trkpt>
      <trkpt lat="48.52597" lon="2.03504">
        <ele>93</ele>
        <time>2022-08-09T07:05:22.265Z</time>
      </trkpt>
      <trkpt lat="48.52595" lon="2.03516">
        <ele>92</ele>
        <time>2022-08-09T07:05:27.237Z</time>
      </trkpt>
      <trkpt lat="48.52593" lon="2.03527">
        <ele>92</ele>
        <time>2022-08-09T07:05:32.232Z</time>
      </trkpt>
      <trkpt lat="48.5259" lon="2.03538">
        <ele>92</ele>
        <time>2022-08-09T07:05:37.246Z</time>
      </trkpt>
      <trkpt lat="48.52588" lon="2.03549">
        <ele>92</ele>
        <time>2022-08-09T07:05:42.219Z</time>
      </trkpt>
      <trkpt lat="48.52586" lon="2.03556">
        <ele>92</ele>
        <time>2022-08-09T07:05:46.244Z</time>
      </trkpt>
      <trkpt lat="48.52585" lon="2.03564">
        <ele>92</ele>
        <time>2022-08-09T07:05:50.228Z</time>
      </trkpt>
      <trkpt lat="48.52582" lon="2.03575">
        <ele>92</ele>
        <time>2022-08-09T07:05:55.243Z</time>
      </trkpt>
      <trkpt lat="48.52578" lon="2.03588">
        <ele>92</ele>
        <time>2022-08-09T07:06:00.249Z</time>
      </trkpt>
      <trkpt lat="48.52576" lon="2.03597">
        <ele>92</ele>
        <time>2022-08-09T07:06:04.239Z</time>
      </trkpt>
      <trkpt lat="48.52573" lon="2.03608">
        <ele>91</ele>
        <time>2022-08-09T07:06:09.226Z</time>
      </trkpt>
      <trkpt lat="48.52572" lon="2.03616">
        <ele>91</ele>
        <time>2022-08-09T07:06:13.272Z</time>
      </trkpt>
      <trkpt lat="48.5257" lon="2.03624">
        <ele>91</ele>
        <time>2022-08-09T07:06:18.261Z</time>
      </trkpt>
      <trkpt lat="48.52568" lon="2.03632">
        <ele>93</ele>
        <time>2022-08-09T07:06:23.243Z</time>
      </trkpt>
      <trkpt lat="48.52564" lon="2.03644">
        <ele>93</ele>
        <time>2022-08-09T07:06:28.235Z</time>
      </trkpt>
      <trkpt lat="48.52561" lon="2.03654">
        <ele>94</ele>
        <time>2022-08-09T07:06:33.237Z</time>
      </trkpt>
      <trkpt lat="48.52558" lon="2.03666">
        <ele>94</ele>
        <time>2022-08-09T07:06:38.215Z</time>
      </trkpt>
      <trkpt lat="48.52555" lon="2.03674">
        <ele>94</ele>
        <time>2022-08-09T07:06:42.242Z</time>
      </trkpt>
      <trkpt lat="48.52551" lon="2.03683">
        <ele>94</ele>
        <time>2022-08-09T07:06:47.243Z</time>
      </trkpt>
      <trkpt lat="48.52549" lon="2.03692">
        <ele>94</ele>
        <time>2022-08-09T07:06:52.246Z</time>
      </trkpt>
      <trkpt lat="48.52548" lon="2.037">
        <ele>94</ele>
        <time>2022-08-09T07:06:56.255Z</time>
      </trkpt>
      <trkpt lat="48.52545" lon="2.0371">
        <ele>95</ele>
        <time>2022-08-09T07:07:01.242Z</time>
      </trkpt>
      <trkpt lat="48.52543" lon="2.03719">
        <ele>95</ele>
        <time>2022-08-09T07:07:06.241Z</time>
      </trkpt>
      <trkpt lat="48.52541" lon="2.03726">
        <ele>94</ele>
        <time>2022-08-09T07:07:11.240Z</time>
      </trkpt>
      <trkpt lat="48.52536" lon="2.03736">
        <ele>94</ele>
        <time>2022-08-09T07:07:16.248Z</time>
      </trkpt>
      <trkpt lat="48.52533" lon="2.03743">
        <ele>94</ele>
        <time>2022-08-09T07:07:20.241Z</time>
      </trkpt>
      <trkpt lat="48.52529" lon="2.03752">
        <ele>94</ele>
        <time>2022-08-09T07:07:25.249Z</time>
      </trkpt>
      <trkpt lat="48.52526" lon="2.03763">
        <ele>94</ele>
        <time>2022-08-09T07:07:30.218Z</time>
      </trkpt>
      <trkpt lat="48.52522" lon="2.03773">
        <ele>96</ele>
        <time>2022-08-09T07:07:35.239Z</time>
      </trkpt>
      <trkpt lat="48.52519" lon="2.03783">
        <ele>96</ele>
        <time>2022-08-09T07:07:40.250Z</time>
      </trkpt>
      <trkpt lat="48.52515" lon="2.03793">
        <ele>97</ele>
        <time>2022-08-09T07:07:45.222Z</time>
      </trkpt>
      <trkpt lat="48.52511" lon="2.03799">
        <ele>98</ele>
        <time>2022-08-09T07:07:49.254Z</time>
      </trkpt>
      <trkpt lat="48.52508" lon="2.03811">
        <ele>98</ele>
        <time>2022-08-09T07:07:54.235Z</time>
      </trkpt>
      <trkpt lat="48.52505" lon="2.03821">
        <ele>100</ele>
        <time>2022-08-09T07:07:59.205Z</time>
      </trkpt>
      <trkpt lat="48.52502" lon="2.03828">
        <ele>100</ele>
        <time>2022-08-09T07:08:03.236Z</time>
      </trkpt>
      <trkpt lat="48.525" lon="2.03836">
        <ele>100</ele>
        <time>2022-08-09T07:08:08.257Z</time>
      </trkpt>
      <trkpt lat="48.52497" lon="2.03842">
        <ele>100</ele>
        <time>2022-08-09T07:08:12.255Z</time>
      </trkpt>
      <trkpt lat="48.52494" lon="2.03853">
        <ele>101</ele>
        <time>2022-08-09T07:08:17.259Z</time>
      </trkpt>
      <trkpt lat="48.52491" lon="2.03861">
        <ele>101</ele>
        <time>2022-08-09T07:08:21.255Z</time>
      </trkpt>
      <trkpt lat="48.52489" lon="2.03869">
        <ele>101</ele>
        <time>2022-08-09T07:08:26.248Z</time>
      </trkpt>
      <trkpt lat="48.52487" lon="2.03876">
        <ele>103</ele>
        <time>2022-08-09T07:08:31.274Z</time>
      </trkpt>
      <trkpt lat="48.52486" lon="2.03882">
        <ele>102</ele>
        <time>2022-08-09T07:08:36.261Z</time>
      </trkpt>
      <trkpt lat="48.52483" lon="2.03889">
        <ele>102</ele>
        <time>2022-08-09T07:08:41.241Z</time>
      </trkpt>
      <trkpt lat="48.52481" lon="2.03895">
        <ele>102</ele>
        <time>2022-08-09T07:08:45.249Z</time>
      </trkpt>
      <trkpt lat="48.52479" lon="2.03901">
        <ele>102</ele>
        <time>2022-08-09T07:08:50.247Z</time>
      </trkpt>
      <trkpt lat="48.52477" lon="2.0391">
        <ele>103</ele>
        <time>2022-08-09T07:08:55.238Z</time>
      </trkpt>
      <trkpt lat="48.52476" lon="2.03916">
        <ele>103</ele>
        <time>2022-08-09T07:08:59.248Z</time>
      </trkpt>
      <trkpt lat="48.52473" lon="2.03925">
        <ele>103</ele>
        <time>2022-08-09T07:09:04.254Z</time>
      </trkpt>
      <trkpt lat="48.52471" lon="2.03933">
        <ele>103</ele>
        <time>2022-08-09T07:09:09.230Z</time>
      </trkpt>
      <trkpt lat="48.52468" lon="2.03943">
        <ele>103</ele>
        <time>2022-08-09T07:09:14.245Z</time>
      </trkpt>
      <trkpt lat="48.52466" lon="2.03952">
        <ele>103</ele>
        <time>2022-08-09T07:09:19.209Z</time>
      </trkpt>
      <trkpt lat="48.52463" lon="2.03959">
        <ele>103</ele>
        <time>2022-08-09T07:09:23.242Z</time>
      </trkpt>
      <trkpt lat="48.52462" lon="2.03967">
        <ele>103</ele>
        <time>2022-08-09T07:09:27.232Z</time>
      </trkpt>
      <trkpt lat="48.52459" lon="2.03978">
        <ele>103</ele>
        <time>2022-08-09T07:09:32.254Z</time>
      </trkpt>
      <trkpt lat="48.52457" lon="2.03988">
        <ele>100</ele>
        <time>2022-08-09T07:09:36.250Z</time>
      </trkpt>
      <trkpt lat="48.52455" lon="2.03997">
        <ele>100</ele>
        <time>2022-08-09T07:09:40.255Z</time>
      </trkpt>
      <trkpt lat="48.52453" lon="2.04008">
        <ele>100</ele>
        <time>2022-08-09T07:09:45.230Z</time>
      </trkpt>
      <trkpt lat="48.52452" lon="2.04019">
        <ele>100</ele>
        <time>2022-08-09T07:09:50.256Z</time>
      </trkpt>
      <trkpt lat="48.52451" lon="2.04031">
        <ele>100</ele>
        <time>2022-08-09T07:09:55.241Z</time>
      </trkpt>
      <trkpt lat="48.52449" lon="2.04042">
        <ele>99</ele>
        <time>2022-08-09T07:10:00.221Z</time>
      </trkpt>
      <trkpt lat="48.52448" lon="2.0405">
        <ele>99</ele>
        <time>2022-08-09T07:10:04.258Z</time>
      </trkpt>
      <trkpt lat="48.52446" lon="2.04061">
        <ele>99</ele>
        <time>2022-08-09T07:10:09.250Z</time>
      </trkpt>
      <trkpt lat="48.52445" lon="2.04073">
        <ele>100</ele>
        <time>2022-08-09T07:10:14.260Z</time>
      </trkpt>
      <trkpt lat="48.52443" lon="2.04084">
        <ele>100</ele>
        <time>2022-08-09T07:10:19.259Z</time>
      </trkpt>
      <trkpt lat="48.52442" lon="2.04093">
        <ele>100</ele>
        <time>2022-08-09T07:10:23.272Z</time>
      </trkpt>
      <trkpt lat="48.5244" lon="2.04104">
        <ele>100</ele>
        <time>2022-08-09T07:10:28.235Z</time>
      </trkpt>
      <trkpt lat="48.52438" lon="2.04115">
        <ele>100</ele>
        <time>2022-08-09T07:10:33.233Z</time>
      </trkpt>
      <trkpt lat="48.52435" lon="2.04127">
        <ele>102</ele>
        <time>2022-08-09T07:10:38.242Z</time>
      </trkpt>
      <trkpt lat="48.52433" lon="2.04136">
        <ele>102</ele>
        <time>2022-08-09T07:10:42.262Z</time>
      </trkpt>
      <trkpt lat="48.52431" lon="2.04146">
        <ele>102</ele>
        <time>2022-08-09T07:10:47.246Z</time>
      </trkpt>
      <trkpt lat="48.52429" lon="2.04153">
        <ele>105</ele>
        <time>2022-08-09T07:10:51.226Z</time>
      </trkpt>
      <trkpt lat="48.52428" lon="2.04162">
        <ele>105</ele>
        <time>2022-08-09T07:10:56.250Z</time>
      </trkpt>
      <trkpt lat="48.52425" lon="2.04172">
        <ele>105</ele>
        <time>2022-08-09T07:11:01.239Z</time>
      </trkpt>
      <trkpt lat="48.52424" lon="2.04179">
        <ele>105</ele>
        <time>2022-08-09T07:11:05.242Z</time>
      </trkpt>
      <trkpt lat="48.52422" lon="2.04189">
        <ele>106</ele>
        <time>2022-08-09T07:11:10.260Z</time>
      </trkpt>
      <trkpt lat="48.52421" lon="2.04199">
        <ele>106</ele>
        <time>2022-08-09T07:11:15.246Z</time>
      </trkpt>
      <trkpt lat="48.5242" lon="2.0421">
        <ele>106</ele>
        <time>2022-08-09T07:11:19.246Z</time>
      </trkpt>
      <trkpt lat="48.52419" lon="2.0422">
        <ele>106</ele>
        <time>2022-08-09T07:11:24.257Z</time>
      </trkpt>
      <trkpt lat="48.52418" lon="2.04232">
        <ele>106</ele>
        <time>2022-08-09T07:11:29.227Z</time>
      </trkpt>
      <trkpt lat="48.52417" lon="2.04242">
        <ele>106</ele>
        <time>2022-08-09T07:11:33.257Z</time>
      </trkpt>
      <trkpt lat="48.52418" lon="2.0425">
        <ele>106</ele>
        <time>2022-08-09T07:11:37.240Z</time>
      </trkpt>
      <trkpt lat="48.52418" lon="2.04261">
        <ele>106</ele>
        <time>2022-08-09T07:11:42.257Z</time>
      </trkpt>
      <trkpt lat="48.52417" lon="2.04272">
        <ele>105</ele>
        <time>2022-08-09T07:11:47.260Z</time>
      </trkpt>
      <trkpt lat="48.52416" lon="2.04282">
        <ele>105</ele>
        <time>2022-08-09T07:11:52.242Z</time>
      </trkpt>
      <trkpt lat="48.52416" lon="2.04294">
        <ele>105</ele>
        <time>2022-08-09T07:11:57.257Z</time>
      </trkpt>
      <trkpt lat="48.52415" lon="2.04305">
        <ele>105</ele>
        <time>2022-08-09T07:12:02.254Z</time>
      </trkpt>
      <trkpt lat="48.52416" lon="2.04316">
        <ele>105</ele>
        <time>2022-08-09T07:12:07.263Z</time>
      </trkpt>
      <trkpt lat="48.52417" lon="2.04324">
        <ele>106</ele>
        <time>2022-08-09T07:12:11.240Z</time>
      </trkpt>
      <trkpt lat="48.52417" lon="2.04333">
        <ele>106</ele>
        <time>2022-08-09T07:12:15.454Z</time>
      </trkpt>
      <trkpt lat="48.52418" lon="2.04344">
        <ele>106</ele>
        <time>2022-08-09T07:12:20.246Z</time>
      </trkpt>
      <trkpt lat="48.52418" lon="2.04353">
        <ele>107</ele>
        <time>2022-08-09T07:12:24.240Z</time>
      </trkpt>
      <trkpt lat="48.52418" lon="2.04363">
        <ele>107</ele>
        <time>2022-08-09T07:12:29.237Z</time>
      </trkpt>
      <trkpt lat="48.52418" lon="2.04372">
        <ele>107</ele>
        <time>2022-08-09T07:12:33.237Z</time>
      </trkpt>
      <trkpt lat="48.52416" lon="2.04382">
        <ele>107</ele>
        <time>2022-08-09T07:12:38.210Z</time>
      </trkpt>
      <trkpt lat="48.52416" lon="2.04391">
        <ele>107</ele>
        <time>2022-08-09T07:12:42.267Z</time>
      </trkpt>
      <trkpt lat="48.52415" lon="2.04401">
        <ele>107</ele>
        <time>2022-08-09T07:12:47.231Z</time>
      </trkpt>
      <trkpt lat="48.52414" lon="2.0441">
        <ele>107</ele>
        <time>2022-08-09T07:12:51.234Z</time>
      </trkpt>
      <trkpt lat="48.52414" lon="2.04421">
        <ele>107</ele>
        <time>2022-08-09T07:12:56.241Z</time>
      </trkpt>
      <trkpt lat="48.52414" lon="2.04432">
        <ele>107</ele>
        <time>2022-08-09T07:13:01.250Z</time>
      </trkpt>
      <trkpt lat="48.52413" lon="2.0444">
        <ele>107</ele>
        <time>2022-08-09T07:13:05.230Z</time>
      </trkpt>
      <trkpt lat="48.52412" lon="2.04451">
        <ele>107</ele>
        <time>2022-08-09T07:13:10.237Z</time>
      </trkpt>
      <trkpt lat="48.5241" lon="2.0446">
        <ele>108</ele>
        <time>2022-08-09T07:13:14.264Z</time>
      </trkpt>
      <trkpt lat="48.52408" lon="2.04474">
        <ele>108</ele>
        <time>2022-08-09T07:13:19.265Z</time>
      </trkpt>
      <trkpt lat="48.52405" lon="2.04486">
        <ele>109</ele>
        <time>2022-08-09T07:13:24.240Z</time>
      </trkpt>
      <trkpt lat="48.52403" lon="2.04495">
        <ele>109</ele>
        <time>2022-08-09T07:13:28.273Z</time>
      </trkpt>
      <trkpt lat="48.52401" lon="2.04506">
        <ele>110</ele>
        <time>2022-08-09T07:13:33.243Z</time>
      </trkpt>
      <trkpt lat="48.52399" lon="2.04518">
        <ele>110</ele>
        <time>2022-08-09T07:13:38.243Z</time>
      </trkpt>
      <trkpt lat="48.52398" lon="2.04528">
        <ele>110</ele>
        <time>2022-08-09T07:13:42.253Z</time>
      </trkpt>
      <trkpt lat="48.52396" lon="2.0454">
        <ele>110</ele>
        <time>2022-08-09T07:13:47.254Z</time>
      </trkpt>
      <trkpt lat="48.52395" lon="2.04549">
        <ele>110</ele>
        <time>2022-08-09T07:13:51.267Z</time>
      </trkpt>
      <trkpt lat="48.52394" lon="2.04561">
        <ele>110</ele>
        <time>2022-08-09T07:13:56.248Z</time>
      </trkpt>
      <trkpt lat="48.52393" lon="2.04572">
        <ele>110</ele>
        <time>2022-08-09T07:14:01.256Z</time>
      </trkpt>
      <trkpt lat="48.52392" lon="2.04584">
        <ele>110</ele>
        <time>2022-08-09T07:14:06.265Z</time>
      </trkpt>
      <trkpt lat="48.52391" lon="2.04595">
        <ele>110</ele>
        <time>2022-08-09T07:14:11.239Z</time>
      </trkpt>
      <trkpt lat="48.5239" lon="2.04606">
        <ele>112</ele>
        <time>2022-08-09T07:14:16.223Z</time>
      </trkpt>
      <trkpt lat="48.52389" lon="2.04614">
        <ele>112</ele>
        <time>2022-08-09T07:14:21.202Z</time>
      </trkpt>
      <trkpt lat="48.52389" lon="2.0462">
        <ele>112</ele>
        <time>2022-08-09T07:14:25.234Z</time>
      </trkpt>
      <trkpt lat="48.52388" lon="2.04627">
        <ele>112</ele>
        <time>2022-08-09T07:14:30.220Z</time>
      </trkpt>
      <trkpt lat="48.52386" lon="2.04637">
        <ele>112</ele>
        <time>2022-08-09T07:14:35.242Z</time>
      </trkpt>
      <trkpt lat="48.52384" lon="2.04646">
        <ele>112</ele>
        <time>2022-08-09T07:14:39.238Z</time>
      </trkpt>
      <trkpt lat="48.52382" lon="2.04654">
        <ele>114</ele>
        <time>2022-08-09T07:14:43.271Z</time>
      </trkpt>
      <trkpt lat="48.52381" lon="2.04662">
        <ele>114</ele>
        <time>2022-08-09T07:14:47.246Z</time>
      </trkpt>
      <trkpt lat="48.52379" lon="2.04672">
        <ele>114</ele>
        <time>2022-08-09T07:14:52.265Z</time>
      </trkpt>
      <trkpt lat="48.52377" lon="2.04683">
        <ele>116</ele>
        <time>2022-08-09T07:14:57.252Z</time>
      </trkpt>
      <trkpt lat="48.52376" lon="2.04691">
        <ele>116</ele>
        <time>2022-08-09T07:15:01.249Z</time>
      </trkpt>
      <trkpt lat="48.52374" lon="2.04699">
        <ele>115</ele>
        <time>2022-08-09T07:15:06.246Z</time>
      </trkpt>
      <trkpt lat="48.52372" lon="2.0471">
        <ele>117</ele>
        <time>2022-08-09T07:15:11.248Z</time>
      </trkpt>
      <trkpt lat="48.5237" lon="2.04716">
        <ele>117</ele>
        <time>2022-08-09T07:15:15.253Z</time>
      </trkpt>
      <trkpt lat="48.5237" lon="2.04724">
        <ele>117</ele>
        <time>2022-08-09T07:15:19.260Z</time>
      </trkpt>
      <trkpt lat="48.52368" lon="2.04732">
        <ele>117</ele>
        <time>2022-08-09T07:15:23.267Z</time>
      </trkpt>
      <trkpt lat="48.52367" lon="2.04739">
        <ele>117</ele>
        <time>2022-08-09T07:15:27.266Z</time>
      </trkpt>
      <trkpt lat="48.52365" lon="2.04751">
        <ele>117</ele>
        <time>2022-08-09T07:15:32.254Z</time>
      </trkpt>
      <trkpt lat="48.52363" lon="2.04758">
        <ele>117</ele>
        <time>2022-08-09T07:15:36.258Z</time>
      </trkpt>
      <trkpt lat="48.52361" lon="2.04768">
        <ele>118</ele>
        <time>2022-08-09T07:15:41.273Z</time>
      </trkpt>
      <trkpt lat="48.52359" lon="2.04778">
        <ele>118</ele>
        <time>2022-08-09T07:15:46.263Z</time>
      </trkpt>
      <trkpt lat="48.52356" lon="2.04788">
        <ele>118</ele>
        <time>2022-08-09T07:15:51.251Z</time>
      </trkpt>
      <trkpt lat="48.52353" lon="2.04798">
        <ele>118</ele>
        <time>2022-08-09T07:15:56.260Z</time>
      </trkpt>
      <trkpt lat="48.5235" lon="2.04808">
        <ele>118</ele>
        <time>2022-08-09T07:16:01.239Z</time>
      </trkpt>
      <trkpt lat="48.52347" lon="2.04819">
        <ele>118</ele>
        <time>2022-08-09T07:16:06.270Z</time>
      </trkpt>
      <trkpt lat="48.52344" lon="2.04828">
        <ele>118</ele>
        <time>2022-08-09T07:16:11.258Z</time>
      </trkpt>
      <trkpt lat="48.52341" lon="2.04836">
        <ele>118</ele>
        <time>2022-08-09T07:16:15.261Z</time>
      </trkpt>
      <trkpt lat="48.52339" lon="2.04847">
        <ele>119</ele>
        <time>2022-08-09T07:16:20.220Z</time>
      </trkpt>
      <trkpt lat="48.52337" lon="2.04856">
        <ele>119</ele>
        <time>2022-08-09T07:16:24.236Z</time>
      </trkpt>
      <trkpt lat="48.52333" lon="2.04866">
        <ele>119</ele>
        <time>2022-08-09T07:16:29.238Z</time>
      </trkpt>
      <trkpt lat="48.52331" lon="2.04876">
        <ele>120</ele>
        <time>2022-08-09T07:16:34.212Z</time>
      </trkpt>
      <trkpt lat="48.5233" lon="2.04882">
        <ele>120</ele>
        <time>2022-08-09T07:16:38.257Z</time>
      </trkpt>
      <trkpt lat="48.52328" lon="2.0489">
        <ele>120</ele>
        <time>2022-08-09T07:16:43.248Z</time>
      </trkpt>
      <trkpt lat="48.52327" lon="2.04899">
        <ele>120</ele>
        <time>2022-08-09T07:16:48.253Z</time>
      </trkpt>
      <trkpt lat="48.52325" lon="2.04907">
        <ele>119</ele>
        <time>2022-08-09T07:16:53.216Z</time>
      </trkpt>
      <trkpt lat="48.52323" lon="2.04915">
        <ele>119</ele>
        <time>2022-08-09T07:16:57.264Z</time>
      </trkpt>
      <trkpt lat="48.5232" lon="2.04924">
        <ele>119</ele>
        <time>2022-08-09T07:17:02.253Z</time>
      </trkpt>
      <trkpt lat="48.52319" lon="2.04933">
        <ele>118</ele>
        <time>2022-08-09T07:17:06.267Z</time>
      </trkpt>
      <trkpt lat="48.52317" lon="2.04943">
        <ele>118</ele>
        <time>2022-08-09T07:17:11.251Z</time>
      </trkpt>
      <trkpt lat="48.52314" lon="2.04955">
        <ele>118</ele>
        <time>2022-08-09T07:17:16.246Z</time>
      </trkpt>
      <trkpt lat="48.52311" lon="2.04965">
        <ele>117</ele>
        <time>2022-08-09T07:17:21.245Z</time>
      </trkpt>
      <trkpt lat="48.52307" lon="2.04973">
        <ele>117</ele>
        <time>2022-08-09T07:17:25.269Z</time>
      </trkpt>
      <trkpt lat="48.52303" lon="2.04981">
        <ele>117</ele>
        <time>2022-08-09T07:17:30.243Z</time>
      </trkpt>
      <trkpt lat="48.523" lon="2.04989">
        <ele>115</ele>
        <time>2022-08-09T07:17:34.263Z</time>
      </trkpt>
      <trkpt lat="48.52297" lon="2.04995">
        <ele>115</ele>
        <time>2022-08-09T07:17:39.201Z</time>
      </trkpt>
      <trkpt lat="48.52295" lon="2.04997">
        <ele>115</ele>
        <time>2022-08-09T07:17:43.212Z</time>
      </trkpt>
      <trkpt lat="48.52295" lon="2.05">
        <ele>115</ele>
        <time>2022-08-09T07:17:47.221Z</time>
      </trkpt>
      <trkpt lat="48.52294" lon="2.05007">
        <ele>115</ele>
        <time>2022-08-09T07:17:51.225Z</time>
      </trkpt>
      <trkpt lat="48.52292" lon="2.05015">
        <ele>113</ele>
        <time>2022-08-09T07:17:55.253Z</time>
      </trkpt>
      <trkpt lat="48.5229" lon="2.05023">
        <ele>115</ele>
        <time>2022-08-09T07:17:59.253Z</time>
      </trkpt>
      <trkpt lat="48.52286" lon="2.05032">
        <ele>115</ele>
        <time>2022-08-09T07:18:04.233Z</time>
      </trkpt>
      <trkpt lat="48.52283" lon="2.05041">
        <ele>115</ele>
        <time>2022-08-09T07:18:08.257Z</time>
      </trkpt>
      <trkpt lat="48.52278" lon="2.0505">
        <ele>114</ele>
        <time>2022-08-09T07:18:13.251Z</time>
      </trkpt>
      <trkpt lat="48.52275" lon="2.05058">
        <ele>114</ele>
        <time>2022-08-09T07:18:17.254Z</time>
      </trkpt>
      <trkpt lat="48.52271" lon="2.05065">
        <ele>114</ele>
        <time>2022-08-09T07:18:21.246Z</time>
      </trkpt>
      <trkpt lat="48.52268" lon="2.05073">
        <ele>113</ele>
        <time>2022-08-09T07:18:26.249Z</time>
      </trkpt>
      <trkpt lat="48.52263" lon="2.05081">
        <ele>114</ele>
        <time>2022-08-09T07:18:31.243Z</time>
      </trkpt>
      <trkpt lat="48.52259" lon="2.05088">
        <ele>114</ele>
        <time>2022-08-09T07:18:36.207Z</time>
      </trkpt>
      <trkpt lat="48.52253" lon="2.05093">
        <ele>114</ele>
        <time>2022-08-09T07:18:40.230Z</time>
      </trkpt>
      <trkpt lat="48.52247" lon="2.05096">
        <ele>114</ele>
        <time>2022-08-09T07:18:44.243Z</time>
      </trkpt>
      <trkpt lat="48.52242" lon="2.05101">
        <ele>113</ele>
        <time>2022-08-09T07:18:48.243Z</time>
      </trkpt>
      <trkpt lat="48.52235" lon="2.05107">
        <ele>115</ele>
        <time>2022-08-09T07:18:53.226Z</time>
      </trkpt>
      <trkpt lat="48.5223" lon="2.05113">
        <ele>115</ele>
        <time>2022-08-09T07:18:57.259Z</time>
      </trkpt>
      <trkpt lat="48.52225" lon="2.05121">
        <ele>115</ele>
        <time>2022-08-09T07:19:02.251Z</time>
      </trkpt>
      <trkpt lat="48.5222" lon="2.05131">
        <ele>115</ele>
        <time>2022-08-09T07:19:07.227Z</time>
      </trkpt>
      <trkpt lat="48.52216" lon="2.05138">
        <ele>115</ele>
        <time>2022-08-09T07:19:11.244Z</time>
      </trkpt>
      <trkpt lat="48.52211" lon="2.05147">
        <ele>115</ele>
        <time>2022-08-09T07:19:16.211Z</time>
      </trkpt>
      <trkpt lat="48.52208" lon="2.05154">
        <ele>118</ele>
        <time>2022-08-09T07:19:20.241Z</time>
      </trkpt>
      <trkpt lat="48.52204" lon="2.0516">
        <ele>118</ele>
        <time>2022-08-09T07:19:24.231Z</time>
      </trkpt>
      <trkpt lat="48.52198" lon="2.05168">
        <ele>118</ele>
        <time>2022-08-09T07:19:29.246Z</time>
      </trkpt>
      <trkpt lat="48.52193" lon="2.05176">
        <ele>118</ele>
        <time>2022-08-09T07:19:34.237Z</time>
      </trkpt>
      <trkpt lat="48.52191" lon="2.05184">
        <ele>118</ele>
        <time>2022-08-09T07:19:38.251Z</time>
      </trkpt>
      <trkpt lat="48.52186" lon="2.05193">
        <ele>118</ele>
        <time>2022-08-09T07:19:43.240Z</time>
      </trkpt>
      <trkpt lat="48.52183" lon="2.052">
        <ele>118</ele>
        <time>2022-08-09T07:19:47.262Z</time>
      </trkpt>
      <trkpt lat="48.52178" lon="2.05207">
        <ele>118</ele>
        <time>2022-08-09T07:19:52.270Z</time>
      </trkpt>
      <trkpt lat="48.52173" lon="2.05214">
        <ele>119</ele>
        <time>2022-08-09T07:19:57.245Z</time>
      </trkpt>
      <trkpt lat="48.52167" lon="2.0522">
        <ele>119</ele>
        <time>2022-08-09T07:20:02.231Z</time>
      </trkpt>
      <trkpt lat="48.52162" lon="2.05226">
        <ele>119</ele>
        <time>2022-08-09T07:20:06.228Z</time>
      </trkpt>
      <trkpt lat="48.52158" lon="2.05233">
        <ele>119</ele>
        <time>2022-08-09T07:20:10.257Z</time>
      </trkpt>
      <trkpt lat="48.52152" lon="2.0524">
        <ele>124</ele>
        <time>2022-08-09T07:20:15.243Z</time>
      </trkpt>
      <trkpt lat="48.52147" lon="2.05247">
        <ele>124</ele>
        <time>2022-08-09T07:20:20.248Z</time>
      </trkpt>
      <trkpt lat="48.52143" lon="2.05253">
        <ele>124</ele>
        <time>2022-08-09T07:20:24.239Z</time>
      </trkpt>
      <trkpt lat="48.52137" lon="2.0526">
        <ele>124</ele>
        <time>2022-08-09T07:20:29.247Z</time>
      </trkpt>
      <trkpt lat="48.52132" lon="2.05268">
        <ele>128</ele>
        <time>2022-08-09T07:20:34.248Z</time>
      </trkpt>
      <trkpt lat="48.52126" lon="2.05274">
        <ele>128</ele>
        <time>2022-08-09T07:20:39.223Z</time>
      </trkpt>
      <trkpt lat="48.52122" lon="2.05279">
        <ele>125</ele>
        <time>2022-08-09T07:20:43.239Z</time>
      </trkpt>
      <trkpt lat="48.52118" lon="2.05283">
        <ele>125</ele>
        <time>2022-08-09T07:20:47.257Z</time>
      </trkpt>
      <trkpt lat="48.52113" lon="2.05291">
        <ele>125</ele>
        <time>2022-08-09T07:20:52.257Z</time>
      </trkpt>
      <trkpt lat="48.52108" lon="2.05298">
        <ele>127</ele>
        <time>2022-08-09T07:20:57.242Z</time>
      </trkpt>
      <trkpt lat="48.52103" lon="2.05306">
        <ele>127</ele>
        <time>2022-08-09T07:21:02.283Z</time>
      </trkpt>
      <trkpt lat="48.52099" lon="2.05313">
        <ele>127</ele>
        <time>2022-08-09T07:21:06.254Z</time>
      </trkpt>
      <trkpt lat="48.52093" lon="2.05321">
        <ele>122</ele>
        <time>2022-08-09T07:21:11.264Z</time>
      </trkpt>
      <trkpt lat="48.52088" lon="2.05329">
        <ele>122</ele>
        <time>2022-08-09T07:21:16.280Z</time>
      </trkpt>
      <trkpt lat="48.52084" lon="2.05336">
        <ele>122</ele>
        <time>2022-08-09T07:21:21.259Z</time>
      </trkpt>
      <trkpt lat="48.52078" lon="2.05344">
        <ele>122</ele>
        <time>2022-08-09T07:21:26.228Z</time>
      </trkpt>
      <trkpt lat="48.52073" lon="2.05349">
        <ele>124</ele>
        <time>2022-08-09T07:21:30.250Z</time>
      </trkpt>
      <trkpt lat="48.52069" lon="2.05355">
        <ele>123</ele>
        <time>2022-08-09T07:21:34.262Z</time>
      </trkpt>
      <trkpt lat="48.52064" lon="2.05363">
        <ele>123</ele>
        <time>2022-08-09T07:21:39.226Z</time>
      </trkpt>
      <trkpt lat="48.5206" lon="2.05368">
        <ele>123</ele>
        <time>2022-08-09T07:21:43.244Z</time>
      </trkpt>
      <trkpt lat="48.52055" lon="2.05376">
        <ele>124</ele>
        <time>2022-08-09T07:21:48.241Z</time>
      </trkpt>
      <trkpt lat="48.5205" lon="2.05382">
        <ele>124</ele>
        <time>2022-08-09T07:21:53.228Z</time>
      </trkpt>
      <trkpt lat="48.52045" lon="2.05388">
        <ele>124</ele>
        <time>2022-08-09T07:21:58.201Z</time>
      </trkpt>
      <trkpt lat="48.52037" lon="2.05401">
        <ele>124</ele>
        <time>2022-08-09T07:23:03.268Z</time>
      </trkpt>
      <trkpt lat="48.52031" lon="2.05406">
        <ele>126</ele>
        <time>2022-08-09T07:23:08.266Z</time>
      </trkpt>
      <trkpt lat="48.52024" lon="2.05412">
        <ele>126</ele>
        <time>2022-08-09T07:23:13.244Z</time>
      </trkpt>
      <trkpt lat="48.52019" lon="2.05416">
        <ele>126</ele>
        <time>2022-08-09T07:23:17.241Z</time>
      </trkpt>
      <trkpt lat="48.52014" lon="2.05421">
        <ele>126</ele>
        <time>2022-08-09T07:23:21.264Z</time>
      </trkpt>
      <trkpt lat="48.52009" lon="2.05429">
        <ele>128</ele>
        <time>2022-08-09T07:23:26.240Z</time>
      </trkpt>
      <trkpt lat="48.52004" lon="2.05436">
        <ele>130</ele>
        <time>2022-08-09T07:23:31.240Z</time>
      </trkpt>
      <trkpt lat="48.51999" lon="2.05442">
        <ele>130</ele>
        <time>2022-08-09T07:23:35.253Z</time>
      </trkpt>
      <trkpt lat="48.51993" lon="2.05449">
        <ele>130</ele>
        <time>2022-08-09T07:23:40.259Z</time>
      </trkpt>
      <trkpt lat="48.51989" lon="2.05455">
        <ele>130</ele>
        <time>2022-08-09T07:23:45.256Z</time>
      </trkpt>
      <trkpt lat="48.51985" lon="2.05461">
        <ele>138</ele>
        <time>2022-08-09T07:23:50.205Z</time>
      </trkpt>
      <trkpt lat="48.51981" lon="2.05465">
        <ele>138</ele>
        <time>2022-08-09T07:23:54.238Z</time>
      </trkpt>
      <trkpt lat="48.51978" lon="2.0547">
        <ele>138</ele>
        <time>2022-08-09T07:23:58.266Z</time>
      </trkpt>
      <trkpt lat="48.51971" lon="2.05474">
        <ele>138</ele>
        <time>2022-08-09T07:24:03.246Z</time>
      </trkpt>
      <trkpt lat="48.51966" lon="2.05477">
        <ele>138</ele>
        <time>2022-08-09T07:24:08.249Z</time>
      </trkpt>
      <trkpt lat="48.51963" lon="2.0548">
        <ele>138</ele>
        <time>2022-08-09T07:24:12.235Z</time>
      </trkpt>
      <trkpt lat="48.51959" lon="2.05484">
        <ele>138</ele>
        <time>2022-08-09T07:24:17.250Z</time>
      </trkpt>
      <trkpt lat="48.51956" lon="2.05488">
        <ele>147</ele>
        <time>2022-08-09T07:24:21.261Z</time>
      </trkpt>
      <trkpt lat="48.5195" lon="2.05494">
        <ele>147</ele>
        <time>2022-08-09T07:24:26.239Z</time>
      </trkpt>
      <trkpt lat="48.51946" lon="2.05497">
        <ele>147</ele>
        <time>2022-08-09T07:24:31.268Z</time>
      </trkpt>
      <trkpt lat="48.51942" lon="2.05501">
        <ele>147</ele>
        <time>2022-08-09T07:24:36.258Z</time>
      </trkpt>
      <trkpt lat="48.51937" lon="2.05506">
        <ele>147</ele>
        <time>2022-08-09T07:24:41.237Z</time>
      </trkpt>
      <trkpt lat="48.51933" lon="2.0551">
        <ele>147</ele>
        <time>2022-08-09T07:24:45.254Z</time>
      </trkpt>
      <trkpt lat="48.51928" lon="2.05515">
        <ele>152</ele>
        <time>2022-08-09T07:24:49.251Z</time>
      </trkpt>
      <trkpt lat="48.51925" lon="2.0552">
        <ele>152</ele>
        <time>2022-08-09T07:24:54.249Z</time>
      </trkpt>
      <trkpt lat="48.5192" lon="2.05524">
        <ele>152</ele>
        <time>2022-08-09T07:24:58.235Z</time>
      </trkpt>
      <trkpt lat="48.51914" lon="2.05527">
        <ele>152</ele>
        <time>2022-08-09T07:25:03.223Z</time>
      </trkpt>
      <trkpt lat="48.51909" lon="2.05531">
        <ele>152</ele>
        <time>2022-08-09T07:25:07.230Z</time>
      </trkpt>
      <trkpt lat="48.51905" lon="2.05531">
        <ele>152</ele>
        <time>2022-08-09T07:25:11.254Z</time>
      </trkpt>
      <trkpt lat="48.51899" lon="2.05535">
        <ele>153</ele>
        <time>2022-08-09T07:25:16.258Z</time>
      </trkpt>
      <trkpt lat="48.51894" lon="2.0554">
        <ele>153</ele>
        <time>2022-08-09T07:25:21.205Z</time>
      </trkpt>
      <trkpt lat="48.51889" lon="2.05541">
        <ele>153</ele>
        <time>2022-08-09T07:25:25.206Z</time>
      </trkpt>
      <trkpt lat="48.51882" lon="2.05548">
        <ele>153</ele>
        <time>2022-08-09T07:25:30.204Z</time>
      </trkpt>
      <trkpt lat="48.51874" lon="2.05553">
        <ele>153</ele>
        <time>2022-08-09T07:25:35.199Z</time>
      </trkpt>
      <trkpt lat="48.51868" lon="2.05558">
        <ele>153</ele>
        <time>2022-08-09T07:25:39.218Z</time>
      </trkpt>
      <trkpt lat="48.51863" lon="2.05563">
        <ele>153</ele>
        <time>2022-08-09T07:25:44.206Z</time>
      </trkpt>
      <trkpt lat="48.51862" lon="2.05575">
        <ele>154</ele>
        <time>2022-08-09T07:25:49.206Z</time>
      </trkpt>
      <trkpt lat="48.51865" lon="2.05583">
        <ele>154</ele>
        <time>2022-08-09T07:25:53.207Z</time>
      </trkpt>
      <trkpt lat="48.51868" lon="2.05589">
        <ele>154</ele>
        <time>2022-08-09T07:25:58.210Z</time>
      </trkpt>
      <trkpt lat="48.51872" lon="2.05592">
        <ele>154</ele>
        <time>2022-08-09T07:26:02.234Z</time>
      </trkpt>
      <trkpt lat="48.51878" lon="2.056">
        <ele>151</ele>
        <time>2022-08-09T07:26:07.206Z</time>
      </trkpt>
      <trkpt lat="48.51884" lon="2.05609">
        <ele>151</ele>
        <time>2022-08-09T07:26:12.218Z</time>
      </trkpt>
      <trkpt lat="48.51889" lon="2.05617">
        <ele>151</ele>
        <time>2022-08-09T07:26:17.200Z</time>
      </trkpt>
      <trkpt lat="48.51892" lon="2.05624">
        <ele>151</ele>
        <time>2022-08-09T07:26:21.216Z</time>
      </trkpt>
      <trkpt lat="48.51896" lon="2.0563">
        <ele>151</ele>
        <time>2022-08-09T07:26:25.231Z</time>
      </trkpt>
      <trkpt lat="48.519" lon="2.05636">
        <ele>151</ele>
        <time>2022-08-09T07:26:30.216Z</time>
      </trkpt>
      <trkpt lat="48.51905" lon="2.05646">
        <ele>151</ele>
        <time>2022-08-09T07:26:35.210Z</time>
      </trkpt>
      <trkpt lat="48.5191" lon="2.05654">
        <ele>152</ele>
        <time>2022-08-09T07:26:39.205Z</time>
      </trkpt>
      <trkpt lat="48.51914" lon="2.05662">
        <ele>152</ele>
        <time>2022-08-09T07:26:43.217Z</time>
      </trkpt>
      <trkpt lat="48.51918" lon="2.05669">
        <ele>152</ele>
        <time>2022-08-09T07:26:48.229Z</time>
      </trkpt>
      <trkpt lat="48.51923" lon="2.05678">
        <ele>152</ele>
        <time>2022-08-09T07:26:53.222Z</time>
      </trkpt>
      <trkpt lat="48.51928" lon="2.05684">
        <ele>152</ele>
        <time>2022-08-09T07:26:57.203Z</time>
      </trkpt>
      <trkpt lat="48.51932" lon="2.05692">
        <ele>151</ele>
        <time>2022-08-09T07:27:01.234Z</time>
      </trkpt>
      <trkpt lat="48.51938" lon="2.05701">
        <ele>151</ele>
        <time>2022-08-09T07:27:06.209Z</time>
      </trkpt>
      <trkpt lat="48.51942" lon="2.05708">
        <ele>151</ele>
        <time>2022-08-09T07:27:10.212Z</time>
      </trkpt>
      <trkpt lat="48.51946" lon="2.05714">
        <ele>151</ele>
        <time>2022-08-09T07:27:15.248Z</time>
      </trkpt>
      <trkpt lat="48.51952" lon="2.05722">
        <ele>151</ele>
        <time>2022-08-09T07:27:20.211Z</time>
      </trkpt>
      <trkpt lat="48.51954" lon="2.05728">
        <ele>151</ele>
        <time>2022-08-09T07:27:24.221Z</time>
      </trkpt>
      <trkpt lat="48.51959" lon="2.05736">
        <ele>148</ele>
        <time>2022-08-09T07:27:28.242Z</time>
      </trkpt>
      <trkpt lat="48.51964" lon="2.05745">
        <ele>149</ele>
        <time>2022-08-09T07:27:33.231Z</time>
      </trkpt>
      <trkpt lat="48.51967" lon="2.05751">
        <ele>149</ele>
        <time>2022-08-09T07:27:37.237Z</time>
      </trkpt>
      <trkpt lat="48.51972" lon="2.0576">
        <ele>149</ele>
        <time>2022-08-09T07:27:42.250Z</time>
      </trkpt>
      <trkpt lat="48.51975" lon="2.0577">
        <ele>150</ele>
        <time>2022-08-09T07:27:47.262Z</time>
      </trkpt>
      <trkpt lat="48.51979" lon="2.05778">
        <ele>150</ele>
        <time>2022-08-09T07:27:51.241Z</time>
      </trkpt>
      <trkpt lat="48.51981" lon="2.05785">
        <ele>150</ele>
        <time>2022-08-09T07:27:55.261Z</time>
      </trkpt>
      <trkpt lat="48.51986" lon="2.05792">
        <ele>150</ele>
        <time>2022-08-09T07:28:00.207Z</time>
      </trkpt>
      <trkpt lat="48.51988" lon="2.05792">
        <ele>150</ele>
        <time>2022-08-09T07:28:05.192Z</time>
      </trkpt>
      <trkpt lat="48.51988" lon="2.05801">
        <ele>150</ele>
        <time>2022-08-09T07:28:09.206Z</time>
      </trkpt>
      <trkpt lat="48.51992" lon="2.05809">
        <ele>150</ele>
        <time>2022-08-09T07:28:13.212Z</time>
      </trkpt>
      <trkpt lat="48.51996" lon="2.05815">
        <ele>150</ele>
        <time>2022-08-09T07:28:17.243Z</time>
      </trkpt>
      <trkpt lat="48.52" lon="2.05825">
        <ele>151</ele>
        <time>2022-08-09T07:28:22.226Z</time>
      </trkpt>
      <trkpt lat="48.52003" lon="2.05831">
        <ele>151</ele>
        <time>2022-08-09T07:28:26.255Z</time>
      </trkpt>
      <trkpt lat="48.52007" lon="2.05838">
        <ele>151</ele>
        <time>2022-08-09T07:28:30.250Z</time>
      </trkpt>
      <trkpt lat="48.5201" lon="2.05843">
        <ele>151</ele>
        <time>2022-08-09T07:28:34.257Z</time>
      </trkpt>
      <trkpt lat="48.52014" lon="2.05851">
        <ele>150</ele>
        <time>2022-08-09T07:28:38.279Z</time>
      </trkpt>
      <trkpt lat="48.52019" lon="2.05861">
        <ele>150</ele>
        <time>2022-08-09T07:28:43.210Z</time>
      </trkpt>
      <trkpt lat="48.52023" lon="2.05869">
        <ele>150</ele>
        <time>2022-08-09T07:28:47.217Z</time>
      </trkpt>
      <trkpt lat="48.52027" lon="2.05877">
        <ele>151</ele>
        <time>2022-08-09T07:28:52.212Z</time>
      </trkpt>
      <trkpt lat="48.52031" lon="2.05883">
        <ele>151</ele>
        <time>2022-08-09T07:28:56.227Z</time>
      </trkpt>
      <trkpt lat="48.52036" lon="2.05892">
        <ele>151</ele>
        <time>2022-08-09T07:29:01.239Z</time>
      </trkpt>
      <trkpt lat="48.5204" lon="2.05901">
        <ele>151</ele>
        <time>2022-08-09T07:29:05.248Z</time>
      </trkpt>
      <trkpt lat="48.52045" lon="2.0591">
        <ele>151</ele>
        <time>2022-08-09T07:29:10.222Z</time>
      </trkpt>
      <trkpt lat="48.52048" lon="2.05916">
        <ele>151</ele>
        <time>2022-08-09T07:29:14.271Z</time>
      </trkpt>
      <trkpt lat="48.52051" lon="2.05922">
        <ele>151</ele>
        <time>2022-08-09T07:29:18.248Z</time>
      </trkpt>
      <trkpt lat="48.52056" lon="2.05932">
        <ele>153</ele>
        <time>2022-08-09T07:29:23.240Z</time>
      </trkpt>
      <trkpt lat="48.52061" lon="2.05941">
        <ele>153</ele>
        <time>2022-08-09T07:29:28.263Z</time>
      </trkpt>
      <trkpt lat="48.52066" lon="2.0595">
        <ele>153</ele>
        <time>2022-08-09T07:29:33.206Z</time>
      </trkpt>
      <trkpt lat="48.5207" lon="2.05957">
        <ele>152</ele>
        <time>2022-08-09T07:29:37.241Z</time>
      </trkpt>
      <trkpt lat="48.52077" lon="2.05963">
        <ele>152</ele>
        <time>2022-08-09T07:29:42.248Z</time>
      </trkpt>
      <trkpt lat="48.52081" lon="2.05966">
        <ele>152</ele>
        <time>2022-08-09T07:29:46.235Z</time>
      </trkpt>
      <trkpt lat="48.52089" lon="2.05969">
        <ele>152</ele>
        <time>2022-08-09T07:29:51.253Z</time>
      </trkpt>
      <trkpt lat="48.52093" lon="2.05971">
        <ele>152</ele>
        <time>2022-08-09T07:29:55.275Z</time>
      </trkpt>
      <trkpt lat="48.52101" lon="2.05972">
        <ele>152</ele>
        <time>2022-08-09T07:30:00.245Z</time>
      </trkpt>
      <trkpt lat="48.52107" lon="2.05972">
        <ele>152</ele>
        <time>2022-08-09T07:30:04.236Z</time>
      </trkpt>
      <trkpt lat="48.52117" lon="2.05972">
        <ele>152</ele>
        <time>2022-08-09T07:30:09.274Z</time>
      </trkpt>
      <trkpt lat="48.52126" lon="2.05971">
        <ele>153</ele>
        <time>2022-08-09T07:30:14.255Z</time>
      </trkpt>
      <trkpt lat="48.52133" lon="2.0597">
        <ele>153</ele>
        <time>2022-08-09T07:30:19.238Z</time>
      </trkpt>
      <trkpt lat="48.52139" lon="2.0597">
        <ele>153</ele>
        <time>2022-08-09T07:30:24.258Z</time>
      </trkpt>
      <trkpt lat="48.52147" lon="2.05971">
        <ele>153</ele>
        <time>2022-08-09T07:30:29.235Z</time>
      </trkpt>
      <trkpt lat="48.52154" lon="2.0597">
        <ele>153</ele>
        <time>2022-08-09T07:30:33.256Z</time>
      </trkpt>
      <trkpt lat="48.52161" lon="2.0597">
        <ele>153</ele>
        <time>2022-08-09T07:30:38.242Z</time>
      </trkpt>
      <trkpt lat="48.52165" lon="2.05969">
        <ele>153</ele>
        <time>2022-08-09T07:30:42.269Z</time>
      </trkpt>
      <trkpt lat="48.52172" lon="2.05968">
        <ele>153</ele>
        <time>2022-08-09T07:30:47.271Z</time>
      </trkpt>
      <trkpt lat="48.52178" lon="2.05968">
        <ele>153</ele>
        <time>2022-08-09T07:30:51.257Z</time>
      </trkpt>
      <trkpt lat="48.52187" lon="2.05967">
        <ele>153</ele>
        <time>2022-08-09T07:30:56.249Z</time>
      </trkpt>
      <trkpt lat="48.52196" lon="2.05966">
        <ele>153</ele>
        <time>2022-08-09T07:31:01.234Z</time>
      </trkpt>
      <trkpt lat="48.52202" lon="2.05966">
        <ele>153</ele>
        <time>2022-08-09T07:31:05.240Z</time>
      </trkpt>
      <trkpt lat="48.52209" lon="2.05965">
        <ele>152</ele>
        <time>2022-08-09T07:31:10.243Z</time>
      </trkpt>
      <trkpt lat="48.52215" lon="2.05965">
        <ele>152</ele>
        <time>2022-08-09T07:31:14.262Z</time>
      </trkpt>
      <trkpt lat="48.52222" lon="2.05965">
        <ele>152</ele>
        <time>2022-08-09T07:31:19.239Z</time>
      </trkpt>
      <trkpt lat="48.5223" lon="2.05966">
        <ele>152</ele>
        <time>2022-08-09T07:31:24.255Z</time>
      </trkpt>
      <trkpt lat="48.52238" lon="2.05966">
        <ele>151</ele>
        <time>2022-08-09T07:31:29.261Z</time>
      </trkpt>
      <trkpt lat="48.52244" lon="2.05965">
        <ele>151</ele>
        <time>2022-08-09T07:31:33.256Z</time>
      </trkpt>
      <trkpt lat="48.52252" lon="2.05964">
        <ele>151</ele>
        <time>2022-08-09T07:31:38.265Z</time>
      </trkpt>
      <trkpt lat="48.52259" lon="2.05963">
        <ele>151</ele>
        <time>2022-08-09T07:31:43.242Z</time>
      </trkpt>
      <trkpt lat="48.52266" lon="2.05963">
        <ele>152</ele>
        <time>2022-08-09T07:31:48.240Z</time>
      </trkpt>
      <trkpt lat="48.5227" lon="2.05961">
        <ele>152</ele>
        <time>2022-08-09T07:31:52.259Z</time>
      </trkpt>
      <trkpt lat="48.52275" lon="2.05961">
        <ele>152</ele>
        <time>2022-08-09T07:31:57.234Z</time>
      </trkpt>
      <trkpt lat="48.5228" lon="2.05962">
        <ele>152</ele>
        <time>2022-08-09T07:32:01.242Z</time>
      </trkpt>
      <trkpt lat="48.52288" lon="2.05962">
        <ele>152</ele>
        <time>2022-08-09T07:32:06.233Z</time>
      </trkpt>
      <trkpt lat="48.52293" lon="2.05962">
        <ele>153</ele>
        <time>2022-08-09T07:32:10.247Z</time>
      </trkpt>
      <trkpt lat="48.52298" lon="2.0596">
        <ele>153</ele>
        <time>2022-08-09T07:32:14.250Z</time>
      </trkpt>
      <trkpt lat="48.52303" lon="2.05959">
        <ele>153</ele>
        <time>2022-08-09T07:32:18.260Z</time>
      </trkpt>
      <trkpt lat="48.52311" lon="2.05958">
        <ele>153</ele>
        <time>2022-08-09T07:32:23.241Z</time>
      </trkpt>
      <trkpt lat="48.52319" lon="2.05956">
        <ele>153</ele>
        <time>2022-08-09T07:32:27.250Z</time>
      </trkpt>
      <trkpt lat="48.52328" lon="2.05954">
        <ele>155</ele>
        <time>2022-08-09T07:32:32.259Z</time>
      </trkpt>
      <trkpt lat="48.52333" lon="2.05954">
        <ele>155</ele>
        <time>2022-08-09T07:32:36.265Z</time>
      </trkpt>
      <trkpt lat="48.52338" lon="2.05955">
        <ele>155</ele>
        <time>2022-08-09T07:32:40.274Z</time>
      </trkpt>
      <trkpt lat="48.52344" lon="2.05956">
        <ele>155</ele>
        <time>2022-08-09T07:32:45.228Z</time>
      </trkpt>
      <trkpt lat="48.5235" lon="2.05958">
        <ele>157</ele>
        <time>2022-08-09T07:32:49.236Z</time>
      </trkpt>
      <trkpt lat="48.52359" lon="2.0596">
        <ele>155</ele>
        <time>2022-08-09T07:32:54.255Z</time>
      </trkpt>
      <trkpt lat="48.52367" lon="2.0596">
        <ele>155</ele>
        <time>2022-08-09T07:32:59.243Z</time>
      </trkpt>
      <trkpt lat="48.52373" lon="2.05959">
        <ele>155</ele>
        <time>2022-08-09T07:33:04.210Z</time>
      </trkpt>
      <trkpt lat="48.52379" lon="2.05959">
        <ele>156</ele>
        <time>2022-08-09T07:33:08.242Z</time>
      </trkpt>
      <trkpt lat="48.52384" lon="2.05959">
        <ele>156</ele>
        <time>2022-08-09T07:33:12.275Z</time>
      </trkpt>
      <trkpt lat="48.52392" lon="2.05958">
        <ele>159</ele>
        <time>2022-08-09T07:33:17.241Z</time>
      </trkpt>
      <trkpt lat="48.52399" lon="2.05956">
        <ele>159</ele>
        <time>2022-08-09T07:33:21.243Z</time>
      </trkpt>
      <trkpt lat="48.52407" lon="2.05954">
        <ele>157</ele>
        <time>2022-08-09T07:33:26.236Z</time>
      </trkpt>
      <trkpt lat="48.52412" lon="2.05954">
        <ele>157</ele>
        <time>2022-08-09T07:33:30.253Z</time>
      </trkpt>
      <trkpt lat="48.52418" lon="2.05952">
        <ele>157</ele>
        <time>2022-08-09T07:33:34.237Z</time>
      </trkpt>
      <trkpt lat="48.52423" lon="2.05951">
        <ele>157</ele>
        <time>2022-08-09T07:33:38.239Z</time>
      </trkpt>
      <trkpt lat="48.5243" lon="2.05949">
        <ele>157</ele>
        <time>2022-08-09T07:33:42.227Z</time>
      </trkpt>
      <trkpt lat="48.52437" lon="2.05949">
        <ele>154</ele>
        <time>2022-08-09T07:33:47.210Z</time>
      </trkpt>
      <trkpt lat="48.52444" lon="2.05951">
        <ele>154</ele>
        <time>2022-08-09T07:33:52.203Z</time>
      </trkpt>
      <trkpt lat="48.52447" lon="2.05955">
        <ele>154</ele>
        <time>2022-08-09T07:33:56.254Z</time>
      </trkpt>
      <trkpt lat="48.52449" lon="2.05962">
        <ele>153</ele>
        <time>2022-08-09T07:34:01.226Z</time>
      </trkpt>
      <trkpt lat="48.5245" lon="2.0597">
        <ele>153</ele>
        <time>2022-08-09T07:34:05.252Z</time>
      </trkpt>
      <trkpt lat="48.5245" lon="2.05982">
        <ele>153</ele>
        <time>2022-08-09T07:34:10.207Z</time>
      </trkpt>
      <trkpt lat="48.52451" lon="2.05991">
        <ele>153</ele>
        <time>2022-08-09T07:34:14.216Z</time>
      </trkpt>
      <trkpt lat="48.52452" lon="2.06003">
        <ele>153</ele>
        <time>2022-08-09T07:34:19.241Z</time>
      </trkpt>
      <trkpt lat="48.52452" lon="2.06011">
        <ele>153</ele>
        <time>2022-08-09T07:34:23.229Z</time>
      </trkpt>
      <trkpt lat="48.52452" lon="2.06021">
        <ele>152</ele>
        <time>2022-08-09T07:34:28.246Z</time>
      </trkpt>
      <trkpt lat="48.52453" lon="2.06032">
        <ele>152</ele>
        <time>2022-08-09T07:34:33.252Z</time>
      </trkpt>
      <trkpt lat="48.52453" lon="2.06044">
        <ele>152</ele>
        <time>2022-08-09T07:34:38.247Z</time>
      </trkpt>
      <trkpt lat="48.52454" lon="2.06056">
        <ele>152</ele>
        <time>2022-08-09T07:34:43.245Z</time>
      </trkpt>
      <trkpt lat="48.52456" lon="2.06068">
        <ele>152</ele>
        <time>2022-08-09T07:34:48.221Z</time>
      </trkpt>
      <trkpt lat="48.52455" lon="2.06075">
        <ele>151</ele>
        <time>2022-08-09T07:34:52.229Z</time>
      </trkpt>
      <trkpt lat="48.52455" lon="2.06084">
        <ele>151</ele>
        <time>2022-08-09T07:34:57.237Z</time>
      </trkpt>
      <trkpt lat="48.52456" lon="2.0608">
        <ele>151</ele>
        <time>2022-08-09T07:35:02.254Z</time>
      </trkpt>
      <trkpt lat="48.5246" lon="2.06078">
        <ele>151</ele>
        <time>2022-08-09T07:35:07.249Z</time>
      </trkpt>
      <trkpt lat="48.52465" lon="2.06073">
        <ele>151</ele>
        <time>2022-08-09T07:35:12.201Z</time>
      </trkpt>
      <trkpt lat="48.52467" lon="2.06072">
        <ele>151</ele>
        <time>2022-08-09T07:35:16.228Z</time>
      </trkpt>
      <trkpt lat="48.52474" lon="2.06071">
        <ele>151</ele>
        <time>2022-08-09T07:35:21.236Z</time>
      </trkpt>
      <trkpt lat="48.52479" lon="2.06072">
        <ele>151</ele>
        <time>2022-08-09T07:35:25.224Z</time>
      </trkpt>
      <trkpt lat="48.52485" lon="2.0607">
        <ele>151</ele>
        <time>2022-08-09T07:35:29.251Z</time>
      </trkpt>
      <trkpt lat="48.52491" lon="2.06067">
        <ele>153</ele>
        <time>2022-08-09T07:35:33.265Z</time>
      </trkpt>
      <trkpt lat="48.52498" lon="2.06063">
        <ele>153</ele>
        <time>2022-08-09T07:35:38.233Z</time>
      </trkpt>
      <trkpt lat="48.52502" lon="2.0606">
        <ele>153</ele>
        <time>2022-08-09T07:35:42.249Z</time>
      </trkpt>
      <trkpt lat="48.52507" lon="2.06056">
        <ele>153</ele>
        <time>2022-08-09T07:35:46.247Z</time>
      </trkpt>
      <trkpt lat="48.52511" lon="2.06056">
        <ele>153</ele>
        <time>2022-08-09T07:35:51.202Z</time>
      </trkpt>
      <trkpt lat="48.52511" lon="2.06056">
        <ele>153</ele>
        <time>2022-08-09T07:35:55.248Z</time>
      </trkpt>
      <trkpt lat="48.52516" lon="2.06057">
        <ele>154</ele>
        <time>2022-08-09T07:36:00.210Z</time>
      </trkpt>
      <trkpt lat="48.52521" lon="2.06061">
        <ele>154</ele>
        <time>2022-08-09T07:36:04.261Z</time>
      </trkpt>
      <trkpt lat="48.52524" lon="2.0607">
        <ele>152</ele>
        <time>2022-08-09T07:36:09.232Z</time>
      </trkpt>
      <trkpt lat="48.52524" lon="2.0608">
        <ele>152</ele>
        <time>2022-08-09T07:36:14.248Z</time>
      </trkpt>
      <trkpt lat="48.52523" lon="2.06092">
        <ele>152</ele>
        <time>2022-08-09T07:36:19.200Z</time>
      </trkpt>
      <trkpt lat="48.52522" lon="2.06101">
        <ele>151</ele>
        <time>2022-08-09T07:36:23.244Z</time>
      </trkpt>
      <trkpt lat="48.52522" lon="2.06109">
        <ele>151</ele>
        <time>2022-08-09T07:36:27.235Z</time>
      </trkpt>
      <trkpt lat="48.52522" lon="2.06118">
        <ele>151</ele>
        <time>2022-08-09T07:36:31.263Z</time>
      </trkpt>
      <trkpt lat="48.52523" lon="2.0613">
        <ele>150</ele>
        <time>2022-08-09T07:36:36.260Z</time>
      </trkpt>
      <trkpt lat="48.52522" lon="2.06141">
        <ele>150</ele>
        <time>2022-08-09T07:36:41.244Z</time>
      </trkpt>
      <trkpt lat="48.52521" lon="2.06153">
        <ele>150</ele>
        <time>2022-08-09T07:36:46.250Z</time>
      </trkpt>
      <trkpt lat="48.52521" lon="2.06164">
        <ele>150</ele>
        <time>2022-08-09T07:36:51.245Z</time>
      </trkpt>
      <trkpt lat="48.52519" lon="2.06177">
        <ele>150</ele>
        <time>2022-08-09T07:36:56.266Z</time>
      </trkpt>
      <trkpt lat="48.52517" lon="2.06188">
        <ele>150</ele>
        <time>2022-08-09T07:37:01.258Z</time>
      </trkpt>
      <trkpt lat="48.52515" lon="2.062">
        <ele>150</ele>
        <time>2022-08-09T07:37:06.261Z</time>
      </trkpt>
      <trkpt lat="48.52514" lon="2.0621">
        <ele>149</ele>
        <time>2022-08-09T07:37:10.269Z</time>
      </trkpt>
      <trkpt lat="48.52513" lon="2.06221">
        <ele>149</ele>
        <time>2022-08-09T07:37:15.229Z</time>
      </trkpt>
      <trkpt lat="48.52512" lon="2.06229">
        <ele>149</ele>
        <time>2022-08-09T07:37:19.268Z</time>
      </trkpt>
      <trkpt lat="48.5251" lon="2.06239">
        <ele>149</ele>
        <time>2022-08-09T07:37:24.261Z</time>
      </trkpt>
      <trkpt lat="48.52511" lon="2.06244">
        <ele>149</ele>
        <time>2022-08-09T07:37:28.240Z</time>
      </trkpt>
      <trkpt lat="48.52512" lon="2.06253">
        <ele>149</ele>
        <time>2022-08-09T07:37:33.256Z</time>
      </trkpt>
      <trkpt lat="48.5251" lon="2.06263">
        <ele>149</ele>
        <time>2022-08-09T07:37:38.253Z</time>
      </trkpt>
      <trkpt lat="48.52509" lon="2.06272">
        <ele>148</ele>
        <time>2022-08-09T07:37:43.235Z</time>
      </trkpt>
      <trkpt lat="48.5251" lon="2.06281">
        <ele>148</ele>
        <time>2022-08-09T07:37:47.252Z</time>
      </trkpt>
      <trkpt lat="48.52509" lon="2.06291">
        <ele>148</ele>
        <time>2022-08-09T07:37:52.265Z</time>
      </trkpt>
      <trkpt lat="48.52508" lon="2.06299">
        <ele>147</ele>
        <time>2022-08-09T07:37:57.251Z</time>
      </trkpt>
      <trkpt lat="48.52507" lon="2.06307">
        <ele>147</ele>
        <time>2022-08-09T07:38:01.252Z</time>
      </trkpt>
      <trkpt lat="48.52507" lon="2.06317">
        <ele>147</ele>
        <time>2022-08-09T07:38:06.240Z</time>
      </trkpt>
      <trkpt lat="48.52508" lon="2.06325">
        <ele>146</ele>
        <time>2022-08-09T07:38:10.253Z</time>
      </trkpt>
      <trkpt lat="48.5251" lon="2.06332">
        <ele>146</ele>
        <time>2022-08-09T07:38:14.250Z</time>
      </trkpt>
      <trkpt lat="48.52511" lon="2.0634">
        <ele>146</ele>
        <time>2022-08-09T07:38:19.246Z</time>
      </trkpt>
      <trkpt lat="48.52514" lon="2.06348">
        <ele>146</ele>
        <time>2022-08-09T07:38:23.240Z</time>
      </trkpt>
      <trkpt lat="48.52519" lon="2.06354">
        <ele>146</ele>
        <time>2022-08-09T07:38:28.252Z</time>
      </trkpt>
      <trkpt lat="48.52524" lon="2.06361">
        <ele>146</ele>
        <time>2022-08-09T07:38:33.243Z</time>
      </trkpt>
      <trkpt lat="48.52528" lon="2.06367">
        <ele>146</ele>
        <time>2022-08-09T07:38:37.245Z</time>
      </trkpt>
      <trkpt lat="48.52534" lon="2.06375">
        <ele>146</ele>
        <time>2022-08-09T07:38:42.269Z</time>
      </trkpt>
      <trkpt lat="48.52538" lon="2.06381">
        <ele>146</ele>
        <time>2022-08-09T07:38:46.252Z</time>
      </trkpt>
      <trkpt lat="48.52543" lon="2.0639">
        <ele>146</ele>
        <time>2022-08-09T07:38:51.238Z</time>
      </trkpt>
      <trkpt lat="48.52547" lon="2.064">
        <ele>146</ele>
        <time>2022-08-09T07:38:56.248Z</time>
      </trkpt>
      <trkpt lat="48.52549" lon="2.06408">
        <ele>146</ele>
        <time>2022-08-09T07:39:00.233Z</time>
      </trkpt>
      <trkpt lat="48.52552" lon="2.06415">
        <ele>146</ele>
        <time>2022-08-09T07:39:04.262Z</time>
      </trkpt>
      <trkpt lat="48.52554" lon="2.06424">
        <ele>146</ele>
        <time>2022-08-09T07:39:08.272Z</time>
      </trkpt>
      <trkpt lat="48.52557" lon="2.06434">
        <ele>145</ele>
        <time>2022-08-09T07:39:13.239Z</time>
      </trkpt>
      <trkpt lat="48.52558" lon="2.06444">
        <ele>145</ele>
        <time>2022-08-09T07:39:17.241Z</time>
      </trkpt>
      <trkpt lat="48.52558" lon="2.06454">
        <ele>145</ele>
        <time>2022-08-09T07:39:22.252Z</time>
      </trkpt>
      <trkpt lat="48.5256" lon="2.06464">
        <ele>145</ele>
        <time>2022-08-09T07:39:27.263Z</time>
      </trkpt>
      <trkpt lat="48.52562" lon="2.06472">
        <ele>145</ele>
        <time>2022-08-09T07:39:31.269Z</time>
      </trkpt>
      <trkpt lat="48.52563" lon="2.06482">
        <ele>145</ele>
        <time>2022-08-09T07:39:36.252Z</time>
      </trkpt>
      <trkpt lat="48.52566" lon="2.06493">
        <ele>144</ele>
        <time>2022-08-09T07:39:41.255Z</time>
      </trkpt>
      <trkpt lat="48.5257" lon="2.06503">
        <ele>144</ele>
        <time>2022-08-09T07:39:46.270Z</time>
      </trkpt>
      <trkpt lat="48.52575" lon="2.06511">
        <ele>144</ele>
        <time>2022-08-09T07:39:51.246Z</time>
      </trkpt>
      <trkpt lat="48.52581" lon="2.06517">
        <ele>145</ele>
        <time>2022-08-09T07:39:56.234Z</time>
      </trkpt>
      <trkpt lat="48.52587" lon="2.06522">
        <ele>145</ele>
        <time>2022-08-09T07:40:01.251Z</time>
      </trkpt>
      <trkpt lat="48.52595" lon="2.06525">
        <ele>145</ele>
        <time>2022-08-09T07:40:06.238Z</time>
      </trkpt>
      <trkpt lat="48.52601" lon="2.06527">
        <ele>145</ele>
        <time>2022-08-09T07:40:10.251Z</time>
      </trkpt>
      <trkpt lat="48.52608" lon="2.06529">
        <ele>145</ele>
        <time>2022-08-09T07:40:15.232Z</time>
      </trkpt>
      <trkpt lat="48.52614" lon="2.06532">
        <ele>145</ele>
        <time>2022-08-09T07:40:20.266Z</time>
      </trkpt>
      <trkpt lat="48.52621" lon="2.06531">
        <ele>145</ele>
        <time>2022-08-09T07:40:25.250Z</time>
      </trkpt>
      <trkpt lat="48.52627" lon="2.06528">
        <ele>146</ele>
        <time>2022-08-09T07:40:30.260Z</time>
      </trkpt>
      <trkpt lat="48.52635" lon="2.06525">
        <ele>146</ele>
        <time>2022-08-09T07:40:35.258Z</time>
      </trkpt>
      <trkpt lat="48.52642" lon="2.06521">
        <ele>146</ele>
        <time>2022-08-09T07:40:40.243Z</time>
      </trkpt>
      <trkpt lat="48.52649" lon="2.06519">
        <ele>146</ele>
        <time>2022-08-09T07:40:45.259Z</time>
      </trkpt>
      <trkpt lat="48.52654" lon="2.06517">
        <ele>147</ele>
        <time>2022-08-09T07:40:50.256Z</time>
      </trkpt>
      <trkpt lat="48.52661" lon="2.06515">
        <ele>147</ele>
        <time>2022-08-09T07:40:55.230Z</time>
      </trkpt>
      <trkpt lat="48.52667" lon="2.06513">
        <ele>146</ele>
        <time>2022-08-09T07:40:59.229Z</time>
      </trkpt>
      <trkpt lat="48.52673" lon="2.06512">
        <ele>146</ele>
        <time>2022-08-09T07:41:03.270Z</time>
      </trkpt>
      <trkpt lat="48.52679" lon="2.06508">
        <ele>146</ele>
        <time>2022-08-09T07:41:08.272Z</time>
      </trkpt>
      <trkpt lat="48.52685" lon="2.06506">
        <ele>146</ele>
        <time>2022-08-09T07:41:12.257Z</time>
      </trkpt>
      <trkpt lat="48.52691" lon="2.06506">
        <ele>146</ele>
        <time>2022-08-09T07:41:17.267Z</time>
      </trkpt>
      <trkpt lat="48.52693" lon="2.06515">
        <ele>147</ele>
        <time>2022-08-09T07:41:22.242Z</time>
      </trkpt>
      <trkpt lat="48.52694" lon="2.06526">
        <ele>147</ele>
        <time>2022-08-09T07:41:27.243Z</time>
      </trkpt>
      <trkpt lat="48.52694" lon="2.06534">
        <ele>147</ele>
        <time>2022-08-09T07:41:31.267Z</time>
      </trkpt>
      <trkpt lat="48.52693" lon="2.06544">
        <ele>147</ele>
        <time>2022-08-09T07:41:36.205Z</time>
      </trkpt>
      <trkpt lat="48.52693" lon="2.06556">
        <ele>147</ele>
        <time>2022-08-09T07:41:41.236Z</time>
      </trkpt>
      <trkpt lat="48.52692" lon="2.06565">
        <ele>147</ele>
        <time>2022-08-09T07:41:45.243Z</time>
      </trkpt>
      <trkpt lat="48.52693" lon="2.06577">
        <ele>147</ele>
        <time>2022-08-09T07:41:50.218Z</time>
      </trkpt>
      <trkpt lat="48.52695" lon="2.06586">
        <ele>147</ele>
        <time>2022-08-09T07:41:54.224Z</time>
      </trkpt>
      <trkpt lat="48.52699" lon="2.06595">
        <ele>147</ele>
        <time>2022-08-09T07:41:59.202Z</time>
      </trkpt>
      <trkpt lat="48.52703" lon="2.06604">
        <ele>148</ele>
        <time>2022-08-09T07:42:04.205Z</time>
      </trkpt>
      <trkpt lat="48.52704" lon="2.06615">
        <ele>148</ele>
        <time>2022-08-09T07:42:09.192Z</time>
      </trkpt>
      <trkpt lat="48.52707" lon="2.06622">
        <ele>148</ele>
        <time>2022-08-09T07:42:13.213Z</time>
      </trkpt>
      <trkpt lat="48.52711" lon="2.0663">
        <ele>147</ele>
        <time>2022-08-09T07:42:18.206Z</time>
      </trkpt>
      <trkpt lat="48.52711" lon="2.06632">
        <ele>147</ele>
        <time>2022-08-09T07:42:22.213Z</time>
      </trkpt>
      <trkpt lat="48.52714" lon="2.06628">
        <ele>147</ele>
        <time>2022-08-09T07:42:27.208Z</time>
      </trkpt>
      <trkpt lat="48.52714" lon="2.06626">
        <ele>147</ele>
        <time>2022-08-09T07:42:32.202Z</time>
      </trkpt>
      <trkpt lat="48.5272" lon="2.06631">
        <ele>147</ele>
        <time>2022-08-09T07:42:37.193Z</time>
      </trkpt>
      <trkpt lat="48.52726" lon="2.06637">
        <ele>147</ele>
        <time>2022-08-09T07:42:41.206Z</time>
      </trkpt>
      <trkpt lat="48.52731" lon="2.06643">
        <ele>147</ele>
        <time>2022-08-09T07:42:46.214Z</time>
      </trkpt>
      <trkpt lat="48.52736" lon="2.06651">
        <ele>147</ele>
        <time>2022-08-09T07:42:51.211Z</time>
      </trkpt>
      <trkpt lat="48.52739" lon="2.06659">
        <ele>147</ele>
        <time>2022-08-09T07:42:56.203Z</time>
      </trkpt>
      <trkpt lat="48.52743" lon="2.06663">
        <ele>147</ele>
        <time>2022-08-09T07:43:00.207Z</time>
      </trkpt>
      <trkpt lat="48.52749" lon="2.06669">
        <ele>147</ele>
        <time>2022-08-09T07:43:05.210Z</time>
      </trkpt>
      <trkpt lat="48.52754" lon="2.06674">
        <ele>147</ele>
        <time>2022-08-09T07:43:10.205Z</time>
      </trkpt>
      <trkpt lat="48.52762" lon="2.06684">
        <ele>147</ele>
        <time>2022-08-09T07:43:15.202Z</time>
      </trkpt>
      <trkpt lat="48.52769" lon="2.0669">
        <ele>148</ele>
        <time>2022-08-09T07:43:20.203Z</time>
      </trkpt>
      <trkpt lat="48.52772" lon="2.06698">
        <ele>148</ele>
        <time>2022-08-09T07:43:24.246Z</time>
      </trkpt>
      <trkpt lat="48.52776" lon="2.06704">
        <ele>148</ele>
        <time>2022-08-09T07:43:28.235Z</time>
      </trkpt>
      <trkpt lat="48.52779" lon="2.06711">
        <ele>148</ele>
        <time>2022-08-09T07:43:33.242Z</time>
      </trkpt>
      <trkpt lat="48.52783" lon="2.0672">
        <ele>148</ele>
        <time>2022-08-09T07:43:38.214Z</time>
      </trkpt>
      <trkpt lat="48.52786" lon="2.06727">
        <ele>148</ele>
        <time>2022-08-09T07:43:42.215Z</time>
      </trkpt>
      <trkpt lat="48.5279" lon="2.06736">
        <ele>148</ele>
        <time>2022-08-09T07:43:46.210Z</time>
      </trkpt>
      <trkpt lat="48.52792" lon="2.06743">
        <ele>147</ele>
        <time>2022-08-09T07:43:50.237Z</time>
      </trkpt>
      <trkpt lat="48.52795" lon="2.06753">
        <ele>147</ele>
        <time>2022-08-09T07:43:55.218Z</time>
      </trkpt>
      <trkpt lat="48.52798" lon="2.06763">
        <ele>147</ele>
        <time>2022-08-09T07:44:00.212Z</time>
      </trkpt>
      <trkpt lat="48.52799" lon="2.06771">
        <ele>147</ele>
        <time>2022-08-09T07:44:04.230Z</time>
      </trkpt>
      <trkpt lat="48.52801" lon="2.06781">
        <ele>147</ele>
        <time>2022-08-09T07:44:08.245Z</time>
      </trkpt>
      <trkpt lat="48.52804" lon="2.06792">
        <ele>147</ele>
        <time>2022-08-09T07:44:13.214Z</time>
      </trkpt>
      <trkpt lat="48.52805" lon="2.06802">
        <ele>147</ele>
        <time>2022-08-09T07:44:18.206Z</time>
      </trkpt>
      <trkpt lat="48.52807" lon="2.06811">
        <ele>147</ele>
        <time>2022-08-09T07:44:22.212Z</time>
      </trkpt>
      <trkpt lat="48.5281" lon="2.06818">
        <ele>147</ele>
        <time>2022-08-09T07:44:26.236Z</time>
      </trkpt>
      <trkpt lat="48.52813" lon="2.06827">
        <ele>147</ele>
        <time>2022-08-09T07:44:31.252Z</time>
      </trkpt>
      <trkpt lat="48.52815" lon="2.06837">
        <ele>147</ele>
        <time>2022-08-09T07:44:36.256Z</time>
      </trkpt>
      <trkpt lat="48.52817" lon="2.06845">
        <ele>147</ele>
        <time>2022-08-09T07:44:40.257Z</time>
      </trkpt>
      <trkpt lat="48.52818" lon="2.06853">
        <ele>147</ele>
        <time>2022-08-09T07:44:44.282Z</time>
      </trkpt>
      <trkpt lat="48.52821" lon="2.06864">
        <ele>146</ele>
        <time>2022-08-09T07:44:49.252Z</time>
      </trkpt>
      <trkpt lat="48.52823" lon="2.06872">
        <ele>146</ele>
        <time>2022-08-09T07:44:53.256Z</time>
      </trkpt>
      <trkpt lat="48.52824" lon="2.06881">
        <ele>146</ele>
        <time>2022-08-09T07:44:58.277Z</time>
      </trkpt>
      <trkpt lat="48.52825" lon="2.06891">
        <ele>146</ele>
        <time>2022-08-09T07:45:03.252Z</time>
      </trkpt>
      <trkpt lat="48.52828" lon="2.06901">
        <ele>146</ele>
        <time>2022-08-09T07:45:08.251Z</time>
      </trkpt>
      <trkpt lat="48.52829" lon="2.06913">
        <ele>146</ele>
        <time>2022-08-09T07:45:13.209Z</time>
      </trkpt>
      <trkpt lat="48.5283" lon="2.06922">
        <ele>146</ele>
        <time>2022-08-09T07:45:17.235Z</time>
      </trkpt>
      <trkpt lat="48.52832" lon="2.06932">
        <ele>146</ele>
        <time>2022-08-09T07:45:22.270Z</time>
      </trkpt>
      <trkpt lat="48.52832" lon="2.06942">
        <ele>146</ele>
        <time>2022-08-09T07:45:26.240Z</time>
      </trkpt>
      <trkpt lat="48.52833" lon="2.06955">
        <ele>146</ele>
        <time>2022-08-09T07:45:31.232Z</time>
      </trkpt>
      <trkpt lat="48.52835" lon="2.06963">
        <ele>145</ele>
        <time>2022-08-09T07:45:35.231Z</time>
      </trkpt>
      <trkpt lat="48.52837" lon="2.06974">
        <ele>145</ele>
        <time>2022-08-09T07:45:40.245Z</time>
      </trkpt>
      <trkpt lat="48.52838" lon="2.06982">
        <ele>145</ele>
        <time>2022-08-09T07:45:44.240Z</time>
      </trkpt>
      <trkpt lat="48.52838" lon="2.06992">
        <ele>145</ele>
        <time>2022-08-09T07:45:48.255Z</time>
      </trkpt>
      <trkpt lat="48.52838" lon="2.07">
        <ele>145</ele>
        <time>2022-08-09T07:45:52.266Z</time>
      </trkpt>
      <trkpt lat="48.52838" lon="2.07013">
        <ele>145</ele>
        <time>2022-08-09T07:45:57.230Z</time>
      </trkpt>
      <trkpt lat="48.52838" lon="2.07022">
        <ele>144</ele>
        <time>2022-08-09T07:46:01.254Z</time>
      </trkpt>
      <trkpt lat="48.52838" lon="2.07032">
        <ele>144</ele>
        <time>2022-08-09T07:46:05.261Z</time>
      </trkpt>
      <trkpt lat="48.52839" lon="2.07044">
        <ele>145</ele>
        <time>2022-08-09T07:46:10.268Z</time>
      </trkpt>
      <trkpt lat="48.52841" lon="2.07056">
        <ele>145</ele>
        <time>2022-08-09T07:46:15.254Z</time>
      </trkpt>
      <trkpt lat="48.52843" lon="2.07062">
        <ele>145</ele>
        <time>2022-08-09T07:46:20.254Z</time>
      </trkpt>
      <trkpt lat="48.52845" lon="2.07069">
        <ele>145</ele>
        <time>2022-08-09T07:46:24.261Z</time>
      </trkpt>
      <trkpt lat="48.52848" lon="2.07077">
        <ele>145</ele>
        <time>2022-08-09T07:46:29.271Z</time>
      </trkpt>
      <trkpt lat="48.52851" lon="2.07088">
        <ele>145</ele>
        <time>2022-08-09T07:46:34.253Z</time>
      </trkpt>
      <trkpt lat="48.52854" lon="2.071">
        <ele>145</ele>
        <time>2022-08-09T07:46:39.234Z</time>
      </trkpt>
      <trkpt lat="48.52858" lon="2.07108">
        <ele>145</ele>
        <time>2022-08-09T07:46:43.241Z</time>
      </trkpt>
      <trkpt lat="48.52861" lon="2.07117">
        <ele>145</ele>
        <time>2022-08-09T07:46:47.243Z</time>
      </trkpt>
      <trkpt lat="48.52864" lon="2.07126">
        <ele>145</ele>
        <time>2022-08-09T07:46:52.235Z</time>
      </trkpt>
      <trkpt lat="48.52868" lon="2.07135">
        <ele>145</ele>
        <time>2022-08-09T07:46:57.245Z</time>
      </trkpt>
      <trkpt lat="48.52872" lon="2.07143">
        <ele>145</ele>
        <time>2022-08-09T07:47:02.247Z</time>
      </trkpt>
      <trkpt lat="48.52877" lon="2.07151">
        <ele>145</ele>
        <time>2022-08-09T07:47:07.205Z</time>
      </trkpt>
      <trkpt lat="48.52879" lon="2.07157">
        <ele>145</ele>
        <time>2022-08-09T07:47:11.211Z</time>
      </trkpt>
      <trkpt lat="48.52884" lon="2.07165">
        <ele>145</ele>
        <time>2022-08-09T07:47:15.210Z</time>
      </trkpt>
      <trkpt lat="48.52887" lon="2.07174">
        <ele>145</ele>
        <time>2022-08-09T07:47:20.209Z</time>
      </trkpt>
      <trkpt lat="48.52891" lon="2.07182">
        <ele>144</ele>
        <time>2022-08-09T07:47:24.209Z</time>
      </trkpt>
      <trkpt lat="48.52897" lon="2.07191">
        <ele>144</ele>
        <time>2022-08-09T07:47:29.196Z</time>
      </trkpt>
      <trkpt lat="48.52899" lon="2.07198">
        <ele>144</ele>
        <time>2022-08-09T07:47:33.228Z</time>
      </trkpt>
      <trkpt lat="48.52904" lon="2.07207">
        <ele>145</ele>
        <time>2022-08-09T07:47:38.245Z</time>
      </trkpt>
      <trkpt lat="48.52909" lon="2.07217">
        <ele>145</ele>
        <time>2022-08-09T07:47:43.269Z</time>
      </trkpt>
      <trkpt lat="48.52913" lon="2.07226">
        <ele>145</ele>
        <time>2022-08-09T07:47:48.249Z</time>
      </trkpt>
      <trkpt lat="48.52913" lon="2.07229">
        <ele>145</ele>
        <time>2022-08-09T07:47:53.239Z</time>
      </trkpt>
      <trkpt lat="48.52913" lon="2.0723">
        <ele>145</ele>
        <time>2022-08-09T07:47:57.239Z</time>
      </trkpt>
      <trkpt lat="48.52916" lon="2.0723">
        <ele>145</ele>
        <time>2022-08-09T07:48:02.206Z</time>
      </trkpt>
      <trkpt lat="48.52916" lon="2.07235">
        <ele>145</ele>
        <time>2022-08-09T07:48:06.210Z</time>
      </trkpt>
      <trkpt lat="48.52921" lon="2.07244">
        <ele>144</ele>
        <time>2022-08-09T07:48:11.205Z</time>
      </trkpt>
      <trkpt lat="48.52924" lon="2.07251">
        <ele>144</ele>
        <time>2022-08-09T07:48:15.210Z</time>
      </trkpt>
      <trkpt lat="48.52927" lon="2.07257">
        <ele>144</ele>
        <time>2022-08-09T07:48:19.224Z</time>
      </trkpt>
      <trkpt lat="48.5293" lon="2.07264">
        <ele>143</ele>
        <time>2022-08-09T07:48:23.231Z</time>
      </trkpt>
      <trkpt lat="48.52935" lon="2.07273">
        <ele>144</ele>
        <time>2022-08-09T07:48:28.237Z</time>
      </trkpt>
      <trkpt lat="48.52938" lon="2.07281">
        <ele>144</ele>
        <time>2022-08-09T07:48:32.243Z</time>
      </trkpt>
      <trkpt lat="48.52941" lon="2.07288">
        <ele>144</ele>
        <time>2022-08-09T07:48:36.232Z</time>
      </trkpt>
      <trkpt lat="48.52943" lon="2.07295">
        <ele>144</ele>
        <time>2022-08-09T07:48:40.275Z</time>
      </trkpt>
      <trkpt lat="48.52946" lon="2.07303">
        <ele>144</ele>
        <time>2022-08-09T07:48:44.254Z</time>
      </trkpt>
      <trkpt lat="48.5295" lon="2.07313">
        <ele>144</ele>
        <time>2022-08-09T07:48:49.238Z</time>
      </trkpt>
      <trkpt lat="48.52954" lon="2.07324">
        <ele>143</ele>
        <time>2022-08-09T07:48:54.228Z</time>
      </trkpt>
      <trkpt lat="48.52958" lon="2.07331">
        <ele>143</ele>
        <time>2022-08-09T07:48:58.231Z</time>
      </trkpt>
      <trkpt lat="48.52961" lon="2.07339">
        <ele>146</ele>
        <time>2022-08-09T07:49:03.222Z</time>
      </trkpt>
      <trkpt lat="48.52964" lon="2.07349">
        <ele>145</ele>
        <time>2022-08-09T07:49:08.245Z</time>
      </trkpt>
      <trkpt lat="48.52967" lon="2.0736">
        <ele>145</ele>
        <time>2022-08-09T07:49:13.228Z</time>
      </trkpt>
      <trkpt lat="48.52967" lon="2.0737">
        <ele>145</ele>
        <time>2022-08-09T07:49:18.228Z</time>
      </trkpt>
      <trkpt lat="48.52967" lon="2.0738">
        <ele>144</ele>
        <time>2022-08-09T07:49:22.247Z</time>
      </trkpt>
      <trkpt lat="48.52967" lon="2.07391">
        <ele>144</ele>
        <time>2022-08-09T07:49:26.251Z</time>
      </trkpt>
      <trkpt lat="48.52967" lon="2.07403">
        <ele>143</ele>
        <time>2022-08-09T07:49:31.258Z</time>
      </trkpt>
      <trkpt lat="48.52967" lon="2.07415">
        <ele>143</ele>
        <time>2022-08-09T07:49:36.250Z</time>
      </trkpt>
      <trkpt lat="48.52967" lon="2.07425">
        <ele>143</ele>
        <time>2022-08-09T07:49:40.238Z</time>
      </trkpt>
      <trkpt lat="48.52969" lon="2.07438">
        <ele>142</ele>
        <time>2022-08-09T07:49:45.228Z</time>
      </trkpt>
      <trkpt lat="48.52971" lon="2.07449">
        <ele>142</ele>
        <time>2022-08-09T07:49:50.272Z</time>
      </trkpt>
      <trkpt lat="48.52974" lon="2.07461">
        <ele>142</ele>
        <time>2022-08-09T07:49:55.237Z</time>
      </trkpt>
      <trkpt lat="48.52978" lon="2.07471">
        <ele>142</ele>
        <time>2022-08-09T07:50:00.254Z</time>
      </trkpt>
      <trkpt lat="48.52982" lon="2.07477">
        <ele>142</ele>
        <time>2022-08-09T07:50:04.259Z</time>
      </trkpt>
      <trkpt lat="48.52987" lon="2.07487">
        <ele>145</ele>
        <time>2022-08-09T07:50:09.244Z</time>
      </trkpt>
      <trkpt lat="48.5299" lon="2.07496">
        <ele>145</ele>
        <time>2022-08-09T07:50:13.241Z</time>
      </trkpt>
      <trkpt lat="48.52995" lon="2.07505">
        <ele>145</ele>
        <time>2022-08-09T07:50:18.234Z</time>
      </trkpt>
      <trkpt lat="48.53001" lon="2.07515">
        <ele>144</ele>
        <time>2022-08-09T07:50:23.242Z</time>
      </trkpt>
      <trkpt lat="48.53006" lon="2.07522">
        <ele>144</ele>
        <time>2022-08-09T07:50:27.229Z</time>
      </trkpt>
      <trkpt lat="48.53012" lon="2.07531">
        <ele>144</ele>
        <time>2022-08-09T07:50:32.235Z</time>
      </trkpt>
      <trkpt lat="48.53018" lon="2.07539">
        <ele>146</ele>
        <time>2022-08-09T07:50:37.242Z</time>
      </trkpt>
      <trkpt lat="48.53023" lon="2.07549">
        <ele>144</ele>
        <time>2022-08-09T07:50:41.285Z</time>
      </trkpt>
      <trkpt lat="48.53029" lon="2.07557">
        <ele>144</ele>
        <time>2022-08-09T07:50:46.225Z</time>
      </trkpt>
      <trkpt lat="48.53033" lon="2.07561">
        <ele>144</ele>
        <time>2022-08-09T07:50:50.275Z</time>
      </trkpt>
      <trkpt lat="48.53038" lon="2.07569">
        <ele>144</ele>
        <time>2022-08-09T07:50:55.231Z</time>
      </trkpt>
      <trkpt lat="48.53043" lon="2.07576">
        <ele>145</ele>
        <time>2022-08-09T07:50:59.244Z</time>
      </trkpt>
      <trkpt lat="48.53049" lon="2.07585">
        <ele>145</ele>
        <time>2022-08-09T07:51:04.232Z</time>
      </trkpt>
      <trkpt lat="48.53055" lon="2.07592">
        <ele>145</ele>
        <time>2022-08-09T07:51:08.252Z</time>
      </trkpt>
      <trkpt lat="48.5306" lon="2.07599">
        <ele>141</ele>
        <time>2022-08-09T07:51:12.251Z</time>
      </trkpt>
      <trkpt lat="48.53067" lon="2.07607">
        <ele>141</ele>
        <time>2022-08-09T07:51:17.253Z</time>
      </trkpt>
      <trkpt lat="48.53071" lon="2.07612">
        <ele>145</ele>
        <time>2022-08-09T07:51:21.258Z</time>
      </trkpt>
      <trkpt lat="48.53075" lon="2.07617">
        <ele>145</ele>
        <time>2022-08-09T07:51:26.227Z</time>
      </trkpt>
      <trkpt lat="48.5308" lon="2.07624">
        <ele>145</ele>
        <time>2022-08-09T07:51:30.260Z</time>
      </trkpt>
      <trkpt lat="48.53084" lon="2.07633">
        <ele>142</ele>
        <time>2022-08-09T07:51:35.269Z</time>
      </trkpt>
      <trkpt lat="48.53089" lon="2.07642">
        <ele>142</ele>
        <time>2022-08-09T07:51:40.251Z</time>
      </trkpt>
      <trkpt lat="48.53094" lon="2.07652">
        <ele>142</ele>
        <time>2022-08-09T07:51:45.236Z</time>
      </trkpt>
      <trkpt lat="48.53098" lon="2.07659">
        <ele>143</ele>
        <time>2022-08-09T07:51:49.244Z</time>
      </trkpt>
      <trkpt lat="48.53103" lon="2.07668">
        <ele>143</ele>
        <time>2022-08-09T07:51:54.241Z</time>
      </trkpt>
      <trkpt lat="48.53107" lon="2.07677">
        <ele>143</ele>
        <time>2022-08-09T07:51:59.239Z</time>
      </trkpt>
      <trkpt lat="48.53111" lon="2.07687">
        <ele>141</ele>
        <time>2022-08-09T07:52:04.247Z</time>
      </trkpt>
      <trkpt lat="48.53115" lon="2.07694">
        <ele>141</ele>
        <time>2022-08-09T07:52:08.247Z</time>
      </trkpt>
      <trkpt lat="48.53117" lon="2.07705">
        <ele>141</ele>
        <time>2022-08-09T07:52:13.242Z</time>
      </trkpt>
      <trkpt lat="48.5312" lon="2.07713">
        <ele>139</ele>
        <time>2022-08-09T07:52:17.235Z</time>
      </trkpt>
      <trkpt lat="48.53123" lon="2.07724">
        <ele>139</ele>
        <time>2022-08-09T07:52:22.250Z</time>
      </trkpt>
      <trkpt lat="48.53126" lon="2.07733">
        <ele>142</ele>
        <time>2022-08-09T07:52:26.267Z</time>
      </trkpt>
      <trkpt lat="48.53139" lon="2.07753">
        <ele>138</ele>
        <time>2022-08-09T07:55:10.249Z</time>
      </trkpt>
      <trkpt lat="48.5314" lon="2.07753">
        <ele>138</ele>
        <time>2022-08-09T07:55:15.219Z</time>
      </trkpt>
      <trkpt lat="48.5314" lon="2.07752">
        <ele>138</ele>
        <time>2022-08-09T07:55:20.233Z</time>
      </trkpt>
      <trkpt lat="48.5314" lon="2.07753">
        <ele>138</ele>
        <time>2022-08-09T07:55:25.234Z</time>
      </trkpt>
      <trkpt lat="48.53141" lon="2.07752">
        <ele>138</ele>
        <time>2022-08-09T07:55:30.218Z</time>
      </trkpt>
      <trkpt lat="48.5314" lon="2.07756">
        <ele>138</ele>
        <time>2022-08-09T07:55:49.233Z</time>
      </trkpt>
      <trkpt lat="48.5314" lon="2.07756">
        <ele>138</ele>
        <time>2022-08-09T07:55:53.236Z</time>
      </trkpt>
      <trkpt lat="48.53141" lon="2.07758">
        <ele>138</ele>
        <time>2022-08-09T07:55:57.237Z</time>
      </trkpt>
      <trkpt lat="48.53143" lon="2.07763">
        <ele>138</ele>
        <time>2022-08-09T07:56:02.206Z</time>
      </trkpt>
      <trkpt lat="48.53153" lon="2.07762">
        <ele>140</ele>
        <time>2022-08-09T07:56:07.193Z</time>
      </trkpt>
      <trkpt lat="48.53158" lon="2.07713">
        <ele>142</ele>
        <time>2022-08-09T07:56:12.204Z</time>
      </trkpt>
      <trkpt lat="48.53165" lon="2.07705">
        <ele>143</ele>
        <time>2022-08-09T07:56:17.204Z</time>
      </trkpt>
      <trkpt lat="48.53168" lon="2.07724">
        <ele>142</ele>
        <time>2022-08-09T07:56:22.201Z</time>
      </trkpt>
      <trkpt lat="48.53172" lon="2.07746">
        <ele>140</ele>
        <time>2022-08-09T07:56:26.210Z</time>
      </trkpt>
      <trkpt lat="48.53179" lon="2.07779">
        <ele>137</ele>
        <time>2022-08-09T07:56:40.203Z</time>
      </trkpt>
      <trkpt lat="48.5318" lon="2.07785">
        <ele>137</ele>
        <time>2022-08-09T07:56:44.203Z</time>
      </trkpt>
      <trkpt lat="48.53182" lon="2.07799">
        <ele>134</ele>
        <time>2022-08-09T07:56:48.207Z</time>
      </trkpt>
      <trkpt lat="48.53183" lon="2.07817">
        <ele>134</ele>
        <time>2022-08-09T07:56:53.203Z</time>
      </trkpt>
      <trkpt lat="48.53187" lon="2.07824">
        <ele>130</ele>
        <time>2022-08-09T07:56:58.202Z</time>
      </trkpt>
      <trkpt lat="48.5319" lon="2.07834">
        <ele>130</ele>
        <time>2022-08-09T07:57:02.197Z</time>
      </trkpt>
      <trkpt lat="48.53187" lon="2.07848">
        <ele>127</ele>
        <time>2022-08-09T07:57:06.212Z</time>
      </trkpt>
      <trkpt lat="48.53187" lon="2.0786">
        <ele>127</ele>
        <time>2022-08-09T07:57:11.206Z</time>
      </trkpt>
      <trkpt lat="48.53183" lon="2.07875">
        <ele>125</ele>
        <time>2022-08-09T07:57:16.232Z</time>
      </trkpt>
      <trkpt lat="48.53183" lon="2.07886">
        <ele>125</ele>
        <time>2022-08-09T07:57:20.215Z</time>
      </trkpt>
      <trkpt lat="48.53188" lon="2.07894">
        <ele>125</ele>
        <time>2022-08-09T07:57:24.218Z</time>
      </trkpt>
      <trkpt lat="48.53196" lon="2.07893">
        <ele>125</ele>
        <time>2022-08-09T07:57:29.225Z</time>
      </trkpt>
      <trkpt lat="48.53204" lon="2.07895">
        <ele>125</ele>
        <time>2022-08-09T07:57:34.244Z</time>
      </trkpt>
      <trkpt lat="48.53211" lon="2.07896">
        <ele>126</ele>
        <time>2022-08-09T07:57:39.217Z</time>
      </trkpt>
      <trkpt lat="48.53217" lon="2.07897">
        <ele>126</ele>
        <time>2022-08-09T07:57:43.215Z</time>
      </trkpt>
      <trkpt lat="48.53226" lon="2.07901">
        <ele>126</ele>
        <time>2022-08-09T07:57:48.224Z</time>
      </trkpt>
      <trkpt lat="48.53231" lon="2.07903">
        <ele>126</ele>
        <time>2022-08-09T07:57:52.226Z</time>
      </trkpt>
      <trkpt lat="48.53238" lon="2.07906">
        <ele>124</ele>
        <time>2022-08-09T07:57:57.208Z</time>
      </trkpt>
      <trkpt lat="48.53243" lon="2.0791">
        <ele>124</ele>
        <time>2022-08-09T07:58:01.225Z</time>
      </trkpt>
      <trkpt lat="48.53249" lon="2.07915">
        <ele>124</ele>
        <time>2022-08-09T07:58:06.227Z</time>
      </trkpt>
      <trkpt lat="48.53254" lon="2.07918">
        <ele>124</ele>
        <time>2022-08-09T07:58:10.257Z</time>
      </trkpt>
      <trkpt lat="48.53259" lon="2.07923">
        <ele>124</ele>
        <time>2022-08-09T07:58:15.221Z</time>
      </trkpt>
      <trkpt lat="48.53266" lon="2.0793">
        <ele>122</ele>
        <time>2022-08-09T07:58:20.293Z</time>
      </trkpt>
      <trkpt lat="48.53273" lon="2.07934">
        <ele>119</ele>
        <time>2022-08-09T07:58:25.240Z</time>
      </trkpt>
      <trkpt lat="48.5328" lon="2.07942">
        <ele>119</ele>
        <time>2022-08-09T07:58:30.244Z</time>
      </trkpt>
      <trkpt lat="48.53286" lon="2.07948">
        <ele>119</ele>
        <time>2022-08-09T07:58:35.231Z</time>
      </trkpt>
      <trkpt lat="48.53292" lon="2.07951">
        <ele>116</ele>
        <time>2022-08-09T07:58:40.228Z</time>
      </trkpt>
      <trkpt lat="48.53299" lon="2.07956">
        <ele>116</ele>
        <time>2022-08-09T07:58:45.233Z</time>
      </trkpt>
      <trkpt lat="48.53306" lon="2.07958">
        <ele>116</ele>
        <time>2022-08-09T07:58:50.263Z</time>
      </trkpt>
      <trkpt lat="48.53313" lon="2.07959">
        <ele>112</ele>
        <time>2022-08-09T07:58:55.247Z</time>
      </trkpt>
      <trkpt lat="48.53319" lon="2.07961">
        <ele>112</ele>
        <time>2022-08-09T07:58:59.257Z</time>
      </trkpt>
      <trkpt lat="48.53326" lon="2.07964">
        <ele>108</ele>
        <time>2022-08-09T07:59:04.220Z</time>
      </trkpt>
      <trkpt lat="48.53333" lon="2.07967">
        <ele>108</ele>
        <time>2022-08-09T07:59:08.273Z</time>
      </trkpt>
      <trkpt lat="48.53339" lon="2.0797">
        <ele>108</ele>
        <time>2022-08-09T07:59:13.226Z</time>
      </trkpt>
      <trkpt lat="48.53342" lon="2.07979">
        <ele>108</ele>
        <time>2022-08-09T07:59:18.247Z</time>
      </trkpt>
      <trkpt lat="48.53346" lon="2.07986">
        <ele>107</ele>
        <time>2022-08-09T07:59:23.236Z</time>
      </trkpt>
      <trkpt lat="48.53351" lon="2.0799">
        <ele>101</ele>
        <time>2022-08-09T07:59:27.236Z</time>
      </trkpt>
      <trkpt lat="48.53358" lon="2.07993">
        <ele>101</ele>
        <time>2022-08-09T07:59:32.232Z</time>
      </trkpt>
      <trkpt lat="48.53363" lon="2.08">
        <ele>101</ele>
        <time>2022-08-09T07:59:37.219Z</time>
      </trkpt>
      <trkpt lat="48.53369" lon="2.08002">
        <ele>101</ele>
        <time>2022-08-09T07:59:41.236Z</time>
      </trkpt>
      <trkpt lat="48.53375" lon="2.08006">
        <ele>101</ele>
        <time>2022-08-09T07:59:46.250Z</time>
      </trkpt>
      <trkpt lat="48.5338" lon="2.08008">
        <ele>97</ele>
        <time>2022-08-09T07:59:51.206Z</time>
      </trkpt>
      <trkpt lat="48.53385" lon="2.08007">
        <ele>97</ele>
        <time>2022-08-09T07:59:55.234Z</time>
      </trkpt>
      <trkpt lat="48.53393" lon="2.08004">
        <ele>97</ele>
        <time>2022-08-09T08:00:00.213Z</time>
      </trkpt>
      <trkpt lat="48.53398" lon="2.07999">
        <ele>97</ele>
        <time>2022-08-09T08:00:04.221Z</time>
      </trkpt>
      <trkpt lat="48.53404" lon="2.07996">
        <ele>96</ele>
        <time>2022-08-09T08:00:09.220Z</time>
      </trkpt>
      <trkpt lat="48.53411" lon="2.07994">
        <ele>96</ele>
        <time>2022-08-09T08:00:13.215Z</time>
      </trkpt>
      <trkpt lat="48.53415" lon="2.07991">
        <ele>96</ele>
        <time>2022-08-09T08:00:17.230Z</time>
      </trkpt>
      <trkpt lat="48.53423" lon="2.07985">
        <ele>98</ele>
        <time>2022-08-09T08:00:22.206Z</time>
      </trkpt>
      <trkpt lat="48.53429" lon="2.07983">
        <ele>98</ele>
        <time>2022-08-09T08:00:26.227Z</time>
      </trkpt>
      <trkpt lat="48.53434" lon="2.07981">
        <ele>96</ele>
        <time>2022-08-09T08:00:30.252Z</time>
      </trkpt>
      <trkpt lat="48.53442" lon="2.07979">
        <ele>96</ele>
        <time>2022-08-09T08:00:35.244Z</time>
      </trkpt>
      <trkpt lat="48.53449" lon="2.07978">
        <ele>96</ele>
        <time>2022-08-09T08:00:39.253Z</time>
      </trkpt>
      <trkpt lat="48.53456" lon="2.07975">
        <ele>96</ele>
        <time>2022-08-09T08:00:44.239Z</time>
      </trkpt>
      <trkpt lat="48.53464" lon="2.07975">
        <ele>95</ele>
        <time>2022-08-09T08:00:49.231Z</time>
      </trkpt>
      <trkpt lat="48.5347" lon="2.07974">
        <ele>95</ele>
        <time>2022-08-09T08:00:54.233Z</time>
      </trkpt>
      <trkpt lat="48.53477" lon="2.07973">
        <ele>95</ele>
        <time>2022-08-09T08:00:59.247Z</time>
      </trkpt>
      <trkpt lat="48.53483" lon="2.07973">
        <ele>95</ele>
        <time>2022-08-09T08:01:03.237Z</time>
      </trkpt>
      <trkpt lat="48.53491" lon="2.07972">
        <ele>94</ele>
        <time>2022-08-09T08:01:08.262Z</time>
      </trkpt>
      <trkpt lat="48.53498" lon="2.0797">
        <ele>94</ele>
        <time>2022-08-09T08:01:13.234Z</time>
      </trkpt>
      <trkpt lat="48.53505" lon="2.07969">
        <ele>94</ele>
        <time>2022-08-09T08:01:17.217Z</time>
      </trkpt>
      <trkpt lat="48.5351" lon="2.07968">
        <ele>94</ele>
        <time>2022-08-09T08:01:21.242Z</time>
      </trkpt>
      <trkpt lat="48.53518" lon="2.07966">
        <ele>90</ele>
        <time>2022-08-09T08:01:26.229Z</time>
      </trkpt>
      <trkpt lat="48.53526" lon="2.07965">
        <ele>90</ele>
        <time>2022-08-09T08:01:31.217Z</time>
      </trkpt>
      <trkpt lat="48.53531" lon="2.07963">
        <ele>90</ele>
        <time>2022-08-09T08:01:35.248Z</time>
      </trkpt>
      <trkpt lat="48.53537" lon="2.07961">
        <ele>90</ele>
        <time>2022-08-09T08:01:39.255Z</time>
      </trkpt>
      <trkpt lat="48.53544" lon="2.07959">
        <ele>87</ele>
        <time>2022-08-09T08:01:44.232Z</time>
      </trkpt>
      <trkpt lat="48.53549" lon="2.07956">
        <ele>87</ele>
        <time>2022-08-09T08:01:48.234Z</time>
      </trkpt>
      <trkpt lat="48.53557" lon="2.07953">
        <ele>87</ele>
        <time>2022-08-09T08:01:53.245Z</time>
      </trkpt>
      <trkpt lat="48.53563" lon="2.0795">
        <ele>87</ele>
        <time>2022-08-09T08:01:57.264Z</time>
      </trkpt>
      <trkpt lat="48.53569" lon="2.07945">
        <ele>87</ele>
        <time>2022-08-09T08:02:02.214Z</time>
      </trkpt>
      <trkpt lat="48.53574" lon="2.07947">
        <ele>84</ele>
        <time>2022-08-09T08:02:07.205Z</time>
      </trkpt>
      <trkpt lat="48.53582" lon="2.07949">
        <ele>84</ele>
        <time>2022-08-09T08:02:12.202Z</time>
      </trkpt>
      <trkpt lat="48.53588" lon="2.07952">
        <ele>84</ele>
        <time>2022-08-09T08:02:16.202Z</time>
      </trkpt>
      <trkpt lat="48.53596" lon="2.07959">
        <ele>84</ele>
        <time>2022-08-09T08:02:21.205Z</time>
      </trkpt>
      <trkpt lat="48.53601" lon="2.07963">
        <ele>83</ele>
        <time>2022-08-09T08:02:25.198Z</time>
      </trkpt>
      <trkpt lat="48.53606" lon="2.0797">
        <ele>83</ele>
        <time>2022-08-09T08:02:30.202Z</time>
      </trkpt>
      <trkpt lat="48.53611" lon="2.07976">
        <ele>83</ele>
        <time>2022-08-09T08:02:35.209Z</time>
      </trkpt>
      <trkpt lat="48.53618" lon="2.07975">
        <ele>83</ele>
        <time>2022-08-09T08:02:40.212Z</time>
      </trkpt>
      <trkpt lat="48.53623" lon="2.07973">
        <ele>83</ele>
        <time>2022-08-09T08:02:45.200Z</time>
      </trkpt>
      <trkpt lat="48.53624" lon="2.07973">
        <ele>83</ele>
        <time>2022-08-09T08:02:49.195Z</time>
      </trkpt>
      <trkpt lat="48.5363" lon="2.07969">
        <ele>83</ele>
        <time>2022-08-09T08:02:54.197Z</time>
      </trkpt>
      <trkpt lat="48.5363" lon="2.07967">
        <ele>83</ele>
        <time>2022-08-09T08:02:58.203Z</time>
      </trkpt>
      <trkpt lat="48.53624" lon="2.07971">
        <ele>83</ele>
        <time>2022-08-09T08:03:02.219Z</time>
      </trkpt>
      <trkpt lat="48.5362" lon="2.07973">
        <ele>83</ele>
        <time>2022-08-09T08:03:07.201Z</time>
      </trkpt>
      <trkpt lat="48.5362" lon="2.07979">
        <ele>83</ele>
        <time>2022-08-09T08:03:11.207Z</time>
      </trkpt>
      <trkpt lat="48.53618" lon="2.07987">
        <ele>83</ele>
        <time>2022-08-09T08:03:16.200Z</time>
      </trkpt>
      <trkpt lat="48.53617" lon="2.07998">
        <ele>83</ele>
        <time>2022-08-09T08:03:21.207Z</time>
      </trkpt>
      <trkpt lat="48.5362" lon="2.08007">
        <ele>83</ele>
        <time>2022-08-09T08:03:26.214Z</time>
      </trkpt>
      <trkpt lat="48.53621" lon="2.08018">
        <ele>83</ele>
        <time>2022-08-09T08:03:31.199Z</time>
      </trkpt>
      <trkpt lat="48.53622" lon="2.08026">
        <ele>83</ele>
        <time>2022-08-09T08:03:36.199Z</time>
      </trkpt>
      <trkpt lat="48.53623" lon="2.08028">
        <ele>83</ele>
        <time>2022-08-09T08:03:40.201Z</time>
      </trkpt>
      <trkpt lat="48.53625" lon="2.08031">
        <ele>83</ele>
        <time>2022-08-09T08:03:44.207Z</time>
      </trkpt>
      <trkpt lat="48.53626" lon="2.08035">
        <ele>82</ele>
        <time>2022-08-09T08:03:48.206Z</time>
      </trkpt>
      <trkpt lat="48.53629" lon="2.08053">
        <ele>82</ele>
        <time>2022-08-09T08:04:14.216Z</time>
      </trkpt>
      <trkpt lat="48.5363" lon="2.08055">
        <ele>82</ele>
        <time>2022-08-09T08:04:19.223Z</time>
      </trkpt>
      <trkpt lat="48.5363" lon="2.08056">
        <ele>82</ele>
        <time>2022-08-09T08:04:24.244Z</time>
      </trkpt>
      <trkpt lat="48.53637" lon="2.08057">
        <ele>82</ele>
        <time>2022-08-09T08:04:29.201Z</time>
      </trkpt>
      <trkpt lat="48.5364" lon="2.08058">
        <ele>82</ele>
        <time>2022-08-09T08:04:34.197Z</time>
      </trkpt>
      <trkpt lat="48.53649" lon="2.08055">
        <ele>82</ele>
        <time>2022-08-09T08:04:39.196Z</time>
      </trkpt>
      <trkpt lat="48.53655" lon="2.08057">
        <ele>81</ele>
        <time>2022-08-09T08:04:43.202Z</time>
      </trkpt>
      <trkpt lat="48.53662" lon="2.08061">
        <ele>81</ele>
        <time>2022-08-09T08:04:47.221Z</time>
      </trkpt>
      <trkpt lat="48.53668" lon="2.08067">
        <ele>81</ele>
        <time>2022-08-09T08:04:52.202Z</time>
      </trkpt>
      <trkpt lat="48.53673" lon="2.08074">
        <ele>82</ele>
        <time>2022-08-09T08:04:56.208Z</time>
      </trkpt>
      <trkpt lat="48.53676" lon="2.08081">
        <ele>82</ele>
        <time>2022-08-09T08:05:00.224Z</time>
      </trkpt>
      <trkpt lat="48.5368" lon="2.0809">
        <ele>82</ele>
        <time>2022-08-09T08:05:05.196Z</time>
      </trkpt>
      <trkpt lat="48.53684" lon="2.08096">
        <ele>81</ele>
        <time>2022-08-09T08:05:09.216Z</time>
      </trkpt>
      <trkpt lat="48.53687" lon="2.08101">
        <ele>81</ele>
        <time>2022-08-09T08:05:13.233Z</time>
      </trkpt>
      <trkpt lat="48.53688" lon="2.08105">
        <ele>81</ele>
        <time>2022-08-09T08:05:18.198Z</time>
      </trkpt>
      <trkpt lat="48.53689" lon="2.08109">
        <ele>81</ele>
        <time>2022-08-09T08:05:23.204Z</time>
      </trkpt>
      <trkpt lat="48.53692" lon="2.08112">
        <ele>81</ele>
        <time>2022-08-09T08:05:28.214Z</time>
      </trkpt>
      <trkpt lat="48.53698" lon="2.08119">
        <ele>81</ele>
        <time>2022-08-09T08:05:55.207Z</time>
      </trkpt>
      <trkpt lat="48.537" lon="2.08122">
        <ele>81</ele>
        <time>2022-08-09T08:06:00.211Z</time>
      </trkpt>
      <trkpt lat="48.537" lon="2.08131">
        <ele>83</ele>
        <time>2022-08-09T08:06:05.207Z</time>
      </trkpt>
      <trkpt lat="48.537" lon="2.08132">
        <ele>83</ele>
        <time>2022-08-09T08:06:10.206Z</time>
      </trkpt>
      <trkpt lat="48.537" lon="2.08132">
        <ele>83</ele>
        <time>2022-08-09T08:06:15.202Z</time>
      </trkpt>
      <trkpt lat="48.53701" lon="2.08131">
        <ele>83</ele>
        <time>2022-08-09T08:06:37.198Z</time>
      </trkpt>
      <trkpt lat="48.537" lon="2.08131">
        <ele>83</ele>
        <time>2022-08-09T08:06:41.200Z</time>
      </trkpt>
      <trkpt lat="48.53699" lon="2.08132">
        <ele>83</ele>
        <time>2022-08-09T08:06:45.200Z</time>
      </trkpt>
      <trkpt lat="48.53703" lon="2.08137">
        <ele>83</ele>
        <time>2022-08-09T08:06:49.217Z</time>
      </trkpt>
      <trkpt lat="48.53706" lon="2.08143">
        <ele>83</ele>
        <time>2022-08-09T08:06:53.220Z</time>
      </trkpt>
      <trkpt lat="48.53708" lon="2.08149">
        <ele>83</ele>
        <time>2022-08-09T08:06:57.223Z</time>
      </trkpt>
      <trkpt lat="48.53709" lon="2.08157">
        <ele>82</ele>
        <time>2022-08-09T08:07:02.196Z</time>
      </trkpt>
      <trkpt lat="48.5371" lon="2.08157">
        <ele>82</ele>
        <time>2022-08-09T08:07:06.197Z</time>
      </trkpt>
      <trkpt lat="48.53706" lon="2.08168">
        <ele>84</ele>
        <time>2022-08-09T08:07:11.198Z</time>
      </trkpt>
      <trkpt lat="48.53702" lon="2.08175">
        <ele>84</ele>
        <time>2022-08-09T08:07:15.206Z</time>
      </trkpt>
      <trkpt lat="48.53701" lon="2.08184">
        <ele>86</ele>
        <time>2022-08-09T08:07:19.194Z</time>
      </trkpt>
      <trkpt lat="48.537" lon="2.08191">
        <ele>86</ele>
        <time>2022-08-09T08:07:23.225Z</time>
      </trkpt>
      <trkpt lat="48.537" lon="2.08199">
        <ele>86</ele>
        <time>2022-08-09T08:07:28.217Z</time>
      </trkpt>
      <trkpt lat="48.53698" lon="2.08207">
        <ele>86</ele>
        <time>2022-08-09T08:07:33.210Z</time>
      </trkpt>
      <trkpt lat="48.53695" lon="2.08216">
        <ele>88</ele>
        <time>2022-08-09T08:07:38.207Z</time>
      </trkpt>
      <trkpt lat="48.53695" lon="2.08223">
        <ele>88</ele>
        <time>2022-08-09T08:07:43.215Z</time>
      </trkpt>
      <trkpt lat="48.53693" lon="2.08229">
        <ele>88</ele>
        <time>2022-08-09T08:07:47.207Z</time>
      </trkpt>
      <trkpt lat="48.53691" lon="2.08236">
        <ele>88</ele>
        <time>2022-08-09T08:07:51.221Z</time>
      </trkpt>
      <trkpt lat="48.53688" lon="2.08244">
        <ele>91</ele>
        <time>2022-08-09T08:07:56.223Z</time>
      </trkpt>
      <trkpt lat="48.53688" lon="2.0825">
        <ele>91</ele>
        <time>2022-08-09T08:08:01.224Z</time>
      </trkpt>
      <trkpt lat="48.53685" lon="2.08257">
        <ele>91</ele>
        <time>2022-08-09T08:08:06.209Z</time>
      </trkpt>
      <trkpt lat="48.53684" lon="2.08267">
        <ele>96</ele>
        <time>2022-08-09T08:08:10.213Z</time>
      </trkpt>
      <trkpt lat="48.53681" lon="2.08276">
        <ele>96</ele>
        <time>2022-08-09T08:08:15.215Z</time>
      </trkpt>
      <trkpt lat="48.53679" lon="2.08281">
        <ele>96</ele>
        <time>2022-08-09T08:08:19.214Z</time>
      </trkpt>
      <trkpt lat="48.53677" lon="2.08293">
        <ele>100</ele>
        <time>2022-08-09T08:08:24.204Z</time>
      </trkpt>
      <trkpt lat="48.53675" lon="2.08301">
        <ele>100</ele>
        <time>2022-08-09T08:08:28.208Z</time>
      </trkpt>
      <trkpt lat="48.53674" lon="2.08309">
        <ele>100</ele>
        <time>2022-08-09T08:08:33.205Z</time>
      </trkpt>
      <trkpt lat="48.53671" lon="2.08316">
        <ele>100</ele>
        <time>2022-08-09T08:08:37.250Z</time>
      </trkpt>
      <trkpt lat="48.53668" lon="2.08323">
        <ele>102</ele>
        <time>2022-08-09T08:08:42.220Z</time>
      </trkpt>
      <trkpt lat="48.53666" lon="2.08328">
        <ele>102</ele>
        <time>2022-08-09T08:08:46.240Z</time>
      </trkpt>
      <trkpt lat="48.53664" lon="2.08336">
        <ele>102</ele>
        <time>2022-08-09T08:08:51.237Z</time>
      </trkpt>
      <trkpt lat="48.53661" lon="2.08343">
        <ele>102</ele>
        <time>2022-08-09T08:08:56.217Z</time>
      </trkpt>
      <trkpt lat="48.53657" lon="2.08348">
        <ele>106</ele>
        <time>2022-08-09T08:09:01.227Z</time>
      </trkpt>
      <trkpt lat="48.53654" lon="2.0836">
        <ele>106</ele>
        <time>2022-08-09T08:09:06.220Z</time>
      </trkpt>
      <trkpt lat="48.53652" lon="2.08371">
        <ele>104</ele>
        <time>2022-08-09T08:09:11.231Z</time>
      </trkpt>
      <trkpt lat="48.53651" lon="2.08378">
        <ele>108</ele>
        <time>2022-08-09T08:09:15.249Z</time>
      </trkpt>
      <trkpt lat="48.53651" lon="2.08389">
        <ele>108</ele>
        <time>2022-08-09T08:09:20.212Z</time>
      </trkpt>
      <trkpt lat="48.5365" lon="2.08397">
        <ele>108</ele>
        <time>2022-08-09T08:09:24.228Z</time>
      </trkpt>
      <trkpt lat="48.53649" lon="2.08407">
        <ele>113</ele>
        <time>2022-08-09T08:09:29.218Z</time>
      </trkpt>
      <trkpt lat="48.53645" lon="2.08411">
        <ele>113</ele>
        <time>2022-08-09T08:09:33.233Z</time>
      </trkpt>
      <trkpt lat="48.53641" lon="2.08414">
        <ele>113</ele>
        <time>2022-08-09T08:09:37.263Z</time>
      </trkpt>
      <trkpt lat="48.53635" lon="2.08419">
        <ele>113</ele>
        <time>2022-08-09T08:09:42.236Z</time>
      </trkpt>
      <trkpt lat="48.53631" lon="2.08421">
        <ele>113</ele>
        <time>2022-08-09T08:09:46.214Z</time>
      </trkpt>
      <trkpt lat="48.53624" lon="2.08425">
        <ele>114</ele>
        <time>2022-08-09T08:09:51.240Z</time>
      </trkpt>
      <trkpt lat="48.5362" lon="2.0843">
        <ele>114</ele>
        <time>2022-08-09T08:09:55.250Z</time>
      </trkpt>
      <trkpt lat="48.53619" lon="2.08439">
        <ele>116</ele>
        <time>2022-08-09T08:10:00.221Z</time>
      </trkpt>
      <trkpt lat="48.5362" lon="2.08447">
        <ele>116</ele>
        <time>2022-08-09T08:10:05.220Z</time>
      </trkpt>
      <trkpt lat="48.53622" lon="2.08454">
        <ele>116</ele>
        <time>2022-08-09T08:10:09.226Z</time>
      </trkpt>
      <trkpt lat="48.53623" lon="2.08458">
        <ele>116</ele>
        <time>2022-08-09T08:10:13.252Z</time>
      </trkpt>
      <trkpt lat="48.53625" lon="2.08467">
        <ele>117</ele>
        <time>2022-08-09T08:10:18.203Z</time>
      </trkpt>
      <trkpt lat="48.53617" lon="2.08484">
        <ele>117</ele>
        <time>2022-08-09T08:10:23.203Z</time>
      </trkpt>
      <trkpt lat="48.53614" lon="2.08483">
        <ele>117</ele>
        <time>2022-08-09T08:10:28.200Z</time>
      </trkpt>
      <trkpt lat="48.53609" lon="2.08491">
        <ele>118</ele>
        <time>2022-08-09T08:10:32.196Z</time>
      </trkpt>
      <trkpt lat="48.53607" lon="2.08498">
        <ele>118</ele>
        <time>2022-08-09T08:10:36.219Z</time>
      </trkpt>
      <trkpt lat="48.53603" lon="2.08504">
        <ele>118</ele>
        <time>2022-08-09T08:10:40.212Z</time>
      </trkpt>
      <trkpt lat="48.53598" lon="2.08506">
        <ele>118</ele>
        <time>2022-08-09T08:10:45.225Z</time>
      </trkpt>
      <trkpt lat="48.53593" lon="2.08505">
        <ele>116</ele>
        <time>2022-08-09T08:10:49.231Z</time>
      </trkpt>
      <trkpt lat="48.53588" lon="2.08505">
        <ele>116</ele>
        <time>2022-08-09T08:10:53.261Z</time>
      </trkpt>
      <trkpt lat="48.53583" lon="2.08507">
        <ele>116</ele>
        <time>2022-08-09T08:10:58.214Z</time>
      </trkpt>
      <trkpt lat="48.53579" lon="2.08507">
        <ele>116</ele>
        <time>2022-08-09T08:11:02.220Z</time>
      </trkpt>
      <trkpt lat="48.53572" lon="2.08509">
        <ele>116</ele>
        <time>2022-08-09T08:11:07.209Z</time>
      </trkpt>
      <trkpt lat="48.53564" lon="2.08511">
        <ele>116</ele>
        <time>2022-08-09T08:11:12.209Z</time>
      </trkpt>
      <trkpt lat="48.53558" lon="2.08513">
        <ele>116</ele>
        <time>2022-08-09T08:11:16.209Z</time>
      </trkpt>
      <trkpt lat="48.53552" lon="2.08515">
        <ele>115</ele>
        <time>2022-08-09T08:11:20.224Z</time>
      </trkpt>
      <trkpt lat="48.53548" lon="2.08521">
        <ele>115</ele>
        <time>2022-08-09T08:11:25.230Z</time>
      </trkpt>
      <trkpt lat="48.53544" lon="2.08528">
        <ele>115</ele>
        <time>2022-08-09T08:11:29.241Z</time>
      </trkpt>
      <trkpt lat="48.5354" lon="2.08537">
        <ele>118</ele>
        <time>2022-08-09T08:11:34.218Z</time>
      </trkpt>
      <trkpt lat="48.53536" lon="2.08546">
        <ele>116</ele>
        <time>2022-08-09T08:11:38.215Z</time>
      </trkpt>
      <trkpt lat="48.53531" lon="2.08552">
        <ele>116</ele>
        <time>2022-08-09T08:11:43.199Z</time>
      </trkpt>
      <trkpt lat="48.53525" lon="2.08557">
        <ele>116</ele>
        <time>2022-08-09T08:11:47.240Z</time>
      </trkpt>
      <trkpt lat="48.5352" lon="2.08562">
        <ele>116</ele>
        <time>2022-08-09T08:11:51.227Z</time>
      </trkpt>
      <trkpt lat="48.53515" lon="2.08568">
        <ele>116</ele>
        <time>2022-08-09T08:11:55.236Z</time>
      </trkpt>
      <trkpt lat="48.53507" lon="2.08575">
        <ele>113</ele>
        <time>2022-08-09T08:12:00.224Z</time>
      </trkpt>
      <trkpt lat="48.53501" lon="2.0858">
        <ele>113</ele>
        <time>2022-08-09T08:12:04.229Z</time>
      </trkpt>
      <trkpt lat="48.53495" lon="2.08584">
        <ele>113</ele>
        <time>2022-08-09T08:12:09.236Z</time>
      </trkpt>
      <trkpt lat="48.53491" lon="2.08589">
        <ele>113</ele>
        <time>2022-08-09T08:12:13.229Z</time>
      </trkpt>
      <trkpt lat="48.53489" lon="2.0859">
        <ele>113</ele>
        <time>2022-08-09T08:12:18.214Z</time>
      </trkpt>
      <trkpt lat="48.53484" lon="2.08594">
        <ele>116</ele>
        <time>2022-08-09T08:12:22.222Z</time>
      </trkpt>
      <trkpt lat="48.53479" lon="2.08602">
        <ele>109</ele>
        <time>2022-08-09T08:12:27.220Z</time>
      </trkpt>
      <trkpt lat="48.53475" lon="2.08609">
        <ele>109</ele>
        <time>2022-08-09T08:12:31.226Z</time>
      </trkpt>
      <trkpt lat="48.53469" lon="2.08618">
        <ele>109</ele>
        <time>2022-08-09T08:12:36.221Z</time>
      </trkpt>
      <trkpt lat="48.53464" lon="2.08627">
        <ele>106</ele>
        <time>2022-08-09T08:12:41.251Z</time>
      </trkpt>
      <trkpt lat="48.53459" lon="2.08636">
        <ele>106</ele>
        <time>2022-08-09T08:12:46.231Z</time>
      </trkpt>
      <trkpt lat="48.53454" lon="2.08645">
        <ele>108</ele>
        <time>2022-08-09T08:12:51.240Z</time>
      </trkpt>
      <trkpt lat="48.53449" lon="2.08654">
        <ele>106</ele>
        <time>2022-08-09T08:12:56.222Z</time>
      </trkpt>
      <trkpt lat="48.53445" lon="2.08664">
        <ele>106</ele>
        <time>2022-08-09T08:13:01.232Z</time>
      </trkpt>
      <trkpt lat="48.53441" lon="2.08673">
        <ele>106</ele>
        <time>2022-08-09T08:13:06.239Z</time>
      </trkpt>
      <trkpt lat="48.53437" lon="2.08679">
        <ele>106</ele>
        <time>2022-08-09T08:13:10.227Z</time>
      </trkpt>
      <trkpt lat="48.53432" lon="2.08688">
        <ele>106</ele>
        <time>2022-08-09T08:13:15.238Z</time>
      </trkpt>
      <trkpt lat="48.53428" lon="2.08698">
        <ele>109</ele>
        <time>2022-08-09T08:13:20.218Z</time>
      </trkpt>
      <trkpt lat="48.53424" lon="2.08705">
        <ele>109</ele>
        <time>2022-08-09T08:13:24.205Z</time>
      </trkpt>
      <trkpt lat="48.53421" lon="2.08712">
        <ele>107</ele>
        <time>2022-08-09T08:13:28.217Z</time>
      </trkpt>
      <trkpt lat="48.53417" lon="2.08722">
        <ele>107</ele>
        <time>2022-08-09T08:13:33.235Z</time>
      </trkpt>
      <trkpt lat="48.53412" lon="2.08731">
        <ele>107</ele>
        <time>2022-08-09T08:13:38.226Z</time>
      </trkpt>
      <trkpt lat="48.53408" lon="2.0874">
        <ele>105</ele>
        <time>2022-08-09T08:13:43.232Z</time>
      </trkpt>
      <trkpt lat="48.53405" lon="2.08748">
        <ele>105</ele>
        <time>2022-08-09T08:13:47.237Z</time>
      </trkpt>
      <trkpt lat="48.53401" lon="2.08758">
        <ele>110</ele>
        <time>2022-08-09T08:13:52.217Z</time>
      </trkpt>
      <trkpt lat="48.53397" lon="2.08768">
        <ele>107</ele>
        <time>2022-08-09T08:13:57.237Z</time>
      </trkpt>
      <trkpt lat="48.53393" lon="2.08777">
        <ele>107</ele>
        <time>2022-08-09T08:14:02.215Z</time>
      </trkpt>
      <trkpt lat="48.5339" lon="2.08786">
        <ele>107</ele>
        <time>2022-08-09T08:14:06.223Z</time>
      </trkpt>
      <trkpt lat="48.53387" lon="2.08795">
        <ele>105</ele>
        <time>2022-08-09T08:14:11.239Z</time>
      </trkpt>
      <trkpt lat="48.53384" lon="2.08803">
        <ele>105</ele>
        <time>2022-08-09T08:14:15.251Z</time>
      </trkpt>
      <trkpt lat="48.5338" lon="2.08813">
        <ele>105</ele>
        <time>2022-08-09T08:14:20.257Z</time>
      </trkpt>
      <trkpt lat="48.53377" lon="2.08823">
        <ele>106</ele>
        <time>2022-08-09T08:14:25.231Z</time>
      </trkpt>
      <trkpt lat="48.53374" lon="2.0883">
        <ele>109</ele>
        <time>2022-08-09T08:14:29.224Z</time>
      </trkpt>
      <trkpt lat="48.53371" lon="2.08839">
        <ele>109</ele>
        <time>2022-08-09T08:14:34.206Z</time>
      </trkpt>
      <trkpt lat="48.53366" lon="2.08847">
        <ele>111</ele>
        <time>2022-08-09T08:14:39.206Z</time>
      </trkpt>
      <trkpt lat="48.53362" lon="2.08856">
        <ele>111</ele>
        <time>2022-08-09T08:14:44.227Z</time>
      </trkpt>
      <trkpt lat="48.53357" lon="2.08863">
        <ele>111</ele>
        <time>2022-08-09T08:14:48.237Z</time>
      </trkpt>
      <trkpt lat="48.53353" lon="2.0887">
        <ele>111</ele>
        <time>2022-08-09T08:14:53.233Z</time>
      </trkpt>
      <trkpt lat="48.53348" lon="2.08878">
        <ele>115</ele>
        <time>2022-08-09T08:14:57.234Z</time>
      </trkpt>
      <trkpt lat="48.53345" lon="2.08885">
        <ele>116</ele>
        <time>2022-08-09T08:15:01.225Z</time>
      </trkpt>
      <trkpt lat="48.53341" lon="2.08894">
        <ele>116</ele>
        <time>2022-08-09T08:15:06.214Z</time>
      </trkpt>
      <trkpt lat="48.53338" lon="2.08901">
        <ele>116</ele>
        <time>2022-08-09T08:15:10.225Z</time>
      </trkpt>
      <trkpt lat="48.53335" lon="2.0891">
        <ele>119</ele>
        <time>2022-08-09T08:15:15.223Z</time>
      </trkpt>
      <trkpt lat="48.53333" lon="2.08918">
        <ele>119</ele>
        <time>2022-08-09T08:15:20.230Z</time>
      </trkpt>
      <trkpt lat="48.53331" lon="2.08927">
        <ele>119</ele>
        <time>2022-08-09T08:15:25.246Z</time>
      </trkpt>
      <trkpt lat="48.53329" lon="2.08934">
        <ele>122</ele>
        <time>2022-08-09T08:15:29.267Z</time>
      </trkpt>
      <trkpt lat="48.53326" lon="2.08942">
        <ele>122</ele>
        <time>2022-08-09T08:15:34.229Z</time>
      </trkpt>
      <trkpt lat="48.53323" lon="2.0895">
        <ele>122</ele>
        <time>2022-08-09T08:15:38.226Z</time>
      </trkpt>
      <trkpt lat="48.5332" lon="2.08956">
        <ele>122</ele>
        <time>2022-08-09T08:15:42.240Z</time>
      </trkpt>
      <trkpt lat="48.53317" lon="2.08963">
        <ele>124</ele>
        <time>2022-08-09T08:15:47.237Z</time>
      </trkpt>
      <trkpt lat="48.53313" lon="2.08969">
        <ele>124</ele>
        <time>2022-08-09T08:15:51.235Z</time>
      </trkpt>
      <trkpt lat="48.53309" lon="2.08974">
        <ele>124</ele>
        <time>2022-08-09T08:15:55.226Z</time>
      </trkpt>
      <trkpt lat="48.53304" lon="2.08982">
        <ele>124</ele>
        <time>2022-08-09T08:16:00.235Z</time>
      </trkpt>
      <trkpt lat="48.53301" lon="2.0899">
        <ele>127</ele>
        <time>2022-08-09T08:16:05.213Z</time>
      </trkpt>
      <trkpt lat="48.53299" lon="2.08995">
        <ele>127</ele>
        <time>2022-08-09T08:16:09.222Z</time>
      </trkpt>
      <trkpt lat="48.53294" lon="2.09002">
        <ele>127</ele>
        <time>2022-08-09T08:16:14.248Z</time>
      </trkpt>
      <trkpt lat="48.53289" lon="2.09008">
        <ele>126</ele>
        <time>2022-08-09T08:16:19.229Z</time>
      </trkpt>
      <trkpt lat="48.53285" lon="2.09011">
        <ele>126</ele>
        <time>2022-08-09T08:16:23.230Z</time>
      </trkpt>
      <trkpt lat="48.53281" lon="2.09016">
        <ele>129</ele>
        <time>2022-08-09T08:16:28.218Z</time>
      </trkpt>
      <trkpt lat="48.53276" lon="2.09022">
        <ele>129</ele>
        <time>2022-08-09T08:16:33.235Z</time>
      </trkpt>
      <trkpt lat="48.53272" lon="2.0903">
        <ele>129</ele>
        <time>2022-08-09T08:16:38.240Z</time>
      </trkpt>
      <trkpt lat="48.53267" lon="2.09037">
        <ele>129</ele>
        <time>2022-08-09T08:16:43.223Z</time>
      </trkpt>
      <trkpt lat="48.53262" lon="2.09043">
        <ele>131</ele>
        <time>2022-08-09T08:16:47.230Z</time>
      </trkpt>
      <trkpt lat="48.5326" lon="2.09049">
        <ele>131</ele>
        <time>2022-08-09T08:16:51.230Z</time>
      </trkpt>
      <trkpt lat="48.53256" lon="2.09056">
        <ele>131</ele>
        <time>2022-08-09T08:16:56.234Z</time>
      </trkpt>
      <trkpt lat="48.53252" lon="2.09063">
        <ele>131</ele>
        <time>2022-08-09T08:17:01.224Z</time>
      </trkpt>
      <trkpt lat="48.53246" lon="2.0907">
        <ele>134</ele>
        <time>2022-08-09T08:17:06.225Z</time>
      </trkpt>
      <trkpt lat="48.53242" lon="2.09078">
        <ele>134</ele>
        <time>2022-08-09T08:17:11.230Z</time>
      </trkpt>
      <trkpt lat="48.53239" lon="2.09083">
        <ele>134</ele>
        <time>2022-08-09T08:17:16.216Z</time>
      </trkpt>
      <trkpt lat="48.53236" lon="2.09089">
        <ele>134</ele>
        <time>2022-08-09T08:17:20.246Z</time>
      </trkpt>
      <trkpt lat="48.53233" lon="2.09098">
        <ele>137</ele>
        <time>2022-08-09T08:17:25.224Z</time>
      </trkpt>
      <trkpt lat="48.5323" lon="2.09105">
        <ele>137</ele>
        <time>2022-08-09T08:17:30.222Z</time>
      </trkpt>
      <trkpt lat="48.53227" lon="2.09113">
        <ele>137</ele>
        <time>2022-08-09T08:17:35.218Z</time>
      </trkpt>
      <trkpt lat="48.53223" lon="2.09119">
        <ele>137</ele>
        <time>2022-08-09T08:17:40.217Z</time>
      </trkpt>
      <trkpt lat="48.53221" lon="2.09126">
        <ele>139</ele>
        <time>2022-08-09T08:17:45.229Z</time>
      </trkpt>
      <trkpt lat="48.53219" lon="2.09134">
        <ele>139</ele>
        <time>2022-08-09T08:17:50.214Z</time>
      </trkpt>
      <trkpt lat="48.53218" lon="2.09141">
        <ele>139</ele>
        <time>2022-08-09T08:17:54.225Z</time>
      </trkpt>
      <trkpt lat="48.53217" lon="2.09147">
        <ele>139</ele>
        <time>2022-08-09T08:17:59.239Z</time>
      </trkpt>
      <trkpt lat="48.53216" lon="2.09155">
        <ele>141</ele>
        <time>2022-08-09T08:18:04.250Z</time>
      </trkpt>
      <trkpt lat="48.53214" lon="2.09164">
        <ele>141</ele>
        <time>2022-08-09T08:18:09.218Z</time>
      </trkpt>
      <trkpt lat="48.53213" lon="2.09174">
        <ele>141</ele>
        <time>2022-08-09T08:18:14.213Z</time>
      </trkpt>
      <trkpt lat="48.53212" lon="2.09182">
        <ele>144</ele>
        <time>2022-08-09T08:18:19.226Z</time>
      </trkpt>
      <trkpt lat="48.53212" lon="2.09189">
        <ele>144</ele>
        <time>2022-08-09T08:18:23.240Z</time>
      </trkpt>
      <trkpt lat="48.53212" lon="2.09198">
        <ele>144</ele>
        <time>2022-08-09T08:18:28.241Z</time>
      </trkpt>
      <trkpt lat="48.53212" lon="2.09207">
        <ele>144</ele>
        <time>2022-08-09T08:18:33.221Z</time>
      </trkpt>
      <trkpt lat="48.53212" lon="2.09215">
        <ele>148</ele>
        <time>2022-08-09T08:18:37.250Z</time>
      </trkpt>
      <trkpt lat="48.53209" lon="2.09224">
        <ele>148</ele>
        <time>2022-08-09T08:18:42.227Z</time>
      </trkpt>
      <trkpt lat="48.53207" lon="2.09232">
        <ele>150</ele>
        <time>2022-08-09T08:18:46.242Z</time>
      </trkpt>
      <trkpt lat="48.53206" lon="2.09243">
        <ele>152</ele>
        <time>2022-08-09T08:18:51.212Z</time>
      </trkpt>
      <trkpt lat="48.53203" lon="2.09252">
        <ele>152</ele>
        <time>2022-08-09T08:18:56.208Z</time>
      </trkpt>
      <trkpt lat="48.53204" lon="2.0926">
        <ele>152</ele>
        <time>2022-08-09T08:19:01.212Z</time>
      </trkpt>
      <trkpt lat="48.53204" lon="2.09266">
        <ele>154</ele>
        <time>2022-08-09T08:19:05.211Z</time>
      </trkpt>
      <trkpt lat="48.53202" lon="2.09274">
        <ele>154</ele>
        <time>2022-08-09T08:19:09.226Z</time>
      </trkpt>
      <trkpt lat="48.53202" lon="2.09284">
        <ele>154</ele>
        <time>2022-08-09T08:19:14.233Z</time>
      </trkpt>
      <trkpt lat="48.532" lon="2.09294">
        <ele>155</ele>
        <time>2022-08-09T08:19:19.231Z</time>
      </trkpt>
      <trkpt lat="48.53199" lon="2.09302">
        <ele>155</ele>
        <time>2022-08-09T08:19:23.214Z</time>
      </trkpt>
      <trkpt lat="48.53196" lon="2.09311">
        <ele>155</ele>
        <time>2022-08-09T08:19:27.237Z</time>
      </trkpt>
      <trkpt lat="48.53195" lon="2.09321">
        <ele>155</ele>
        <time>2022-08-09T08:19:32.214Z</time>
      </trkpt>
      <trkpt lat="48.53196" lon="2.09329">
        <ele>155</ele>
        <time>2022-08-09T08:19:37.214Z</time>
      </trkpt>
      <trkpt lat="48.53199" lon="2.09334">
        <ele>155</ele>
        <time>2022-08-09T08:19:41.234Z</time>
      </trkpt>
      <trkpt lat="48.53203" lon="2.09339">
        <ele>155</ele>
        <time>2022-08-09T08:19:46.247Z</time>
      </trkpt>
      <trkpt lat="48.53207" lon="2.09347">
        <ele>155</ele>
        <time>2022-08-09T08:19:51.249Z</time>
      </trkpt>
      <trkpt lat="48.53209" lon="2.09352">
        <ele>154</ele>
        <time>2022-08-09T08:19:55.261Z</time>
      </trkpt>
      <trkpt lat="48.53215" lon="2.09361">
        <ele>154</ele>
        <time>2022-08-09T08:20:00.232Z</time>
      </trkpt>
      <trkpt lat="48.5322" lon="2.09369">
        <ele>154</ele>
        <time>2022-08-09T08:20:04.225Z</time>
      </trkpt>
      <trkpt lat="48.53224" lon="2.09377">
        <ele>152</ele>
        <time>2022-08-09T08:20:08.247Z</time>
      </trkpt>
      <trkpt lat="48.53229" lon="2.09387">
        <ele>152</ele>
        <time>2022-08-09T08:20:13.276Z</time>
      </trkpt>
      <trkpt lat="48.53233" lon="2.09397">
        <ele>152</ele>
        <time>2022-08-09T08:20:18.230Z</time>
      </trkpt>
      <trkpt lat="48.53238" lon="2.09403">
        <ele>151</ele>
        <time>2022-08-09T08:20:22.218Z</time>
      </trkpt>
      <trkpt lat="48.53244" lon="2.0941">
        <ele>151</ele>
        <time>2022-08-09T08:20:27.212Z</time>
      </trkpt>
      <trkpt lat="48.53249" lon="2.09417">
        <ele>151</ele>
        <time>2022-08-09T08:20:31.230Z</time>
      </trkpt>
      <trkpt lat="48.53254" lon="2.09422">
        <ele>151</ele>
        <time>2022-08-09T08:20:35.238Z</time>
      </trkpt>
      <trkpt lat="48.53258" lon="2.09431">
        <ele>149</ele>
        <time>2022-08-09T08:20:40.233Z</time>
      </trkpt>
      <trkpt lat="48.53258" lon="2.09442">
        <ele>149</ele>
        <time>2022-08-09T08:20:45.245Z</time>
      </trkpt>
      <trkpt lat="48.53255" lon="2.0945">
        <ele>149</ele>
        <time>2022-08-09T08:20:49.244Z</time>
      </trkpt>
      <trkpt lat="48.53252" lon="2.09459">
        <ele>147</ele>
        <time>2022-08-09T08:20:53.256Z</time>
      </trkpt>
      <trkpt lat="48.53248" lon="2.09469">
        <ele>147</ele>
        <time>2022-08-09T08:20:58.231Z</time>
      </trkpt>
      <trkpt lat="48.53245" lon="2.09477">
        <ele>147</ele>
        <time>2022-08-09T08:21:02.224Z</time>
      </trkpt>
      <trkpt lat="48.53242" lon="2.09483">
        <ele>147</ele>
        <time>2022-08-09T08:21:06.247Z</time>
      </trkpt>
      <trkpt lat="48.53241" lon="2.09491">
        <ele>147</ele>
        <time>2022-08-09T08:21:11.236Z</time>
      </trkpt>
      <trkpt lat="48.5324" lon="2.09499">
        <ele>147</ele>
        <time>2022-08-09T08:21:15.230Z</time>
      </trkpt>
      <trkpt lat="48.53242" lon="2.09508">
        <ele>147</ele>
        <time>2022-08-09T08:21:20.242Z</time>
      </trkpt>
      <trkpt lat="48.53242" lon="2.09521">
        <ele>147</ele>
        <time>2022-08-09T08:21:25.246Z</time>
      </trkpt>
      <trkpt lat="48.53242" lon="2.0953">
        <ele>147</ele>
        <time>2022-08-09T08:21:29.247Z</time>
      </trkpt>
      <trkpt lat="48.53241" lon="2.09543">
        <ele>148</ele>
        <time>2022-08-09T08:21:34.252Z</time>
      </trkpt>
      <trkpt lat="48.53241" lon="2.09553">
        <ele>148</ele>
        <time>2022-08-09T08:21:38.240Z</time>
      </trkpt>
      <trkpt lat="48.53242" lon="2.09565">
        <ele>148</ele>
        <time>2022-08-09T08:21:43.261Z</time>
      </trkpt>
      <trkpt lat="48.53243" lon="2.09575">
        <ele>147</ele>
        <time>2022-08-09T08:21:47.253Z</time>
      </trkpt>
      <trkpt lat="48.53243" lon="2.09586">
        <ele>147</ele>
        <time>2022-08-09T08:21:52.255Z</time>
      </trkpt>
      <trkpt lat="48.53243" lon="2.09596">
        <ele>147</ele>
        <time>2022-08-09T08:21:56.233Z</time>
      </trkpt>
      <trkpt lat="48.53242" lon="2.09608">
        <ele>147</ele>
        <time>2022-08-09T08:22:01.256Z</time>
      </trkpt>
      <trkpt lat="48.53242" lon="2.09619">
        <ele>147</ele>
        <time>2022-08-09T08:22:06.225Z</time>
      </trkpt>
      <trkpt lat="48.53242" lon="2.09627">
        <ele>147</ele>
        <time>2022-08-09T08:22:10.243Z</time>
      </trkpt>
      <trkpt lat="48.53242" lon="2.09636">
        <ele>147</ele>
        <time>2022-08-09T08:22:14.236Z</time>
      </trkpt>
      <trkpt lat="48.53243" lon="2.09648">
        <ele>147</ele>
        <time>2022-08-09T08:22:19.239Z</time>
      </trkpt>
      <trkpt lat="48.53244" lon="2.0966">
        <ele>147</ele>
        <time>2022-08-09T08:22:24.240Z</time>
      </trkpt>
      <trkpt lat="48.53246" lon="2.09672">
        <ele>147</ele>
        <time>2022-08-09T08:22:29.255Z</time>
      </trkpt>
      <trkpt lat="48.53248" lon="2.09683">
        <ele>148</ele>
        <time>2022-08-09T08:22:34.239Z</time>
      </trkpt>
      <trkpt lat="48.53249" lon="2.09691">
        <ele>148</ele>
        <time>2022-08-09T08:22:38.244Z</time>
      </trkpt>
      <trkpt lat="48.53251" lon="2.097">
        <ele>148</ele>
        <time>2022-08-09T08:22:42.242Z</time>
      </trkpt>
      <trkpt lat="48.53253" lon="2.09708">
        <ele>148</ele>
        <time>2022-08-09T08:22:46.226Z</time>
      </trkpt>
      <trkpt lat="48.53255" lon="2.09717">
        <ele>147</ele>
        <time>2022-08-09T08:22:50.265Z</time>
      </trkpt>
      <trkpt lat="48.53258" lon="2.09727">
        <ele>147</ele>
        <time>2022-08-09T08:22:55.244Z</time>
      </trkpt>
      <trkpt lat="48.53261" lon="2.09735">
        <ele>147</ele>
        <time>2022-08-09T08:22:59.261Z</time>
      </trkpt>
      <trkpt lat="48.53264" lon="2.09746">
        <ele>145</ele>
        <time>2022-08-09T08:23:04.239Z</time>
      </trkpt>
      <trkpt lat="48.53267" lon="2.09755">
        <ele>145</ele>
        <time>2022-08-09T08:23:08.240Z</time>
      </trkpt>
      <trkpt lat="48.53269" lon="2.09763">
        <ele>145</ele>
        <time>2022-08-09T08:23:12.244Z</time>
      </trkpt>
      <trkpt lat="48.53273" lon="2.09773">
        <ele>145</ele>
        <time>2022-08-09T08:23:17.236Z</time>
      </trkpt>
      <trkpt lat="48.53275" lon="2.09782">
        <ele>145</ele>
        <time>2022-08-09T08:23:21.242Z</time>
      </trkpt>
      <trkpt lat="48.53278" lon="2.09793">
        <ele>145</ele>
        <time>2022-08-09T08:23:26.230Z</time>
      </trkpt>
      <trkpt lat="48.5328" lon="2.098">
        <ele>145</ele>
        <time>2022-08-09T08:23:30.245Z</time>
      </trkpt>
      <trkpt lat="48.53282" lon="2.09808">
        <ele>145</ele>
        <time>2022-08-09T08:23:34.248Z</time>
      </trkpt>
      <trkpt lat="48.53284" lon="2.09817">
        <ele>145</ele>
        <time>2022-08-09T08:23:38.224Z</time>
      </trkpt>
      <trkpt lat="48.53286" lon="2.09826">
        <ele>145</ele>
        <time>2022-08-09T08:23:42.253Z</time>
      </trkpt>
      <trkpt lat="48.53289" lon="2.09835">
        <ele>145</ele>
        <time>2022-08-09T08:23:46.256Z</time>
      </trkpt>
      <trkpt lat="48.53292" lon="2.09845">
        <ele>144</ele>
        <time>2022-08-09T08:23:51.215Z</time>
      </trkpt>
      <trkpt lat="48.53296" lon="2.09854">
        <ele>144</ele>
        <time>2022-08-09T08:23:55.239Z</time>
      </trkpt>
      <trkpt lat="48.53298" lon="2.09862">
        <ele>144</ele>
        <time>2022-08-09T08:23:59.254Z</time>
      </trkpt>
      <trkpt lat="48.53301" lon="2.09873">
        <ele>144</ele>
        <time>2022-08-09T08:24:04.246Z</time>
      </trkpt>
      <trkpt lat="48.53304" lon="2.09881">
        <ele>143</ele>
        <time>2022-08-09T08:24:08.232Z</time>
      </trkpt>
      <trkpt lat="48.53308" lon="2.09891">
        <ele>143</ele>
        <time>2022-08-09T08:24:13.235Z</time>
      </trkpt>
      <trkpt lat="48.53311" lon="2.09899">
        <ele>143</ele>
        <time>2022-08-09T08:24:17.247Z</time>
      </trkpt>
      <trkpt lat="48.53315" lon="2.09909">
        <ele>144</ele>
        <time>2022-08-09T08:24:22.257Z</time>
      </trkpt>
      <trkpt lat="48.53316" lon="2.0992">
        <ele>144</ele>
        <time>2022-08-09T08:24:27.255Z</time>
      </trkpt>
      <trkpt lat="48.53317" lon="2.09933">
        <ele>144</ele>
        <time>2022-08-09T08:24:32.231Z</time>
      </trkpt>
      <trkpt lat="48.53317" lon="2.09942">
        <ele>144</ele>
        <time>2022-08-09T08:24:36.245Z</time>
      </trkpt>
      <trkpt lat="48.53317" lon="2.09952">
        <ele>144</ele>
        <time>2022-08-09T08:24:40.249Z</time>
      </trkpt>
      <trkpt lat="48.53316" lon="2.09963">
        <ele>144</ele>
        <time>2022-08-09T08:24:45.260Z</time>
      </trkpt>
      <trkpt lat="48.53315" lon="2.09974">
        <ele>144</ele>
        <time>2022-08-09T08:24:50.256Z</time>
      </trkpt>
      <trkpt lat="48.53315" lon="2.09985">
        <ele>144</ele>
        <time>2022-08-09T08:24:55.266Z</time>
      </trkpt>
      <trkpt lat="48.53315" lon="2.09997">
        <ele>144</ele>
        <time>2022-08-09T08:25:00.213Z</time>
      </trkpt>
      <trkpt lat="48.53314" lon="2.10007">
        <ele>144</ele>
        <time>2022-08-09T08:25:04.262Z</time>
      </trkpt>
      <trkpt lat="48.53315" lon="2.10018">
        <ele>145</ele>
        <time>2022-08-09T08:25:09.247Z</time>
      </trkpt>
      <trkpt lat="48.53316" lon="2.10027">
        <ele>145</ele>
        <time>2022-08-09T08:25:13.249Z</time>
      </trkpt>
      <trkpt lat="48.53319" lon="2.10037">
        <ele>145</ele>
        <time>2022-08-09T08:25:18.229Z</time>
      </trkpt>
      <trkpt lat="48.53322" lon="2.10045">
        <ele>144</ele>
        <time>2022-08-09T08:25:23.251Z</time>
      </trkpt>
      <trkpt lat="48.53326" lon="2.10055">
        <ele>144</ele>
        <time>2022-08-09T08:25:28.235Z</time>
      </trkpt>
      <trkpt lat="48.5333" lon="2.10063">
        <ele>144</ele>
        <time>2022-08-09T08:25:32.241Z</time>
      </trkpt>
      <trkpt lat="48.53332" lon="2.10072">
        <ele>145</ele>
        <time>2022-08-09T08:25:36.256Z</time>
      </trkpt>
      <trkpt lat="48.53332" lon="2.10084">
        <ele>145</ele>
        <time>2022-08-09T08:25:41.255Z</time>
      </trkpt>
      <trkpt lat="48.5333" lon="2.10096">
        <ele>145</ele>
        <time>2022-08-09T08:25:46.223Z</time>
      </trkpt>
      <trkpt lat="48.53326" lon="2.10105">
        <ele>147</ele>
        <time>2022-08-09T08:25:51.253Z</time>
      </trkpt>
      <trkpt lat="48.53324" lon="2.10115">
        <ele>147</ele>
        <time>2022-08-09T08:25:56.242Z</time>
      </trkpt>
      <trkpt lat="48.53323" lon="2.10123">
        <ele>147</ele>
        <time>2022-08-09T08:26:00.237Z</time>
      </trkpt>
      <trkpt lat="48.53321" lon="2.10131">
        <ele>148</ele>
        <time>2022-08-09T08:26:04.236Z</time>
      </trkpt>
      <trkpt lat="48.53319" lon="2.10142">
        <ele>148</ele>
        <time>2022-08-09T08:26:09.238Z</time>
      </trkpt>
      <trkpt lat="48.53319" lon="2.10151">
        <ele>148</ele>
        <time>2022-08-09T08:26:13.242Z</time>
      </trkpt>
      <trkpt lat="48.53323" lon="2.1016">
        <ele>148</ele>
        <time>2022-08-09T08:26:18.242Z</time>
      </trkpt>
      <trkpt lat="48.53328" lon="2.10166">
        <ele>148</ele>
        <time>2022-08-09T08:26:23.245Z</time>
      </trkpt>
      <trkpt lat="48.53334" lon="2.10178">
        <ele>148</ele>
        <time>2022-08-09T08:27:53.210Z</time>
      </trkpt>
      <trkpt lat="48.53334" lon="2.1018">
        <ele>148</ele>
        <time>2022-08-09T08:27:58.220Z</time>
      </trkpt>
      <trkpt lat="48.53336" lon="2.10179">
        <ele>148</ele>
        <time>2022-08-09T08:28:02.237Z</time>
      </trkpt>
      <trkpt lat="48.53343" lon="2.1018">
        <ele>148</ele>
        <time>2022-08-09T08:28:07.221Z</time>
      </trkpt>
      <trkpt lat="48.5335" lon="2.10181">
        <ele>147</ele>
        <time>2022-08-09T08:28:12.225Z</time>
      </trkpt>
      <trkpt lat="48.53357" lon="2.10183">
        <ele>147</ele>
        <time>2022-08-09T08:28:17.210Z</time>
      </trkpt>
      <trkpt lat="48.53363" lon="2.10183">
        <ele>147</ele>
        <time>2022-08-09T08:28:21.215Z</time>
      </trkpt>
      <trkpt lat="48.53368" lon="2.10183">
        <ele>147</ele>
        <time>2022-08-09T08:28:25.235Z</time>
      </trkpt>
      <trkpt lat="48.53375" lon="2.10182">
        <ele>147</ele>
        <time>2022-08-09T08:28:29.246Z</time>
      </trkpt>
      <trkpt lat="48.53382" lon="2.10183">
        <ele>147</ele>
        <time>2022-08-09T08:28:34.256Z</time>
      </trkpt>
      <trkpt lat="48.53388" lon="2.10185">
        <ele>147</ele>
        <time>2022-08-09T08:28:38.243Z</time>
      </trkpt>
      <trkpt lat="48.53396" lon="2.10185">
        <ele>147</ele>
        <time>2022-08-09T08:28:43.205Z</time>
      </trkpt>
      <trkpt lat="48.53402" lon="2.10186">
        <ele>147</ele>
        <time>2022-08-09T08:28:47.252Z</time>
      </trkpt>
      <trkpt lat="48.53408" lon="2.10189">
        <ele>146</ele>
        <time>2022-08-09T08:28:51.252Z</time>
      </trkpt>
      <trkpt lat="48.53412" lon="2.10194">
        <ele>146</ele>
        <time>2022-08-09T08:28:55.278Z</time>
      </trkpt>
      <trkpt lat="48.53419" lon="2.10201">
        <ele>146</ele>
        <time>2022-08-09T08:29:00.223Z</time>
      </trkpt>
      <trkpt lat="48.53424" lon="2.10207">
        <ele>146</ele>
        <time>2022-08-09T08:29:04.238Z</time>
      </trkpt>
      <trkpt lat="48.53428" lon="2.10216">
        <ele>147</ele>
        <time>2022-08-09T08:29:08.254Z</time>
      </trkpt>
      <trkpt lat="48.53433" lon="2.10223">
        <ele>146</ele>
        <time>2022-08-09T08:29:13.249Z</time>
      </trkpt>
      <trkpt lat="48.53437" lon="2.10229">
        <ele>146</ele>
        <time>2022-08-09T08:29:18.231Z</time>
      </trkpt>
      <trkpt lat="48.53444" lon="2.10236">
        <ele>146</ele>
        <time>2022-08-09T08:29:23.250Z</time>
      </trkpt>
      <trkpt lat="48.5345" lon="2.10245">
        <ele>146</ele>
        <time>2022-08-09T08:29:28.224Z</time>
      </trkpt>
      <trkpt lat="48.53454" lon="2.10253">
        <ele>146</ele>
        <time>2022-08-09T08:29:33.214Z</time>
      </trkpt>
      <trkpt lat="48.53458" lon="2.10259">
        <ele>146</ele>
        <time>2022-08-09T08:29:37.239Z</time>
      </trkpt>
      <trkpt lat="48.53459" lon="2.1027">
        <ele>146</ele>
        <time>2022-08-09T08:29:42.216Z</time>
      </trkpt>
      <trkpt lat="48.53456" lon="2.10277">
        <ele>146</ele>
        <time>2022-08-09T08:29:46.279Z</time>
      </trkpt>
      <trkpt lat="48.53451" lon="2.1028">
        <ele>146</ele>
        <time>2022-08-09T08:29:51.221Z</time>
      </trkpt>
      <trkpt lat="48.53446" lon="2.10281">
        <ele>146</ele>
        <time>2022-08-09T08:29:55.237Z</time>
      </trkpt>
      <trkpt lat="48.53438" lon="2.10285">
        <ele>146</ele>
        <time>2022-08-09T08:30:00.240Z</time>
      </trkpt>
      <trkpt lat="48.5342" lon="2.10297">
        <ele>147</ele>
        <time>2022-08-09T08:30:19.208Z</time>
      </trkpt>
      <trkpt lat="48.53419" lon="2.10303">
        <ele>147</ele>
        <time>2022-08-09T08:30:24.214Z</time>
      </trkpt>
      <trkpt lat="48.53416" lon="2.10318">
        <ele>147</ele>
        <time>2022-08-09T08:30:29.214Z</time>
      </trkpt>
      <trkpt lat="48.53412" lon="2.10329">
        <ele>148</ele>
        <time>2022-08-09T08:30:34.211Z</time>
      </trkpt>
      <trkpt lat="48.53414" lon="2.10338">
        <ele>148</ele>
        <time>2022-08-09T08:30:38.213Z</time>
      </trkpt>
      <trkpt lat="48.53419" lon="2.10347">
        <ele>148</ele>
        <time>2022-08-09T08:30:43.217Z</time>
      </trkpt>
      <trkpt lat="48.53423" lon="2.10356">
        <ele>148</ele>
        <time>2022-08-09T08:30:48.221Z</time>
      </trkpt>
      <trkpt lat="48.53427" lon="2.10363">
        <ele>148</ele>
        <time>2022-08-09T08:30:52.222Z</time>
      </trkpt>
      <trkpt lat="48.53433" lon="2.10371">
        <ele>147</ele>
        <time>2022-08-09T08:30:57.221Z</time>
      </trkpt>
      <trkpt lat="48.53439" lon="2.10379">
        <ele>147</ele>
        <time>2022-08-09T08:31:02.224Z</time>
      </trkpt>
      <trkpt lat="48.53444" lon="2.10386">
        <ele>147</ele>
        <time>2022-08-09T08:31:07.229Z</time>
      </trkpt>
      <trkpt lat="48.5345" lon="2.10393">
        <ele>147</ele>
        <time>2022-08-09T08:31:12.225Z</time>
      </trkpt>
      <trkpt lat="48.53455" lon="2.10402">
        <ele>147</ele>
        <time>2022-08-09T08:31:17.204Z</time>
      </trkpt>
      <trkpt lat="48.5346" lon="2.10411">
        <ele>145</ele>
        <time>2022-08-09T08:31:21.205Z</time>
      </trkpt>
      <trkpt lat="48.53464" lon="2.10417">
        <ele>145</ele>
        <time>2022-08-09T08:31:25.254Z</time>
      </trkpt>
      <trkpt lat="48.53469" lon="2.10426">
        <ele>145</ele>
        <time>2022-08-09T08:31:30.258Z</time>
      </trkpt>
      <trkpt lat="48.53473" lon="2.10434">
        <ele>145</ele>
        <time>2022-08-09T08:31:35.245Z</time>
      </trkpt>
      <trkpt lat="48.53475" lon="2.10441">
        <ele>145</ele>
        <time>2022-08-09T08:31:39.243Z</time>
      </trkpt>
      <trkpt lat="48.53479" lon="2.10452">
        <ele>145</ele>
        <time>2022-08-09T08:31:44.263Z</time>
      </trkpt>
      <trkpt lat="48.53482" lon="2.10464">
        <ele>145</ele>
        <time>2022-08-09T08:31:49.257Z</time>
      </trkpt>
      <trkpt lat="48.53485" lon="2.10476">
        <ele>145</ele>
        <time>2022-08-09T08:31:54.223Z</time>
      </trkpt>
      <trkpt lat="48.53487" lon="2.10485">
        <ele>144</ele>
        <time>2022-08-09T08:31:59.213Z</time>
      </trkpt>
      <trkpt lat="48.5349" lon="2.10494">
        <ele>144</ele>
        <time>2022-08-09T08:32:04.210Z</time>
      </trkpt>
      <trkpt lat="48.53491" lon="2.10502">
        <ele>144</ele>
        <time>2022-08-09T08:32:08.222Z</time>
      </trkpt>
      <trkpt lat="48.53493" lon="2.10514">
        <ele>145</ele>
        <time>2022-08-09T08:32:13.240Z</time>
      </trkpt>
      <trkpt lat="48.53496" lon="2.10522">
        <ele>145</ele>
        <time>2022-08-09T08:32:17.239Z</time>
      </trkpt>
      <trkpt lat="48.53498" lon="2.1053">
        <ele>145</ele>
        <time>2022-08-09T08:32:21.254Z</time>
      </trkpt>
      <trkpt lat="48.53499" lon="2.10542">
        <ele>145</ele>
        <time>2022-08-09T08:32:26.259Z</time>
      </trkpt>
      <trkpt lat="48.53501" lon="2.10552">
        <ele>145</ele>
        <time>2022-08-09T08:32:31.266Z</time>
      </trkpt>
      <trkpt lat="48.53503" lon="2.10562">
        <ele>145</ele>
        <time>2022-08-09T08:32:36.234Z</time>
      </trkpt>
      <trkpt lat="48.53505" lon="2.10571">
        <ele>145</ele>
        <time>2022-08-09T08:32:40.258Z</time>
      </trkpt>
      <trkpt lat="48.53507" lon="2.10583">
        <ele>145</ele>
        <time>2022-08-09T08:32:45.245Z</time>
      </trkpt>
      <trkpt lat="48.53509" lon="2.10595">
        <ele>145</ele>
        <time>2022-08-09T08:32:50.263Z</time>
      </trkpt>
      <trkpt lat="48.53511" lon="2.10607">
        <ele>145</ele>
        <time>2022-08-09T08:32:55.253Z</time>
      </trkpt>
      <trkpt lat="48.53513" lon="2.10616">
        <ele>145</ele>
        <time>2022-08-09T08:32:59.255Z</time>
      </trkpt>
      <trkpt lat="48.53515" lon="2.10628">
        <ele>145</ele>
        <time>2022-08-09T08:33:04.243Z</time>
      </trkpt>
      <trkpt lat="48.53517" lon="2.10637">
        <ele>145</ele>
        <time>2022-08-09T08:33:08.252Z</time>
      </trkpt>
      <trkpt lat="48.53518" lon="2.1065">
        <ele>145</ele>
        <time>2022-08-09T08:33:13.255Z</time>
      </trkpt>
      <trkpt lat="48.5352" lon="2.1066">
        <ele>145</ele>
        <time>2022-08-09T08:33:18.232Z</time>
      </trkpt>
      <trkpt lat="48.53521" lon="2.10668">
        <ele>145</ele>
        <time>2022-08-09T08:33:22.254Z</time>
      </trkpt>
      <trkpt lat="48.53523" lon="2.10676">
        <ele>145</ele>
        <time>2022-08-09T08:33:26.248Z</time>
      </trkpt>
      <trkpt lat="48.53524" lon="2.10686">
        <ele>146</ele>
        <time>2022-08-09T08:33:31.206Z</time>
      </trkpt>
      <trkpt lat="48.53526" lon="2.10694">
        <ele>146</ele>
        <time>2022-08-09T08:33:35.234Z</time>
      </trkpt>
      <trkpt lat="48.53528" lon="2.10702">
        <ele>146</ele>
        <time>2022-08-09T08:33:39.246Z</time>
      </trkpt>
      <trkpt lat="48.5353" lon="2.10714">
        <ele>147</ele>
        <time>2022-08-09T08:33:44.238Z</time>
      </trkpt>
      <trkpt lat="48.53532" lon="2.10726">
        <ele>147</ele>
        <time>2022-08-09T08:33:49.249Z</time>
      </trkpt>
      <trkpt lat="48.53533" lon="2.10738">
        <ele>148</ele>
        <time>2022-08-09T08:33:54.252Z</time>
      </trkpt>
      <trkpt lat="48.53534" lon="2.10746">
        <ele>148</ele>
        <time>2022-08-09T08:33:58.266Z</time>
      </trkpt>
      <trkpt lat="48.53536" lon="2.10758">
        <ele>148</ele>
        <time>2022-08-09T08:34:03.246Z</time>
      </trkpt>
      <trkpt lat="48.53537" lon="2.10766">
        <ele>149</ele>
        <time>2022-08-09T08:34:08.268Z</time>
      </trkpt>
      <trkpt lat="48.53539" lon="2.10778">
        <ele>149</ele>
        <time>2022-08-09T08:34:13.240Z</time>
      </trkpt>
      <trkpt lat="48.53541" lon="2.10788">
        <ele>149</ele>
        <time>2022-08-09T08:34:17.233Z</time>
      </trkpt>
      <trkpt lat="48.53543" lon="2.10796">
        <ele>151</ele>
        <time>2022-08-09T08:34:21.255Z</time>
      </trkpt>
      <trkpt lat="48.53538" lon="2.10812">
        <ele>150</ele>
        <time>2022-08-09T08:49:14.239Z</time>
      </trkpt>
      <trkpt lat="48.53538" lon="2.10813">
        <ele>150</ele>
        <time>2022-08-09T08:49:19.209Z</time>
      </trkpt>
      <trkpt lat="48.53539" lon="2.10818">
        <ele>150</ele>
        <time>2022-08-09T08:49:24.209Z</time>
      </trkpt>
      <trkpt lat="48.53539" lon="2.10824">
        <ele>151</ele>
        <time>2022-08-09T08:49:28.225Z</time>
      </trkpt>
      <trkpt lat="48.53539" lon="2.10828">
        <ele>151</ele>
        <time>2022-08-09T08:49:32.257Z</time>
      </trkpt>
      <trkpt lat="48.53539" lon="2.1084">
        <ele>151</ele>
        <time>2022-08-09T08:49:37.231Z</time>
      </trkpt>
      <trkpt lat="48.53539" lon="2.10849">
        <ele>151</ele>
        <time>2022-08-09T08:49:41.216Z</time>
      </trkpt>
      <trkpt lat="48.5354" lon="2.10858">
        <ele>151</ele>
        <time>2022-08-09T08:49:46.250Z</time>
      </trkpt>
      <trkpt lat="48.53539" lon="2.1087">
        <ele>151</ele>
        <time>2022-08-09T08:49:51.242Z</time>
      </trkpt>
      <trkpt lat="48.53539" lon="2.10879">
        <ele>151</ele>
        <time>2022-08-09T08:49:56.239Z</time>
      </trkpt>
      <trkpt lat="48.53538" lon="2.1089">
        <ele>151</ele>
        <time>2022-08-09T08:50:01.227Z</time>
      </trkpt>
      <trkpt lat="48.53541" lon="2.10902">
        <ele>151</ele>
        <time>2022-08-09T08:50:06.208Z</time>
      </trkpt>
      <trkpt lat="48.53544" lon="2.10909">
        <ele>151</ele>
        <time>2022-08-09T08:50:10.266Z</time>
      </trkpt>
      <trkpt lat="48.53548" lon="2.10917">
        <ele>151</ele>
        <time>2022-08-09T08:50:15.235Z</time>
      </trkpt>
      <trkpt lat="48.53553" lon="2.10925">
        <ele>151</ele>
        <time>2022-08-09T08:50:20.251Z</time>
      </trkpt>
      <trkpt lat="48.53556" lon="2.10931">
        <ele>151</ele>
        <time>2022-08-09T08:50:25.228Z</time>
      </trkpt>
      <trkpt lat="48.53557" lon="2.10931">
        <ele>151</ele>
        <time>2022-08-09T08:50:30.216Z</time>
      </trkpt>
      <trkpt lat="48.53557" lon="2.10931">
        <ele>151</ele>
        <time>2022-08-09T08:50:35.203Z</time>
      </trkpt>
      <trkpt lat="48.53559" lon="2.10934">
        <ele>151</ele>
        <time>2022-08-09T08:50:39.221Z</time>
      </trkpt>
      <trkpt lat="48.53562" lon="2.10939">
        <ele>151</ele>
        <time>2022-08-09T08:50:43.243Z</time>
      </trkpt>
      <trkpt lat="48.53567" lon="2.10947">
        <ele>151</ele>
        <time>2022-08-09T08:50:48.233Z</time>
      </trkpt>
      <trkpt lat="48.5357" lon="2.10954">
        <ele>152</ele>
        <time>2022-08-09T08:50:52.262Z</time>
      </trkpt>
      <trkpt lat="48.53574" lon="2.10962">
        <ele>151</ele>
        <time>2022-08-09T08:50:57.230Z</time>
      </trkpt>
      <trkpt lat="48.53578" lon="2.10968">
        <ele>151</ele>
        <time>2022-08-09T08:51:01.224Z</time>
      </trkpt>
      <trkpt lat="48.53584" lon="2.10977">
        <ele>151</ele>
        <time>2022-08-09T08:51:06.243Z</time>
      </trkpt>
      <trkpt lat="48.53587" lon="2.10983">
        <ele>151</ele>
        <time>2022-08-09T08:51:10.262Z</time>
      </trkpt>
      <trkpt lat="48.53591" lon="2.10991">
        <ele>150</ele>
        <time>2022-08-09T08:51:15.249Z</time>
      </trkpt>
      <trkpt lat="48.53594" lon="2.10999">
        <ele>150</ele>
        <time>2022-08-09T08:51:19.224Z</time>
      </trkpt>
      <trkpt lat="48.53597" lon="2.11005">
        <ele>150</ele>
        <time>2022-08-09T08:51:23.223Z</time>
      </trkpt>
      <trkpt lat="48.536" lon="2.11011">
        <ele>152</ele>
        <time>2022-08-09T08:51:27.221Z</time>
      </trkpt>
      <trkpt lat="48.53604" lon="2.11021">
        <ele>151</ele>
        <time>2022-08-09T08:51:32.226Z</time>
      </trkpt>
      <trkpt lat="48.53607" lon="2.11027">
        <ele>151</ele>
        <time>2022-08-09T08:51:36.272Z</time>
      </trkpt>
      <trkpt lat="48.53611" lon="2.11037">
        <ele>151</ele>
        <time>2022-08-09T08:51:41.242Z</time>
      </trkpt>
      <trkpt lat="48.53615" lon="2.11047">
        <ele>151</ele>
        <time>2022-08-09T08:51:46.262Z</time>
      </trkpt>
      <trkpt lat="48.53617" lon="2.11055">
        <ele>151</ele>
        <time>2022-08-09T08:51:50.253Z</time>
      </trkpt>
      <trkpt lat="48.5362" lon="2.11062">
        <ele>151</ele>
        <time>2022-08-09T08:51:54.268Z</time>
      </trkpt>
      <trkpt lat="48.53622" lon="2.11072">
        <ele>152</ele>
        <time>2022-08-09T08:51:59.230Z</time>
      </trkpt>
      <trkpt lat="48.53623" lon="2.11081">
        <ele>152</ele>
        <time>2022-08-09T08:52:04.261Z</time>
      </trkpt>
      <trkpt lat="48.53625" lon="2.11091">
        <ele>152</ele>
        <time>2022-08-09T08:52:09.242Z</time>
      </trkpt>
      <trkpt lat="48.53626" lon="2.11102">
        <ele>155</ele>
        <time>2022-08-09T08:52:14.273Z</time>
      </trkpt>
      <trkpt lat="48.53628" lon="2.11111">
        <ele>155</ele>
        <time>2022-08-09T08:52:19.230Z</time>
      </trkpt>
      <trkpt lat="48.53631" lon="2.11122">
        <ele>155</ele>
        <time>2022-08-09T08:52:24.258Z</time>
      </trkpt>
      <trkpt lat="48.53633" lon="2.1113">
        <ele>156</ele>
        <time>2022-08-09T08:52:28.284Z</time>
      </trkpt>
      <trkpt lat="48.53636" lon="2.11139">
        <ele>156</ele>
        <time>2022-08-09T08:52:33.232Z</time>
      </trkpt>
      <trkpt lat="48.53639" lon="2.11149">
        <ele>156</ele>
        <time>2022-08-09T08:52:37.216Z</time>
      </trkpt>
      <trkpt lat="48.53641" lon="2.11157">
        <ele>156</ele>
        <time>2022-08-09T08:52:41.236Z</time>
      </trkpt>
      <trkpt lat="48.53644" lon="2.11167">
        <ele>156</ele>
        <time>2022-08-09T08:52:46.244Z</time>
      </trkpt>
      <trkpt lat="48.53647" lon="2.11176">
        <ele>156</ele>
        <time>2022-08-09T08:52:50.257Z</time>
      </trkpt>
      <trkpt lat="48.53648" lon="2.11182">
        <ele>155</ele>
        <time>2022-08-09T08:52:54.253Z</time>
      </trkpt>
      <trkpt lat="48.53651" lon="2.11193">
        <ele>155</ele>
        <time>2022-08-09T08:52:59.247Z</time>
      </trkpt>
      <trkpt lat="48.53654" lon="2.11203">
        <ele>157</ele>
        <time>2022-08-09T08:53:04.267Z</time>
      </trkpt>
      <trkpt lat="48.53659" lon="2.11214">
        <ele>156</ele>
        <time>2022-08-09T08:53:09.228Z</time>
      </trkpt>
      <trkpt lat="48.53662" lon="2.11222">
        <ele>156</ele>
        <time>2022-08-09T08:53:14.240Z</time>
      </trkpt>
      <trkpt lat="48.53666" lon="2.11229">
        <ele>156</ele>
        <time>2022-08-09T08:53:19.254Z</time>
      </trkpt>
      <trkpt lat="48.5367" lon="2.11232">
        <ele>156</ele>
        <time>2022-08-09T08:53:24.279Z</time>
      </trkpt>
      <trkpt lat="48.53674" lon="2.11237">
        <ele>155</ele>
        <time>2022-08-09T08:53:29.234Z</time>
      </trkpt>
      <trkpt lat="48.5368" lon="2.1124">
        <ele>155</ele>
        <time>2022-08-09T08:53:34.246Z</time>
      </trkpt>
      <trkpt lat="48.53684" lon="2.11243">
        <ele>156</ele>
        <time>2022-08-09T08:53:38.255Z</time>
      </trkpt>
      <trkpt lat="48.5369" lon="2.11247">
        <ele>156</ele>
        <time>2022-08-09T08:53:43.254Z</time>
      </trkpt>
      <trkpt lat="48.53696" lon="2.11251">
        <ele>156</ele>
        <time>2022-08-09T08:53:48.258Z</time>
      </trkpt>
      <trkpt lat="48.53701" lon="2.11255">
        <ele>156</ele>
        <time>2022-08-09T08:53:52.264Z</time>
      </trkpt>
      <trkpt lat="48.53707" lon="2.11259">
        <ele>156</ele>
        <time>2022-08-09T08:53:57.225Z</time>
      </trkpt>
      <trkpt lat="48.53713" lon="2.11264">
        <ele>155</ele>
        <time>2022-08-09T08:54:02.263Z</time>
      </trkpt>
      <trkpt lat="48.53718" lon="2.11266">
        <ele>155</ele>
        <time>2022-08-09T08:54:06.260Z</time>
      </trkpt>
      <trkpt lat="48.53725" lon="2.11267">
        <ele>155</ele>
        <time>2022-08-09T08:54:10.245Z</time>
      </trkpt>
      <trkpt lat="48.53732" lon="2.1127">
        <ele>155</ele>
        <time>2022-08-09T08:54:15.212Z</time>
      </trkpt>
      <trkpt lat="48.53737" lon="2.11277">
        <ele>155</ele>
        <time>2022-08-09T08:54:19.210Z</time>
      </trkpt>
      <trkpt lat="48.53739" lon="2.11284">
        <ele>155</ele>
        <time>2022-08-09T08:54:23.237Z</time>
      </trkpt>
      <trkpt lat="48.5374" lon="2.11293">
        <ele>153</ele>
        <time>2022-08-09T08:54:28.214Z</time>
      </trkpt>
      <trkpt lat="48.5374" lon="2.113">
        <ele>153</ele>
        <time>2022-08-09T08:54:32.263Z</time>
      </trkpt>
      <trkpt lat="48.53738" lon="2.11309">
        <ele>153</ele>
        <time>2022-08-09T08:54:37.242Z</time>
      </trkpt>
      <trkpt lat="48.53736" lon="2.11319">
        <ele>153</ele>
        <time>2022-08-09T08:54:42.250Z</time>
      </trkpt>
      <trkpt lat="48.53734" lon="2.11329">
        <ele>151</ele>
        <time>2022-08-09T08:54:47.242Z</time>
      </trkpt>
      <trkpt lat="48.53733" lon="2.1134">
        <ele>151</ele>
        <time>2022-08-09T08:54:52.264Z</time>
      </trkpt>
      <trkpt lat="48.53731" lon="2.11351">
        <ele>149</ele>
        <time>2022-08-09T08:54:57.243Z</time>
      </trkpt>
      <trkpt lat="48.5373" lon="2.11362">
        <ele>149</ele>
        <time>2022-08-09T08:55:02.256Z</time>
      </trkpt>
      <trkpt lat="48.53729" lon="2.11372">
        <ele>149</ele>
        <time>2022-08-09T08:55:07.234Z</time>
      </trkpt>
      <trkpt lat="48.53726" lon="2.11383">
        <ele>147</ele>
        <time>2022-08-09T08:55:12.260Z</time>
      </trkpt>
      <trkpt lat="48.53725" lon="2.11391">
        <ele>147</ele>
        <time>2022-08-09T08:55:16.268Z</time>
      </trkpt>
      <trkpt lat="48.53723" lon="2.11402">
        <ele>147</ele>
        <time>2022-08-09T08:55:21.241Z</time>
      </trkpt>
      <trkpt lat="48.53721" lon="2.11413">
        <ele>146</ele>
        <time>2022-08-09T08:55:26.246Z</time>
      </trkpt>
      <trkpt lat="48.53718" lon="2.11423">
        <ele>146</ele>
        <time>2022-08-09T08:55:31.232Z</time>
      </trkpt>
      <trkpt lat="48.53717" lon="2.11434">
        <ele>146</ele>
        <time>2022-08-09T08:55:36.263Z</time>
      </trkpt>
      <trkpt lat="48.53715" lon="2.11445">
        <ele>146</ele>
        <time>2022-08-09T08:55:41.216Z</time>
      </trkpt>
      <trkpt lat="48.53713" lon="2.11457">
        <ele>146</ele>
        <time>2022-08-09T08:55:46.219Z</time>
      </trkpt>
      <trkpt lat="48.53711" lon="2.11466">
        <ele>147</ele>
        <time>2022-08-09T08:55:50.262Z</time>
      </trkpt>
      <trkpt lat="48.53709" lon="2.11473">
        <ele>147</ele>
        <time>2022-08-09T08:55:54.239Z</time>
      </trkpt>
      <trkpt lat="48.53708" lon="2.11482">
        <ele>148</ele>
        <time>2022-08-09T08:55:58.253Z</time>
      </trkpt>
      <trkpt lat="48.53706" lon="2.11493">
        <ele>149</ele>
        <time>2022-08-09T08:56:03.230Z</time>
      </trkpt>
      <trkpt lat="48.53705" lon="2.11501">
        <ele>149</ele>
        <time>2022-08-09T08:56:07.232Z</time>
      </trkpt>
      <trkpt lat="48.53704" lon="2.11512">
        <ele>149</ele>
        <time>2022-08-09T08:56:12.255Z</time>
      </trkpt>
      <trkpt lat="48.53702" lon="2.11524">
        <ele>149</ele>
        <time>2022-08-09T08:56:17.241Z</time>
      </trkpt>
      <trkpt lat="48.537" lon="2.11534">
        <ele>149</ele>
        <time>2022-08-09T08:56:22.242Z</time>
      </trkpt>
      <trkpt lat="48.53698" lon="2.11542">
        <ele>149</ele>
        <time>2022-08-09T08:56:26.268Z</time>
      </trkpt>
      <trkpt lat="48.53697" lon="2.11553">
        <ele>149</ele>
        <time>2022-08-09T08:56:31.231Z</time>
      </trkpt>
      <trkpt lat="48.53694" lon="2.11563">
        <ele>149</ele>
        <time>2022-08-09T08:56:36.257Z</time>
      </trkpt>
      <trkpt lat="48.53693" lon="2.11573">
        <ele>148</ele>
        <time>2022-08-09T08:56:40.264Z</time>
      </trkpt>
      <trkpt lat="48.53691" lon="2.11581">
        <ele>148</ele>
        <time>2022-08-09T08:56:44.253Z</time>
      </trkpt>
      <trkpt lat="48.53689" lon="2.1159">
        <ele>148</ele>
        <time>2022-08-09T08:56:48.254Z</time>
      </trkpt>
      <trkpt lat="48.53687" lon="2.116">
        <ele>148</ele>
        <time>2022-08-09T08:56:53.229Z</time>
      </trkpt>
      <trkpt lat="48.53686" lon="2.11609">
        <ele>148</ele>
        <time>2022-08-09T08:56:57.245Z</time>
      </trkpt>
      <trkpt lat="48.53684" lon="2.11621">
        <ele>148</ele>
        <time>2022-08-09T08:57:02.262Z</time>
      </trkpt>
      <trkpt lat="48.53683" lon="2.1163">
        <ele>147</ele>
        <time>2022-08-09T08:57:06.257Z</time>
      </trkpt>
      <trkpt lat="48.53681" lon="2.1164">
        <ele>147</ele>
        <time>2022-08-09T08:57:11.220Z</time>
      </trkpt>
      <trkpt lat="48.53679" lon="2.11647">
        <ele>149</ele>
        <time>2022-08-09T08:57:15.237Z</time>
      </trkpt>
      <trkpt lat="48.53673" lon="2.11652">
        <ele>149</ele>
        <time>2022-08-09T08:57:20.273Z</time>
      </trkpt>
      <trkpt lat="48.53666" lon="2.11652">
        <ele>149</ele>
        <time>2022-08-09T08:57:25.229Z</time>
      </trkpt>
      <trkpt lat="48.5366" lon="2.11652">
        <ele>149</ele>
        <time>2022-08-09T08:57:29.240Z</time>
      </trkpt>
      <trkpt lat="48.53654" lon="2.11653">
        <ele>149</ele>
        <time>2022-08-09T08:57:33.233Z</time>
      </trkpt>
      <trkpt lat="48.53648" lon="2.11654">
        <ele>150</ele>
        <time>2022-08-09T08:57:37.246Z</time>
      </trkpt>
      <trkpt lat="48.53641" lon="2.11655">
        <ele>150</ele>
        <time>2022-08-09T08:57:42.263Z</time>
      </trkpt>
      <trkpt lat="48.53633" lon="2.11656">
        <ele>150</ele>
        <time>2022-08-09T08:57:47.219Z</time>
      </trkpt>
      <trkpt lat="48.53627" lon="2.11658">
        <ele>150</ele>
        <time>2022-08-09T08:57:51.218Z</time>
      </trkpt>
      <trkpt lat="48.53621" lon="2.11659">
        <ele>150</ele>
        <time>2022-08-09T08:57:55.219Z</time>
      </trkpt>
      <trkpt lat="48.53615" lon="2.11661">
        <ele>150</ele>
        <time>2022-08-09T08:57:59.245Z</time>
      </trkpt>
      <trkpt lat="48.53607" lon="2.11665">
        <ele>150</ele>
        <time>2022-08-09T08:58:04.250Z</time>
      </trkpt>
      <trkpt lat="48.536" lon="2.11668">
        <ele>150</ele>
        <time>2022-08-09T08:58:09.233Z</time>
      </trkpt>
      <trkpt lat="48.53593" lon="2.1167">
        <ele>151</ele>
        <time>2022-08-09T08:58:14.250Z</time>
      </trkpt>
      <trkpt lat="48.53585" lon="2.11673">
        <ele>151</ele>
        <time>2022-08-09T08:58:19.222Z</time>
      </trkpt>
      <trkpt lat="48.5358" lon="2.11675">
        <ele>151</ele>
        <time>2022-08-09T08:58:23.239Z</time>
      </trkpt>
      <trkpt lat="48.53573" lon="2.11679">
        <ele>151</ele>
        <time>2022-08-09T08:58:28.228Z</time>
      </trkpt>
      <trkpt lat="48.53565" lon="2.11681">
        <ele>153</ele>
        <time>2022-08-09T08:58:33.240Z</time>
      </trkpt>
      <trkpt lat="48.53558" lon="2.11683">
        <ele>153</ele>
        <time>2022-08-09T08:58:38.225Z</time>
      </trkpt>
      <trkpt lat="48.53553" lon="2.11686">
        <ele>153</ele>
        <time>2022-08-09T08:58:42.248Z</time>
      </trkpt>
      <trkpt lat="48.53549" lon="2.11694">
        <ele>153</ele>
        <time>2022-08-09T08:58:47.218Z</time>
      </trkpt>
      <trkpt lat="48.5355" lon="2.11697">
        <ele>153</ele>
        <time>2022-08-09T08:58:52.211Z</time>
      </trkpt>
      <trkpt lat="48.53551" lon="2.11702">
        <ele>153</ele>
        <time>2022-08-09T08:58:56.268Z</time>
      </trkpt>
      <trkpt lat="48.53553" lon="2.11714">
        <ele>152</ele>
        <time>2022-08-09T08:59:01.205Z</time>
      </trkpt>
      <trkpt lat="48.53553" lon="2.11723">
        <ele>152</ele>
        <time>2022-08-09T08:59:05.231Z</time>
      </trkpt>
      <trkpt lat="48.53555" lon="2.11734">
        <ele>152</ele>
        <time>2022-08-09T08:59:10.231Z</time>
      </trkpt>
      <trkpt lat="48.53556" lon="2.11743">
        <ele>151</ele>
        <time>2022-08-09T08:59:14.252Z</time>
      </trkpt>
      <trkpt lat="48.53556" lon="2.11754">
        <ele>151</ele>
        <time>2022-08-09T08:59:19.240Z</time>
      </trkpt>
      <trkpt lat="48.53557" lon="2.11766">
        <ele>151</ele>
        <time>2022-08-09T08:59:24.246Z</time>
      </trkpt>
      <trkpt lat="48.53559" lon="2.11776">
        <ele>151</ele>
        <time>2022-08-09T08:59:29.258Z</time>
      </trkpt>
      <trkpt lat="48.5356" lon="2.11788">
        <ele>151</ele>
        <time>2022-08-09T08:59:34.246Z</time>
      </trkpt>
      <trkpt lat="48.53561" lon="2.11798">
        <ele>150</ele>
        <time>2022-08-09T08:59:39.238Z</time>
      </trkpt>
      <trkpt lat="48.53563" lon="2.11806">
        <ele>150</ele>
        <time>2022-08-09T08:59:43.230Z</time>
      </trkpt>
      <trkpt lat="48.53564" lon="2.11818">
        <ele>150</ele>
        <time>2022-08-09T08:59:48.234Z</time>
      </trkpt>
      <trkpt lat="48.53565" lon="2.11827">
        <ele>150</ele>
        <time>2022-08-09T08:59:52.246Z</time>
      </trkpt>
      <trkpt lat="48.53566" lon="2.11835">
        <ele>150</ele>
        <time>2022-08-09T08:59:56.260Z</time>
      </trkpt>
      <trkpt lat="48.53568" lon="2.11846">
        <ele>150</ele>
        <time>2022-08-09T09:00:01.249Z</time>
      </trkpt>
      <trkpt lat="48.53569" lon="2.11858">
        <ele>151</ele>
        <time>2022-08-09T09:00:06.235Z</time>
      </trkpt>
      <trkpt lat="48.5357" lon="2.11866">
        <ele>151</ele>
        <time>2022-08-09T09:00:10.278Z</time>
      </trkpt>
      <trkpt lat="48.53572" lon="2.11878">
        <ele>151</ele>
        <time>2022-08-09T09:00:15.261Z</time>
      </trkpt>
      <trkpt lat="48.53573" lon="2.1189">
        <ele>151</ele>
        <time>2022-08-09T09:00:20.262Z</time>
      </trkpt>
      <trkpt lat="48.53575" lon="2.11902">
        <ele>151</ele>
        <time>2022-08-09T09:00:25.253Z</time>
      </trkpt>
      <trkpt lat="48.53577" lon="2.11913">
        <ele>150</ele>
        <time>2022-08-09T09:00:30.250Z</time>
      </trkpt>
      <trkpt lat="48.53578" lon="2.11923">
        <ele>150</ele>
        <time>2022-08-09T09:00:34.302Z</time>
      </trkpt>
      <trkpt lat="48.53579" lon="2.11933">
        <ele>150</ele>
        <time>2022-08-09T09:00:39.251Z</time>
      </trkpt>
      <trkpt lat="48.5358" lon="2.11942">
        <ele>150</ele>
        <time>2022-08-09T09:00:43.256Z</time>
      </trkpt>
      <trkpt lat="48.53581" lon="2.11953">
        <ele>150</ele>
        <time>2022-08-09T09:00:48.229Z</time>
      </trkpt>
      <trkpt lat="48.53583" lon="2.11962">
        <ele>150</ele>
        <time>2022-08-09T09:00:52.245Z</time>
      </trkpt>
      <trkpt lat="48.53584" lon="2.11973">
        <ele>150</ele>
        <time>2022-08-09T09:00:57.253Z</time>
      </trkpt>
      <trkpt lat="48.53585" lon="2.11982">
        <ele>150</ele>
        <time>2022-08-09T09:01:01.247Z</time>
      </trkpt>
      <trkpt lat="48.53587" lon="2.11993">
        <ele>150</ele>
        <time>2022-08-09T09:01:06.253Z</time>
      </trkpt>
      <trkpt lat="48.53589" lon="2.12005">
        <ele>150</ele>
        <time>2022-08-09T09:01:11.238Z</time>
      </trkpt>
      <trkpt lat="48.5359" lon="2.12014">
        <ele>150</ele>
        <time>2022-08-09T09:01:15.241Z</time>
      </trkpt>
      <trkpt lat="48.53593" lon="2.12025">
        <ele>150</ele>
        <time>2022-08-09T09:01:20.264Z</time>
      </trkpt>
      <trkpt lat="48.53596" lon="2.12035">
        <ele>150</ele>
        <time>2022-08-09T09:01:25.261Z</time>
      </trkpt>
      <trkpt lat="48.53599" lon="2.12044">
        <ele>149</ele>
        <time>2022-08-09T09:01:29.246Z</time>
      </trkpt>
      <trkpt lat="48.53602" lon="2.12055">
        <ele>149</ele>
        <time>2022-08-09T09:01:34.269Z</time>
      </trkpt>
      <trkpt lat="48.53605" lon="2.12066">
        <ele>149</ele>
        <time>2022-08-09T09:01:39.245Z</time>
      </trkpt>
      <trkpt lat="48.53608" lon="2.12077">
        <ele>149</ele>
        <time>2022-08-09T09:01:44.249Z</time>
      </trkpt>
      <trkpt lat="48.5361" lon="2.12084">
        <ele>149</ele>
        <time>2022-08-09T09:01:48.237Z</time>
      </trkpt>
      <trkpt lat="48.53613" lon="2.12093">
        <ele>149</ele>
        <time>2022-08-09T09:01:52.244Z</time>
      </trkpt>
      <trkpt lat="48.53616" lon="2.12103">
        <ele>149</ele>
        <time>2022-08-09T09:01:57.252Z</time>
      </trkpt>
      <trkpt lat="48.5362" lon="2.12112">
        <ele>149</ele>
        <time>2022-08-09T09:02:02.256Z</time>
      </trkpt>
      <trkpt lat="48.53623" lon="2.12122">
        <ele>149</ele>
        <time>2022-08-09T09:02:06.235Z</time>
      </trkpt>
      <trkpt lat="48.53626" lon="2.12133">
        <ele>147</ele>
        <time>2022-08-09T09:02:11.234Z</time>
      </trkpt>
      <trkpt lat="48.5363" lon="2.12145">
        <ele>147</ele>
        <time>2022-08-09T09:02:16.255Z</time>
      </trkpt>
      <trkpt lat="48.53633" lon="2.12156">
        <ele>146</ele>
        <time>2022-08-09T09:02:21.262Z</time>
      </trkpt>
      <trkpt lat="48.53636" lon="2.12164">
        <ele>146</ele>
        <time>2022-08-09T09:02:25.249Z</time>
      </trkpt>
      <trkpt lat="48.5364" lon="2.12175">
        <ele>146</ele>
        <time>2022-08-09T09:02:30.260Z</time>
      </trkpt>
      <trkpt lat="48.53643" lon="2.12185">
        <ele>146</ele>
        <time>2022-08-09T09:02:35.272Z</time>
      </trkpt>
      <trkpt lat="48.53647" lon="2.12195">
        <ele>146</ele>
        <time>2022-08-09T09:02:40.261Z</time>
      </trkpt>
      <trkpt lat="48.5365" lon="2.12204">
        <ele>146</ele>
        <time>2022-08-09T09:02:44.261Z</time>
      </trkpt>
      <trkpt lat="48.53654" lon="2.12215">
        <ele>145</ele>
        <time>2022-08-09T09:02:49.245Z</time>
      </trkpt>
      <trkpt lat="48.53659" lon="2.12226">
        <ele>145</ele>
        <time>2022-08-09T09:02:54.235Z</time>
      </trkpt>
      <trkpt lat="48.53663" lon="2.12236">
        <ele>145</ele>
        <time>2022-08-09T09:02:59.256Z</time>
      </trkpt>
      <trkpt lat="48.53668" lon="2.12246">
        <ele>145</ele>
        <time>2022-08-09T09:03:04.268Z</time>
      </trkpt>
      <trkpt lat="48.53672" lon="2.12256">
        <ele>145</ele>
        <time>2022-08-09T09:03:09.253Z</time>
      </trkpt>
      <trkpt lat="48.53675" lon="2.12264">
        <ele>144</ele>
        <time>2022-08-09T09:03:13.240Z</time>
      </trkpt>
      <trkpt lat="48.53679" lon="2.12272">
        <ele>144</ele>
        <time>2022-08-09T09:03:17.255Z</time>
      </trkpt>
      <trkpt lat="48.53682" lon="2.1228">
        <ele>143</ele>
        <time>2022-08-09T09:03:21.274Z</time>
      </trkpt>
      <trkpt lat="48.53687" lon="2.1229">
        <ele>143</ele>
        <time>2022-08-09T09:03:26.246Z</time>
      </trkpt>
      <trkpt lat="48.53691" lon="2.12298">
        <ele>142</ele>
        <time>2022-08-09T09:03:30.247Z</time>
      </trkpt>
      <trkpt lat="48.53695" lon="2.12308">
        <ele>142</ele>
        <time>2022-08-09T09:03:35.247Z</time>
      </trkpt>
      <trkpt lat="48.537" lon="2.12318">
        <ele>142</ele>
        <time>2022-08-09T09:03:40.252Z</time>
      </trkpt>
      <trkpt lat="48.53703" lon="2.12325">
        <ele>140</ele>
        <time>2022-08-09T09:03:44.270Z</time>
      </trkpt>
      <trkpt lat="48.53707" lon="2.12337">
        <ele>140</ele>
        <time>2022-08-09T09:03:49.252Z</time>
      </trkpt>
      <trkpt lat="48.5371" lon="2.12348">
        <ele>140</ele>
        <time>2022-08-09T09:03:54.237Z</time>
      </trkpt>
      <trkpt lat="48.53713" lon="2.12359">
        <ele>140</ele>
        <time>2022-08-09T09:03:59.235Z</time>
      </trkpt>
      <trkpt lat="48.53716" lon="2.12368">
        <ele>140</ele>
        <time>2022-08-09T09:04:03.228Z</time>
      </trkpt>
      <trkpt lat="48.53718" lon="2.12379">
        <ele>140</ele>
        <time>2022-08-09T09:04:08.240Z</time>
      </trkpt>
      <trkpt lat="48.5372" lon="2.12388">
        <ele>140</ele>
        <time>2022-08-09T09:04:12.271Z</time>
      </trkpt>
      <trkpt lat="48.53722" lon="2.12399">
        <ele>140</ele>
        <time>2022-08-09T09:04:17.264Z</time>
      </trkpt>
      <trkpt lat="48.53726" lon="2.1241">
        <ele>139</ele>
        <time>2022-08-09T09:04:22.251Z</time>
      </trkpt>
      <trkpt lat="48.53728" lon="2.12422">
        <ele>139</ele>
        <time>2022-08-09T09:04:27.274Z</time>
      </trkpt>
      <trkpt lat="48.53731" lon="2.12433">
        <ele>139</ele>
        <time>2022-08-09T09:04:32.249Z</time>
      </trkpt>
      <trkpt lat="48.53733" lon="2.12441">
        <ele>139</ele>
        <time>2022-08-09T09:04:36.279Z</time>
      </trkpt>
      <trkpt lat="48.53736" lon="2.12452">
        <ele>139</ele>
        <time>2022-08-09T09:04:41.238Z</time>
      </trkpt>
      <trkpt lat="48.53737" lon="2.12462">
        <ele>138</ele>
        <time>2022-08-09T09:04:45.266Z</time>
      </trkpt>
      <trkpt lat="48.5374" lon="2.12473">
        <ele>138</ele>
        <time>2022-08-09T09:04:50.220Z</time>
      </trkpt>
      <trkpt lat="48.53742" lon="2.12482">
        <ele>138</ele>
        <time>2022-08-09T09:04:54.247Z</time>
      </trkpt>
      <trkpt lat="48.53744" lon="2.12494">
        <ele>137</ele>
        <time>2022-08-09T09:04:59.239Z</time>
      </trkpt>
      <trkpt lat="48.53747" lon="2.12505">
        <ele>137</ele>
        <time>2022-08-09T09:05:04.244Z</time>
      </trkpt>
      <trkpt lat="48.53749" lon="2.12514">
        <ele>137</ele>
        <time>2022-08-09T09:05:08.230Z</time>
      </trkpt>
      <trkpt lat="48.53751" lon="2.12525">
        <ele>137</ele>
        <time>2022-08-09T09:05:13.274Z</time>
      </trkpt>
      <trkpt lat="48.53754" lon="2.12536">
        <ele>137</ele>
        <time>2022-08-09T09:05:18.238Z</time>
      </trkpt>
      <trkpt lat="48.53756" lon="2.12546">
        <ele>137</ele>
        <time>2022-08-09T09:05:22.250Z</time>
      </trkpt>
      <trkpt lat="48.53759" lon="2.12556">
        <ele>137</ele>
        <time>2022-08-09T09:05:27.220Z</time>
      </trkpt>
      <trkpt lat="48.53761" lon="2.12567">
        <ele>137</ele>
        <time>2022-08-09T09:05:32.227Z</time>
      </trkpt>
      <trkpt lat="48.53764" lon="2.12578">
        <ele>138</ele>
        <time>2022-08-09T09:05:37.232Z</time>
      </trkpt>
      <trkpt lat="48.53767" lon="2.12587">
        <ele>138</ele>
        <time>2022-08-09T09:05:41.245Z</time>
      </trkpt>
      <trkpt lat="48.53769" lon="2.12598">
        <ele>138</ele>
        <time>2022-08-09T09:05:46.240Z</time>
      </trkpt>
      <trkpt lat="48.53773" lon="2.12609">
        <ele>138</ele>
        <time>2022-08-09T09:05:51.229Z</time>
      </trkpt>
      <trkpt lat="48.53775" lon="2.12618">
        <ele>138</ele>
        <time>2022-08-09T09:05:55.269Z</time>
      </trkpt>
      <trkpt lat="48.53778" lon="2.12629">
        <ele>139</ele>
        <time>2022-08-09T09:06:00.231Z</time>
      </trkpt>
      <trkpt lat="48.5378" lon="2.12638">
        <ele>139</ele>
        <time>2022-08-09T09:06:04.263Z</time>
      </trkpt>
      <trkpt lat="48.53783" lon="2.12649">
        <ele>139</ele>
        <time>2022-08-09T09:06:09.248Z</time>
      </trkpt>
      <trkpt lat="48.53788" lon="2.12659">
        <ele>140</ele>
        <time>2022-08-09T09:06:14.247Z</time>
      </trkpt>
      <trkpt lat="48.53792" lon="2.12668">
        <ele>139</ele>
        <time>2022-08-09T09:06:19.249Z</time>
      </trkpt>
      <trkpt lat="48.53797" lon="2.12677">
        <ele>139</ele>
        <time>2022-08-09T09:06:24.218Z</time>
      </trkpt>
      <trkpt lat="48.53801" lon="2.12684">
        <ele>141</ele>
        <time>2022-08-09T09:06:28.227Z</time>
      </trkpt>
      <trkpt lat="48.53804" lon="2.12691">
        <ele>141</ele>
        <time>2022-08-09T09:06:32.267Z</time>
      </trkpt>
      <trkpt lat="48.53808" lon="2.12701">
        <ele>141</ele>
        <time>2022-08-09T09:06:37.235Z</time>
      </trkpt>
      <trkpt lat="48.53811" lon="2.12709">
        <ele>143</ele>
        <time>2022-08-09T09:06:41.238Z</time>
      </trkpt>
      <trkpt lat="48.53814" lon="2.12718">
        <ele>143</ele>
        <time>2022-08-09T09:06:46.243Z</time>
      </trkpt>
      <trkpt lat="48.53818" lon="2.12728">
        <ele>143</ele>
        <time>2022-08-09T09:06:51.262Z</time>
      </trkpt>
      <trkpt lat="48.5382" lon="2.12736">
        <ele>142</ele>
        <time>2022-08-09T09:06:55.242Z</time>
      </trkpt>
      <trkpt lat="48.53822" lon="2.12743">
        <ele>143</ele>
        <time>2022-08-09T09:06:59.268Z</time>
      </trkpt>
      <trkpt lat="48.53825" lon="2.12753">
        <ele>143</ele>
        <time>2022-08-09T09:07:04.257Z</time>
      </trkpt>
      <trkpt lat="48.53828" lon="2.12761">
        <ele>143</ele>
        <time>2022-08-09T09:07:09.242Z</time>
      </trkpt>
      <trkpt lat="48.53831" lon="2.12769">
        <ele>143</ele>
        <time>2022-08-09T09:07:13.256Z</time>
      </trkpt>
      <trkpt lat="48.53834" lon="2.12779">
        <ele>143</ele>
        <time>2022-08-09T09:07:18.238Z</time>
      </trkpt>
      <trkpt lat="48.53837" lon="2.12787">
        <ele>143</ele>
        <time>2022-08-09T09:07:22.259Z</time>
      </trkpt>
      <trkpt lat="48.53839" lon="2.12795">
        <ele>144</ele>
        <time>2022-08-09T09:07:26.250Z</time>
      </trkpt>
      <trkpt lat="48.53842" lon="2.12805">
        <ele>144</ele>
        <time>2022-08-09T09:07:31.253Z</time>
      </trkpt>
      <trkpt lat="48.53846" lon="2.12816">
        <ele>144</ele>
        <time>2022-08-09T09:07:36.241Z</time>
      </trkpt>
      <trkpt lat="48.53849" lon="2.12825">
        <ele>145</ele>
        <time>2022-08-09T09:07:41.241Z</time>
      </trkpt>
      <trkpt lat="48.53851" lon="2.12833">
        <ele>145</ele>
        <time>2022-08-09T09:07:45.277Z</time>
      </trkpt>
      <trkpt lat="48.53852" lon="2.12843">
        <ele>145</ele>
        <time>2022-08-09T09:07:50.246Z</time>
      </trkpt>
      <trkpt lat="48.53853" lon="2.12848">
        <ele>146</ele>
        <time>2022-08-09T09:07:55.217Z</time>
      </trkpt>
      <trkpt lat="48.53854" lon="2.1285">
        <ele>146</ele>
        <time>2022-08-09T09:07:59.247Z</time>
      </trkpt>
      <trkpt lat="48.53856" lon="2.12854">
        <ele>146</ele>
        <time>2022-08-09T09:08:03.253Z</time>
      </trkpt>
      <trkpt lat="48.53856" lon="2.12864">
        <ele>146</ele>
        <time>2022-08-09T09:08:08.217Z</time>
      </trkpt>
      <trkpt lat="48.53856" lon="2.12874">
        <ele>146</ele>
        <time>2022-08-09T09:08:12.235Z</time>
      </trkpt>
      <trkpt lat="48.53856" lon="2.12882">
        <ele>147</ele>
        <time>2022-08-09T09:08:16.240Z</time>
      </trkpt>
      <trkpt lat="48.53855" lon="2.12894">
        <ele>147</ele>
        <time>2022-08-09T09:08:21.246Z</time>
      </trkpt>
      <trkpt lat="48.53856" lon="2.12906">
        <ele>149</ele>
        <time>2022-08-09T09:08:26.230Z</time>
      </trkpt>
      <trkpt lat="48.53855" lon="2.12916">
        <ele>149</ele>
        <time>2022-08-09T09:08:30.240Z</time>
      </trkpt>
      <trkpt lat="48.53855" lon="2.12925">
        <ele>149</ele>
        <time>2022-08-09T09:08:34.262Z</time>
      </trkpt>
      <trkpt lat="48.53855" lon="2.12936">
        <ele>150</ele>
        <time>2022-08-09T09:08:39.251Z</time>
      </trkpt>
      <trkpt lat="48.53853" lon="2.12947">
        <ele>150</ele>
        <time>2022-08-09T09:08:44.252Z</time>
      </trkpt>
      <trkpt lat="48.53853" lon="2.12958">
        <ele>150</ele>
        <time>2022-08-09T09:08:49.249Z</time>
      </trkpt>
      <trkpt lat="48.53853" lon="2.12967">
        <ele>151</ele>
        <time>2022-08-09T09:08:53.248Z</time>
      </trkpt>
      <trkpt lat="48.53852" lon="2.12977">
        <ele>151</ele>
        <time>2022-08-09T09:08:58.228Z</time>
      </trkpt>
      <trkpt lat="48.53852" lon="2.12984">
        <ele>151</ele>
        <time>2022-08-09T09:09:02.228Z</time>
      </trkpt>
      <trkpt lat="48.53851" lon="2.12992">
        <ele>153</ele>
        <time>2022-08-09T09:09:07.229Z</time>
      </trkpt>
      <trkpt lat="48.53851" lon="2.12999">
        <ele>153</ele>
        <time>2022-08-09T09:09:11.251Z</time>
      </trkpt>
      <trkpt lat="48.5385" lon="2.13008">
        <ele>153</ele>
        <time>2022-08-09T09:09:16.240Z</time>
      </trkpt>
      <trkpt lat="48.5385" lon="2.13015">
        <ele>153</ele>
        <time>2022-08-09T09:09:20.241Z</time>
      </trkpt>
      <trkpt lat="48.5385" lon="2.1302">
        <ele>153</ele>
        <time>2022-08-09T09:09:25.198Z</time>
      </trkpt>
      <trkpt lat="48.53854" lon="2.13032">
        <ele>153</ele>
        <time>2022-08-09T09:09:29.198Z</time>
      </trkpt>
      <trkpt lat="48.53855" lon="2.13042">
        <ele>152</ele>
        <time>2022-08-09T09:09:34.231Z</time>
      </trkpt>
      <trkpt lat="48.53851" lon="2.13052">
        <ele>152</ele>
        <time>2022-08-09T09:09:39.217Z</time>
      </trkpt>
      <trkpt lat="48.53849" lon="2.13062">
        <ele>152</ele>
        <time>2022-08-09T09:09:43.222Z</time>
      </trkpt>
      <trkpt lat="48.53847" lon="2.1307">
        <ele>150</ele>
        <time>2022-08-09T09:09:47.253Z</time>
      </trkpt>
      <trkpt lat="48.53846" lon="2.13081">
        <ele>150</ele>
        <time>2022-08-09T09:09:52.230Z</time>
      </trkpt>
      <trkpt lat="48.53848" lon="2.13093">
        <ele>151</ele>
        <time>2022-08-09T09:09:57.204Z</time>
      </trkpt>
      <trkpt lat="48.5385" lon="2.13102">
        <ele>150</ele>
        <time>2022-08-09T09:10:01.213Z</time>
      </trkpt>
      <trkpt lat="48.53854" lon="2.13114">
        <ele>150</ele>
        <time>2022-08-09T09:10:06.209Z</time>
      </trkpt>
      <trkpt lat="48.53858" lon="2.13121">
        <ele>150</ele>
        <time>2022-08-09T09:10:10.218Z</time>
      </trkpt>
      <trkpt lat="48.53861" lon="2.13131">
        <ele>149</ele>
        <time>2022-08-09T09:10:15.237Z</time>
      </trkpt>
      <trkpt lat="48.53864" lon="2.1314">
        <ele>149</ele>
        <time>2022-08-09T09:10:19.249Z</time>
      </trkpt>
      <trkpt lat="48.53867" lon="2.1315">
        <ele>149</ele>
        <time>2022-08-09T09:10:24.211Z</time>
      </trkpt>
      <trkpt lat="48.5387" lon="2.13159">
        <ele>149</ele>
        <time>2022-08-09T09:10:28.215Z</time>
      </trkpt>
      <trkpt lat="48.53874" lon="2.13166">
        <ele>149</ele>
        <time>2022-08-09T09:10:32.242Z</time>
      </trkpt>
      <trkpt lat="48.53878" lon="2.13177">
        <ele>152</ele>
        <time>2022-08-09T09:10:37.229Z</time>
      </trkpt>
      <trkpt lat="48.5388" lon="2.13184">
        <ele>151</ele>
        <time>2022-08-09T09:10:41.245Z</time>
      </trkpt>
      <trkpt lat="48.53883" lon="2.13196">
        <ele>151</ele>
        <time>2022-08-09T09:10:46.241Z</time>
      </trkpt>
      <trkpt lat="48.53887" lon="2.13205">
        <ele>151</ele>
        <time>2022-08-09T09:10:50.226Z</time>
      </trkpt>
      <trkpt lat="48.53892" lon="2.13214">
        <ele>150</ele>
        <time>2022-08-09T09:10:55.241Z</time>
      </trkpt>
      <trkpt lat="48.53895" lon="2.13221">
        <ele>150</ele>
        <time>2022-08-09T09:10:59.250Z</time>
      </trkpt>
      <trkpt lat="48.53899" lon="2.13229">
        <ele>150</ele>
        <time>2022-08-09T09:11:04.238Z</time>
      </trkpt>
      <trkpt lat="48.53898" lon="2.13233">
        <ele>150</ele>
        <time>2022-08-09T09:11:09.202Z</time>
      </trkpt>
      <trkpt lat="48.539" lon="2.13238">
        <ele>150</ele>
        <time>2022-08-09T09:11:13.211Z</time>
      </trkpt>
      <trkpt lat="48.53908" lon="2.13253">
        <ele>150</ele>
        <time>2022-08-09T09:11:18.201Z</time>
      </trkpt>
      <trkpt lat="48.5391" lon="2.13263">
        <ele>150</ele>
        <time>2022-08-09T09:11:22.242Z</time>
      </trkpt>
      <trkpt lat="48.53912" lon="2.13272">
        <ele>149</ele>
        <time>2022-08-09T09:11:27.232Z</time>
      </trkpt>
      <trkpt lat="48.53917" lon="2.13279">
        <ele>149</ele>
        <time>2022-08-09T09:11:31.257Z</time>
      </trkpt>
      <trkpt lat="48.53921" lon="2.13291">
        <ele>149</ele>
        <time>2022-08-09T09:11:36.251Z</time>
      </trkpt>
      <trkpt lat="48.53923" lon="2.13305">
        <ele>149</ele>
        <time>2022-08-09T09:11:41.239Z</time>
      </trkpt>
      <trkpt lat="48.53924" lon="2.13312">
        <ele>149</ele>
        <time>2022-08-09T09:11:45.261Z</time>
      </trkpt>
      <trkpt lat="48.53925" lon="2.13324">
        <ele>149</ele>
        <time>2022-08-09T09:11:50.264Z</time>
      </trkpt>
      <trkpt lat="48.53925" lon="2.13334">
        <ele>149</ele>
        <time>2022-08-09T09:11:55.233Z</time>
      </trkpt>
      <trkpt lat="48.53924" lon="2.13345">
        <ele>149</ele>
        <time>2022-08-09T09:12:00.217Z</time>
      </trkpt>
      <trkpt lat="48.53925" lon="2.13355">
        <ele>149</ele>
        <time>2022-08-09T09:12:05.207Z</time>
      </trkpt>
      <trkpt lat="48.53926" lon="2.13364">
        <ele>149</ele>
        <time>2022-08-09T09:12:09.245Z</time>
      </trkpt>
      <trkpt lat="48.53927" lon="2.13374">
        <ele>149</ele>
        <time>2022-08-09T09:12:14.214Z</time>
      </trkpt>
      <trkpt lat="48.53928" lon="2.1338">
        <ele>150</ele>
        <time>2022-08-09T09:12:18.219Z</time>
      </trkpt>
      <trkpt lat="48.53931" lon="2.13388">
        <ele>150</ele>
        <time>2022-08-09T09:12:22.227Z</time>
      </trkpt>
      <trkpt lat="48.53933" lon="2.13396">
        <ele>150</ele>
        <time>2022-08-09T09:12:27.241Z</time>
      </trkpt>
      <trkpt lat="48.53936" lon="2.13404">
        <ele>151</ele>
        <time>2022-08-09T09:12:31.268Z</time>
      </trkpt>
      <trkpt lat="48.5394" lon="2.13415">
        <ele>151</ele>
        <time>2022-08-09T09:12:36.224Z</time>
      </trkpt>
      <trkpt lat="48.53941" lon="2.13423">
        <ele>151</ele>
        <time>2022-08-09T09:12:40.255Z</time>
      </trkpt>
      <trkpt lat="48.53943" lon="2.13431">
        <ele>152</ele>
        <time>2022-08-09T09:12:45.238Z</time>
      </trkpt>
      <trkpt lat="48.53945" lon="2.13439">
        <ele>152</ele>
        <time>2022-08-09T09:12:49.277Z</time>
      </trkpt>
      <trkpt lat="48.53949" lon="2.1345">
        <ele>152</ele>
        <time>2022-08-09T09:12:54.232Z</time>
      </trkpt>
      <trkpt lat="48.53952" lon="2.13458">
        <ele>152</ele>
        <time>2022-08-09T09:12:58.250Z</time>
      </trkpt>
      <trkpt lat="48.53955" lon="2.13468">
        <ele>153</ele>
        <time>2022-08-09T09:13:02.259Z</time>
      </trkpt>
      <trkpt lat="48.53958" lon="2.13475">
        <ele>153</ele>
        <time>2022-08-09T09:13:06.244Z</time>
      </trkpt>
      <trkpt lat="48.53961" lon="2.13484">
        <ele>153</ele>
        <time>2022-08-09T09:13:11.245Z</time>
      </trkpt>
      <trkpt lat="48.53963" lon="2.13492">
        <ele>153</ele>
        <time>2022-08-09T09:13:15.261Z</time>
      </trkpt>
      <trkpt lat="48.53966" lon="2.13503">
        <ele>153</ele>
        <time>2022-08-09T09:13:20.256Z</time>
      </trkpt>
      <trkpt lat="48.53969" lon="2.13513">
        <ele>153</ele>
        <time>2022-08-09T09:13:25.246Z</time>
      </trkpt>
      <trkpt lat="48.5397" lon="2.13522">
        <ele>153</ele>
        <time>2022-08-09T09:13:29.268Z</time>
      </trkpt>
      <trkpt lat="48.53972" lon="2.1353">
        <ele>153</ele>
        <time>2022-08-09T09:13:33.261Z</time>
      </trkpt>
      <trkpt lat="48.53975" lon="2.1354">
        <ele>153</ele>
        <time>2022-08-09T09:13:38.241Z</time>
      </trkpt>
      <trkpt lat="48.53978" lon="2.13548">
        <ele>152</ele>
        <time>2022-08-09T09:13:42.262Z</time>
      </trkpt>
      <trkpt lat="48.53981" lon="2.13558">
        <ele>152</ele>
        <time>2022-08-09T09:13:47.251Z</time>
      </trkpt>
      <trkpt lat="48.53983" lon="2.13566">
        <ele>152</ele>
        <time>2022-08-09T09:13:51.265Z</time>
      </trkpt>
      <trkpt lat="48.53987" lon="2.13576">
        <ele>153</ele>
        <time>2022-08-09T09:13:56.282Z</time>
      </trkpt>
      <trkpt lat="48.53989" lon="2.13587">
        <ele>153</ele>
        <time>2022-08-09T09:14:01.254Z</time>
      </trkpt>
      <trkpt lat="48.53993" lon="2.13598">
        <ele>152</ele>
        <time>2022-08-09T09:14:06.256Z</time>
      </trkpt>
      <trkpt lat="48.53995" lon="2.13606">
        <ele>152</ele>
        <time>2022-08-09T09:14:10.264Z</time>
      </trkpt>
      <trkpt lat="48.53998" lon="2.13615">
        <ele>152</ele>
        <time>2022-08-09T09:14:15.258Z</time>
      </trkpt>
      <trkpt lat="48.54" lon="2.13623">
        <ele>152</ele>
        <time>2022-08-09T09:14:19.255Z</time>
      </trkpt>
      <trkpt lat="48.54003" lon="2.13633">
        <ele>152</ele>
        <time>2022-08-09T09:14:24.281Z</time>
      </trkpt>
      <trkpt lat="48.54006" lon="2.13644">
        <ele>152</ele>
        <time>2022-08-09T09:14:29.266Z</time>
      </trkpt>
      <trkpt lat="48.54009" lon="2.13652">
        <ele>152</ele>
        <time>2022-08-09T09:14:33.260Z</time>
      </trkpt>
      <trkpt lat="48.54012" lon="2.13661">
        <ele>151</ele>
        <time>2022-08-09T09:14:38.237Z</time>
      </trkpt>
      <trkpt lat="48.54015" lon="2.13668">
        <ele>152</ele>
        <time>2022-08-09T09:14:42.241Z</time>
      </trkpt>
      <trkpt lat="48.54017" lon="2.1368">
        <ele>152</ele>
        <time>2022-08-09T09:14:47.226Z</time>
      </trkpt>
      <trkpt lat="48.5402" lon="2.13691">
        <ele>152</ele>
        <time>2022-08-09T09:14:52.246Z</time>
      </trkpt>
      <trkpt lat="48.54023" lon="2.13702">
        <ele>152</ele>
        <time>2022-08-09T09:14:57.257Z</time>
      </trkpt>
      <trkpt lat="48.54025" lon="2.1371">
        <ele>152</ele>
        <time>2022-08-09T09:15:01.271Z</time>
      </trkpt>
      <trkpt lat="48.54028" lon="2.13722">
        <ele>152</ele>
        <time>2022-08-09T09:15:06.255Z</time>
      </trkpt>
      <trkpt lat="48.54031" lon="2.13734">
        <ele>152</ele>
        <time>2022-08-09T09:15:11.262Z</time>
      </trkpt>
      <trkpt lat="48.54034" lon="2.13745">
        <ele>153</ele>
        <time>2022-08-09T09:15:16.253Z</time>
      </trkpt>
      <trkpt lat="48.54038" lon="2.13756">
        <ele>153</ele>
        <time>2022-08-09T09:15:21.247Z</time>
      </trkpt>
      <trkpt lat="48.54039" lon="2.13766">
        <ele>153</ele>
        <time>2022-08-09T09:15:26.241Z</time>
      </trkpt>
      <trkpt lat="48.54041" lon="2.13774">
        <ele>153</ele>
        <time>2022-08-09T09:15:30.276Z</time>
      </trkpt>
      <trkpt lat="48.54044" lon="2.13785">
        <ele>154</ele>
        <time>2022-08-09T09:15:35.254Z</time>
      </trkpt>
      <trkpt lat="48.54047" lon="2.13795">
        <ele>153</ele>
        <time>2022-08-09T09:15:40.240Z</time>
      </trkpt>
      <trkpt lat="48.54051" lon="2.13805">
        <ele>153</ele>
        <time>2022-08-09T09:15:44.266Z</time>
      </trkpt>
      <trkpt lat="48.54053" lon="2.13815">
        <ele>153</ele>
        <time>2022-08-09T09:15:49.256Z</time>
      </trkpt>
      <trkpt lat="48.54056" lon="2.13823">
        <ele>153</ele>
        <time>2022-08-09T09:15:53.260Z</time>
      </trkpt>
      <trkpt lat="48.5406" lon="2.13831">
        <ele>153</ele>
        <time>2022-08-09T09:15:58.249Z</time>
      </trkpt>
      <trkpt lat="48.54066" lon="2.13837">
        <ele>153</ele>
        <time>2022-08-09T09:16:03.261Z</time>
      </trkpt>
      <trkpt lat="48.54072" lon="2.1384">
        <ele>153</ele>
        <time>2022-08-09T09:16:08.219Z</time>
      </trkpt>
      <trkpt lat="48.54078" lon="2.1384">
        <ele>153</ele>
        <time>2022-08-09T09:16:12.257Z</time>
      </trkpt>
      <trkpt lat="48.54084" lon="2.1384">
        <ele>153</ele>
        <time>2022-08-09T09:16:16.267Z</time>
      </trkpt>
      <trkpt lat="48.54091" lon="2.1384">
        <ele>153</ele>
        <time>2022-08-09T09:16:21.266Z</time>
      </trkpt>
      <trkpt lat="48.54097" lon="2.13842">
        <ele>153</ele>
        <time>2022-08-09T09:16:26.255Z</time>
      </trkpt>
      <trkpt lat="48.54104" lon="2.13844">
        <ele>152</ele>
        <time>2022-08-09T09:16:30.252Z</time>
      </trkpt>
      <trkpt lat="48.54111" lon="2.13847">
        <ele>153</ele>
        <time>2022-08-09T09:16:35.267Z</time>
      </trkpt>
      <trkpt lat="48.54119" lon="2.1385">
        <ele>153</ele>
        <time>2022-08-09T09:16:40.246Z</time>
      </trkpt>
      <trkpt lat="48.54125" lon="2.13854">
        <ele>151</ele>
        <time>2022-08-09T09:16:44.267Z</time>
      </trkpt>
      <trkpt lat="48.54132" lon="2.13856">
        <ele>151</ele>
        <time>2022-08-09T09:16:49.251Z</time>
      </trkpt>
      <trkpt lat="48.54138" lon="2.13858">
        <ele>151</ele>
        <time>2022-08-09T09:16:53.254Z</time>
      </trkpt>
      <trkpt lat="48.54145" lon="2.13862">
        <ele>151</ele>
        <time>2022-08-09T09:16:58.232Z</time>
      </trkpt>
      <trkpt lat="48.54153" lon="2.13865">
        <ele>151</ele>
        <time>2022-08-09T09:17:03.209Z</time>
      </trkpt>
      <trkpt lat="48.54159" lon="2.13866">
        <ele>151</ele>
        <time>2022-08-09T09:17:07.244Z</time>
      </trkpt>
      <trkpt lat="48.54165" lon="2.13867">
        <ele>151</ele>
        <time>2022-08-09T09:17:11.252Z</time>
      </trkpt>
      <trkpt lat="48.54172" lon="2.13869">
        <ele>151</ele>
        <time>2022-08-09T09:17:16.249Z</time>
      </trkpt>
      <trkpt lat="48.54179" lon="2.13869">
        <ele>151</ele>
        <time>2022-08-09T09:17:21.253Z</time>
      </trkpt>
      <trkpt lat="48.54184" lon="2.13867">
        <ele>151</ele>
        <time>2022-08-09T09:17:25.256Z</time>
      </trkpt>
      <trkpt lat="48.54191" lon="2.13867">
        <ele>151</ele>
        <time>2022-08-09T09:17:30.257Z</time>
      </trkpt>
      <trkpt lat="48.54199" lon="2.13866">
        <ele>151</ele>
        <time>2022-08-09T09:17:35.205Z</time>
      </trkpt>
      <trkpt lat="48.54201" lon="2.13866">
        <ele>151</ele>
        <time>2022-08-09T09:17:39.208Z</time>
      </trkpt>
      <trkpt lat="48.54207" lon="2.13866">
        <ele>151</ele>
        <time>2022-08-09T09:17:43.211Z</time>
      </trkpt>
      <trkpt lat="48.54214" lon="2.13863">
        <ele>151</ele>
        <time>2022-08-09T09:17:48.214Z</time>
      </trkpt>
      <trkpt lat="48.54222" lon="2.13863">
        <ele>151</ele>
        <time>2022-08-09T09:17:53.215Z</time>
      </trkpt>
      <trkpt lat="48.5423" lon="2.13862">
        <ele>151</ele>
        <time>2022-08-09T09:17:58.220Z</time>
      </trkpt>
      <trkpt lat="48.54238" lon="2.1386">
        <ele>151</ele>
        <time>2022-08-09T09:18:03.221Z</time>
      </trkpt>
      <trkpt lat="48.54242" lon="2.13859">
        <ele>151</ele>
        <time>2022-08-09T09:18:07.259Z</time>
      </trkpt>
      <trkpt lat="48.54251" lon="2.13857">
        <ele>151</ele>
        <time>2022-08-09T09:18:12.246Z</time>
      </trkpt>
      <trkpt lat="48.54257" lon="2.13855">
        <ele>151</ele>
        <time>2022-08-09T09:18:16.261Z</time>
      </trkpt>
      <trkpt lat="48.54265" lon="2.13852">
        <ele>151</ele>
        <time>2022-08-09T09:18:21.240Z</time>
      </trkpt>
      <trkpt lat="48.54271" lon="2.1385">
        <ele>151</ele>
        <time>2022-08-09T09:18:26.239Z</time>
      </trkpt>
      <trkpt lat="48.54278" lon="2.13849">
        <ele>151</ele>
        <time>2022-08-09T09:18:31.263Z</time>
      </trkpt>
      <trkpt lat="48.54285" lon="2.13848">
        <ele>151</ele>
        <time>2022-08-09T09:18:36.211Z</time>
      </trkpt>
      <trkpt lat="48.5429" lon="2.13844">
        <ele>151</ele>
        <time>2022-08-09T09:18:40.253Z</time>
      </trkpt>
      <trkpt lat="48.54295" lon="2.13842">
        <ele>150</ele>
        <time>2022-08-09T09:18:44.275Z</time>
      </trkpt>
      <trkpt lat="48.54301" lon="2.13839">
        <ele>150</ele>
        <time>2022-08-09T09:18:49.249Z</time>
      </trkpt>
      <trkpt lat="48.54306" lon="2.13837">
        <ele>150</ele>
        <time>2022-08-09T09:18:53.261Z</time>
      </trkpt>
      <trkpt lat="48.54313" lon="2.13834">
        <ele>150</ele>
        <time>2022-08-09T09:18:58.222Z</time>
      </trkpt>
      <trkpt lat="48.54319" lon="2.13831">
        <ele>150</ele>
        <time>2022-08-09T09:19:02.233Z</time>
      </trkpt>
      <trkpt lat="48.54326" lon="2.13828">
        <ele>151</ele>
        <time>2022-08-09T09:19:06.252Z</time>
      </trkpt>
      <trkpt lat="48.54331" lon="2.13826">
        <ele>151</ele>
        <time>2022-08-09T09:19:10.260Z</time>
      </trkpt>
      <trkpt lat="48.54335" lon="2.13823">
        <ele>151</ele>
        <time>2022-08-09T09:19:14.248Z</time>
      </trkpt>
      <trkpt lat="48.54342" lon="2.13818">
        <ele>151</ele>
        <time>2022-08-09T09:19:19.256Z</time>
      </trkpt>
      <trkpt lat="48.54349" lon="2.13814">
        <ele>152</ele>
        <time>2022-08-09T09:19:24.267Z</time>
      </trkpt>
      <trkpt lat="48.54356" lon="2.13809">
        <ele>152</ele>
        <time>2022-08-09T09:19:29.209Z</time>
      </trkpt>
      <trkpt lat="48.54361" lon="2.13805">
        <ele>152</ele>
        <time>2022-08-09T09:19:33.227Z</time>
      </trkpt>
      <trkpt lat="48.54368" lon="2.13803">
        <ele>152</ele>
        <time>2022-08-09T09:19:38.220Z</time>
      </trkpt>
      <trkpt lat="48.54374" lon="2.13803">
        <ele>152</ele>
        <time>2022-08-09T09:19:42.228Z</time>
      </trkpt>
      <trkpt lat="48.5438" lon="2.13801">
        <ele>152</ele>
        <time>2022-08-09T09:19:47.248Z</time>
      </trkpt>
      <trkpt lat="48.54386" lon="2.13801">
        <ele>152</ele>
        <time>2022-08-09T09:19:52.240Z</time>
      </trkpt>
      <trkpt lat="48.54391" lon="2.13801">
        <ele>152</ele>
        <time>2022-08-09T09:19:56.243Z</time>
      </trkpt>
      <trkpt lat="48.54395" lon="2.13803">
        <ele>152</ele>
        <time>2022-08-09T09:20:00.233Z</time>
      </trkpt>
      <trkpt lat="48.54402" lon="2.13804">
        <ele>152</ele>
        <time>2022-08-09T09:20:05.218Z</time>
      </trkpt>
      <trkpt lat="48.54405" lon="2.13803">
        <ele>152</ele>
        <time>2022-08-09T09:20:09.277Z</time>
      </trkpt>
      <trkpt lat="48.54407" lon="2.13801">
        <ele>152</ele>
        <time>2022-08-09T09:20:14.232Z</time>
      </trkpt>
      <trkpt lat="48.5441" lon="2.13798">
        <ele>152</ele>
        <time>2022-08-09T09:20:19.213Z</time>
      </trkpt>
      <trkpt lat="48.54411" lon="2.13791">
        <ele>151</ele>
        <time>2022-08-09T09:20:23.238Z</time>
      </trkpt>
      <trkpt lat="48.54415" lon="2.13785">
        <ele>151</ele>
        <time>2022-08-09T09:20:28.230Z</time>
      </trkpt>
      <trkpt lat="48.54417" lon="2.13779">
        <ele>151</ele>
        <time>2022-08-09T09:20:32.250Z</time>
      </trkpt>
      <trkpt lat="48.54419" lon="2.1377">
        <ele>151</ele>
        <time>2022-08-09T09:20:37.249Z</time>
      </trkpt>
      <trkpt lat="48.5442" lon="2.13762">
        <ele>151</ele>
        <time>2022-08-09T09:20:41.257Z</time>
      </trkpt>
      <trkpt lat="48.54421" lon="2.13751">
        <ele>151</ele>
        <time>2022-08-09T09:20:46.251Z</time>
      </trkpt>
      <trkpt lat="48.54422" lon="2.13742">
        <ele>151</ele>
        <time>2022-08-09T09:20:50.240Z</time>
      </trkpt>
      <trkpt lat="48.54423" lon="2.13731">
        <ele>150</ele>
        <time>2022-08-09T09:20:55.243Z</time>
      </trkpt>
      <trkpt lat="48.54425" lon="2.13722">
        <ele>150</ele>
        <time>2022-08-09T09:21:00.248Z</time>
      </trkpt>
      <trkpt lat="48.54428" lon="2.13716">
        <ele>150</ele>
        <time>2022-08-09T09:21:04.244Z</time>
      </trkpt>
      <trkpt lat="48.54432" lon="2.13709">
        <ele>151</ele>
        <time>2022-08-09T09:21:09.273Z</time>
      </trkpt>
      <trkpt lat="48.54438" lon="2.137">
        <ele>150</ele>
        <time>2022-08-09T09:21:14.273Z</time>
      </trkpt>
      <trkpt lat="48.54442" lon="2.13697">
        <ele>150</ele>
        <time>2022-08-09T09:21:19.243Z</time>
      </trkpt>
      <trkpt lat="48.54446" lon="2.13695">
        <ele>150</ele>
        <time>2022-08-09T09:21:24.262Z</time>
      </trkpt>
      <trkpt lat="48.5445" lon="2.13694">
        <ele>150</ele>
        <time>2022-08-09T09:21:29.231Z</time>
      </trkpt>
      <trkpt lat="48.54452" lon="2.13694">
        <ele>150</ele>
        <time>2022-08-09T09:21:33.262Z</time>
      </trkpt>
      <trkpt lat="48.54456" lon="2.13691">
        <ele>150</ele>
        <time>2022-08-09T09:21:38.252Z</time>
      </trkpt>
      <trkpt lat="48.54461" lon="2.13688">
        <ele>149</ele>
        <time>2022-08-09T09:21:42.255Z</time>
      </trkpt>
      <trkpt lat="48.54465" lon="2.13685">
        <ele>149</ele>
        <time>2022-08-09T09:21:46.248Z</time>
      </trkpt>
      <trkpt lat="48.5447" lon="2.13681">
        <ele>149</ele>
        <time>2022-08-09T09:21:51.228Z</time>
      </trkpt>
      <trkpt lat="48.54474" lon="2.1368">
        <ele>147</ele>
        <time>2022-08-09T09:21:55.230Z</time>
      </trkpt>
      <trkpt lat="48.54479" lon="2.13676">
        <ele>147</ele>
        <time>2022-08-09T09:21:59.246Z</time>
      </trkpt>
      <trkpt lat="48.54484" lon="2.13671">
        <ele>147</ele>
        <time>2022-08-09T09:22:04.267Z</time>
      </trkpt>
      <trkpt lat="48.5449" lon="2.13667">
        <ele>144</ele>
        <time>2022-08-09T09:22:09.237Z</time>
      </trkpt>
      <trkpt lat="48.54495" lon="2.13665">
        <ele>144</ele>
        <time>2022-08-09T09:22:14.256Z</time>
      </trkpt>
      <trkpt lat="48.545" lon="2.13658">
        <ele>144</ele>
        <time>2022-08-09T09:22:19.251Z</time>
      </trkpt>
      <trkpt lat="48.54505" lon="2.13653">
        <ele>142</ele>
        <time>2022-08-09T09:22:24.256Z</time>
      </trkpt>
      <trkpt lat="48.54508" lon="2.13647">
        <ele>142</ele>
        <time>2022-08-09T09:22:29.235Z</time>
      </trkpt>
      <trkpt lat="48.54513" lon="2.13644">
        <ele>142</ele>
        <time>2022-08-09T09:22:33.240Z</time>
      </trkpt>
      <trkpt lat="48.54517" lon="2.13638">
        <ele>135</ele>
        <time>2022-08-09T09:22:38.227Z</time>
      </trkpt>
      <trkpt lat="48.54518" lon="2.13633">
        <ele>135</ele>
        <time>2022-08-09T09:22:42.241Z</time>
      </trkpt>
      <trkpt lat="48.5452" lon="2.13622">
        <ele>130</ele>
        <time>2022-08-09T09:22:46.241Z</time>
      </trkpt>
      <trkpt lat="48.54522" lon="2.13612">
        <ele>130</ele>
        <time>2022-08-09T09:22:50.248Z</time>
      </trkpt>
      <trkpt lat="48.54524" lon="2.13602">
        <ele>130</ele>
        <time>2022-08-09T09:22:55.238Z</time>
      </trkpt>
      <trkpt lat="48.54526" lon="2.13594">
        <ele>127</ele>
        <time>2022-08-09T09:23:00.255Z</time>
      </trkpt>
      <trkpt lat="48.54528" lon="2.13584">
        <ele>127</ele>
        <time>2022-08-09T09:23:05.219Z</time>
      </trkpt>
      <trkpt lat="48.54531" lon="2.13571">
        <ele>127</ele>
        <time>2022-08-09T09:23:10.219Z</time>
      </trkpt>
      <trkpt lat="48.54533" lon="2.13563">
        <ele>127</ele>
        <time>2022-08-09T09:23:14.236Z</time>
      </trkpt>
      <trkpt lat="48.54536" lon="2.13551">
        <ele>127</ele>
        <time>2022-08-09T09:23:19.231Z</time>
      </trkpt>
      <trkpt lat="48.54538" lon="2.13544">
        <ele>127</ele>
        <time>2022-08-09T09:23:23.229Z</time>
      </trkpt>
      <trkpt lat="48.5454" lon="2.13537">
        <ele>128</ele>
        <time>2022-08-09T09:23:27.247Z</time>
      </trkpt>
      <trkpt lat="48.54544" lon="2.13527">
        <ele>120</ele>
        <time>2022-08-09T09:23:32.232Z</time>
      </trkpt>
      <trkpt lat="48.54549" lon="2.13519">
        <ele>120</ele>
        <time>2022-08-09T09:23:37.238Z</time>
      </trkpt>
      <trkpt lat="48.54553" lon="2.13512">
        <ele>121</ele>
        <time>2022-08-09T09:23:42.236Z</time>
      </trkpt>
      <trkpt lat="48.54556" lon="2.13511">
        <ele>121</ele>
        <time>2022-08-09T09:23:46.259Z</time>
      </trkpt>
      <trkpt lat="48.54562" lon="2.13504">
        <ele>121</ele>
        <time>2022-08-09T09:23:51.232Z</time>
      </trkpt>
      <trkpt lat="48.54565" lon="2.13496">
        <ele>121</ele>
        <time>2022-08-09T09:23:56.213Z</time>
      </trkpt>
      <trkpt lat="48.54565" lon="2.1349">
        <ele>121</ele>
        <time>2022-08-09T09:24:00.213Z</time>
      </trkpt>
      <trkpt lat="48.54566" lon="2.13486">
        <ele>122</ele>
        <time>2022-08-09T09:24:04.232Z</time>
      </trkpt>
      <trkpt lat="48.54571" lon="2.13479">
        <ele>117</ele>
        <time>2022-08-09T09:24:09.206Z</time>
      </trkpt>
      <trkpt lat="48.54574" lon="2.13473">
        <ele>117</ele>
        <time>2022-08-09T09:24:13.246Z</time>
      </trkpt>
      <trkpt lat="48.54576" lon="2.13465">
        <ele>117</ele>
        <time>2022-08-09T09:24:18.218Z</time>
      </trkpt>
      <trkpt lat="48.54579" lon="2.13457">
        <ele>119</ele>
        <time>2022-08-09T09:24:22.240Z</time>
      </trkpt>
      <trkpt lat="48.54584" lon="2.1345">
        <ele>119</ele>
        <time>2022-08-09T09:24:26.257Z</time>
      </trkpt>
      <trkpt lat="48.54589" lon="2.13439">
        <ele>119</ele>
        <time>2022-08-09T09:24:31.259Z</time>
      </trkpt>
      <trkpt lat="48.54593" lon="2.13427">
        <ele>121</ele>
        <time>2022-08-09T09:24:36.253Z</time>
      </trkpt>
      <trkpt lat="48.54595" lon="2.13419">
        <ele>121</ele>
        <time>2022-08-09T09:24:40.253Z</time>
      </trkpt>
      <trkpt lat="48.54598" lon="2.13411">
        <ele>115</ele>
        <time>2022-08-09T09:24:45.270Z</time>
      </trkpt>
      <trkpt lat="48.54602" lon="2.13407">
        <ele>115</ele>
        <time>2022-08-09T09:24:49.271Z</time>
      </trkpt>
      <trkpt lat="48.54608" lon="2.13401">
        <ele>117</ele>
        <time>2022-08-09T09:24:54.266Z</time>
      </trkpt>
      <trkpt lat="48.54615" lon="2.13395">
        <ele>117</ele>
        <time>2022-08-09T09:24:59.209Z</time>
      </trkpt>
      <trkpt lat="48.5462" lon="2.13392">
        <ele>117</ele>
        <time>2022-08-09T09:25:03.237Z</time>
      </trkpt>
      <trkpt lat="48.54624" lon="2.13388">
        <ele>117</ele>
        <time>2022-08-09T09:25:07.245Z</time>
      </trkpt>
      <trkpt lat="48.54629" lon="2.13383">
        <ele>108</ele>
        <time>2022-08-09T09:25:12.258Z</time>
      </trkpt>
      <trkpt lat="48.54637" lon="2.13379">
        <ele>108</ele>
        <time>2022-08-09T09:25:17.256Z</time>
      </trkpt>
      <trkpt lat="48.54644" lon="2.13375">
        <ele>110</ele>
        <time>2022-08-09T09:25:22.218Z</time>
      </trkpt>
      <trkpt lat="48.54649" lon="2.13372">
        <ele>110</ele>
        <time>2022-08-09T09:25:26.247Z</time>
      </trkpt>
      <trkpt lat="48.54656" lon="2.13368">
        <ele>102</ele>
        <time>2022-08-09T09:25:31.246Z</time>
      </trkpt>
      <trkpt lat="48.54663" lon="2.13362">
        <ele>102</ele>
        <time>2022-08-09T09:25:36.266Z</time>
      </trkpt>
      <trkpt lat="48.54669" lon="2.13356">
        <ele>102</ele>
        <time>2022-08-09T09:25:40.269Z</time>
      </trkpt>
      <trkpt lat="48.54675" lon="2.1335">
        <ele>102</ele>
        <time>2022-08-09T09:25:45.232Z</time>
      </trkpt>
      <trkpt lat="48.5468" lon="2.13345">
        <ele>101</ele>
        <time>2022-08-09T09:25:49.232Z</time>
      </trkpt>
      <trkpt lat="48.54684" lon="2.13339">
        <ele>96</ele>
        <time>2022-08-09T09:25:53.251Z</time>
      </trkpt>
      <trkpt lat="48.54689" lon="2.13333">
        <ele>96</ele>
        <time>2022-08-09T09:25:57.251Z</time>
      </trkpt>
      <trkpt lat="48.54694" lon="2.13326">
        <ele>96</ele>
        <time>2022-08-09T09:26:02.263Z</time>
      </trkpt>
      <trkpt lat="48.547" lon="2.13319">
        <ele>96</ele>
        <time>2022-08-09T09:26:07.240Z</time>
      </trkpt>
      <trkpt lat="48.54706" lon="2.13311">
        <ele>96</ele>
        <time>2022-08-09T09:26:12.246Z</time>
      </trkpt>
      <trkpt lat="48.54712" lon="2.13304">
        <ele>94</ele>
        <time>2022-08-09T09:26:17.256Z</time>
      </trkpt>
      <trkpt lat="48.54716" lon="2.13299">
        <ele>94</ele>
        <time>2022-08-09T09:26:21.270Z</time>
      </trkpt>
      <trkpt lat="48.54722" lon="2.13293">
        <ele>94</ele>
        <time>2022-08-09T09:26:26.258Z</time>
      </trkpt>
      <trkpt lat="48.54728" lon="2.1329">
        <ele>93</ele>
        <time>2022-08-09T09:26:30.246Z</time>
      </trkpt>
      <trkpt lat="48.54733" lon="2.13287">
        <ele>93</ele>
        <time>2022-08-09T09:26:35.245Z</time>
      </trkpt>
      <trkpt lat="48.54739" lon="2.13283">
        <ele>89</ele>
        <time>2022-08-09T09:26:40.247Z</time>
      </trkpt>
      <trkpt lat="48.54745" lon="2.1328">
        <ele>89</ele>
        <time>2022-08-09T09:26:44.272Z</time>
      </trkpt>
      <trkpt lat="48.54751" lon="2.13275">
        <ele>89</ele>
        <time>2022-08-09T09:26:49.256Z</time>
      </trkpt>
      <trkpt lat="48.54757" lon="2.13271">
        <ele>89</ele>
        <time>2022-08-09T09:26:54.240Z</time>
      </trkpt>
      <trkpt lat="48.54764" lon="2.13269">
        <ele>89</ele>
        <time>2022-08-09T09:26:59.252Z</time>
      </trkpt>
      <trkpt lat="48.54769" lon="2.13275">
        <ele>86</ele>
        <time>2022-08-09T09:27:04.213Z</time>
      </trkpt>
      <trkpt lat="48.54771" lon="2.13282">
        <ele>86</ele>
        <time>2022-08-09T09:27:08.228Z</time>
      </trkpt>
      <trkpt lat="48.54774" lon="2.1329">
        <ele>86</ele>
        <time>2022-08-09T09:27:12.257Z</time>
      </trkpt>
      <trkpt lat="48.54776" lon="2.13298">
        <ele>87</ele>
        <time>2022-08-09T09:27:16.249Z</time>
      </trkpt>
      <trkpt lat="48.54778" lon="2.13309">
        <ele>87</ele>
        <time>2022-08-09T09:27:21.231Z</time>
      </trkpt>
      <trkpt lat="48.54781" lon="2.13318">
        <ele>87</ele>
        <time>2022-08-09T09:27:26.238Z</time>
      </trkpt>
      <trkpt lat="48.54783" lon="2.13327">
        <ele>87</ele>
        <time>2022-08-09T09:27:30.265Z</time>
      </trkpt>
      <trkpt lat="48.54785" lon="2.13338">
        <ele>87</ele>
        <time>2022-08-09T09:27:35.264Z</time>
      </trkpt>
      <trkpt lat="48.54787" lon="2.13347">
        <ele>87</ele>
        <time>2022-08-09T09:27:39.269Z</time>
      </trkpt>
      <trkpt lat="48.54788" lon="2.13358">
        <ele>88</ele>
        <time>2022-08-09T09:27:44.255Z</time>
      </trkpt>
      <trkpt lat="48.5479" lon="2.13369">
        <ele>88</ele>
        <time>2022-08-09T09:27:49.250Z</time>
      </trkpt>
      <trkpt lat="48.54791" lon="2.13381">
        <ele>89</ele>
        <time>2022-08-09T09:27:54.254Z</time>
      </trkpt>
      <trkpt lat="48.54793" lon="2.13392">
        <ele>86</ele>
        <time>2022-08-09T09:27:59.268Z</time>
      </trkpt>
      <trkpt lat="48.54794" lon="2.13401">
        <ele>86</ele>
        <time>2022-08-09T09:28:04.257Z</time>
      </trkpt>
      <trkpt lat="48.54795" lon="2.13413">
        <ele>85</ele>
        <time>2022-08-09T09:28:09.235Z</time>
      </trkpt>
      <trkpt lat="48.54795" lon="2.13422">
        <ele>85</ele>
        <time>2022-08-09T09:28:13.234Z</time>
      </trkpt>
      <trkpt lat="48.54796" lon="2.13433">
        <ele>88</ele>
        <time>2022-08-09T09:28:18.232Z</time>
      </trkpt>
      <trkpt lat="48.54797" lon="2.1344">
        <ele>88</ele>
        <time>2022-08-09T09:28:22.261Z</time>
      </trkpt>
      <trkpt lat="48.54798" lon="2.13449">
        <ele>88</ele>
        <time>2022-08-09T09:28:26.261Z</time>
      </trkpt>
      <trkpt lat="48.54799" lon="2.1346">
        <ele>90</ele>
        <time>2022-08-09T09:28:31.234Z</time>
      </trkpt>
      <trkpt lat="48.548" lon="2.13471">
        <ele>90</ele>
        <time>2022-08-09T09:28:36.270Z</time>
      </trkpt>
      <trkpt lat="48.54803" lon="2.13483">
        <ele>90</ele>
        <time>2022-08-09T09:28:41.243Z</time>
      </trkpt>
      <trkpt lat="48.54806" lon="2.13494">
        <ele>93</ele>
        <time>2022-08-09T09:28:46.231Z</time>
      </trkpt>
      <trkpt lat="48.54808" lon="2.13502">
        <ele>93</ele>
        <time>2022-08-09T09:28:50.258Z</time>
      </trkpt>
      <trkpt lat="48.54812" lon="2.13513">
        <ele>93</ele>
        <time>2022-08-09T09:28:55.251Z</time>
      </trkpt>
      <trkpt lat="48.54815" lon="2.13521">
        <ele>96</ele>
        <time>2022-08-09T09:28:59.266Z</time>
      </trkpt>
      <trkpt lat="48.54817" lon="2.1353">
        <ele>96</ele>
        <time>2022-08-09T09:29:04.248Z</time>
      </trkpt>
      <trkpt lat="48.5482" lon="2.13541">
        <ele>89</ele>
        <time>2022-08-09T09:29:09.235Z</time>
      </trkpt>
      <trkpt lat="48.54823" lon="2.1355">
        <ele>91</ele>
        <time>2022-08-09T09:29:13.235Z</time>
      </trkpt>
      <trkpt lat="48.54828" lon="2.13561">
        <ele>91</ele>
        <time>2022-08-09T09:29:18.239Z</time>
      </trkpt>
      <trkpt lat="48.54831" lon="2.13569">
        <ele>91</ele>
        <time>2022-08-09T09:29:22.263Z</time>
      </trkpt>
      <trkpt lat="48.54834" lon="2.13578">
        <ele>97</ele>
        <time>2022-08-09T09:29:27.248Z</time>
      </trkpt>
      <trkpt lat="48.54837" lon="2.13587">
        <ele>97</ele>
        <time>2022-08-09T09:29:32.247Z</time>
      </trkpt>
      <trkpt lat="48.5484" lon="2.13597">
        <ele>100</ele>
        <time>2022-08-09T09:29:37.244Z</time>
      </trkpt>
      <trkpt lat="48.54842" lon="2.13606">
        <ele>100</ele>
        <time>2022-08-09T09:29:41.223Z</time>
      </trkpt>
      <trkpt lat="48.54847" lon="2.13616">
        <ele>100</ele>
        <time>2022-08-09T09:29:46.226Z</time>
      </trkpt>
      <trkpt lat="48.5485" lon="2.13623">
        <ele>92</ele>
        <time>2022-08-09T09:29:50.248Z</time>
      </trkpt>
      <trkpt lat="48.54853" lon="2.13634">
        <ele>96</ele>
        <time>2022-08-09T09:29:55.235Z</time>
      </trkpt>
      <trkpt lat="48.54856" lon="2.13642">
        <ele>96</ele>
        <time>2022-08-09T09:29:59.269Z</time>
      </trkpt>
      <trkpt lat="48.54858" lon="2.1365">
        <ele>96</ele>
        <time>2022-08-09T09:30:04.262Z</time>
      </trkpt>
      <trkpt lat="48.5486" lon="2.1366">
        <ele>97</ele>
        <time>2022-08-09T09:30:09.269Z</time>
      </trkpt>
      <trkpt lat="48.54862" lon="2.13669">
        <ele>97</ele>
        <time>2022-08-09T09:30:13.250Z</time>
      </trkpt>
      <trkpt lat="48.54864" lon="2.13678">
        <ele>97</ele>
        <time>2022-08-09T09:30:17.265Z</time>
      </trkpt>
      <trkpt lat="48.54866" lon="2.13689">
        <ele>97</ele>
        <time>2022-08-09T09:30:22.241Z</time>
      </trkpt>
      <trkpt lat="48.54867" lon="2.13696">
        <ele>97</ele>
        <time>2022-08-09T09:30:26.254Z</time>
      </trkpt>
      <trkpt lat="48.54869" lon="2.13707">
        <ele>97</ele>
        <time>2022-08-09T09:30:31.245Z</time>
      </trkpt>
      <trkpt lat="48.54871" lon="2.13716">
        <ele>98</ele>
        <time>2022-08-09T09:30:35.260Z</time>
      </trkpt>
      <trkpt lat="48.54872" lon="2.13724">
        <ele>98</ele>
        <time>2022-08-09T09:30:39.249Z</time>
      </trkpt>
      <trkpt lat="48.54873" lon="2.13733">
        <ele>98</ele>
        <time>2022-08-09T09:30:44.261Z</time>
      </trkpt>
      <trkpt lat="48.54875" lon="2.13743">
        <ele>100</ele>
        <time>2022-08-09T09:30:49.252Z</time>
      </trkpt>
      <trkpt lat="48.54877" lon="2.13753">
        <ele>92</ele>
        <time>2022-08-09T09:30:54.263Z</time>
      </trkpt>
      <trkpt lat="48.54879" lon="2.13761">
        <ele>92</ele>
        <time>2022-08-09T09:30:59.250Z</time>
      </trkpt>
      <trkpt lat="48.54879" lon="2.13772">
        <ele>96</ele>
        <time>2022-08-09T09:31:04.235Z</time>
      </trkpt>
      <trkpt lat="48.5488" lon="2.13783">
        <ele>96</ele>
        <time>2022-08-09T09:31:09.248Z</time>
      </trkpt>
      <trkpt lat="48.54883" lon="2.13795">
        <ele>97</ele>
        <time>2022-08-09T09:31:14.218Z</time>
      </trkpt>
      <trkpt lat="48.54884" lon="2.13803">
        <ele>97</ele>
        <time>2022-08-09T09:31:18.237Z</time>
      </trkpt>
      <trkpt lat="48.54884" lon="2.1381">
        <ele>97</ele>
        <time>2022-08-09T09:31:22.238Z</time>
      </trkpt>
      <trkpt lat="48.54886" lon="2.1382">
        <ele>98</ele>
        <time>2022-08-09T09:31:27.241Z</time>
      </trkpt>
      <trkpt lat="48.54888" lon="2.13829">
        <ele>98</ele>
        <time>2022-08-09T09:31:31.222Z</time>
      </trkpt>
      <trkpt lat="48.5489" lon="2.13837">
        <ele>98</ele>
        <time>2022-08-09T09:31:35.258Z</time>
      </trkpt>
      <trkpt lat="48.54892" lon="2.13848">
        <ele>100</ele>
        <time>2022-08-09T09:31:40.237Z</time>
      </trkpt>
      <trkpt lat="48.54893" lon="2.13857">
        <ele>100</ele>
        <time>2022-08-09T09:31:44.236Z</time>
      </trkpt>
      <trkpt lat="48.54895" lon="2.13867">
        <ele>100</ele>
        <time>2022-08-09T09:31:49.260Z</time>
      </trkpt>
      <trkpt lat="48.54896" lon="2.13876">
        <ele>101</ele>
        <time>2022-08-09T09:31:54.265Z</time>
      </trkpt>
      <trkpt lat="48.54896" lon="2.13887">
        <ele>101</ele>
        <time>2022-08-09T09:31:59.249Z</time>
      </trkpt>
      <trkpt lat="48.54896" lon="2.13897">
        <ele>101</ele>
        <time>2022-08-09T09:32:04.259Z</time>
      </trkpt>
      <trkpt lat="48.54897" lon="2.13906">
        <ele>101</ele>
        <time>2022-08-09T09:32:09.246Z</time>
      </trkpt>
      <trkpt lat="48.54895" lon="2.13916">
        <ele>101</ele>
        <time>2022-08-09T09:32:14.235Z</time>
      </trkpt>
      <trkpt lat="48.54896" lon="2.13926">
        <ele>101</ele>
        <time>2022-08-09T09:32:19.235Z</time>
      </trkpt>
      <trkpt lat="48.54897" lon="2.13935">
        <ele>101</ele>
        <time>2022-08-09T09:32:23.252Z</time>
      </trkpt>
      <trkpt lat="48.54898" lon="2.13943">
        <ele>101</ele>
        <time>2022-08-09T09:32:27.248Z</time>
      </trkpt>
      <trkpt lat="48.549" lon="2.13952">
        <ele>101</ele>
        <time>2022-08-09T09:32:32.249Z</time>
      </trkpt>
      <trkpt lat="48.54903" lon="2.1396">
        <ele>100</ele>
        <time>2022-08-09T09:32:37.242Z</time>
      </trkpt>
      <trkpt lat="48.54906" lon="2.13968">
        <ele>100</ele>
        <time>2022-08-09T09:32:41.253Z</time>
      </trkpt>
      <trkpt lat="48.54909" lon="2.13974">
        <ele>100</ele>
        <time>2022-08-09T09:32:45.248Z</time>
      </trkpt>
      <trkpt lat="48.54912" lon="2.1398">
        <ele>100</ele>
        <time>2022-08-09T09:32:49.262Z</time>
      </trkpt>
      <trkpt lat="48.54916" lon="2.13987">
        <ele>101</ele>
        <time>2022-08-09T09:32:54.258Z</time>
      </trkpt>
      <trkpt lat="48.54917" lon="2.13994">
        <ele>101</ele>
        <time>2022-08-09T09:32:59.289Z</time>
      </trkpt>
      <trkpt lat="48.54917" lon="2.14001">
        <ele>101</ele>
        <time>2022-08-09T09:33:04.234Z</time>
      </trkpt>
      <trkpt lat="48.54919" lon="2.1401">
        <ele>101</ele>
        <time>2022-08-09T09:33:09.261Z</time>
      </trkpt>
      <trkpt lat="48.54919" lon="2.14019">
        <ele>102</ele>
        <time>2022-08-09T09:33:13.244Z</time>
      </trkpt>
      <trkpt lat="48.5492" lon="2.14029">
        <ele>102</ele>
        <time>2022-08-09T09:33:18.214Z</time>
      </trkpt>
      <trkpt lat="48.54919" lon="2.14037">
        <ele>102</ele>
        <time>2022-08-09T09:33:22.232Z</time>
      </trkpt>
      <trkpt lat="48.5492" lon="2.14044">
        <ele>102</ele>
        <time>2022-08-09T09:33:26.247Z</time>
      </trkpt>
      <trkpt lat="48.5492" lon="2.14054">
        <ele>102</ele>
        <time>2022-08-09T09:33:31.239Z</time>
      </trkpt>
      <trkpt lat="48.5492" lon="2.14064">
        <ele>102</ele>
        <time>2022-08-09T09:33:36.259Z</time>
      </trkpt>
      <trkpt lat="48.54919" lon="2.14071">
        <ele>103</ele>
        <time>2022-08-09T09:33:40.264Z</time>
      </trkpt>
      <trkpt lat="48.54918" lon="2.14082">
        <ele>103</ele>
        <time>2022-08-09T09:33:45.238Z</time>
      </trkpt>
      <trkpt lat="48.54917" lon="2.1409">
        <ele>103</ele>
        <time>2022-08-09T09:33:49.254Z</time>
      </trkpt>
      <trkpt lat="48.54918" lon="2.14099">
        <ele>103</ele>
        <time>2022-08-09T09:33:54.286Z</time>
      </trkpt>
      <trkpt lat="48.54919" lon="2.1411">
        <ele>103</ele>
        <time>2022-08-09T09:33:59.246Z</time>
      </trkpt>
      <trkpt lat="48.54919" lon="2.1412">
        <ele>103</ele>
        <time>2022-08-09T09:34:04.238Z</time>
      </trkpt>
      <trkpt lat="48.54918" lon="2.14128">
        <ele>104</ele>
        <time>2022-08-09T09:34:09.225Z</time>
      </trkpt>
      <trkpt lat="48.54918" lon="2.14136">
        <ele>104</ele>
        <time>2022-08-09T09:34:13.250Z</time>
      </trkpt>
      <trkpt lat="48.54919" lon="2.14147">
        <ele>104</ele>
        <time>2022-08-09T09:34:18.237Z</time>
      </trkpt>
      <trkpt lat="48.5492" lon="2.14156">
        <ele>104</ele>
        <time>2022-08-09T09:34:22.248Z</time>
      </trkpt>
      <trkpt lat="48.54922" lon="2.14168">
        <ele>104</ele>
        <time>2022-08-09T09:34:27.234Z</time>
      </trkpt>
      <trkpt lat="48.54922" lon="2.14176">
        <ele>104</ele>
        <time>2022-08-09T09:34:31.247Z</time>
      </trkpt>
      <trkpt lat="48.54923" lon="2.14187">
        <ele>105</ele>
        <time>2022-08-09T09:34:36.240Z</time>
      </trkpt>
      <trkpt lat="48.54925" lon="2.14199">
        <ele>105</ele>
        <time>2022-08-09T09:34:41.240Z</time>
      </trkpt>
      <trkpt lat="48.54925" lon="2.14208">
        <ele>105</ele>
        <time>2022-08-09T09:34:45.249Z</time>
      </trkpt>
      <trkpt lat="48.54927" lon="2.14221">
        <ele>105</ele>
        <time>2022-08-09T09:34:50.246Z</time>
      </trkpt>
      <trkpt lat="48.54928" lon="2.14232">
        <ele>105</ele>
        <time>2022-08-09T09:34:55.242Z</time>
      </trkpt>
      <trkpt lat="48.5493" lon="2.1424">
        <ele>105</ele>
        <time>2022-08-09T09:34:59.271Z</time>
      </trkpt>
      <trkpt lat="48.54932" lon="2.14248">
        <ele>105</ele>
        <time>2022-08-09T09:35:04.246Z</time>
      </trkpt>
      <trkpt lat="48.54933" lon="2.14258">
        <ele>105</ele>
        <time>2022-08-09T09:35:09.245Z</time>
      </trkpt>
      <trkpt lat="48.54934" lon="2.14267">
        <ele>104</ele>
        <time>2022-08-09T09:35:14.218Z</time>
      </trkpt>
      <trkpt lat="48.54934" lon="2.14277">
        <ele>104</ele>
        <time>2022-08-09T09:35:19.233Z</time>
      </trkpt>
      <trkpt lat="48.54935" lon="2.14285">
        <ele>104</ele>
        <time>2022-08-09T09:35:23.258Z</time>
      </trkpt>
      <trkpt lat="48.54936" lon="2.14297">
        <ele>104</ele>
        <time>2022-08-09T09:35:28.235Z</time>
      </trkpt>
      <trkpt lat="48.54936" lon="2.14308">
        <ele>104</ele>
        <time>2022-08-09T09:35:33.265Z</time>
      </trkpt>
      <trkpt lat="48.54936" lon="2.1432">
        <ele>104</ele>
        <time>2022-08-09T09:35:38.228Z</time>
      </trkpt>
      <trkpt lat="48.54935" lon="2.14328">
        <ele>104</ele>
        <time>2022-08-09T09:35:42.242Z</time>
      </trkpt>
      <trkpt lat="48.54934" lon="2.14337">
        <ele>104</ele>
        <time>2022-08-09T09:35:46.247Z</time>
      </trkpt>
      <trkpt lat="48.54933" lon="2.1435">
        <ele>104</ele>
        <time>2022-08-09T09:35:51.209Z</time>
      </trkpt>
      <trkpt lat="48.54933" lon="2.1436">
        <ele>104</ele>
        <time>2022-08-09T09:35:55.222Z</time>
      </trkpt>
      <trkpt lat="48.54933" lon="2.14371">
        <ele>104</ele>
        <time>2022-08-09T09:36:00.217Z</time>
      </trkpt>
      <trkpt lat="48.54934" lon="2.1438">
        <ele>104</ele>
        <time>2022-08-09T09:36:04.230Z</time>
      </trkpt>
      <trkpt lat="48.54936" lon="2.1439">
        <ele>104</ele>
        <time>2022-08-09T09:36:09.228Z</time>
      </trkpt>
      <trkpt lat="48.54937" lon="2.14398">
        <ele>104</ele>
        <time>2022-08-09T09:36:13.249Z</time>
      </trkpt>
      <trkpt lat="48.54938" lon="2.14407">
        <ele>104</ele>
        <time>2022-08-09T09:36:17.219Z</time>
      </trkpt>
      <trkpt lat="48.54939" lon="2.14419">
        <ele>104</ele>
        <time>2022-08-09T09:36:22.246Z</time>
      </trkpt>
      <trkpt lat="48.5494" lon="2.14432">
        <ele>105</ele>
        <time>2022-08-09T09:36:27.241Z</time>
      </trkpt>
      <trkpt lat="48.5494" lon="2.14444">
        <ele>105</ele>
        <time>2022-08-09T09:36:32.221Z</time>
      </trkpt>
      <trkpt lat="48.5494" lon="2.14453">
        <ele>105</ele>
        <time>2022-08-09T09:36:36.244Z</time>
      </trkpt>
      <trkpt lat="48.54941" lon="2.14464">
        <ele>105</ele>
        <time>2022-08-09T09:36:41.272Z</time>
      </trkpt>
      <trkpt lat="48.54941" lon="2.14476">
        <ele>105</ele>
        <time>2022-08-09T09:36:46.249Z</time>
      </trkpt>
      <trkpt lat="48.5494" lon="2.14483">
        <ele>105</ele>
        <time>2022-08-09T09:36:50.259Z</time>
      </trkpt>
      <trkpt lat="48.5494" lon="2.14494">
        <ele>106</ele>
        <time>2022-08-09T09:36:55.238Z</time>
      </trkpt>
      <trkpt lat="48.5494" lon="2.14502">
        <ele>106</ele>
        <time>2022-08-09T09:36:59.261Z</time>
      </trkpt>
      <trkpt lat="48.54939" lon="2.14512">
        <ele>106</ele>
        <time>2022-08-09T09:37:04.234Z</time>
      </trkpt>
      <trkpt lat="48.54939" lon="2.14524">
        <ele>107</ele>
        <time>2022-08-09T09:37:09.249Z</time>
      </trkpt>
      <trkpt lat="48.54939" lon="2.14535">
        <ele>107</ele>
        <time>2022-08-09T09:37:14.237Z</time>
      </trkpt>
      <trkpt lat="48.54939" lon="2.14546">
        <ele>107</ele>
        <time>2022-08-09T09:37:19.258Z</time>
      </trkpt>
      <trkpt lat="48.54938" lon="2.14556">
        <ele>107</ele>
        <time>2022-08-09T09:37:24.215Z</time>
      </trkpt>
      <trkpt lat="48.54938" lon="2.14564">
        <ele>107</ele>
        <time>2022-08-09T09:37:28.236Z</time>
      </trkpt>
      <trkpt lat="48.54938" lon="2.14573">
        <ele>108</ele>
        <time>2022-08-09T09:37:33.247Z</time>
      </trkpt>
      <trkpt lat="48.54936" lon="2.14583">
        <ele>108</ele>
        <time>2022-08-09T09:37:38.214Z</time>
      </trkpt>
      <trkpt lat="48.54936" lon="2.14592">
        <ele>108</ele>
        <time>2022-08-09T09:37:42.237Z</time>
      </trkpt>
      <trkpt lat="48.54935" lon="2.14601">
        <ele>108</ele>
        <time>2022-08-09T09:37:46.230Z</time>
      </trkpt>
      <trkpt lat="48.54934" lon="2.14609">
        <ele>108</ele>
        <time>2022-08-09T09:37:50.236Z</time>
      </trkpt>
      <trkpt lat="48.54932" lon="2.1462">
        <ele>108</ele>
        <time>2022-08-09T09:37:55.259Z</time>
      </trkpt>
      <trkpt lat="48.54931" lon="2.1463">
        <ele>108</ele>
        <time>2022-08-09T09:37:59.251Z</time>
      </trkpt>
      <trkpt lat="48.54929" lon="2.14641">
        <ele>112</ele>
        <time>2022-08-09T09:38:04.247Z</time>
      </trkpt>
      <trkpt lat="48.54927" lon="2.14652">
        <ele>112</ele>
        <time>2022-08-09T09:38:09.240Z</time>
      </trkpt>
      <trkpt lat="48.54925" lon="2.14664">
        <ele>110</ele>
        <time>2022-08-09T09:38:14.229Z</time>
      </trkpt>
      <trkpt lat="48.54924" lon="2.14674">
        <ele>110</ele>
        <time>2022-08-09T09:38:19.261Z</time>
      </trkpt>
      <trkpt lat="48.54924" lon="2.14682">
        <ele>109</ele>
        <time>2022-08-09T09:38:23.264Z</time>
      </trkpt>
      <trkpt lat="48.54923" lon="2.14691">
        <ele>109</ele>
        <time>2022-08-09T09:38:28.237Z</time>
      </trkpt>
      <trkpt lat="48.54922" lon="2.14701">
        <ele>109</ele>
        <time>2022-08-09T09:38:33.253Z</time>
      </trkpt>
      <trkpt lat="48.54923" lon="2.14712">
        <ele>106</ele>
        <time>2022-08-09T09:38:38.240Z</time>
      </trkpt>
      <trkpt lat="48.54923" lon="2.14719">
        <ele>106</ele>
        <time>2022-08-09T09:38:42.232Z</time>
      </trkpt>
      <trkpt lat="48.54923" lon="2.14731">
        <ele>106</ele>
        <time>2022-08-09T09:38:47.231Z</time>
      </trkpt>
      <trkpt lat="48.54924" lon="2.1474">
        <ele>103</ele>
        <time>2022-08-09T09:38:51.245Z</time>
      </trkpt>
      <trkpt lat="48.54925" lon="2.14751">
        <ele>103</ele>
        <time>2022-08-09T09:38:56.215Z</time>
      </trkpt>
      <trkpt lat="48.54926" lon="2.1476">
        <ele>103</ele>
        <time>2022-08-09T09:39:00.238Z</time>
      </trkpt>
      <trkpt lat="48.54927" lon="2.14773">
        <ele>101</ele>
        <time>2022-08-09T09:39:05.250Z</time>
      </trkpt>
      <trkpt lat="48.5493" lon="2.14785">
        <ele>101</ele>
        <time>2022-08-09T09:39:10.226Z</time>
      </trkpt>
      <trkpt lat="48.54929" lon="2.14794">
        <ele>101</ele>
        <time>2022-08-09T09:39:14.217Z</time>
      </trkpt>
      <trkpt lat="48.54928" lon="2.14806">
        <ele>101</ele>
        <time>2022-08-09T09:39:19.255Z</time>
      </trkpt>
      <trkpt lat="48.54928" lon="2.14817">
        <ele>101</ele>
        <time>2022-08-09T09:39:24.251Z</time>
      </trkpt>
      <trkpt lat="48.54929" lon="2.14828">
        <ele>102</ele>
        <time>2022-08-09T09:39:29.258Z</time>
      </trkpt>
      <trkpt lat="48.54929" lon="2.1484">
        <ele>102</ele>
        <time>2022-08-09T09:39:34.236Z</time>
      </trkpt>
      <trkpt lat="48.54929" lon="2.14851">
        <ele>104</ele>
        <time>2022-08-09T09:39:39.258Z</time>
      </trkpt>
      <trkpt lat="48.54929" lon="2.14863">
        <ele>104</ele>
        <time>2022-08-09T09:39:44.216Z</time>
      </trkpt>
      <trkpt lat="48.54928" lon="2.14873">
        <ele>104</ele>
        <time>2022-08-09T09:39:48.218Z</time>
      </trkpt>
      <trkpt lat="48.54928" lon="2.14881">
        <ele>104</ele>
        <time>2022-08-09T09:39:52.229Z</time>
      </trkpt>
      <trkpt lat="48.54929" lon="2.14888">
        <ele>104</ele>
        <time>2022-08-09T09:39:57.239Z</time>
      </trkpt>
      <trkpt lat="48.54928" lon="2.14897">
        <ele>104</ele>
        <time>2022-08-09T09:40:02.222Z</time>
      </trkpt>
      <trkpt lat="48.54929" lon="2.14905">
        <ele>105</ele>
        <time>2022-08-09T09:40:07.244Z</time>
      </trkpt>
      <trkpt lat="48.5493" lon="2.14915">
        <ele>105</ele>
        <time>2022-08-09T09:40:12.222Z</time>
      </trkpt>
      <trkpt lat="48.54929" lon="2.1492">
        <ele>105</ele>
        <time>2022-08-09T09:40:17.218Z</time>
      </trkpt>
      <trkpt lat="48.5493" lon="2.14926">
        <ele>105</ele>
        <time>2022-08-09T09:40:21.239Z</time>
      </trkpt>
      <trkpt lat="48.5493" lon="2.14933">
        <ele>105</ele>
        <time>2022-08-09T09:40:25.244Z</time>
      </trkpt>
      <trkpt lat="48.54931" lon="2.14941">
        <ele>104</ele>
        <time>2022-08-09T09:40:30.214Z</time>
      </trkpt>
      <trkpt lat="48.5493" lon="2.14951">
        <ele>105</ele>
        <time>2022-08-09T09:40:34.208Z</time>
      </trkpt>
      <trkpt lat="48.54929" lon="2.14958">
        <ele>105</ele>
        <time>2022-08-09T09:40:38.217Z</time>
      </trkpt>
      <trkpt lat="48.54928" lon="2.14968">
        <ele>106</ele>
        <time>2022-08-09T09:40:43.201Z</time>
      </trkpt>
      <trkpt lat="48.54927" lon="2.14977">
        <ele>106</ele>
        <time>2022-08-09T09:40:47.236Z</time>
      </trkpt>
      <trkpt lat="48.54927" lon="2.14987">
        <ele>107</ele>
        <time>2022-08-09T09:40:52.222Z</time>
      </trkpt>
      <trkpt lat="48.54927" lon="2.14996">
        <ele>107</ele>
        <time>2022-08-09T09:40:56.224Z</time>
      </trkpt>
      <trkpt lat="48.54926" lon="2.15008">
        <ele>107</ele>
        <time>2022-08-09T09:41:01.220Z</time>
      </trkpt>
      <trkpt lat="48.54925" lon="2.1502">
        <ele>108</ele>
        <time>2022-08-09T09:41:06.217Z</time>
      </trkpt>
      <trkpt lat="48.54925" lon="2.1503">
        <ele>108</ele>
        <time>2022-08-09T09:41:10.214Z</time>
      </trkpt>
      <trkpt lat="48.54928" lon="2.15041">
        <ele>108</ele>
        <time>2022-08-09T09:41:15.230Z</time>
      </trkpt>
      <trkpt lat="48.54929" lon="2.15052">
        <ele>109</ele>
        <time>2022-08-09T09:41:20.217Z</time>
      </trkpt>
      <trkpt lat="48.5493" lon="2.15061">
        <ele>109</ele>
        <time>2022-08-09T09:41:24.216Z</time>
      </trkpt>
      <trkpt lat="48.54931" lon="2.1507">
        <ele>108</ele>
        <time>2022-08-09T09:41:28.210Z</time>
      </trkpt>
      <trkpt lat="48.54932" lon="2.15081">
        <ele>108</ele>
        <time>2022-08-09T09:41:33.251Z</time>
      </trkpt>
      <trkpt lat="48.54933" lon="2.15094">
        <ele>108</ele>
        <time>2022-08-09T09:41:38.244Z</time>
      </trkpt>
      <trkpt lat="48.54936" lon="2.15104">
        <ele>108</ele>
        <time>2022-08-09T09:41:43.258Z</time>
      </trkpt>
      <trkpt lat="48.54939" lon="2.15114">
        <ele>108</ele>
        <time>2022-08-09T09:41:48.227Z</time>
      </trkpt>
      <trkpt lat="48.54943" lon="2.15124">
        <ele>108</ele>
        <time>2022-08-09T09:41:53.235Z</time>
      </trkpt>
      <trkpt lat="48.54945" lon="2.15132">
        <ele>108</ele>
        <time>2022-08-09T09:41:57.242Z</time>
      </trkpt>
      <trkpt lat="48.54947" lon="2.15139">
        <ele>108</ele>
        <time>2022-08-09T09:42:01.253Z</time>
      </trkpt>
      <trkpt lat="48.5495" lon="2.15151">
        <ele>108</ele>
        <time>2022-08-09T09:42:06.240Z</time>
      </trkpt>
      <trkpt lat="48.54952" lon="2.1516">
        <ele>108</ele>
        <time>2022-08-09T09:42:11.221Z</time>
      </trkpt>
      <trkpt lat="48.54953" lon="2.15167">
        <ele>108</ele>
        <time>2022-08-09T09:42:15.245Z</time>
      </trkpt>
      <trkpt lat="48.54955" lon="2.15178">
        <ele>108</ele>
        <time>2022-08-09T09:42:20.225Z</time>
      </trkpt>
      <trkpt lat="48.54957" lon="2.15186">
        <ele>108</ele>
        <time>2022-08-09T09:42:24.232Z</time>
      </trkpt>
      <trkpt lat="48.5496" lon="2.15195">
        <ele>106</ele>
        <time>2022-08-09T09:42:29.233Z</time>
      </trkpt>
      <trkpt lat="48.54963" lon="2.15204">
        <ele>106</ele>
        <time>2022-08-09T09:42:33.273Z</time>
      </trkpt>
      <trkpt lat="48.54965" lon="2.15216">
        <ele>107</ele>
        <time>2022-08-09T09:42:38.217Z</time>
      </trkpt>
      <trkpt lat="48.54967" lon="2.15226">
        <ele>107</ele>
        <time>2022-08-09T09:42:43.246Z</time>
      </trkpt>
      <trkpt lat="48.5497" lon="2.15236">
        <ele>107</ele>
        <time>2022-08-09T09:42:48.217Z</time>
      </trkpt>
      <trkpt lat="48.54973" lon="2.15244">
        <ele>108</ele>
        <time>2022-08-09T09:42:52.224Z</time>
      </trkpt>
      <trkpt lat="48.54976" lon="2.15254">
        <ele>108</ele>
        <time>2022-08-09T09:42:57.249Z</time>
      </trkpt>
      <trkpt lat="48.54978" lon="2.15261">
        <ele>108</ele>
        <time>2022-08-09T09:43:01.243Z</time>
      </trkpt>
      <trkpt lat="48.5498" lon="2.15269">
        <ele>108</ele>
        <time>2022-08-09T09:43:06.217Z</time>
      </trkpt>
      <trkpt lat="48.54982" lon="2.15277">
        <ele>108</ele>
        <time>2022-08-09T09:43:10.228Z</time>
      </trkpt>
      <trkpt lat="48.54984" lon="2.15288">
        <ele>108</ele>
        <time>2022-08-09T09:43:15.229Z</time>
      </trkpt>
      <trkpt lat="48.54986" lon="2.15297">
        <ele>108</ele>
        <time>2022-08-09T09:43:19.243Z</time>
      </trkpt>
      <trkpt lat="48.54987" lon="2.15307">
        <ele>107</ele>
        <time>2022-08-09T09:43:24.217Z</time>
      </trkpt>
      <trkpt lat="48.54988" lon="2.15314">
        <ele>107</ele>
        <time>2022-08-09T09:43:28.220Z</time>
      </trkpt>
      <trkpt lat="48.54989" lon="2.15323">
        <ele>106</ele>
        <time>2022-08-09T09:43:32.227Z</time>
      </trkpt>
      <trkpt lat="48.54992" lon="2.15334">
        <ele>106</ele>
        <time>2022-08-09T09:43:37.243Z</time>
      </trkpt>
      <trkpt lat="48.54993" lon="2.15344">
        <ele>106</ele>
        <time>2022-08-09T09:43:42.214Z</time>
      </trkpt>
      <trkpt lat="48.54996" lon="2.15353">
        <ele>106</ele>
        <time>2022-08-09T09:43:47.237Z</time>
      </trkpt>
      <trkpt lat="48.54998" lon="2.15364">
        <ele>106</ele>
        <time>2022-08-09T09:43:52.227Z</time>
      </trkpt>
      <trkpt lat="48.55003" lon="2.15374">
        <ele>106</ele>
        <time>2022-08-09T09:43:57.271Z</time>
      </trkpt>
      <trkpt lat="48.55005" lon="2.15385">
        <ele>107</ele>
        <time>2022-08-09T09:44:02.236Z</time>
      </trkpt>
      <trkpt lat="48.55006" lon="2.15395">
        <ele>107</ele>
        <time>2022-08-09T09:44:07.237Z</time>
      </trkpt>
      <trkpt lat="48.55006" lon="2.15404">
        <ele>108</ele>
        <time>2022-08-09T09:44:11.254Z</time>
      </trkpt>
      <trkpt lat="48.55006" lon="2.15415">
        <ele>108</ele>
        <time>2022-08-09T09:44:16.243Z</time>
      </trkpt>
      <trkpt lat="48.55008" lon="2.15426">
        <ele>108</ele>
        <time>2022-08-09T09:44:21.245Z</time>
      </trkpt>
      <trkpt lat="48.55009" lon="2.15434">
        <ele>109</ele>
        <time>2022-08-09T09:44:25.235Z</time>
      </trkpt>
      <trkpt lat="48.55009" lon="2.15445">
        <ele>109</ele>
        <time>2022-08-09T09:44:30.251Z</time>
      </trkpt>
      <trkpt lat="48.55011" lon="2.15456">
        <ele>109</ele>
        <time>2022-08-09T09:44:35.241Z</time>
      </trkpt>
      <trkpt lat="48.55011" lon="2.15467">
        <ele>110</ele>
        <time>2022-08-09T09:44:40.250Z</time>
      </trkpt>
      <trkpt lat="48.55013" lon="2.15478">
        <ele>110</ele>
        <time>2022-08-09T09:44:45.260Z</time>
      </trkpt>
      <trkpt lat="48.55013" lon="2.15488">
        <ele>110</ele>
        <time>2022-08-09T09:44:50.245Z</time>
      </trkpt>
      <trkpt lat="48.55014" lon="2.15498">
        <ele>109</ele>
        <time>2022-08-09T09:44:54.250Z</time>
      </trkpt>
      <trkpt lat="48.55015" lon="2.15509">
        <ele>109</ele>
        <time>2022-08-09T09:44:59.250Z</time>
      </trkpt>
      <trkpt lat="48.55016" lon="2.15518">
        <ele>108</ele>
        <time>2022-08-09T09:45:03.255Z</time>
      </trkpt>
      <trkpt lat="48.55018" lon="2.15529">
        <ele>108</ele>
        <time>2022-08-09T09:45:08.252Z</time>
      </trkpt>
      <trkpt lat="48.55019" lon="2.1554">
        <ele>108</ele>
        <time>2022-08-09T09:45:13.253Z</time>
      </trkpt>
      <trkpt lat="48.55022" lon="2.1555">
        <ele>107</ele>
        <time>2022-08-09T09:45:18.240Z</time>
      </trkpt>
      <trkpt lat="48.55023" lon="2.15559">
        <ele>107</ele>
        <time>2022-08-09T09:45:22.249Z</time>
      </trkpt>
      <trkpt lat="48.55025" lon="2.15569">
        <ele>107</ele>
        <time>2022-08-09T09:45:27.242Z</time>
      </trkpt>
      <trkpt lat="48.55026" lon="2.15578">
        <ele>106</ele>
        <time>2022-08-09T09:45:31.238Z</time>
      </trkpt>
      <trkpt lat="48.55028" lon="2.15594">
        <ele>106</ele>
        <time>2022-08-09T09:45:36.237Z</time>
      </trkpt>
      <trkpt lat="48.55028" lon="2.15609">
        <ele>103</ele>
        <time>2022-08-09T09:45:41.254Z</time>
      </trkpt>
      <trkpt lat="48.55028" lon="2.15623">
        <ele>103</ele>
        <time>2022-08-09T09:45:46.246Z</time>
      </trkpt>
      <trkpt lat="48.55029" lon="2.15635">
        <ele>99</ele>
        <time>2022-08-09T09:45:50.243Z</time>
      </trkpt>
      <trkpt lat="48.5503" lon="2.15645">
        <ele>99</ele>
        <time>2022-08-09T09:45:55.240Z</time>
      </trkpt>
      <trkpt lat="48.5503" lon="2.15655">
        <ele>98</ele>
        <time>2022-08-09T09:45:59.241Z</time>
      </trkpt>
      <trkpt lat="48.55031" lon="2.15668">
        <ele>98</ele>
        <time>2022-08-09T09:46:04.255Z</time>
      </trkpt>
      <trkpt lat="48.55031" lon="2.1568">
        <ele>98</ele>
        <time>2022-08-09T09:46:09.251Z</time>
      </trkpt>
      <trkpt lat="48.55031" lon="2.15691">
        <ele>97</ele>
        <time>2022-08-09T09:46:14.250Z</time>
      </trkpt>
      <trkpt lat="48.55032" lon="2.15701">
        <ele>97</ele>
        <time>2022-08-09T09:46:19.256Z</time>
      </trkpt>
      <trkpt lat="48.55032" lon="2.15711">
        <ele>97</ele>
        <time>2022-08-09T09:46:24.267Z</time>
      </trkpt>
      <trkpt lat="48.55032" lon="2.15722">
        <ele>97</ele>
        <time>2022-08-09T09:46:29.244Z</time>
      </trkpt>
      <trkpt lat="48.55034" lon="2.1573">
        <ele>97</ele>
        <time>2022-08-09T09:46:33.258Z</time>
      </trkpt>
      <trkpt lat="48.55036" lon="2.15739">
        <ele>99</ele>
        <time>2022-08-09T09:46:37.252Z</time>
      </trkpt>
      <trkpt lat="48.55037" lon="2.15751">
        <ele>99</ele>
        <time>2022-08-09T09:46:42.232Z</time>
      </trkpt>
      <trkpt lat="48.55039" lon="2.15759">
        <ele>99</ele>
        <time>2022-08-09T09:46:46.225Z</time>
      </trkpt>
      <trkpt lat="48.5504" lon="2.15768">
        <ele>100</ele>
        <time>2022-08-09T09:46:50.246Z</time>
      </trkpt>
      <trkpt lat="48.55041" lon="2.1578">
        <ele>100</ele>
        <time>2022-08-09T09:46:55.263Z</time>
      </trkpt>
      <trkpt lat="48.55042" lon="2.15789">
        <ele>97</ele>
        <time>2022-08-09T09:46:59.249Z</time>
      </trkpt>
      <trkpt lat="48.55046" lon="2.15799">
        <ele>98</ele>
        <time>2022-08-09T09:47:04.254Z</time>
      </trkpt>
      <trkpt lat="48.55048" lon="2.1581">
        <ele>98</ele>
        <time>2022-08-09T09:47:09.248Z</time>
      </trkpt>
      <trkpt lat="48.55049" lon="2.15818">
        <ele>98</ele>
        <time>2022-08-09T09:47:13.259Z</time>
      </trkpt>
      <trkpt lat="48.55052" lon="2.15828">
        <ele>98</ele>
        <time>2022-08-09T09:47:18.222Z</time>
      </trkpt>
      <trkpt lat="48.55054" lon="2.15838">
        <ele>98</ele>
        <time>2022-08-09T09:47:22.228Z</time>
      </trkpt>
      <trkpt lat="48.55056" lon="2.15848">
        <ele>98</ele>
        <time>2022-08-09T09:47:26.246Z</time>
      </trkpt>
      <trkpt lat="48.55057" lon="2.15858">
        <ele>98</ele>
        <time>2022-08-09T09:47:31.249Z</time>
      </trkpt>
      <trkpt lat="48.55059" lon="2.15868">
        <ele>98</ele>
        <time>2022-08-09T09:47:36.262Z</time>
      </trkpt>
      <trkpt lat="48.55061" lon="2.15879">
        <ele>98</ele>
        <time>2022-08-09T09:47:41.236Z</time>
      </trkpt>
      <trkpt lat="48.55062" lon="2.1589">
        <ele>98</ele>
        <time>2022-08-09T09:47:46.239Z</time>
      </trkpt>
      <trkpt lat="48.55064" lon="2.159">
        <ele>98</ele>
        <time>2022-08-09T09:47:51.227Z</time>
      </trkpt>
      <trkpt lat="48.55065" lon="2.15907">
        <ele>99</ele>
        <time>2022-08-09T09:47:55.254Z</time>
      </trkpt>
      <trkpt lat="48.55067" lon="2.15916">
        <ele>99</ele>
        <time>2022-08-09T09:48:00.237Z</time>
      </trkpt>
      <trkpt lat="48.55065" lon="2.15925">
        <ele>99</ele>
        <time>2022-08-09T09:48:05.261Z</time>
      </trkpt>
      <trkpt lat="48.55062" lon="2.15931">
        <ele>102</ele>
        <time>2022-08-09T09:48:10.248Z</time>
      </trkpt>
      <trkpt lat="48.55062" lon="2.15942">
        <ele>102</ele>
        <time>2022-08-09T09:48:14.238Z</time>
      </trkpt>
      <trkpt lat="48.55064" lon="2.15951">
        <ele>102</ele>
        <time>2022-08-09T09:48:19.239Z</time>
      </trkpt>
      <trkpt lat="48.55064" lon="2.1596">
        <ele>105</ele>
        <time>2022-08-09T09:48:24.233Z</time>
      </trkpt>
      <trkpt lat="48.55064" lon="2.15967">
        <ele>105</ele>
        <time>2022-08-09T09:48:28.246Z</time>
      </trkpt>
      <trkpt lat="48.55064" lon="2.15975">
        <ele>105</ele>
        <time>2022-08-09T09:48:33.246Z</time>
      </trkpt>
      <trkpt lat="48.55065" lon="2.15986">
        <ele>106</ele>
        <time>2022-08-09T09:48:38.235Z</time>
      </trkpt>
      <trkpt lat="48.55066" lon="2.15996">
        <ele>106</ele>
        <time>2022-08-09T09:48:43.254Z</time>
      </trkpt>
      <trkpt lat="48.55068" lon="2.16007">
        <ele>106</ele>
        <time>2022-08-09T09:48:48.244Z</time>
      </trkpt>
      <trkpt lat="48.55071" lon="2.16017">
        <ele>107</ele>
        <time>2022-08-09T09:48:53.219Z</time>
      </trkpt>
      <trkpt lat="48.55073" lon="2.16025">
        <ele>107</ele>
        <time>2022-08-09T09:48:57.238Z</time>
      </trkpt>
      <trkpt lat="48.55073" lon="2.1603">
        <ele>107</ele>
        <time>2022-08-09T09:49:01.254Z</time>
      </trkpt>
      <trkpt lat="48.55076" lon="2.16041">
        <ele>107</ele>
        <time>2022-08-09T09:49:05.245Z</time>
      </trkpt>
      <trkpt lat="48.55078" lon="2.16054">
        <ele>106</ele>
        <time>2022-08-09T09:49:10.243Z</time>
      </trkpt>
      <trkpt lat="48.55078" lon="2.16066">
        <ele>106</ele>
        <time>2022-08-09T09:49:15.250Z</time>
      </trkpt>
      <trkpt lat="48.5508" lon="2.16075">
        <ele>104</ele>
        <time>2022-08-09T09:49:19.247Z</time>
      </trkpt>
      <trkpt lat="48.55084" lon="2.16088">
        <ele>104</ele>
        <time>2022-08-09T09:49:24.227Z</time>
      </trkpt>
      <trkpt lat="48.55086" lon="2.16098">
        <ele>102</ele>
        <time>2022-08-09T09:49:28.238Z</time>
      </trkpt>
      <trkpt lat="48.55091" lon="2.1611">
        <ele>102</ele>
        <time>2022-08-09T09:49:33.211Z</time>
      </trkpt>
      <trkpt lat="48.55094" lon="2.16119">
        <ele>102</ele>
        <time>2022-08-09T09:49:37.244Z</time>
      </trkpt>
      <trkpt lat="48.55097" lon="2.1613">
        <ele>100</ele>
        <time>2022-08-09T09:49:42.228Z</time>
      </trkpt>
      <trkpt lat="48.55101" lon="2.16141">
        <ele>99</ele>
        <time>2022-08-09T09:49:47.259Z</time>
      </trkpt>
      <trkpt lat="48.55105" lon="2.1615">
        <ele>99</ele>
        <time>2022-08-09T09:49:52.262Z</time>
      </trkpt>
      <trkpt lat="48.55109" lon="2.16159">
        <ele>97</ele>
        <time>2022-08-09T09:49:57.242Z</time>
      </trkpt>
      <trkpt lat="48.55112" lon="2.16168">
        <ele>97</ele>
        <time>2022-08-09T09:50:01.249Z</time>
      </trkpt>
      <trkpt lat="48.55117" lon="2.16177">
        <ele>97</ele>
        <time>2022-08-09T09:50:06.237Z</time>
      </trkpt>
      <trkpt lat="48.55121" lon="2.16187">
        <ele>96</ele>
        <time>2022-08-09T09:50:11.245Z</time>
      </trkpt>
      <trkpt lat="48.55124" lon="2.16197">
        <ele>96</ele>
        <time>2022-08-09T09:50:16.236Z</time>
      </trkpt>
      <trkpt lat="48.55127" lon="2.16204">
        <ele>96</ele>
        <time>2022-08-09T09:50:20.216Z</time>
      </trkpt>
      <trkpt lat="48.55132" lon="2.16212">
        <ele>96</ele>
        <time>2022-08-09T09:50:25.229Z</time>
      </trkpt>
      <trkpt lat="48.55136" lon="2.16223">
        <ele>96</ele>
        <time>2022-08-09T09:50:30.247Z</time>
      </trkpt>
      <trkpt lat="48.55142" lon="2.16232">
        <ele>96</ele>
        <time>2022-08-09T09:50:35.241Z</time>
      </trkpt>
      <trkpt lat="48.55146" lon="2.1624">
        <ele>95</ele>
        <time>2022-08-09T09:50:39.260Z</time>
      </trkpt>
      <trkpt lat="48.55151" lon="2.16249">
        <ele>95</ele>
        <time>2022-08-09T09:50:44.232Z</time>
      </trkpt>
      <trkpt lat="48.55154" lon="2.16255">
        <ele>96</ele>
        <time>2022-08-09T09:50:48.242Z</time>
      </trkpt>
      <trkpt lat="48.5516" lon="2.16263">
        <ele>96</ele>
        <time>2022-08-09T09:50:53.233Z</time>
      </trkpt>
      <trkpt lat="48.55164" lon="2.1627">
        <ele>95</ele>
        <time>2022-08-09T09:50:57.247Z</time>
      </trkpt>
      <trkpt lat="48.5517" lon="2.1628">
        <ele>95</ele>
        <time>2022-08-09T09:51:02.252Z</time>
      </trkpt>
      <trkpt lat="48.55175" lon="2.16288">
        <ele>95</ele>
        <time>2022-08-09T09:51:07.256Z</time>
      </trkpt>
      <trkpt lat="48.5518" lon="2.16294">
        <ele>95</ele>
        <time>2022-08-09T09:51:11.257Z</time>
      </trkpt>
      <trkpt lat="48.55186" lon="2.16301">
        <ele>95</ele>
        <time>2022-08-09T09:51:16.241Z</time>
      </trkpt>
      <trkpt lat="48.5519" lon="2.16308">
        <ele>95</ele>
        <time>2022-08-09T09:51:20.244Z</time>
      </trkpt>
      <trkpt lat="48.55194" lon="2.16314">
        <ele>95</ele>
        <time>2022-08-09T09:51:24.238Z</time>
      </trkpt>
      <trkpt lat="48.55199" lon="2.1632">
        <ele>95</ele>
        <time>2022-08-09T09:51:29.249Z</time>
      </trkpt>
      <trkpt lat="48.55203" lon="2.16327">
        <ele>95</ele>
        <time>2022-08-09T09:51:34.244Z</time>
      </trkpt>
      <trkpt lat="48.55207" lon="2.16335">
        <ele>95</ele>
        <time>2022-08-09T09:51:39.258Z</time>
      </trkpt>
      <trkpt lat="48.55208" lon="2.16342">
        <ele>95</ele>
        <time>2022-08-09T09:51:43.260Z</time>
      </trkpt>
      <trkpt lat="48.5521" lon="2.16347">
        <ele>94</ele>
        <time>2022-08-09T09:51:47.260Z</time>
      </trkpt>
      <trkpt lat="48.55215" lon="2.16357">
        <ele>93</ele>
        <time>2022-08-09T09:51:52.243Z</time>
      </trkpt>
      <trkpt lat="48.55218" lon="2.16365">
        <ele>93</ele>
        <time>2022-08-09T09:51:56.258Z</time>
      </trkpt>
      <trkpt lat="48.55223" lon="2.16376">
        <ele>93</ele>
        <time>2022-08-09T09:52:01.252Z</time>
      </trkpt>
      <trkpt lat="48.55228" lon="2.16385">
        <ele>93</ele>
        <time>2022-08-09T09:52:06.232Z</time>
      </trkpt>
      <trkpt lat="48.55231" lon="2.16391">
        <ele>93</ele>
        <time>2022-08-09T09:52:11.247Z</time>
      </trkpt>
      <trkpt lat="48.55234" lon="2.164">
        <ele>93</ele>
        <time>2022-08-09T09:52:15.246Z</time>
      </trkpt>
      <trkpt lat="48.55237" lon="2.1641">
        <ele>90</ele>
        <time>2022-08-09T09:52:19.250Z</time>
      </trkpt>
      <trkpt lat="48.5524" lon="2.16419">
        <ele>90</ele>
        <time>2022-08-09T09:52:24.236Z</time>
      </trkpt>
      <trkpt lat="48.55243" lon="2.16426">
        <ele>90</ele>
        <time>2022-08-09T09:52:28.233Z</time>
      </trkpt>
      <trkpt lat="48.55246" lon="2.16435">
        <ele>90</ele>
        <time>2022-08-09T09:52:33.270Z</time>
      </trkpt>
      <trkpt lat="48.55249" lon="2.16443">
        <ele>90</ele>
        <time>2022-08-09T09:52:37.264Z</time>
      </trkpt>
      <trkpt lat="48.55253" lon="2.16453">
        <ele>90</ele>
        <time>2022-08-09T09:52:42.244Z</time>
      </trkpt>
      <trkpt lat="48.55256" lon="2.16459">
        <ele>89</ele>
        <time>2022-08-09T09:52:46.241Z</time>
      </trkpt>
      <trkpt lat="48.5526" lon="2.16468">
        <ele>89</ele>
        <time>2022-08-09T09:52:51.239Z</time>
      </trkpt>
      <trkpt lat="48.55264" lon="2.16477">
        <ele>88</ele>
        <time>2022-08-09T09:52:56.258Z</time>
      </trkpt>
      <trkpt lat="48.55269" lon="2.16486">
        <ele>87</ele>
        <time>2022-08-09T09:53:01.265Z</time>
      </trkpt>
      <trkpt lat="48.55273" lon="2.16496">
        <ele>87</ele>
        <time>2022-08-09T09:53:06.245Z</time>
      </trkpt>
      <trkpt lat="48.55279" lon="2.16504">
        <ele>87</ele>
        <time>2022-08-09T09:53:11.257Z</time>
      </trkpt>
      <trkpt lat="48.55283" lon="2.16512">
        <ele>87</ele>
        <time>2022-08-09T09:53:16.248Z</time>
      </trkpt>
      <trkpt lat="48.55288" lon="2.16522">
        <ele>86</ele>
        <time>2022-08-09T09:53:21.238Z</time>
      </trkpt>
      <trkpt lat="48.55293" lon="2.16531">
        <ele>87</ele>
        <time>2022-08-09T09:53:26.248Z</time>
      </trkpt>
      <trkpt lat="48.55297" lon="2.16539">
        <ele>87</ele>
        <time>2022-08-09T09:53:31.252Z</time>
      </trkpt>
      <trkpt lat="48.55302" lon="2.1655">
        <ele>85</ele>
        <time>2022-08-09T09:53:36.231Z</time>
      </trkpt>
      <trkpt lat="48.55304" lon="2.16556">
        <ele>85</ele>
        <time>2022-08-09T09:53:40.240Z</time>
      </trkpt>
      <trkpt lat="48.55307" lon="2.16566">
        <ele>85</ele>
        <time>2022-08-09T09:53:45.234Z</time>
      </trkpt>
      <trkpt lat="48.55311" lon="2.16576">
        <ele>85</ele>
        <time>2022-08-09T09:53:50.230Z</time>
      </trkpt>
      <trkpt lat="48.55314" lon="2.16587">
        <ele>85</ele>
        <time>2022-08-09T09:53:55.257Z</time>
      </trkpt>
      <trkpt lat="48.55318" lon="2.16598">
        <ele>85</ele>
        <time>2022-08-09T09:54:00.229Z</time>
      </trkpt>
      <trkpt lat="48.55321" lon="2.16607">
        <ele>87</ele>
        <time>2022-08-09T09:54:04.237Z</time>
      </trkpt>
      <trkpt lat="48.55323" lon="2.16615">
        <ele>87</ele>
        <time>2022-08-09T09:54:08.244Z</time>
      </trkpt>
      <trkpt lat="48.55325" lon="2.16627">
        <ele>87</ele>
        <time>2022-08-09T09:54:13.238Z</time>
      </trkpt>
      <trkpt lat="48.55327" lon="2.16638">
        <ele>87</ele>
        <time>2022-08-09T09:54:18.245Z</time>
      </trkpt>
      <trkpt lat="48.55329" lon="2.16646">
        <ele>87</ele>
        <time>2022-08-09T09:54:23.248Z</time>
      </trkpt>
      <trkpt lat="48.55331" lon="2.16654">
        <ele>86</ele>
        <time>2022-08-09T09:54:28.233Z</time>
      </trkpt>
      <trkpt lat="48.55333" lon="2.16663">
        <ele>86</ele>
        <time>2022-08-09T09:54:32.240Z</time>
      </trkpt>
      <trkpt lat="48.55336" lon="2.16673">
        <ele>86</ele>
        <time>2022-08-09T09:54:37.249Z</time>
      </trkpt>
      <trkpt lat="48.5534" lon="2.16685">
        <ele>86</ele>
        <time>2022-08-09T09:54:42.233Z</time>
      </trkpt>
      <trkpt lat="48.55343" lon="2.16694">
        <ele>86</ele>
        <time>2022-08-09T09:54:46.251Z</time>
      </trkpt>
      <trkpt lat="48.55346" lon="2.16702">
        <ele>86</ele>
        <time>2022-08-09T09:54:50.245Z</time>
      </trkpt>
      <trkpt lat="48.55349" lon="2.16713">
        <ele>86</ele>
        <time>2022-08-09T09:54:55.229Z</time>
      </trkpt>
      <trkpt lat="48.55352" lon="2.16721">
        <ele>86</ele>
        <time>2022-08-09T09:54:59.252Z</time>
      </trkpt>
      <trkpt lat="48.55355" lon="2.16731">
        <ele>86</ele>
        <time>2022-08-09T09:55:04.245Z</time>
      </trkpt>
      <trkpt lat="48.55358" lon="2.16738">
        <ele>86</ele>
        <time>2022-08-09T09:55:08.243Z</time>
      </trkpt>
      <trkpt lat="48.55363" lon="2.16748">
        <ele>86</ele>
        <time>2022-08-09T09:55:13.239Z</time>
      </trkpt>
      <trkpt lat="48.55367" lon="2.16755">
        <ele>86</ele>
        <time>2022-08-09T09:55:17.255Z</time>
      </trkpt>
      <trkpt lat="48.55368" lon="2.16763">
        <ele>86</ele>
        <time>2022-08-09T09:55:21.253Z</time>
      </trkpt>
      <trkpt lat="48.55368" lon="2.16776">
        <ele>86</ele>
        <time>2022-08-09T09:55:26.248Z</time>
      </trkpt>
      <trkpt lat="48.55368" lon="2.16784">
        <ele>86</ele>
        <time>2022-08-09T09:55:30.249Z</time>
      </trkpt>
      <trkpt lat="48.55369" lon="2.16794">
        <ele>85</ele>
        <time>2022-08-09T09:55:35.250Z</time>
      </trkpt>
      <trkpt lat="48.55371" lon="2.16806">
        <ele>85</ele>
        <time>2022-08-09T09:55:40.267Z</time>
      </trkpt>
      <trkpt lat="48.55376" lon="2.16816">
        <ele>87</ele>
        <time>2022-08-09T09:55:45.250Z</time>
      </trkpt>
      <trkpt lat="48.55383" lon="2.16825">
        <ele>85</ele>
        <time>2022-08-09T09:55:50.205Z</time>
      </trkpt>
      <trkpt lat="48.55386" lon="2.16829">
        <ele>85</ele>
        <time>2022-08-09T09:55:54.209Z</time>
      </trkpt>
      <trkpt lat="48.55394" lon="2.16827">
        <ele>85</ele>
        <time>2022-08-09T09:55:59.219Z</time>
      </trkpt>
      <trkpt lat="48.55399" lon="2.16833">
        <ele>85</ele>
        <time>2022-08-09T09:56:03.242Z</time>
      </trkpt>
      <trkpt lat="48.55406" lon="2.16837">
        <ele>83</ele>
        <time>2022-08-09T09:56:08.266Z</time>
      </trkpt>
      <trkpt lat="48.55412" lon="2.16847">
        <ele>83</ele>
        <time>2022-08-09T09:56:13.236Z</time>
      </trkpt>
      <trkpt lat="48.55419" lon="2.16855">
        <ele>81</ele>
        <time>2022-08-09T09:56:18.204Z</time>
      </trkpt>
      <trkpt lat="48.55425" lon="2.16862">
        <ele>81</ele>
        <time>2022-08-09T09:56:23.211Z</time>
      </trkpt>
      <trkpt lat="48.55432" lon="2.16872">
        <ele>81</ele>
        <time>2022-08-09T09:56:28.223Z</time>
      </trkpt>
      <trkpt lat="48.55437" lon="2.16879">
        <ele>80</ele>
        <time>2022-08-09T09:56:32.209Z</time>
      </trkpt>
      <trkpt lat="48.55443" lon="2.16886">
        <ele>80</ele>
        <time>2022-08-09T09:56:36.242Z</time>
      </trkpt>
      <trkpt lat="48.55448" lon="2.16893">
        <ele>80</ele>
        <time>2022-08-09T09:56:41.241Z</time>
      </trkpt>
      <trkpt lat="48.55452" lon="2.169">
        <ele>80</ele>
        <time>2022-08-09T09:56:45.239Z</time>
      </trkpt>
      <trkpt lat="48.55456" lon="2.16908">
        <ele>79</ele>
        <time>2022-08-09T09:56:49.250Z</time>
      </trkpt>
      <trkpt lat="48.55462" lon="2.16916">
        <ele>78</ele>
        <time>2022-08-09T09:56:54.221Z</time>
      </trkpt>
      <trkpt lat="48.55466" lon="2.16923">
        <ele>78</ele>
        <time>2022-08-09T09:56:58.218Z</time>
      </trkpt>
      <trkpt lat="48.55471" lon="2.16928">
        <ele>78</ele>
        <time>2022-08-09T09:57:02.239Z</time>
      </trkpt>
      <trkpt lat="48.55476" lon="2.16935">
        <ele>76</ele>
        <time>2022-08-09T09:57:06.252Z</time>
      </trkpt>
      <trkpt lat="48.55483" lon="2.16942">
        <ele>76</ele>
        <time>2022-08-09T09:57:11.252Z</time>
      </trkpt>
      <trkpt lat="48.55487" lon="2.16949">
        <ele>75</ele>
        <time>2022-08-09T09:57:15.276Z</time>
      </trkpt>
      <trkpt lat="48.55494" lon="2.16954">
        <ele>75</ele>
        <time>2022-08-09T09:57:20.229Z</time>
      </trkpt>
      <trkpt lat="48.555" lon="2.16961">
        <ele>73</ele>
        <time>2022-08-09T09:57:25.270Z</time>
      </trkpt>
      <trkpt lat="48.55507" lon="2.16968">
        <ele>73</ele>
        <time>2022-08-09T09:57:30.243Z</time>
      </trkpt>
      <trkpt lat="48.55514" lon="2.16972">
        <ele>73</ele>
        <time>2022-08-09T09:57:35.214Z</time>
      </trkpt>
      <trkpt lat="48.55518" lon="2.16973">
        <ele>75</ele>
        <time>2022-08-09T09:57:39.263Z</time>
      </trkpt>
      <trkpt lat="48.55524" lon="2.16977">
        <ele>75</ele>
        <time>2022-08-09T09:57:44.256Z</time>
      </trkpt>
      <trkpt lat="48.5553" lon="2.1698">
        <ele>75</ele>
        <time>2022-08-09T09:57:48.278Z</time>
      </trkpt>
      <trkpt lat="48.55538" lon="2.16985">
        <ele>75</ele>
        <time>2022-08-09T09:57:53.251Z</time>
      </trkpt>
      <trkpt lat="48.55544" lon="2.16989">
        <ele>74</ele>
        <time>2022-08-09T09:57:57.277Z</time>
      </trkpt>
      <trkpt lat="48.55552" lon="2.16994">
        <ele>74</ele>
        <time>2022-08-09T09:58:02.273Z</time>
      </trkpt>
      <trkpt lat="48.5556" lon="2.16999">
        <ele>74</ele>
        <time>2022-08-09T09:58:07.254Z</time>
      </trkpt>
      <trkpt lat="48.55567" lon="2.17004">
        <ele>74</ele>
        <time>2022-08-09T09:58:12.260Z</time>
      </trkpt>
      <trkpt lat="48.55574" lon="2.1701">
        <ele>75</ele>
        <time>2022-08-09T09:58:17.262Z</time>
      </trkpt>
      <trkpt lat="48.5558" lon="2.17015">
        <ele>73</ele>
        <time>2022-08-09T09:58:22.252Z</time>
      </trkpt>
      <trkpt lat="48.55586" lon="2.17019">
        <ele>73</ele>
        <time>2022-08-09T09:58:27.256Z</time>
      </trkpt>
      <trkpt lat="48.55594" lon="2.17024">
        <ele>73</ele>
        <time>2022-08-09T09:58:32.239Z</time>
      </trkpt>
      <trkpt lat="48.556" lon="2.17028">
        <ele>75</ele>
        <time>2022-08-09T09:58:36.242Z</time>
      </trkpt>
      <trkpt lat="48.55607" lon="2.17033">
        <ele>75</ele>
        <time>2022-08-09T09:58:41.236Z</time>
      </trkpt>
      <trkpt lat="48.55612" lon="2.17036">
        <ele>75</ele>
        <time>2022-08-09T09:58:45.251Z</time>
      </trkpt>
      <trkpt lat="48.55618" lon="2.17039">
        <ele>75</ele>
        <time>2022-08-09T09:58:49.250Z</time>
      </trkpt>
      <trkpt lat="48.55623" lon="2.17043">
        <ele>73</ele>
        <time>2022-08-09T09:58:53.266Z</time>
      </trkpt>
      <trkpt lat="48.5563" lon="2.17049">
        <ele>75</ele>
        <time>2022-08-09T09:58:58.235Z</time>
      </trkpt>
      <trkpt lat="48.55637" lon="2.17054">
        <ele>75</ele>
        <time>2022-08-09T09:59:03.262Z</time>
      </trkpt>
      <trkpt lat="48.55645" lon="2.1706">
        <ele>75</ele>
        <time>2022-08-09T09:59:08.242Z</time>
      </trkpt>
      <trkpt lat="48.55652" lon="2.17067">
        <ele>75</ele>
        <time>2022-08-09T09:59:13.235Z</time>
      </trkpt>
      <trkpt lat="48.55657" lon="2.17071">
        <ele>76</ele>
        <time>2022-08-09T09:59:17.252Z</time>
      </trkpt>
      <trkpt lat="48.55662" lon="2.17075">
        <ele>76</ele>
        <time>2022-08-09T09:59:21.262Z</time>
      </trkpt>
      <trkpt lat="48.55668" lon="2.1708">
        <ele>76</ele>
        <time>2022-08-09T09:59:26.274Z</time>
      </trkpt>
      <trkpt lat="48.55676" lon="2.17084">
        <ele>76</ele>
        <time>2022-08-09T09:59:31.246Z</time>
      </trkpt>
      <trkpt lat="48.55681" lon="2.17088">
        <ele>78</ele>
        <time>2022-08-09T09:59:35.275Z</time>
      </trkpt>
      <trkpt lat="48.55688" lon="2.17092">
        <ele>78</ele>
        <time>2022-08-09T09:59:40.273Z</time>
      </trkpt>
      <trkpt lat="48.55695" lon="2.17096">
        <ele>78</ele>
        <time>2022-08-09T09:59:45.239Z</time>
      </trkpt>
      <trkpt lat="48.55701" lon="2.17102">
        <ele>76</ele>
        <time>2022-08-09T09:59:50.256Z</time>
      </trkpt>
      <trkpt lat="48.55707" lon="2.1711">
        <ele>76</ele>
        <time>2022-08-09T09:59:55.254Z</time>
      </trkpt>
      <trkpt lat="48.55714" lon="2.17118">
        <ele>78</ele>
        <time>2022-08-09T10:00:00.263Z</time>
      </trkpt>
      <trkpt lat="48.55719" lon="2.17126">
        <ele>77</ele>
        <time>2022-08-09T10:00:05.229Z</time>
      </trkpt>
      <trkpt lat="48.55724" lon="2.17133">
        <ele>77</ele>
        <time>2022-08-09T10:00:09.241Z</time>
      </trkpt>
      <trkpt lat="48.55729" lon="2.17141">
        <ele>77</ele>
        <time>2022-08-09T10:00:13.254Z</time>
      </trkpt>
      <trkpt lat="48.55735" lon="2.17148">
        <ele>77</ele>
        <time>2022-08-09T10:00:18.236Z</time>
      </trkpt>
      <trkpt lat="48.55739" lon="2.17156">
        <ele>76</ele>
        <time>2022-08-09T10:00:22.257Z</time>
      </trkpt>
      <trkpt lat="48.55745" lon="2.17163">
        <ele>76</ele>
        <time>2022-08-09T10:00:27.249Z</time>
      </trkpt>
      <trkpt lat="48.55749" lon="2.17169">
        <ele>76</ele>
        <time>2022-08-09T10:00:31.261Z</time>
      </trkpt>
      <trkpt lat="48.55754" lon="2.17177">
        <ele>76</ele>
        <time>2022-08-09T10:00:36.250Z</time>
      </trkpt>
      <trkpt lat="48.55758" lon="2.17185">
        <ele>74</ele>
        <time>2022-08-09T10:00:41.254Z</time>
      </trkpt>
      <trkpt lat="48.55764" lon="2.17194">
        <ele>74</ele>
        <time>2022-08-09T10:00:46.255Z</time>
      </trkpt>
      <trkpt lat="48.55769" lon="2.17204">
        <ele>77</ele>
        <time>2022-08-09T10:00:51.253Z</time>
      </trkpt>
      <trkpt lat="48.55775" lon="2.17212">
        <ele>75</ele>
        <time>2022-08-09T10:00:56.239Z</time>
      </trkpt>
      <trkpt lat="48.55781" lon="2.17222">
        <ele>75</ele>
        <time>2022-08-09T10:01:01.243Z</time>
      </trkpt>
      <trkpt lat="48.55786" lon="2.17231">
        <ele>75</ele>
        <time>2022-08-09T10:01:06.242Z</time>
      </trkpt>
      <trkpt lat="48.55791" lon="2.17238">
        <ele>72</ele>
        <time>2022-08-09T10:01:10.264Z</time>
      </trkpt>
      <trkpt lat="48.55796" lon="2.17248">
        <ele>75</ele>
        <time>2022-08-09T10:01:15.253Z</time>
      </trkpt>
      <trkpt lat="48.558" lon="2.17255">
        <ele>75</ele>
        <time>2022-08-09T10:01:19.240Z</time>
      </trkpt>
      <trkpt lat="48.55804" lon="2.17262">
        <ele>75</ele>
        <time>2022-08-09T10:01:23.258Z</time>
      </trkpt>
      <trkpt lat="48.55809" lon="2.17269">
        <ele>74</ele>
        <time>2022-08-09T10:01:27.263Z</time>
      </trkpt>
      <trkpt lat="48.55814" lon="2.17278">
        <ele>74</ele>
        <time>2022-08-09T10:01:32.253Z</time>
      </trkpt>
      <trkpt lat="48.55819" lon="2.17287">
        <ele>75</ele>
        <time>2022-08-09T10:01:37.252Z</time>
      </trkpt>
      <trkpt lat="48.55825" lon="2.17297">
        <ele>74</ele>
        <time>2022-08-09T10:01:42.249Z</time>
      </trkpt>
      <trkpt lat="48.5583" lon="2.17307">
        <ele>74</ele>
        <time>2022-08-09T10:01:47.243Z</time>
      </trkpt>
      <trkpt lat="48.55834" lon="2.17315">
        <ele>74</ele>
        <time>2022-08-09T10:01:51.273Z</time>
      </trkpt>
      <trkpt lat="48.55839" lon="2.17323">
        <ele>72</ele>
        <time>2022-08-09T10:01:56.239Z</time>
      </trkpt>
      <trkpt lat="48.55843" lon="2.17333">
        <ele>72</ele>
        <time>2022-08-09T10:02:01.242Z</time>
      </trkpt>
      <trkpt lat="48.55848" lon="2.17341">
        <ele>73</ele>
        <time>2022-08-09T10:02:06.252Z</time>
      </trkpt>
      <trkpt lat="48.55852" lon="2.17349">
        <ele>72</ele>
        <time>2022-08-09T10:02:10.260Z</time>
      </trkpt>
      <trkpt lat="48.55856" lon="2.17359">
        <ele>72</ele>
        <time>2022-08-09T10:02:15.250Z</time>
      </trkpt>
      <trkpt lat="48.5586" lon="2.17365">
        <ele>72</ele>
        <time>2022-08-09T10:02:19.240Z</time>
      </trkpt>
      <trkpt lat="48.55864" lon="2.1737">
        <ele>72</ele>
        <time>2022-08-09T10:02:23.258Z</time>
      </trkpt>
      <trkpt lat="48.55868" lon="2.17379">
        <ele>71</ele>
        <time>2022-08-09T10:02:28.266Z</time>
      </trkpt>
      <trkpt lat="48.55873" lon="2.17387">
        <ele>71</ele>
        <time>2022-08-09T10:02:32.254Z</time>
      </trkpt>
      <trkpt lat="48.55878" lon="2.17396">
        <ele>72</ele>
        <time>2022-08-09T10:02:37.229Z</time>
      </trkpt>
      <trkpt lat="48.55883" lon="2.17405">
        <ele>70</ele>
        <time>2022-08-09T10:02:42.237Z</time>
      </trkpt>
      <trkpt lat="48.55887" lon="2.17412">
        <ele>70</ele>
        <time>2022-08-09T10:02:46.243Z</time>
      </trkpt>
      <trkpt lat="48.55894" lon="2.1742">
        <ele>70</ele>
        <time>2022-08-09T10:02:51.245Z</time>
      </trkpt>
      <trkpt lat="48.55899" lon="2.17426">
        <ele>70</ele>
        <time>2022-08-09T10:02:55.246Z</time>
      </trkpt>
      <trkpt lat="48.55905" lon="2.17433">
        <ele>71</ele>
        <time>2022-08-09T10:03:00.265Z</time>
      </trkpt>
      <trkpt lat="48.55912" lon="2.17438">
        <ele>71</ele>
        <time>2022-08-09T10:03:05.257Z</time>
      </trkpt>
      <trkpt lat="48.55917" lon="2.17442">
        <ele>71</ele>
        <time>2022-08-09T10:03:10.257Z</time>
      </trkpt>
      <trkpt lat="48.55922" lon="2.17446">
        <ele>71</ele>
        <time>2022-08-09T10:03:14.243Z</time>
      </trkpt>
      <trkpt lat="48.55929" lon="2.17453">
        <ele>71</ele>
        <time>2022-08-09T10:03:19.228Z</time>
      </trkpt>
      <trkpt lat="48.55935" lon="2.17457">
        <ele>73</ele>
        <time>2022-08-09T10:03:23.242Z</time>
      </trkpt>
      <trkpt lat="48.55941" lon="2.17462">
        <ele>71</ele>
        <time>2022-08-09T10:03:28.231Z</time>
      </trkpt>
      <trkpt lat="48.55947" lon="2.17465">
        <ele>71</ele>
        <time>2022-08-09T10:03:32.248Z</time>
      </trkpt>
      <trkpt lat="48.55953" lon="2.17469">
        <ele>71</ele>
        <time>2022-08-09T10:03:36.264Z</time>
      </trkpt>
      <trkpt lat="48.5596" lon="2.17473">
        <ele>72</ele>
        <time>2022-08-09T10:03:41.242Z</time>
      </trkpt>
      <trkpt lat="48.55966" lon="2.17479">
        <ele>72</ele>
        <time>2022-08-09T10:03:46.254Z</time>
      </trkpt>
      <trkpt lat="48.55972" lon="2.17486">
        <ele>69</ele>
        <time>2022-08-09T10:03:51.263Z</time>
      </trkpt>
      <trkpt lat="48.55978" lon="2.17492">
        <ele>69</ele>
        <time>2022-08-09T10:03:56.216Z</time>
      </trkpt>
      <trkpt lat="48.55982" lon="2.17499">
        <ele>69</ele>
        <time>2022-08-09T10:04:00.233Z</time>
      </trkpt>
      <trkpt lat="48.55988" lon="2.17505">
        <ele>71</ele>
        <time>2022-08-09T10:04:04.243Z</time>
      </trkpt>
      <trkpt lat="48.55994" lon="2.17511">
        <ele>71</ele>
        <time>2022-08-09T10:04:08.225Z</time>
      </trkpt>
      <trkpt lat="48.56001" lon="2.17517">
        <ele>69</ele>
        <time>2022-08-09T10:04:13.236Z</time>
      </trkpt>
      <trkpt lat="48.56006" lon="2.17524">
        <ele>69</ele>
        <time>2022-08-09T10:04:18.256Z</time>
      </trkpt>
      <trkpt lat="48.56013" lon="2.1753">
        <ele>69</ele>
        <time>2022-08-09T10:04:23.243Z</time>
      </trkpt>
      <trkpt lat="48.56019" lon="2.17537">
        <ele>70</ele>
        <time>2022-08-09T10:04:28.246Z</time>
      </trkpt>
      <trkpt lat="48.56025" lon="2.17542">
        <ele>70</ele>
        <time>2022-08-09T10:04:32.247Z</time>
      </trkpt>
      <trkpt lat="48.56031" lon="2.17547">
        <ele>67</ele>
        <time>2022-08-09T10:04:37.262Z</time>
      </trkpt>
      <trkpt lat="48.56038" lon="2.17552">
        <ele>67</ele>
        <time>2022-08-09T10:04:42.245Z</time>
      </trkpt>
      <trkpt lat="48.56044" lon="2.17556">
        <ele>69</ele>
        <time>2022-08-09T10:04:46.257Z</time>
      </trkpt>
      <trkpt lat="48.5605" lon="2.17561">
        <ele>69</ele>
        <time>2022-08-09T10:04:51.238Z</time>
      </trkpt>
      <trkpt lat="48.56056" lon="2.17566">
        <ele>69</ele>
        <time>2022-08-09T10:04:56.272Z</time>
      </trkpt>
      <trkpt lat="48.56063" lon="2.17571">
        <ele>67</ele>
        <time>2022-08-09T10:05:01.246Z</time>
      </trkpt>
      <trkpt lat="48.56069" lon="2.17575">
        <ele>67</ele>
        <time>2022-08-09T10:05:05.235Z</time>
      </trkpt>
      <trkpt lat="48.56075" lon="2.17581">
        <ele>69</ele>
        <time>2022-08-09T10:05:10.246Z</time>
      </trkpt>
      <trkpt lat="48.5608" lon="2.17587">
        <ele>69</ele>
        <time>2022-08-09T10:05:14.238Z</time>
      </trkpt>
      <trkpt lat="48.56084" lon="2.17591">
        <ele>69</ele>
        <time>2022-08-09T10:05:18.250Z</time>
      </trkpt>
      <trkpt lat="48.56091" lon="2.17595">
        <ele>69</ele>
        <time>2022-08-09T10:05:23.242Z</time>
      </trkpt>
      <trkpt lat="48.56095" lon="2.17598">
        <ele>67</ele>
        <time>2022-08-09T10:05:27.244Z</time>
      </trkpt>
      <trkpt lat="48.56102" lon="2.17602">
        <ele>67</ele>
        <time>2022-08-09T10:05:32.231Z</time>
      </trkpt>
      <trkpt lat="48.56107" lon="2.17606">
        <ele>67</ele>
        <time>2022-08-09T10:05:36.243Z</time>
      </trkpt>
      <trkpt lat="48.56111" lon="2.17611">
        <ele>67</ele>
        <time>2022-08-09T10:05:41.255Z</time>
      </trkpt>
      <trkpt lat="48.56116" lon="2.17618">
        <ele>67</ele>
        <time>2022-08-09T10:05:46.255Z</time>
      </trkpt>
      <trkpt lat="48.5612" lon="2.17628">
        <ele>65</ele>
        <time>2022-08-09T10:05:51.235Z</time>
      </trkpt>
      <trkpt lat="48.56123" lon="2.17637">
        <ele>65</ele>
        <time>2022-08-09T10:05:55.229Z</time>
      </trkpt>
      <trkpt lat="48.56127" lon="2.17647">
        <ele>67</ele>
        <time>2022-08-09T10:06:00.259Z</time>
      </trkpt>
      <trkpt lat="48.56131" lon="2.17656">
        <ele>65</ele>
        <time>2022-08-09T10:06:05.249Z</time>
      </trkpt>
      <trkpt lat="48.56132" lon="2.17671">
        <ele>65</ele>
        <time>2022-08-09T10:06:23.203Z</time>
      </trkpt>
      <trkpt lat="48.56128" lon="2.17678">
        <ele>65</ele>
        <time>2022-08-09T10:06:28.220Z</time>
      </trkpt>
      <trkpt lat="48.56127" lon="2.17688">
        <ele>63</ele>
        <time>2022-08-09T10:06:33.199Z</time>
      </trkpt>
      <trkpt lat="48.56124" lon="2.17692">
        <ele>62</ele>
        <time>2022-08-09T10:06:38.206Z</time>
      </trkpt>
      <trkpt lat="48.56121" lon="2.17692">
        <ele>62</ele>
        <time>2022-08-09T10:06:43.210Z</time>
      </trkpt>
      <trkpt lat="48.56137" lon="2.17687">
        <ele>63</ele>
        <time>2022-08-09T10:18:30.206Z</time>
      </trkpt>
      <trkpt lat="48.56137" lon="2.17683">
        <ele>63</ele>
        <time>2022-08-09T10:18:35.258Z</time>
      </trkpt>
      <trkpt lat="48.56139" lon="2.17686">
        <ele>63</ele>
        <time>2022-08-09T10:18:39.225Z</time>
      </trkpt>
      <trkpt lat="48.56143" lon="2.17685">
        <ele>63</ele>
        <time>2022-08-09T10:18:44.253Z</time>
      </trkpt>
      <trkpt lat="48.56148" lon="2.17691">
        <ele>63</ele>
        <time>2022-08-09T10:18:49.248Z</time>
      </trkpt>
      <trkpt lat="48.56154" lon="2.17692">
        <ele>62</ele>
        <time>2022-08-09T10:18:54.216Z</time>
      </trkpt>
      <trkpt lat="48.56158" lon="2.17696">
        <ele>62</ele>
        <time>2022-08-09T10:18:58.219Z</time>
      </trkpt>
      <trkpt lat="48.56162" lon="2.17699">
        <ele>62</ele>
        <time>2022-08-09T10:19:03.240Z</time>
      </trkpt>
      <trkpt lat="48.56165" lon="2.17703">
        <ele>62</ele>
        <time>2022-08-09T10:19:08.217Z</time>
      </trkpt>
      <trkpt lat="48.56161" lon="2.17715">
        <ele>60</ele>
        <time>2022-08-09T10:19:13.213Z</time>
      </trkpt>
      <trkpt lat="48.56158" lon="2.17724">
        <ele>60</ele>
        <time>2022-08-09T10:19:17.230Z</time>
      </trkpt>
      <trkpt lat="48.56154" lon="2.17733">
        <ele>60</ele>
        <time>2022-08-09T10:19:22.244Z</time>
      </trkpt>
      <trkpt lat="48.56151" lon="2.17741">
        <ele>59</ele>
        <time>2022-08-09T10:19:26.258Z</time>
      </trkpt>
      <trkpt lat="48.56147" lon="2.1775">
        <ele>59</ele>
        <time>2022-08-09T10:19:31.235Z</time>
      </trkpt>
      <trkpt lat="48.56145" lon="2.17756">
        <ele>59</ele>
        <time>2022-08-09T10:19:35.244Z</time>
      </trkpt>
      <trkpt lat="48.56141" lon="2.17764">
        <ele>57</ele>
        <time>2022-08-09T10:19:40.249Z</time>
      </trkpt>
      <trkpt lat="48.56137" lon="2.17773">
        <ele>57</ele>
        <time>2022-08-09T10:19:45.223Z</time>
      </trkpt>
      <trkpt lat="48.56133" lon="2.17779">
        <ele>57</ele>
        <time>2022-08-09T10:19:49.234Z</time>
      </trkpt>
      <trkpt lat="48.56128" lon="2.17786">
        <ele>57</ele>
        <time>2022-08-09T10:19:54.247Z</time>
      </trkpt>
      <trkpt lat="48.56123" lon="2.17794">
        <ele>57</ele>
        <time>2022-08-09T10:19:59.247Z</time>
      </trkpt>
      <trkpt lat="48.56118" lon="2.17802">
        <ele>57</ele>
        <time>2022-08-09T10:20:04.247Z</time>
      </trkpt>
      <trkpt lat="48.56115" lon="2.17811">
        <ele>57</ele>
        <time>2022-08-09T10:20:09.246Z</time>
      </trkpt>
      <trkpt lat="48.5611" lon="2.17821">
        <ele>57</ele>
        <time>2022-08-09T10:20:14.252Z</time>
      </trkpt>
      <trkpt lat="48.56106" lon="2.1783">
        <ele>57</ele>
        <time>2022-08-09T10:20:19.235Z</time>
      </trkpt>
      <trkpt lat="48.56103" lon="2.17838">
        <ele>57</ele>
        <time>2022-08-09T10:20:23.258Z</time>
      </trkpt>
      <trkpt lat="48.56099" lon="2.17849">
        <ele>57</ele>
        <time>2022-08-09T10:20:28.264Z</time>
      </trkpt>
      <trkpt lat="48.56095" lon="2.17858">
        <ele>57</ele>
        <time>2022-08-09T10:20:33.215Z</time>
      </trkpt>
      <trkpt lat="48.56094" lon="2.17866">
        <ele>57</ele>
        <time>2022-08-09T10:20:37.221Z</time>
      </trkpt>
      <trkpt lat="48.56093" lon="2.17874">
        <ele>57</ele>
        <time>2022-08-09T10:20:41.228Z</time>
      </trkpt>
      <trkpt lat="48.56088" lon="2.17882">
        <ele>57</ele>
        <time>2022-08-09T10:20:46.240Z</time>
      </trkpt>
      <trkpt lat="48.56083" lon="2.17889">
        <ele>57</ele>
        <time>2022-08-09T10:20:51.225Z</time>
      </trkpt>
      <trkpt lat="48.5608" lon="2.17897">
        <ele>57</ele>
        <time>2022-08-09T10:20:55.247Z</time>
      </trkpt>
      <trkpt lat="48.56077" lon="2.17907">
        <ele>57</ele>
        <time>2022-08-09T10:21:00.229Z</time>
      </trkpt>
      <trkpt lat="48.56074" lon="2.17914">
        <ele>57</ele>
        <time>2022-08-09T10:21:04.263Z</time>
      </trkpt>
      <trkpt lat="48.56071" lon="2.17922">
        <ele>57</ele>
        <time>2022-08-09T10:21:09.250Z</time>
      </trkpt>
      <trkpt lat="48.56068" lon="2.17927">
        <ele>57</ele>
        <time>2022-08-09T10:21:14.208Z</time>
      </trkpt>
      <trkpt lat="48.56065" lon="2.1793">
        <ele>57</ele>
        <time>2022-08-09T10:21:18.211Z</time>
      </trkpt>
      <trkpt lat="48.56065" lon="2.17939">
        <ele>58</ele>
        <time>2022-08-09T10:21:23.208Z</time>
      </trkpt>
      <trkpt lat="48.56061" lon="2.17947">
        <ele>58</ele>
        <time>2022-08-09T10:21:28.242Z</time>
      </trkpt>
      <trkpt lat="48.56059" lon="2.17952">
        <ele>58</ele>
        <time>2022-08-09T10:21:33.244Z</time>
      </trkpt>
      <trkpt lat="48.56056" lon="2.17962">
        <ele>58</ele>
        <time>2022-08-09T10:21:38.240Z</time>
      </trkpt>
      <trkpt lat="48.56055" lon="2.17972">
        <ele>58</ele>
        <time>2022-08-09T10:21:43.200Z</time>
      </trkpt>
      <trkpt lat="48.56052" lon="2.17975">
        <ele>58</ele>
        <time>2022-08-09T10:21:47.203Z</time>
      </trkpt>
      <trkpt lat="48.56048" lon="2.17985">
        <ele>58</ele>
        <time>2022-08-09T10:21:52.231Z</time>
      </trkpt>
      <trkpt lat="48.56046" lon="2.17992">
        <ele>58</ele>
        <time>2022-08-09T10:21:56.261Z</time>
      </trkpt>
      <trkpt lat="48.56043" lon="2.18002">
        <ele>58</ele>
        <time>2022-08-09T10:22:01.234Z</time>
      </trkpt>
      <trkpt lat="48.5604" lon="2.18009">
        <ele>61</ele>
        <time>2022-08-09T10:22:05.248Z</time>
      </trkpt>
      <trkpt lat="48.56035" lon="2.18016">
        <ele>62</ele>
        <time>2022-08-09T10:22:09.230Z</time>
      </trkpt>
      <trkpt lat="48.56036" lon="2.18019">
        <ele>62</ele>
        <time>2022-08-09T10:22:14.209Z</time>
      </trkpt>
      <trkpt lat="48.56032" lon="2.18022">
        <ele>62</ele>
        <time>2022-08-09T10:22:19.204Z</time>
      </trkpt>
      <trkpt lat="48.5603" lon="2.18029">
        <ele>62</ele>
        <time>2022-08-09T10:22:23.232Z</time>
      </trkpt>
      <trkpt lat="48.56027" lon="2.18035">
        <ele>62</ele>
        <time>2022-08-09T10:22:27.248Z</time>
      </trkpt>
      <trkpt lat="48.56024" lon="2.18044">
        <ele>64</ele>
        <time>2022-08-09T10:22:32.242Z</time>
      </trkpt>
      <trkpt lat="48.56021" lon="2.18054">
        <ele>64</ele>
        <time>2022-08-09T10:22:37.220Z</time>
      </trkpt>
      <trkpt lat="48.56018" lon="2.18064">
        <ele>64</ele>
        <time>2022-08-09T10:22:42.214Z</time>
      </trkpt>
      <trkpt lat="48.56015" lon="2.18072">
        <ele>67</ele>
        <time>2022-08-09T10:22:47.222Z</time>
      </trkpt>
      <trkpt lat="48.56013" lon="2.1808">
        <ele>69</ele>
        <time>2022-08-09T10:22:51.216Z</time>
      </trkpt>
      <trkpt lat="48.56009" lon="2.1809">
        <ele>69</ele>
        <time>2022-08-09T10:22:56.213Z</time>
      </trkpt>
      <trkpt lat="48.56005" lon="2.18101">
        <ele>71</ele>
        <time>2022-08-09T10:23:01.215Z</time>
      </trkpt>
      <trkpt lat="48.56001" lon="2.18111">
        <ele>71</ele>
        <time>2022-08-09T10:23:06.234Z</time>
      </trkpt>
      <trkpt lat="48.55998" lon="2.18121">
        <ele>71</ele>
        <time>2022-08-09T10:23:11.228Z</time>
      </trkpt>
      <trkpt lat="48.55995" lon="2.18129">
        <ele>73</ele>
        <time>2022-08-09T10:23:15.236Z</time>
      </trkpt>
      <trkpt lat="48.55991" lon="2.18138">
        <ele>73</ele>
        <time>2022-08-09T10:23:20.245Z</time>
      </trkpt>
      <trkpt lat="48.55989" lon="2.18144">
        <ele>73</ele>
        <time>2022-08-09T10:23:24.232Z</time>
      </trkpt>
      <trkpt lat="48.55985" lon="2.18154">
        <ele>77</ele>
        <time>2022-08-09T10:23:29.225Z</time>
      </trkpt>
      <trkpt lat="48.55981" lon="2.18163">
        <ele>77</ele>
        <time>2022-08-09T10:23:34.236Z</time>
      </trkpt>
      <trkpt lat="48.55979" lon="2.1817">
        <ele>77</ele>
        <time>2022-08-09T10:23:38.244Z</time>
      </trkpt>
      <trkpt lat="48.55975" lon="2.18178">
        <ele>77</ele>
        <time>2022-08-09T10:23:43.222Z</time>
      </trkpt>
      <trkpt lat="48.55971" lon="2.18186">
        <ele>79</ele>
        <time>2022-08-09T10:23:48.257Z</time>
      </trkpt>
      <trkpt lat="48.55968" lon="2.18193">
        <ele>79</ele>
        <time>2022-08-09T10:23:52.254Z</time>
      </trkpt>
      <trkpt lat="48.55965" lon="2.18203">
        <ele>79</ele>
        <time>2022-08-09T10:23:57.214Z</time>
      </trkpt>
      <trkpt lat="48.5596" lon="2.18211">
        <ele>81</ele>
        <time>2022-08-09T10:24:02.242Z</time>
      </trkpt>
      <trkpt lat="48.55955" lon="2.18218">
        <ele>82</ele>
        <time>2022-08-09T10:24:07.239Z</time>
      </trkpt>
      <trkpt lat="48.55951" lon="2.18226">
        <ele>82</ele>
        <time>2022-08-09T10:24:12.249Z</time>
      </trkpt>
      <trkpt lat="48.55948" lon="2.18232">
        <ele>82</ele>
        <time>2022-08-09T10:24:16.250Z</time>
      </trkpt>
      <trkpt lat="48.55942" lon="2.18238">
        <ele>84</ele>
        <time>2022-08-09T10:24:21.230Z</time>
      </trkpt>
      <trkpt lat="48.55937" lon="2.18244">
        <ele>84</ele>
        <time>2022-08-09T10:24:26.243Z</time>
      </trkpt>
      <trkpt lat="48.55934" lon="2.18248">
        <ele>84</ele>
        <time>2022-08-09T10:24:30.265Z</time>
      </trkpt>
      <trkpt lat="48.55929" lon="2.18253">
        <ele>86</ele>
        <time>2022-08-09T10:24:35.214Z</time>
      </trkpt>
      <trkpt lat="48.55925" lon="2.18258">
        <ele>86</ele>
        <time>2022-08-09T10:24:40.255Z</time>
      </trkpt>
      <trkpt lat="48.5592" lon="2.18264">
        <ele>88</ele>
        <time>2022-08-09T10:24:45.211Z</time>
      </trkpt>
      <trkpt lat="48.55915" lon="2.1827">
        <ele>88</ele>
        <time>2022-08-09T10:24:50.214Z</time>
      </trkpt>
      <trkpt lat="48.55911" lon="2.18272">
        <ele>88</ele>
        <time>2022-08-09T10:24:54.253Z</time>
      </trkpt>
      <trkpt lat="48.55905" lon="2.1827">
        <ele>88</ele>
        <time>2022-08-09T10:24:59.241Z</time>
      </trkpt>
      <trkpt lat="48.55899" lon="2.18268">
        <ele>92</ele>
        <time>2022-08-09T10:25:04.201Z</time>
      </trkpt>
      <trkpt lat="48.55894" lon="2.18265">
        <ele>92</ele>
        <time>2022-08-09T10:25:08.250Z</time>
      </trkpt>
      <trkpt lat="48.55889" lon="2.18263">
        <ele>89</ele>
        <time>2022-08-09T10:25:13.237Z</time>
      </trkpt>
      <trkpt lat="48.55885" lon="2.18267">
        <ele>92</ele>
        <time>2022-08-09T10:25:18.258Z</time>
      </trkpt>
      <trkpt lat="48.55883" lon="2.18271">
        <ele>92</ele>
        <time>2022-08-09T10:25:23.221Z</time>
      </trkpt>
      <trkpt lat="48.55887" lon="2.18271">
        <ele>92</ele>
        <time>2022-08-09T10:25:37.214Z</time>
      </trkpt>
      <trkpt lat="48.55889" lon="2.18278">
        <ele>92</ele>
        <time>2022-08-09T10:25:42.209Z</time>
      </trkpt>
      <trkpt lat="48.55892" lon="2.18287">
        <ele>92</ele>
        <time>2022-08-09T10:25:47.190Z</time>
      </trkpt>
      <trkpt lat="48.55895" lon="2.18296">
        <ele>96</ele>
        <time>2022-08-09T10:25:51.195Z</time>
      </trkpt>
      <trkpt lat="48.55895" lon="2.18302">
        <ele>96</ele>
        <time>2022-08-09T10:25:56.199Z</time>
      </trkpt>
      <trkpt lat="48.55899" lon="2.18302">
        <ele>96</ele>
        <time>2022-08-09T10:26:00.202Z</time>
      </trkpt>
      <trkpt lat="48.55896" lon="2.18305">
        <ele>96</ele>
        <time>2022-08-09T10:26:05.195Z</time>
      </trkpt>
      <trkpt lat="48.55891" lon="2.18307">
        <ele>96</ele>
        <time>2022-08-09T10:26:09.203Z</time>
      </trkpt>
      <trkpt lat="48.55888" lon="2.18314">
        <ele>96</ele>
        <time>2022-08-09T10:26:13.212Z</time>
      </trkpt>
      <trkpt lat="48.55884" lon="2.18322">
        <ele>100</ele>
        <time>2022-08-09T10:26:17.233Z</time>
      </trkpt>
      <trkpt lat="48.55881" lon="2.18331">
        <ele>100</ele>
        <time>2022-08-09T10:26:22.237Z</time>
      </trkpt>
      <trkpt lat="48.55878" lon="2.18338">
        <ele>100</ele>
        <time>2022-08-09T10:26:26.241Z</time>
      </trkpt>
      <trkpt lat="48.55875" lon="2.18345">
        <ele>100</ele>
        <time>2022-08-09T10:26:30.255Z</time>
      </trkpt>
      <trkpt lat="48.55872" lon="2.18354">
        <ele>108</ele>
        <time>2022-08-09T10:26:35.226Z</time>
      </trkpt>
      <trkpt lat="48.5587" lon="2.18359">
        <ele>108</ele>
        <time>2022-08-09T10:26:39.234Z</time>
      </trkpt>
      <trkpt lat="48.55867" lon="2.18367">
        <ele>108</ele>
        <time>2022-08-09T10:26:44.241Z</time>
      </trkpt>
      <trkpt lat="48.55866" lon="2.18372">
        <ele>108</ele>
        <time>2022-08-09T10:26:48.250Z</time>
      </trkpt>
      <trkpt lat="48.55864" lon="2.18383">
        <ele>111</ele>
        <time>2022-08-09T10:26:53.222Z</time>
      </trkpt>
      <trkpt lat="48.55862" lon="2.1839">
        <ele>111</ele>
        <time>2022-08-09T10:26:57.223Z</time>
      </trkpt>
      <trkpt lat="48.55862" lon="2.18397">
        <ele>111</ele>
        <time>2022-08-09T10:27:01.225Z</time>
      </trkpt>
      <trkpt lat="48.55861" lon="2.18405">
        <ele>114</ele>
        <time>2022-08-09T10:27:05.237Z</time>
      </trkpt>
      <trkpt lat="48.55859" lon="2.18413">
        <ele>114</ele>
        <time>2022-08-09T10:27:09.240Z</time>
      </trkpt>
      <trkpt lat="48.55856" lon="2.18421">
        <ele>114</ele>
        <time>2022-08-09T10:27:14.238Z</time>
      </trkpt>
      <trkpt lat="48.55852" lon="2.1843">
        <ele>114</ele>
        <time>2022-08-09T10:27:19.243Z</time>
      </trkpt>
      <trkpt lat="48.55849" lon="2.18438">
        <ele>115</ele>
        <time>2022-08-09T10:27:24.249Z</time>
      </trkpt>
      <trkpt lat="48.55846" lon="2.18447">
        <ele>112</ele>
        <time>2022-08-09T10:27:29.235Z</time>
      </trkpt>
      <trkpt lat="48.55843" lon="2.18456">
        <ele>112</ele>
        <time>2022-08-09T10:27:34.255Z</time>
      </trkpt>
      <trkpt lat="48.5584" lon="2.18465">
        <ele>114</ele>
        <time>2022-08-09T10:27:39.232Z</time>
      </trkpt>
      <trkpt lat="48.55836" lon="2.18476">
        <ele>114</ele>
        <time>2022-08-09T10:27:44.253Z</time>
      </trkpt>
      <trkpt lat="48.55833" lon="2.18484">
        <ele>114</ele>
        <time>2022-08-09T10:27:49.230Z</time>
      </trkpt>
      <trkpt lat="48.5583" lon="2.18494">
        <ele>116</ele>
        <time>2022-08-09T10:27:54.251Z</time>
      </trkpt>
      <trkpt lat="48.55827" lon="2.18501">
        <ele>116</ele>
        <time>2022-08-09T10:27:58.250Z</time>
      </trkpt>
      <trkpt lat="48.55824" lon="2.18511">
        <ele>116</ele>
        <time>2022-08-09T10:28:03.223Z</time>
      </trkpt>
      <trkpt lat="48.55821" lon="2.18519">
        <ele>120</ele>
        <time>2022-08-09T10:28:07.238Z</time>
      </trkpt>
      <trkpt lat="48.55818" lon="2.18526">
        <ele>115</ele>
        <time>2022-08-09T10:28:12.226Z</time>
      </trkpt>
      <trkpt lat="48.55817" lon="2.18534">
        <ele>115</ele>
        <time>2022-08-09T10:28:16.240Z</time>
      </trkpt>
      <trkpt lat="48.55816" lon="2.18545">
        <ele>118</ele>
        <time>2022-08-09T10:28:21.224Z</time>
      </trkpt>
      <trkpt lat="48.55814" lon="2.18555">
        <ele>118</ele>
        <time>2022-08-09T10:28:26.251Z</time>
      </trkpt>
      <trkpt lat="48.55812" lon="2.18563">
        <ele>118</ele>
        <time>2022-08-09T10:28:30.243Z</time>
      </trkpt>
      <trkpt lat="48.55811" lon="2.18572">
        <ele>122</ele>
        <time>2022-08-09T10:28:35.213Z</time>
      </trkpt>
      <trkpt lat="48.55811" lon="2.18579">
        <ele>122</ele>
        <time>2022-08-09T10:28:39.207Z</time>
      </trkpt>
      <trkpt lat="48.5581" lon="2.18589">
        <ele>122</ele>
        <time>2022-08-09T10:28:44.207Z</time>
      </trkpt>
      <trkpt lat="48.5581" lon="2.18597">
        <ele>122</ele>
        <time>2022-08-09T10:28:48.230Z</time>
      </trkpt>
      <trkpt lat="48.55811" lon="2.18606">
        <ele>126</ele>
        <time>2022-08-09T10:28:53.214Z</time>
      </trkpt>
      <trkpt lat="48.55811" lon="2.18612">
        <ele>126</ele>
        <time>2022-08-09T10:28:57.236Z</time>
      </trkpt>
      <trkpt lat="48.55811" lon="2.18621">
        <ele>126</ele>
        <time>2022-08-09T10:29:02.214Z</time>
      </trkpt>
      <trkpt lat="48.55813" lon="2.18627">
        <ele>130</ele>
        <time>2022-08-09T10:29:06.213Z</time>
      </trkpt>
      <trkpt lat="48.55813" lon="2.18633">
        <ele>130</ele>
        <time>2022-08-09T10:29:10.227Z</time>
      </trkpt>
      <trkpt lat="48.55814" lon="2.18642">
        <ele>130</ele>
        <time>2022-08-09T10:29:15.225Z</time>
      </trkpt>
      <trkpt lat="48.55814" lon="2.18648">
        <ele>130</ele>
        <time>2022-08-09T10:29:19.245Z</time>
      </trkpt>
      <trkpt lat="48.55811" lon="2.18654">
        <ele>133</ele>
        <time>2022-08-09T10:29:24.214Z</time>
      </trkpt>
      <trkpt lat="48.5581" lon="2.18654">
        <ele>133</ele>
        <time>2022-08-09T10:29:28.233Z</time>
      </trkpt>
      <trkpt lat="48.5581" lon="2.18659">
        <ele>133</ele>
        <time>2022-08-09T10:29:32.234Z</time>
      </trkpt>
      <trkpt lat="48.55807" lon="2.18667">
        <ele>133</ele>
        <time>2022-08-09T10:29:37.219Z</time>
      </trkpt>
      <trkpt lat="48.55807" lon="2.18675">
        <ele>133</ele>
        <time>2022-08-09T10:29:42.223Z</time>
      </trkpt>
      <trkpt lat="48.55804" lon="2.1868">
        <ele>133</ele>
        <time>2022-08-09T10:29:46.232Z</time>
      </trkpt>
      <trkpt lat="48.558" lon="2.18685">
        <ele>136</ele>
        <time>2022-08-09T10:29:51.210Z</time>
      </trkpt>
      <trkpt lat="48.558" lon="2.18692">
        <ele>136</ele>
        <time>2022-08-09T10:29:55.236Z</time>
      </trkpt>
      <trkpt lat="48.55797" lon="2.18698">
        <ele>136</ele>
        <time>2022-08-09T10:30:00.235Z</time>
      </trkpt>
      <trkpt lat="48.55796" lon="2.18707">
        <ele>136</ele>
        <time>2022-08-09T10:30:04.245Z</time>
      </trkpt>
      <trkpt lat="48.55795" lon="2.18715">
        <ele>139</ele>
        <time>2022-08-09T10:30:09.225Z</time>
      </trkpt>
      <trkpt lat="48.55792" lon="2.18724">
        <ele>139</ele>
        <time>2022-08-09T10:30:14.224Z</time>
      </trkpt>
      <trkpt lat="48.5579" lon="2.1873">
        <ele>139</ele>
        <time>2022-08-09T10:30:18.234Z</time>
      </trkpt>
      <trkpt lat="48.55789" lon="2.18737">
        <ele>141</ele>
        <time>2022-08-09T10:30:23.223Z</time>
      </trkpt>
      <trkpt lat="48.55788" lon="2.18742">
        <ele>141</ele>
        <time>2022-08-09T10:30:27.239Z</time>
      </trkpt>
      <trkpt lat="48.55787" lon="2.18746">
        <ele>141</ele>
        <time>2022-08-09T10:30:32.227Z</time>
      </trkpt>
      <trkpt lat="48.55789" lon="2.18749">
        <ele>141</ele>
        <time>2022-08-09T10:30:37.259Z</time>
      </trkpt>
      <trkpt lat="48.5579" lon="2.18758">
        <ele>141</ele>
        <time>2022-08-09T10:30:42.259Z</time>
      </trkpt>
      <trkpt lat="48.55791" lon="2.18763">
        <ele>141</ele>
        <time>2022-08-09T10:30:46.248Z</time>
      </trkpt>
      <trkpt lat="48.55793" lon="2.18771">
        <ele>142</ele>
        <time>2022-08-09T10:30:51.206Z</time>
      </trkpt>
      <trkpt lat="48.55799" lon="2.18787">
        <ele>142</ele>
        <time>2022-08-09T10:31:09.209Z</time>
      </trkpt>
      <trkpt lat="48.55802" lon="2.18793">
        <ele>143</ele>
        <time>2022-08-09T10:31:14.209Z</time>
      </trkpt>
      <trkpt lat="48.55809" lon="2.18792">
        <ele>143</ele>
        <time>2022-08-09T10:31:19.268Z</time>
      </trkpt>
      <trkpt lat="48.55817" lon="2.18796">
        <ele>143</ele>
        <time>2022-08-09T10:31:24.246Z</time>
      </trkpt>
      <trkpt lat="48.55823" lon="2.18801">
        <ele>143</ele>
        <time>2022-08-09T10:31:29.231Z</time>
      </trkpt>
      <trkpt lat="48.55824" lon="2.18808">
        <ele>143</ele>
        <time>2022-08-09T10:31:48.207Z</time>
      </trkpt>
      <trkpt lat="48.55823" lon="2.18813">
        <ele>143</ele>
        <time>2022-08-09T10:31:52.229Z</time>
      </trkpt>
      <trkpt lat="48.55823" lon="2.18822">
        <ele>143</ele>
        <time>2022-08-09T10:31:57.209Z</time>
      </trkpt>
      <trkpt lat="48.55822" lon="2.18828">
        <ele>143</ele>
        <time>2022-08-09T10:32:01.212Z</time>
      </trkpt>
      <trkpt lat="48.55826" lon="2.18835">
        <ele>143</ele>
        <time>2022-08-09T10:32:06.201Z</time>
      </trkpt>
      <trkpt lat="48.55832" lon="2.18836">
        <ele>143</ele>
        <time>2022-08-09T10:32:10.238Z</time>
      </trkpt>
      <trkpt lat="48.55836" lon="2.18834">
        <ele>143</ele>
        <time>2022-08-09T10:32:14.234Z</time>
      </trkpt>
      <trkpt lat="48.55841" lon="2.18826">
        <ele>143</ele>
        <time>2022-08-09T10:32:19.207Z</time>
      </trkpt>
      <trkpt lat="48.55846" lon="2.18826">
        <ele>143</ele>
        <time>2022-08-09T10:32:23.209Z</time>
      </trkpt>
      <trkpt lat="48.5585" lon="2.18832">
        <ele>143</ele>
        <time>2022-08-09T10:32:27.197Z</time>
      </trkpt>
      <trkpt lat="48.55853" lon="2.18831">
        <ele>143</ele>
        <time>2022-08-09T10:32:31.206Z</time>
      </trkpt>
      <trkpt lat="48.55856" lon="2.18829">
        <ele>143</ele>
        <time>2022-08-09T10:32:36.212Z</time>
      </trkpt>
      <trkpt lat="48.55858" lon="2.18827">
        <ele>143</ele>
        <time>2022-08-09T10:32:41.199Z</time>
      </trkpt>
      <trkpt lat="48.55859" lon="2.18826">
        <ele>143</ele>
        <time>2022-08-09T10:33:04.247Z</time>
      </trkpt>
      <trkpt lat="48.55858" lon="2.18825">
        <ele>143</ele>
        <time>2022-08-09T10:33:09.234Z</time>
      </trkpt>
      <trkpt lat="48.55854" lon="2.18827">
        <ele>143</ele>
        <time>2022-08-09T10:33:14.230Z</time>
      </trkpt>
      <trkpt lat="48.55849" lon="2.18825">
        <ele>143</ele>
        <time>2022-08-09T10:33:18.254Z</time>
      </trkpt>
      <trkpt lat="48.55844" lon="2.18824">
        <ele>143</ele>
        <time>2022-08-09T10:33:22.200Z</time>
      </trkpt>
      <trkpt lat="48.55837" lon="2.18811">
        <ele>143</ele>
        <time>2022-08-09T10:36:18.247Z</time>
      </trkpt>
      <trkpt lat="48.55836" lon="2.18811">
        <ele>143</ele>
        <time>2022-08-09T10:36:23.219Z</time>
      </trkpt>
      <trkpt lat="48.55836" lon="2.18811">
        <ele>143</ele>
        <time>2022-08-09T10:36:27.240Z</time>
      </trkpt>
      <trkpt lat="48.55836" lon="2.1881">
        <ele>143</ele>
        <time>2022-08-09T10:36:32.219Z</time>
      </trkpt>
      <trkpt lat="48.55836" lon="2.1881">
        <ele>143</ele>
        <time>2022-08-09T10:36:37.207Z</time>
      </trkpt>
      <trkpt lat="48.55836" lon="2.18811">
        <ele>143</ele>
        <time>2022-08-09T10:39:18.208Z</time>
      </trkpt>
      <trkpt lat="48.55836" lon="2.18811">
        <ele>143</ele>
        <time>2022-08-09T10:39:22.215Z</time>
      </trkpt>
      <trkpt lat="48.55837" lon="2.18812">
        <ele>143</ele>
        <time>2022-08-09T10:39:27.211Z</time>
      </trkpt>
      <trkpt lat="48.55837" lon="2.18818">
        <ele>143</ele>
        <time>2022-08-09T10:39:32.207Z</time>
      </trkpt>
      <trkpt lat="48.55836" lon="2.18824">
        <ele>143</ele>
        <time>2022-08-09T10:39:36.234Z</time>
      </trkpt>
      <trkpt lat="48.55834" lon="2.18831">
        <ele>143</ele>
        <time>2022-08-09T10:39:41.246Z</time>
      </trkpt>
      <trkpt lat="48.55828" lon="2.18832">
        <ele>143</ele>
        <time>2022-08-09T10:39:46.239Z</time>
      </trkpt>
      <trkpt lat="48.55823" lon="2.1883">
        <ele>143</ele>
        <time>2022-08-09T10:39:51.229Z</time>
      </trkpt>
      <trkpt lat="48.55821" lon="2.18827">
        <ele>143</ele>
        <time>2022-08-09T10:39:55.227Z</time>
      </trkpt>
      <trkpt lat="48.55821" lon="2.18816">
        <ele>143</ele>
        <time>2022-08-09T10:40:00.241Z</time>
      </trkpt>
      <trkpt lat="48.55822" lon="2.18807">
        <ele>143</ele>
        <time>2022-08-09T10:40:05.263Z</time>
      </trkpt>
      <trkpt lat="48.55823" lon="2.18802">
        <ele>143</ele>
        <time>2022-08-09T10:40:10.249Z</time>
      </trkpt>
      <trkpt lat="48.55819" lon="2.18798">
        <ele>143</ele>
        <time>2022-08-09T10:40:15.238Z</time>
      </trkpt>
      <trkpt lat="48.55815" lon="2.18796">
        <ele>143</ele>
        <time>2022-08-09T10:40:19.238Z</time>
      </trkpt>
      <trkpt lat="48.55812" lon="2.18794">
        <ele>143</ele>
        <time>2022-08-09T10:40:24.259Z</time>
      </trkpt>
      <trkpt lat="48.55808" lon="2.18791">
        <ele>142</ele>
        <time>2022-08-09T10:40:29.211Z</time>
      </trkpt>
      <trkpt lat="48.55805" lon="2.18788">
        <ele>142</ele>
        <time>2022-08-09T10:40:33.250Z</time>
      </trkpt>
      <trkpt lat="48.55803" lon="2.18786">
        <ele>142</ele>
        <time>2022-08-09T10:40:51.217Z</time>
      </trkpt>
      <trkpt lat="48.55801" lon="2.18781">
        <ele>142</ele>
        <time>2022-08-09T10:40:56.229Z</time>
      </trkpt>
      <trkpt lat="48.558" lon="2.18773">
        <ele>142</ele>
        <time>2022-08-09T10:41:01.217Z</time>
      </trkpt>
      <trkpt lat="48.55798" lon="2.18766">
        <ele>142</ele>
        <time>2022-08-09T10:41:05.241Z</time>
      </trkpt>
      <trkpt lat="48.55797" lon="2.18758">
        <ele>141</ele>
        <time>2022-08-09T10:41:10.233Z</time>
      </trkpt>
      <trkpt lat="48.55793" lon="2.18756">
        <ele>141</ele>
        <time>2022-08-09T10:41:15.220Z</time>
      </trkpt>
      <trkpt lat="48.5579" lon="2.18751">
        <ele>141</ele>
        <time>2022-08-09T10:41:20.207Z</time>
      </trkpt>
      <trkpt lat="48.55787" lon="2.18752">
        <ele>141</ele>
        <time>2022-08-09T10:41:24.221Z</time>
      </trkpt>
      <trkpt lat="48.55782" lon="2.18754">
        <ele>141</ele>
        <time>2022-08-09T10:41:29.210Z</time>
      </trkpt>
      <trkpt lat="48.55778" lon="2.18753">
        <ele>141</ele>
        <time>2022-08-09T10:41:33.209Z</time>
      </trkpt>
      <trkpt lat="48.55772" lon="2.18755">
        <ele>141</ele>
        <time>2022-08-09T10:41:38.213Z</time>
      </trkpt>
      <trkpt lat="48.55766" lon="2.1876">
        <ele>141</ele>
        <time>2022-08-09T10:41:42.231Z</time>
      </trkpt>
      <trkpt lat="48.55762" lon="2.18765">
        <ele>145</ele>
        <time>2022-08-09T10:41:46.234Z</time>
      </trkpt>
      <trkpt lat="48.55754" lon="2.18768">
        <ele>145</ele>
        <time>2022-08-09T10:41:51.207Z</time>
      </trkpt>
      <trkpt lat="48.55749" lon="2.1877">
        <ele>145</ele>
        <time>2022-08-09T10:41:55.247Z</time>
      </trkpt>
      <trkpt lat="48.55742" lon="2.18771">
        <ele>145</ele>
        <time>2022-08-09T10:42:00.214Z</time>
      </trkpt>
      <trkpt lat="48.55736" lon="2.18773">
        <ele>145</ele>
        <time>2022-08-09T10:42:04.245Z</time>
      </trkpt>
      <trkpt lat="48.55731" lon="2.18773">
        <ele>148</ele>
        <time>2022-08-09T10:42:09.238Z</time>
      </trkpt>
      <trkpt lat="48.55726" lon="2.18774">
        <ele>148</ele>
        <time>2022-08-09T10:42:13.226Z</time>
      </trkpt>
      <trkpt lat="48.5572" lon="2.18771">
        <ele>148</ele>
        <time>2022-08-09T10:42:18.235Z</time>
      </trkpt>
      <trkpt lat="48.55712" lon="2.18769">
        <ele>148</ele>
        <time>2022-08-09T10:42:23.271Z</time>
      </trkpt>
      <trkpt lat="48.55706" lon="2.18767">
        <ele>148</ele>
        <time>2022-08-09T10:42:28.256Z</time>
      </trkpt>
      <trkpt lat="48.557" lon="2.18765">
        <ele>148</ele>
        <time>2022-08-09T10:42:33.260Z</time>
      </trkpt>
      <trkpt lat="48.55693" lon="2.18764">
        <ele>148</ele>
        <time>2022-08-09T10:42:38.243Z</time>
      </trkpt>
      <trkpt lat="48.55689" lon="2.18762">
        <ele>148</ele>
        <time>2022-08-09T10:42:42.281Z</time>
      </trkpt>
      <trkpt lat="48.55684" lon="2.18758">
        <ele>148</ele>
        <time>2022-08-09T10:42:47.241Z</time>
      </trkpt>
      <trkpt lat="48.55678" lon="2.18758">
        <ele>144</ele>
        <time>2022-08-09T10:42:52.222Z</time>
      </trkpt>
      <trkpt lat="48.55676" lon="2.18758">
        <ele>144</ele>
        <time>2022-08-09T10:42:56.242Z</time>
      </trkpt>
      <trkpt lat="48.55671" lon="2.18755">
        <ele>144</ele>
        <time>2022-08-09T10:43:01.253Z</time>
      </trkpt>
      <trkpt lat="48.55665" lon="2.18756">
        <ele>144</ele>
        <time>2022-08-09T10:43:06.238Z</time>
      </trkpt>
      <trkpt lat="48.55662" lon="2.18758">
        <ele>144</ele>
        <time>2022-08-09T10:43:10.261Z</time>
      </trkpt>
      <trkpt lat="48.55656" lon="2.1876">
        <ele>144</ele>
        <time>2022-08-09T10:43:15.261Z</time>
      </trkpt>
      <trkpt lat="48.5565" lon="2.18757">
        <ele>141</ele>
        <time>2022-08-09T10:43:20.257Z</time>
      </trkpt>
      <trkpt lat="48.55646" lon="2.18759">
        <ele>141</ele>
        <time>2022-08-09T10:43:25.236Z</time>
      </trkpt>
      <trkpt lat="48.55641" lon="2.18759">
        <ele>141</ele>
        <time>2022-08-09T10:43:30.255Z</time>
      </trkpt>
      <trkpt lat="48.55635" lon="2.18756">
        <ele>141</ele>
        <time>2022-08-09T10:43:35.243Z</time>
      </trkpt>
      <trkpt lat="48.5563" lon="2.18753">
        <ele>141</ele>
        <time>2022-08-09T10:43:40.252Z</time>
      </trkpt>
      <trkpt lat="48.55627" lon="2.18747">
        <ele>141</ele>
        <time>2022-08-09T10:43:45.241Z</time>
      </trkpt>
      <trkpt lat="48.55624" lon="2.18743">
        <ele>141</ele>
        <time>2022-08-09T10:43:49.240Z</time>
      </trkpt>
      <trkpt lat="48.55619" lon="2.18739">
        <ele>141</ele>
        <time>2022-08-09T10:43:53.247Z</time>
      </trkpt>
      <trkpt lat="48.55616" lon="2.18735">
        <ele>137</ele>
        <time>2022-08-09T10:43:58.243Z</time>
      </trkpt>
      <trkpt lat="48.55612" lon="2.18732">
        <ele>137</ele>
        <time>2022-08-09T10:44:02.272Z</time>
      </trkpt>
      <trkpt lat="48.55608" lon="2.18727">
        <ele>137</ele>
        <time>2022-08-09T10:44:07.238Z</time>
      </trkpt>
      <trkpt lat="48.55604" lon="2.18722">
        <ele>137</ele>
        <time>2022-08-09T10:44:12.247Z</time>
      </trkpt>
      <trkpt lat="48.55598" lon="2.18721">
        <ele>137</ele>
        <time>2022-08-09T10:44:17.231Z</time>
      </trkpt>
      <trkpt lat="48.55589" lon="2.18714">
        <ele>137</ele>
        <time>2022-08-09T10:44:22.239Z</time>
      </trkpt>
      <trkpt lat="48.55581" lon="2.18706">
        <ele>133</ele>
        <time>2022-08-09T10:44:27.255Z</time>
      </trkpt>
      <trkpt lat="48.55576" lon="2.18696">
        <ele>133</ele>
        <time>2022-08-09T10:44:32.253Z</time>
      </trkpt>
      <trkpt lat="48.55573" lon="2.18689">
        <ele>133</ele>
        <time>2022-08-09T10:44:36.257Z</time>
      </trkpt>
      <trkpt lat="48.55569" lon="2.18679">
        <ele>129</ele>
        <time>2022-08-09T10:44:41.250Z</time>
      </trkpt>
      <trkpt lat="48.55565" lon="2.18668">
        <ele>129</ele>
        <time>2022-08-09T10:44:46.256Z</time>
      </trkpt>
      <trkpt lat="48.55563" lon="2.18661">
        <ele>129</ele>
        <time>2022-08-09T10:44:51.235Z</time>
      </trkpt>
      <trkpt lat="48.5556" lon="2.18653">
        <ele>129</ele>
        <time>2022-08-09T10:44:56.261Z</time>
      </trkpt>
      <trkpt lat="48.55558" lon="2.18643">
        <ele>126</ele>
        <time>2022-08-09T10:45:01.248Z</time>
      </trkpt>
      <trkpt lat="48.55555" lon="2.18633">
        <ele>126</ele>
        <time>2022-08-09T10:45:06.251Z</time>
      </trkpt>
      <trkpt lat="48.55549" lon="2.18622">
        <ele>123</ele>
        <time>2022-08-09T10:45:11.225Z</time>
      </trkpt>
      <trkpt lat="48.55546" lon="2.18612">
        <ele>123</ele>
        <time>2022-08-09T10:45:16.240Z</time>
      </trkpt>
      <trkpt lat="48.55543" lon="2.18604">
        <ele>123</ele>
        <time>2022-08-09T10:45:20.249Z</time>
      </trkpt>
      <trkpt lat="48.55538" lon="2.18596">
        <ele>118</ele>
        <time>2022-08-09T10:45:25.251Z</time>
      </trkpt>
      <trkpt lat="48.55534" lon="2.1859">
        <ele>118</ele>
        <time>2022-08-09T10:45:30.242Z</time>
      </trkpt>
      <trkpt lat="48.55527" lon="2.1859">
        <ele>118</ele>
        <time>2022-08-09T10:45:35.252Z</time>
      </trkpt>
      <trkpt lat="48.55523" lon="2.18592">
        <ele>118</ele>
        <time>2022-08-09T10:45:39.242Z</time>
      </trkpt>
      <trkpt lat="48.55521" lon="2.18591">
        <ele>118</ele>
        <time>2022-08-09T10:45:43.249Z</time>
      </trkpt>
      <trkpt lat="48.55519" lon="2.18591">
        <ele>118</ele>
        <time>2022-08-09T10:45:48.238Z</time>
      </trkpt>
      <trkpt lat="48.55515" lon="2.18592">
        <ele>118</ele>
        <time>2022-08-09T10:45:52.241Z</time>
      </trkpt>
      <trkpt lat="48.55513" lon="2.18594">
        <ele>117</ele>
        <time>2022-08-09T10:45:57.236Z</time>
      </trkpt>
      <trkpt lat="48.55512" lon="2.18593">
        <ele>117</ele>
        <time>2022-08-09T10:46:01.240Z</time>
      </trkpt>
      <trkpt lat="48.55511" lon="2.18592">
        <ele>117</ele>
        <time>2022-08-09T10:46:06.249Z</time>
      </trkpt>
      <trkpt lat="48.55509" lon="2.18594">
        <ele>117</ele>
        <time>2022-08-09T10:46:11.239Z</time>
      </trkpt>
      <trkpt lat="48.55503" lon="2.18595">
        <ele>117</ele>
        <time>2022-08-09T10:46:16.264Z</time>
      </trkpt>
      <trkpt lat="48.55499" lon="2.18596">
        <ele>117</ele>
        <time>2022-08-09T10:46:21.245Z</time>
      </trkpt>
      <trkpt lat="48.55498" lon="2.18596">
        <ele>117</ele>
        <time>2022-08-09T10:46:25.239Z</time>
      </trkpt>
      <trkpt lat="48.55498" lon="2.18598">
        <ele>119</ele>
        <time>2022-08-09T10:46:29.276Z</time>
      </trkpt>
      <trkpt lat="48.55495" lon="2.18601">
        <ele>119</ele>
        <time>2022-08-09T10:46:34.260Z</time>
      </trkpt>
      <trkpt lat="48.55489" lon="2.18604">
        <ele>119</ele>
        <time>2022-08-09T10:46:39.239Z</time>
      </trkpt>
      <trkpt lat="48.55485" lon="2.18606">
        <ele>118</ele>
        <time>2022-08-09T10:46:43.242Z</time>
      </trkpt>
      <trkpt lat="48.55478" lon="2.18609">
        <ele>118</ele>
        <time>2022-08-09T10:46:48.269Z</time>
      </trkpt>
      <trkpt lat="48.55473" lon="2.18613">
        <ele>118</ele>
        <time>2022-08-09T10:46:53.234Z</time>
      </trkpt>
      <trkpt lat="48.55469" lon="2.18617">
        <ele>118</ele>
        <time>2022-08-09T10:46:57.251Z</time>
      </trkpt>
      <trkpt lat="48.55462" lon="2.18619">
        <ele>118</ele>
        <time>2022-08-09T10:47:02.258Z</time>
      </trkpt>
      <trkpt lat="48.55457" lon="2.18623">
        <ele>116</ele>
        <time>2022-08-09T10:47:07.232Z</time>
      </trkpt>
      <trkpt lat="48.55453" lon="2.18624">
        <ele>116</ele>
        <time>2022-08-09T10:47:11.250Z</time>
      </trkpt>
      <trkpt lat="48.55445" lon="2.18629">
        <ele>119</ele>
        <time>2022-08-09T10:47:16.238Z</time>
      </trkpt>
      <trkpt lat="48.55439" lon="2.18632">
        <ele>119</ele>
        <time>2022-08-09T10:47:20.246Z</time>
      </trkpt>
      <trkpt lat="48.55432" lon="2.18634">
        <ele>119</ele>
        <time>2022-08-09T10:47:24.247Z</time>
      </trkpt>
      <trkpt lat="48.55424" lon="2.18638">
        <ele>117</ele>
        <time>2022-08-09T10:47:29.235Z</time>
      </trkpt>
      <trkpt lat="48.55419" lon="2.18643">
        <ele>117</ele>
        <time>2022-08-09T10:47:33.272Z</time>
      </trkpt>
      <trkpt lat="48.55413" lon="2.18648">
        <ele>117</ele>
        <time>2022-08-09T10:47:38.251Z</time>
      </trkpt>
      <trkpt lat="48.55408" lon="2.1865">
        <ele>117</ele>
        <time>2022-08-09T10:47:42.261Z</time>
      </trkpt>
      <trkpt lat="48.55402" lon="2.18653">
        <ele>119</ele>
        <time>2022-08-09T10:47:47.273Z</time>
      </trkpt>
      <trkpt lat="48.55396" lon="2.18658">
        <ele>119</ele>
        <time>2022-08-09T10:47:52.260Z</time>
      </trkpt>
      <trkpt lat="48.55394" lon="2.18661">
        <ele>119</ele>
        <time>2022-08-09T10:47:56.253Z</time>
      </trkpt>
      <trkpt lat="48.5539" lon="2.18666">
        <ele>119</ele>
        <time>2022-08-09T10:48:01.246Z</time>
      </trkpt>
      <trkpt lat="48.55385" lon="2.1867">
        <ele>119</ele>
        <time>2022-08-09T10:48:06.247Z</time>
      </trkpt>
      <trkpt lat="48.55378" lon="2.18677">
        <ele>119</ele>
        <time>2022-08-09T10:48:11.246Z</time>
      </trkpt>
      <trkpt lat="48.5537" lon="2.18681">
        <ele>122</ele>
        <time>2022-08-09T10:48:16.248Z</time>
      </trkpt>
      <trkpt lat="48.55363" lon="2.18686">
        <ele>122</ele>
        <time>2022-08-09T10:48:21.245Z</time>
      </trkpt>
      <trkpt lat="48.55357" lon="2.1869">
        <ele>122</ele>
        <time>2022-08-09T10:48:25.258Z</time>
      </trkpt>
      <trkpt lat="48.55353" lon="2.187">
        <ele>122</ele>
        <time>2022-08-09T10:48:30.244Z</time>
      </trkpt>
      <trkpt lat="48.55349" lon="2.18704">
        <ele>122</ele>
        <time>2022-08-09T10:48:34.258Z</time>
      </trkpt>
      <trkpt lat="48.55342" lon="2.18708">
        <ele>123</ele>
        <time>2022-08-09T10:48:39.242Z</time>
      </trkpt>
      <trkpt lat="48.55339" lon="2.18712">
        <ele>123</ele>
        <time>2022-08-09T10:48:43.257Z</time>
      </trkpt>
      <trkpt lat="48.55335" lon="2.18716">
        <ele>123</ele>
        <time>2022-08-09T10:48:47.235Z</time>
      </trkpt>
      <trkpt lat="48.5533" lon="2.18723">
        <ele>123</ele>
        <time>2022-08-09T10:48:52.231Z</time>
      </trkpt>
      <trkpt lat="48.55325" lon="2.1873">
        <ele>123</ele>
        <time>2022-08-09T10:48:56.248Z</time>
      </trkpt>
      <trkpt lat="48.55318" lon="2.1873">
        <ele>125</ele>
        <time>2022-08-09T10:49:01.234Z</time>
      </trkpt>
      <trkpt lat="48.55313" lon="2.1873">
        <ele>125</ele>
        <time>2022-08-09T10:49:05.263Z</time>
      </trkpt>
      <trkpt lat="48.55306" lon="2.18731">
        <ele>125</ele>
        <time>2022-08-09T10:49:10.244Z</time>
      </trkpt>
      <trkpt lat="48.55302" lon="2.18731">
        <ele>125</ele>
        <time>2022-08-09T10:49:14.249Z</time>
      </trkpt>
      <trkpt lat="48.55298" lon="2.1873">
        <ele>125</ele>
        <time>2022-08-09T10:49:18.261Z</time>
      </trkpt>
      <trkpt lat="48.55294" lon="2.18725">
        <ele>125</ele>
        <time>2022-08-09T10:49:23.242Z</time>
      </trkpt>
      <trkpt lat="48.5529" lon="2.1872">
        <ele>127</ele>
        <time>2022-08-09T10:49:27.255Z</time>
      </trkpt>
      <trkpt lat="48.55284" lon="2.18715">
        <ele>127</ele>
        <time>2022-08-09T10:49:32.246Z</time>
      </trkpt>
      <trkpt lat="48.5528" lon="2.18709">
        <ele>127</ele>
        <time>2022-08-09T10:49:37.237Z</time>
      </trkpt>
      <trkpt lat="48.55273" lon="2.18712">
        <ele>127</ele>
        <time>2022-08-09T10:49:42.245Z</time>
      </trkpt>
      <trkpt lat="48.55267" lon="2.18721">
        <ele>127</ele>
        <time>2022-08-09T10:49:47.258Z</time>
      </trkpt>
      <trkpt lat="48.55263" lon="2.18727">
        <ele>129</ele>
        <time>2022-08-09T10:49:52.224Z</time>
      </trkpt>
      <trkpt lat="48.5526" lon="2.18733">
        <ele>129</ele>
        <time>2022-08-09T10:49:56.237Z</time>
      </trkpt>
      <trkpt lat="48.55255" lon="2.18741">
        <ele>129</ele>
        <time>2022-08-09T10:50:00.244Z</time>
      </trkpt>
      <trkpt lat="48.55253" lon="2.18747">
        <ele>129</ele>
        <time>2022-08-09T10:50:04.249Z</time>
      </trkpt>
      <trkpt lat="48.5525" lon="2.18751">
        <ele>129</ele>
        <time>2022-08-09T10:50:09.255Z</time>
      </trkpt>
      <trkpt lat="48.55247" lon="2.18758">
        <ele>129</ele>
        <time>2022-08-09T10:50:14.239Z</time>
      </trkpt>
      <trkpt lat="48.55244" lon="2.18766">
        <ele>130</ele>
        <time>2022-08-09T10:50:19.268Z</time>
      </trkpt>
      <trkpt lat="48.55239" lon="2.18777">
        <ele>130</ele>
        <time>2022-08-09T10:50:24.215Z</time>
      </trkpt>
      <trkpt lat="48.55236" lon="2.18784">
        <ele>130</ele>
        <time>2022-08-09T10:50:28.273Z</time>
      </trkpt>
      <trkpt lat="48.55231" lon="2.18795">
        <ele>130</ele>
        <time>2022-08-09T10:50:33.266Z</time>
      </trkpt>
      <trkpt lat="48.55228" lon="2.18805">
        <ele>130</ele>
        <time>2022-08-09T10:50:38.208Z</time>
      </trkpt>
      <trkpt lat="48.55225" lon="2.18814">
        <ele>130</ele>
        <time>2022-08-09T10:50:42.258Z</time>
      </trkpt>
      <trkpt lat="48.55223" lon="2.18823">
        <ele>130</ele>
        <time>2022-08-09T10:50:47.239Z</time>
      </trkpt>
      <trkpt lat="48.55222" lon="2.1883">
        <ele>130</ele>
        <time>2022-08-09T10:50:51.247Z</time>
      </trkpt>
      <trkpt lat="48.55219" lon="2.18839">
        <ele>130</ele>
        <time>2022-08-09T10:50:56.267Z</time>
      </trkpt>
      <trkpt lat="48.55216" lon="2.1885">
        <ele>130</ele>
        <time>2022-08-09T10:51:01.235Z</time>
      </trkpt>
      <trkpt lat="48.55213" lon="2.1886">
        <ele>130</ele>
        <time>2022-08-09T10:51:06.240Z</time>
      </trkpt>
      <trkpt lat="48.5521" lon="2.18867">
        <ele>130</ele>
        <time>2022-08-09T10:51:10.257Z</time>
      </trkpt>
      <trkpt lat="48.55206" lon="2.18876">
        <ele>131</ele>
        <time>2022-08-09T10:51:15.230Z</time>
      </trkpt>
      <trkpt lat="48.55203" lon="2.18887">
        <ele>131</ele>
        <time>2022-08-09T10:51:20.235Z</time>
      </trkpt>
      <trkpt lat="48.55202" lon="2.18896">
        <ele>131</ele>
        <time>2022-08-09T10:51:24.242Z</time>
      </trkpt>
      <trkpt lat="48.55201" lon="2.18905">
        <ele>131</ele>
        <time>2022-08-09T10:51:28.250Z</time>
      </trkpt>
      <trkpt lat="48.552" lon="2.18919">
        <ele>131</ele>
        <time>2022-08-09T10:51:33.202Z</time>
      </trkpt>
      <trkpt lat="48.55198" lon="2.1893">
        <ele>131</ele>
        <time>2022-08-09T10:51:37.229Z</time>
      </trkpt>
      <trkpt lat="48.55197" lon="2.1894">
        <ele>131</ele>
        <time>2022-08-09T10:51:42.209Z</time>
      </trkpt>
      <trkpt lat="48.55194" lon="2.18948">
        <ele>131</ele>
        <time>2022-08-09T10:51:46.218Z</time>
      </trkpt>
      <trkpt lat="48.55193" lon="2.18956">
        <ele>131</ele>
        <time>2022-08-09T10:51:50.245Z</time>
      </trkpt>
      <trkpt lat="48.5519" lon="2.18965">
        <ele>131</ele>
        <time>2022-08-09T10:51:55.244Z</time>
      </trkpt>
      <trkpt lat="48.55188" lon="2.18973">
        <ele>131</ele>
        <time>2022-08-09T10:51:59.237Z</time>
      </trkpt>
      <trkpt lat="48.55186" lon="2.18984">
        <ele>131</ele>
        <time>2022-08-09T10:52:04.272Z</time>
      </trkpt>
      <trkpt lat="48.55184" lon="2.18992">
        <ele>131</ele>
        <time>2022-08-09T10:52:09.214Z</time>
      </trkpt>
      <trkpt lat="48.55183" lon="2.19">
        <ele>131</ele>
        <time>2022-08-09T10:52:14.212Z</time>
      </trkpt>
      <trkpt lat="48.5518" lon="2.19006">
        <ele>129</ele>
        <time>2022-08-09T10:52:18.231Z</time>
      </trkpt>
      <trkpt lat="48.55178" lon="2.19012">
        <ele>129</ele>
        <time>2022-08-09T10:52:22.257Z</time>
      </trkpt>
      <trkpt lat="48.55176" lon="2.19023">
        <ele>129</ele>
        <time>2022-08-09T10:52:27.262Z</time>
      </trkpt>
      <trkpt lat="48.55175" lon="2.19034">
        <ele>129</ele>
        <time>2022-08-09T10:52:32.211Z</time>
      </trkpt>
      <trkpt lat="48.55173" lon="2.19044">
        <ele>129</ele>
        <time>2022-08-09T10:52:36.279Z</time>
      </trkpt>
      <trkpt lat="48.5517" lon="2.19054">
        <ele>129</ele>
        <time>2022-08-09T10:52:41.275Z</time>
      </trkpt>
      <trkpt lat="48.55168" lon="2.19065">
        <ele>129</ele>
        <time>2022-08-09T10:52:46.275Z</time>
      </trkpt>
      <trkpt lat="48.55167" lon="2.19076">
        <ele>129</ele>
        <time>2022-08-09T10:52:51.243Z</time>
      </trkpt>
      <trkpt lat="48.55166" lon="2.19084">
        <ele>129</ele>
        <time>2022-08-09T10:52:56.255Z</time>
      </trkpt>
      <trkpt lat="48.55164" lon="2.19092">
        <ele>129</ele>
        <time>2022-08-09T10:53:01.236Z</time>
      </trkpt>
      <trkpt lat="48.55164" lon="2.191">
        <ele>130</ele>
        <time>2022-08-09T10:53:05.243Z</time>
      </trkpt>
      <trkpt lat="48.55164" lon="2.19103">
        <ele>130</ele>
        <time>2022-08-09T10:53:40.241Z</time>
      </trkpt>
      <trkpt lat="48.55162" lon="2.19104">
        <ele>130</ele>
        <time>2022-08-09T10:53:44.246Z</time>
      </trkpt>
      <trkpt lat="48.5516" lon="2.19102">
        <ele>130</ele>
        <time>2022-08-09T10:53:48.245Z</time>
      </trkpt>
      <trkpt lat="48.55157" lon="2.19102">
        <ele>130</ele>
        <time>2022-08-09T10:53:53.221Z</time>
      </trkpt>
      <trkpt lat="48.55154" lon="2.19102">
        <ele>130</ele>
        <time>2022-08-09T10:53:57.235Z</time>
      </trkpt>
      <trkpt lat="48.55145" lon="2.191">
        <ele>128</ele>
        <time>2022-08-09T10:54:33.242Z</time>
      </trkpt>
      <trkpt lat="48.55143" lon="2.191">
        <ele>128</ele>
        <time>2022-08-09T10:54:38.232Z</time>
      </trkpt>
      <trkpt lat="48.55139" lon="2.19099">
        <ele>128</ele>
        <time>2022-08-09T10:54:42.255Z</time>
      </trkpt>
      <trkpt lat="48.55135" lon="2.19099">
        <ele>128</ele>
        <time>2022-08-09T10:54:47.247Z</time>
      </trkpt>
      <trkpt lat="48.55129" lon="2.19096">
        <ele>128</ele>
        <time>2022-08-09T10:54:52.240Z</time>
      </trkpt>
      <trkpt lat="48.55124" lon="2.19092">
        <ele>125</ele>
        <time>2022-08-09T10:54:57.236Z</time>
      </trkpt>
      <trkpt lat="48.55116" lon="2.1909">
        <ele>125</ele>
        <time>2022-08-09T10:55:02.274Z</time>
      </trkpt>
      <trkpt lat="48.5511" lon="2.19088">
        <ele>125</ele>
        <time>2022-08-09T10:55:06.280Z</time>
      </trkpt>
      <trkpt lat="48.55104" lon="2.19084">
        <ele>125</ele>
        <time>2022-08-09T10:55:11.235Z</time>
      </trkpt>
      <trkpt lat="48.55101" lon="2.19081">
        <ele>125</ele>
        <time>2022-08-09T10:55:15.247Z</time>
      </trkpt>
      <trkpt lat="48.55096" lon="2.19078">
        <ele>125</ele>
        <time>2022-08-09T10:55:19.252Z</time>
      </trkpt>
      <trkpt lat="48.5509" lon="2.19075">
        <ele>125</ele>
        <time>2022-08-09T10:55:23.253Z</time>
      </trkpt>
      <trkpt lat="48.55084" lon="2.19073">
        <ele>125</ele>
        <time>2022-08-09T10:55:27.229Z</time>
      </trkpt>
      <trkpt lat="48.55078" lon="2.1907">
        <ele>125</ele>
        <time>2022-08-09T10:55:32.251Z</time>
      </trkpt>
      <trkpt lat="48.5507" lon="2.19066">
        <ele>124</ele>
        <time>2022-08-09T10:55:37.230Z</time>
      </trkpt>
      <trkpt lat="48.55064" lon="2.19064">
        <ele>126</ele>
        <time>2022-08-09T10:55:42.261Z</time>
      </trkpt>
      <trkpt lat="48.55059" lon="2.19063">
        <ele>126</ele>
        <time>2022-08-09T10:55:46.253Z</time>
      </trkpt>
      <trkpt lat="48.55054" lon="2.19062">
        <ele>126</ele>
        <time>2022-08-09T10:55:50.243Z</time>
      </trkpt>
      <trkpt lat="48.55048" lon="2.19061">
        <ele>126</ele>
        <time>2022-08-09T10:55:55.227Z</time>
      </trkpt>
      <trkpt lat="48.55041" lon="2.19057">
        <ele>129</ele>
        <time>2022-08-09T10:56:00.241Z</time>
      </trkpt>
      <trkpt lat="48.55035" lon="2.19052">
        <ele>129</ele>
        <time>2022-08-09T10:56:04.244Z</time>
      </trkpt>
      <trkpt lat="48.55029" lon="2.19045">
        <ele>129</ele>
        <time>2022-08-09T10:56:09.246Z</time>
      </trkpt>
      <trkpt lat="48.55025" lon="2.19042">
        <ele>129</ele>
        <time>2022-08-09T10:56:13.237Z</time>
      </trkpt>
      <trkpt lat="48.5502" lon="2.19037">
        <ele>130</ele>
        <time>2022-08-09T10:56:18.232Z</time>
      </trkpt>
      <trkpt lat="48.55015" lon="2.19036">
        <ele>130</ele>
        <time>2022-08-09T10:56:22.233Z</time>
      </trkpt>
      <trkpt lat="48.55011" lon="2.19034">
        <ele>133</ele>
        <time>2022-08-09T10:56:26.270Z</time>
      </trkpt>
      <trkpt lat="48.55002" lon="2.19037">
        <ele>133</ele>
        <time>2022-08-09T10:56:31.203Z</time>
      </trkpt>
      <trkpt lat="48.54996" lon="2.19038">
        <ele>133</ele>
        <time>2022-08-09T10:56:35.206Z</time>
      </trkpt>
      <trkpt lat="48.54992" lon="2.19038">
        <ele>133</ele>
        <time>2022-08-09T10:56:39.251Z</time>
      </trkpt>
      <trkpt lat="48.54988" lon="2.19037">
        <ele>133</ele>
        <time>2022-08-09T10:56:44.249Z</time>
      </trkpt>
      <trkpt lat="48.54984" lon="2.19034">
        <ele>134</ele>
        <time>2022-08-09T10:56:48.257Z</time>
      </trkpt>
      <trkpt lat="48.54977" lon="2.19032">
        <ele>134</ele>
        <time>2022-08-09T10:56:53.237Z</time>
      </trkpt>
      <trkpt lat="48.54967" lon="2.19032">
        <ele>134</ele>
        <time>2022-08-09T10:56:58.208Z</time>
      </trkpt>
      <trkpt lat="48.54964" lon="2.19029">
        <ele>134</ele>
        <time>2022-08-09T10:57:02.235Z</time>
      </trkpt>
      <trkpt lat="48.54961" lon="2.19022">
        <ele>134</ele>
        <time>2022-08-09T10:57:07.263Z</time>
      </trkpt>
      <trkpt lat="48.54957" lon="2.19016">
        <ele>136</ele>
        <time>2022-08-09T10:57:12.234Z</time>
      </trkpt>
      <trkpt lat="48.54955" lon="2.19012">
        <ele>139</ele>
        <time>2022-08-09T10:57:16.247Z</time>
      </trkpt>
      <trkpt lat="48.54951" lon="2.19004">
        <ele>139</ele>
        <time>2022-08-09T10:57:21.244Z</time>
      </trkpt>
      <trkpt lat="48.54948" lon="2.18996">
        <ele>139</ele>
        <time>2022-08-09T10:57:26.237Z</time>
      </trkpt>
      <trkpt lat="48.54941" lon="2.1899">
        <ele>139</ele>
        <time>2022-08-09T10:57:31.228Z</time>
      </trkpt>
      <trkpt lat="48.54936" lon="2.18987">
        <ele>139</ele>
        <time>2022-08-09T10:57:35.229Z</time>
      </trkpt>
      <trkpt lat="48.54929" lon="2.18983">
        <ele>143</ele>
        <time>2022-08-09T10:57:39.251Z</time>
      </trkpt>
      <trkpt lat="48.54925" lon="2.18981">
        <ele>143</ele>
        <time>2022-08-09T10:57:44.234Z</time>
      </trkpt>
      <trkpt lat="48.54918" lon="2.18976">
        <ele>143</ele>
        <time>2022-08-09T10:57:49.242Z</time>
      </trkpt>
      <trkpt lat="48.54913" lon="2.18972">
        <ele>143</ele>
        <time>2022-08-09T10:57:53.256Z</time>
      </trkpt>
      <trkpt lat="48.54909" lon="2.18967">
        <ele>143</ele>
        <time>2022-08-09T10:57:57.245Z</time>
      </trkpt>
      <trkpt lat="48.54906" lon="2.1896">
        <ele>143</ele>
        <time>2022-08-09T10:58:02.221Z</time>
      </trkpt>
      <trkpt lat="48.54905" lon="2.18958">
        <ele>147</ele>
        <time>2022-08-09T10:58:06.228Z</time>
      </trkpt>
      <trkpt lat="48.54901" lon="2.18954">
        <ele>147</ele>
        <time>2022-08-09T10:58:10.234Z</time>
      </trkpt>
      <trkpt lat="48.54898" lon="2.18952">
        <ele>147</ele>
        <time>2022-08-09T10:58:14.243Z</time>
      </trkpt>
      <trkpt lat="48.54893" lon="2.18949">
        <ele>147</ele>
        <time>2022-08-09T10:58:19.251Z</time>
      </trkpt>
      <trkpt lat="48.54891" lon="2.18946">
        <ele>147</ele>
        <time>2022-08-09T10:58:23.247Z</time>
      </trkpt>
      <trkpt lat="48.54886" lon="2.18944">
        <ele>147</ele>
        <time>2022-08-09T10:58:27.258Z</time>
      </trkpt>
      <trkpt lat="48.54883" lon="2.18941">
        <ele>147</ele>
        <time>2022-08-09T10:58:32.202Z</time>
      </trkpt>
      <trkpt lat="48.54882" lon="2.18941">
        <ele>147</ele>
        <time>2022-08-09T10:58:36.238Z</time>
      </trkpt>
      <trkpt lat="48.54882" lon="2.1894">
        <ele>147</ele>
        <time>2022-08-09T10:58:41.240Z</time>
      </trkpt>
      <trkpt lat="48.54879" lon="2.18939">
        <ele>147</ele>
        <time>2022-08-09T10:58:45.238Z</time>
      </trkpt>
      <trkpt lat="48.54875" lon="2.18935">
        <ele>146</ele>
        <time>2022-08-09T10:58:50.242Z</time>
      </trkpt>
      <trkpt lat="48.54874" lon="2.1893">
        <ele>149</ele>
        <time>2022-08-09T10:58:54.241Z</time>
      </trkpt>
      <trkpt lat="48.54871" lon="2.18926">
        <ele>149</ele>
        <time>2022-08-09T10:58:59.256Z</time>
      </trkpt>
      <trkpt lat="48.54869" lon="2.18922">
        <ele>149</ele>
        <time>2022-08-09T10:59:03.245Z</time>
      </trkpt>
      <trkpt lat="48.54866" lon="2.18915">
        <ele>149</ele>
        <time>2022-08-09T10:59:08.256Z</time>
      </trkpt>
      <trkpt lat="48.54863" lon="2.18908">
        <ele>149</ele>
        <time>2022-08-09T10:59:13.259Z</time>
      </trkpt>
      <trkpt lat="48.54859" lon="2.18902">
        <ele>152</ele>
        <time>2022-08-09T10:59:18.237Z</time>
      </trkpt>
      <trkpt lat="48.54857" lon="2.18897">
        <ele>152</ele>
        <time>2022-08-09T10:59:22.237Z</time>
      </trkpt>
      <trkpt lat="48.54854" lon="2.18891">
        <ele>152</ele>
        <time>2022-08-09T10:59:27.247Z</time>
      </trkpt>
      <trkpt lat="48.54852" lon="2.18887">
        <ele>152</ele>
        <time>2022-08-09T10:59:31.247Z</time>
      </trkpt>
      <trkpt lat="48.54847" lon="2.18882">
        <ele>152</ele>
        <time>2022-08-09T10:59:36.237Z</time>
      </trkpt>
      <trkpt lat="48.54843" lon="2.18876">
        <ele>152</ele>
        <time>2022-08-09T10:59:41.267Z</time>
      </trkpt>
      <trkpt lat="48.54838" lon="2.1887">
        <ele>155</ele>
        <time>2022-08-09T10:59:46.252Z</time>
      </trkpt>
      <trkpt lat="48.54833" lon="2.18867">
        <ele>155</ele>
        <time>2022-08-09T10:59:51.283Z</time>
      </trkpt>
      <trkpt lat="48.54829" lon="2.18865">
        <ele>155</ele>
        <time>2022-08-09T10:59:56.249Z</time>
      </trkpt>
      <trkpt lat="48.54825" lon="2.18861">
        <ele>155</ele>
        <time>2022-08-09T11:00:00.239Z</time>
      </trkpt>
      <trkpt lat="48.5482" lon="2.18859">
        <ele>155</ele>
        <time>2022-08-09T11:00:04.253Z</time>
      </trkpt>
      <trkpt lat="48.54814" lon="2.18854">
        <ele>155</ele>
        <time>2022-08-09T11:00:09.233Z</time>
      </trkpt>
      <trkpt lat="48.54809" lon="2.18851">
        <ele>155</ele>
        <time>2022-08-09T11:00:13.258Z</time>
      </trkpt>
      <trkpt lat="48.54803" lon="2.1885">
        <ele>155</ele>
        <time>2022-08-09T11:00:18.243Z</time>
      </trkpt>
      <trkpt lat="48.54797" lon="2.18847">
        <ele>157</ele>
        <time>2022-08-09T11:00:22.254Z</time>
      </trkpt>
      <trkpt lat="48.54792" lon="2.18845">
        <ele>157</ele>
        <time>2022-08-09T11:00:26.235Z</time>
      </trkpt>
      <trkpt lat="48.54787" lon="2.18842">
        <ele>156</ele>
        <time>2022-08-09T11:00:30.240Z</time>
      </trkpt>
      <trkpt lat="48.5478" lon="2.18838">
        <ele>156</ele>
        <time>2022-08-09T11:00:35.252Z</time>
      </trkpt>
      <trkpt lat="48.54773" lon="2.18836">
        <ele>156</ele>
        <time>2022-08-09T11:00:40.256Z</time>
      </trkpt>
      <trkpt lat="48.54768" lon="2.18833">
        <ele>156</ele>
        <time>2022-08-09T11:00:44.268Z</time>
      </trkpt>
      <trkpt lat="48.54763" lon="2.1883">
        <ele>154</ele>
        <time>2022-08-09T11:00:49.209Z</time>
      </trkpt>
      <trkpt lat="48.54758" lon="2.18827">
        <ele>154</ele>
        <time>2022-08-09T11:00:53.212Z</time>
      </trkpt>
      <trkpt lat="48.54754" lon="2.18823">
        <ele>154</ele>
        <time>2022-08-09T11:00:57.231Z</time>
      </trkpt>
      <trkpt lat="48.5475" lon="2.18818">
        <ele>156</ele>
        <time>2022-08-09T11:01:02.249Z</time>
      </trkpt>
      <trkpt lat="48.54744" lon="2.18816">
        <ele>156</ele>
        <time>2022-08-09T11:01:07.239Z</time>
      </trkpt>
      <trkpt lat="48.54744" lon="2.18817">
        <ele>156</ele>
        <time>2022-08-09T11:01:11.245Z</time>
      </trkpt>
      <trkpt lat="48.54742" lon="2.18815">
        <ele>156</ele>
        <time>2022-08-09T11:01:16.252Z</time>
      </trkpt>
      <trkpt lat="48.54734" lon="2.1881">
        <ele>155</ele>
        <time>2022-08-09T11:01:21.247Z</time>
      </trkpt>
      <trkpt lat="48.54727" lon="2.18807">
        <ele>155</ele>
        <time>2022-08-09T11:01:25.247Z</time>
      </trkpt>
      <trkpt lat="48.5472" lon="2.18807">
        <ele>155</ele>
        <time>2022-08-09T11:01:30.243Z</time>
      </trkpt>
      <trkpt lat="48.54715" lon="2.1881">
        <ele>155</ele>
        <time>2022-08-09T11:01:34.252Z</time>
      </trkpt>
      <trkpt lat="48.54707" lon="2.18813">
        <ele>155</ele>
        <time>2022-08-09T11:01:39.228Z</time>
      </trkpt>
      <trkpt lat="48.54701" lon="2.18808">
        <ele>155</ele>
        <time>2022-08-09T11:01:44.256Z</time>
      </trkpt>
      <trkpt lat="48.54697" lon="2.18802">
        <ele>155</ele>
        <time>2022-08-09T11:01:48.253Z</time>
      </trkpt>
      <trkpt lat="48.54694" lon="2.18796">
        <ele>155</ele>
        <time>2022-08-09T11:01:53.241Z</time>
      </trkpt>
      <trkpt lat="48.5469" lon="2.18792">
        <ele>156</ele>
        <time>2022-08-09T11:01:58.275Z</time>
      </trkpt>
      <trkpt lat="48.54685" lon="2.18783">
        <ele>156</ele>
        <time>2022-08-09T11:02:03.257Z</time>
      </trkpt>
      <trkpt lat="48.54681" lon="2.18774">
        <ele>156</ele>
        <time>2022-08-09T11:02:08.250Z</time>
      </trkpt>
      <trkpt lat="48.54678" lon="2.18765">
        <ele>155</ele>
        <time>2022-08-09T11:02:12.250Z</time>
      </trkpt>
      <trkpt lat="48.54674" lon="2.18757">
        <ele>155</ele>
        <time>2022-08-09T11:02:17.253Z</time>
      </trkpt>
      <trkpt lat="48.5467" lon="2.1875">
        <ele>155</ele>
        <time>2022-08-09T11:02:21.261Z</time>
      </trkpt>
      <trkpt lat="48.54668" lon="2.18742">
        <ele>155</ele>
        <time>2022-08-09T11:02:26.260Z</time>
      </trkpt>
      <trkpt lat="48.54663" lon="2.18734">
        <ele>154</ele>
        <time>2022-08-09T11:02:31.246Z</time>
      </trkpt>
      <trkpt lat="48.5466" lon="2.18727">
        <ele>154</ele>
        <time>2022-08-09T11:02:35.246Z</time>
      </trkpt>
      <trkpt lat="48.54657" lon="2.1872">
        <ele>154</ele>
        <time>2022-08-09T11:02:40.233Z</time>
      </trkpt>
      <trkpt lat="48.54652" lon="2.18713">
        <ele>151</ele>
        <time>2022-08-09T11:02:45.204Z</time>
      </trkpt>
      <trkpt lat="48.54651" lon="2.18709">
        <ele>151</ele>
        <time>2022-08-09T11:02:50.198Z</time>
      </trkpt>
      <trkpt lat="48.54648" lon="2.18699">
        <ele>149</ele>
        <time>2022-08-09T11:02:54.216Z</time>
      </trkpt>
      <trkpt lat="48.54643" lon="2.18692">
        <ele>149</ele>
        <time>2022-08-09T11:02:58.246Z</time>
      </trkpt>
      <trkpt lat="48.54643" lon="2.18686">
        <ele>149</ele>
        <time>2022-08-09T11:03:03.226Z</time>
      </trkpt>
      <trkpt lat="48.54644" lon="2.18681">
        <ele>149</ele>
        <time>2022-08-09T11:03:07.251Z</time>
      </trkpt>
      <trkpt lat="48.54643" lon="2.18675">
        <ele>148</ele>
        <time>2022-08-09T11:03:11.250Z</time>
      </trkpt>
      <trkpt lat="48.54644" lon="2.18667">
        <ele>148</ele>
        <time>2022-08-09T11:03:16.232Z</time>
      </trkpt>
      <trkpt lat="48.54644" lon="2.18661">
        <ele>148</ele>
        <time>2022-08-09T11:03:21.257Z</time>
      </trkpt>
      <trkpt lat="48.54644" lon="2.18652">
        <ele>146</ele>
        <time>2022-08-09T11:03:26.210Z</time>
      </trkpt>
      <trkpt lat="48.54644" lon="2.18647">
        <ele>146</ele>
        <time>2022-08-09T11:03:30.249Z</time>
      </trkpt>
      <trkpt lat="48.54644" lon="2.1864">
        <ele>146</ele>
        <time>2022-08-09T11:03:34.230Z</time>
      </trkpt>
      <trkpt lat="48.54644" lon="2.18634">
        <ele>146</ele>
        <time>2022-08-09T11:03:39.220Z</time>
      </trkpt>
      <trkpt lat="48.54642" lon="2.18629">
        <ele>146</ele>
        <time>2022-08-09T11:03:43.225Z</time>
      </trkpt>
      <trkpt lat="48.54641" lon="2.18618">
        <ele>143</ele>
        <time>2022-08-09T11:03:48.234Z</time>
      </trkpt>
      <trkpt lat="48.54642" lon="2.18614">
        <ele>143</ele>
        <time>2022-08-09T11:03:52.237Z</time>
      </trkpt>
      <trkpt lat="48.54645" lon="2.18605">
        <ele>143</ele>
        <time>2022-08-09T11:03:57.232Z</time>
      </trkpt>
      <trkpt lat="48.54645" lon="2.18595">
        <ele>138</ele>
        <time>2022-08-09T11:04:02.242Z</time>
      </trkpt>
      <trkpt lat="48.54641" lon="2.18589">
        <ele>138</ele>
        <time>2022-08-09T11:04:06.230Z</time>
      </trkpt>
      <trkpt lat="48.54639" lon="2.1858">
        <ele>138</ele>
        <time>2022-08-09T11:04:11.235Z</time>
      </trkpt>
      <trkpt lat="48.54635" lon="2.18572">
        <ele>138</ele>
        <time>2022-08-09T11:04:16.246Z</time>
      </trkpt>
      <trkpt lat="48.54635" lon="2.18566">
        <ele>134</ele>
        <time>2022-08-09T11:04:20.255Z</time>
      </trkpt>
      <trkpt lat="48.54632" lon="2.18557">
        <ele>134</ele>
        <time>2022-08-09T11:04:25.243Z</time>
      </trkpt>
      <trkpt lat="48.54631" lon="2.18551">
        <ele>134</ele>
        <time>2022-08-09T11:04:29.239Z</time>
      </trkpt>
      <trkpt lat="48.5463" lon="2.18543">
        <ele>134</ele>
        <time>2022-08-09T11:04:34.232Z</time>
      </trkpt>
      <trkpt lat="48.54629" lon="2.18535">
        <ele>131</ele>
        <time>2022-08-09T11:04:38.259Z</time>
      </trkpt>
      <trkpt lat="48.54628" lon="2.18524">
        <ele>131</ele>
        <time>2022-08-09T11:04:43.247Z</time>
      </trkpt>
      <trkpt lat="48.54627" lon="2.18517">
        <ele>131</ele>
        <time>2022-08-09T11:04:47.239Z</time>
      </trkpt>
      <trkpt lat="48.54624" lon="2.18507">
        <ele>123</ele>
        <time>2022-08-09T11:04:52.238Z</time>
      </trkpt>
      <trkpt lat="48.54622" lon="2.18498">
        <ele>123</ele>
        <time>2022-08-09T11:04:56.237Z</time>
      </trkpt>
      <trkpt lat="48.5462" lon="2.18488">
        <ele>123</ele>
        <time>2022-08-09T11:05:01.244Z</time>
      </trkpt>
      <trkpt lat="48.54619" lon="2.1848">
        <ele>120</ele>
        <time>2022-08-09T11:05:05.243Z</time>
      </trkpt>
      <trkpt lat="48.54617" lon="2.18473">
        <ele>120</ele>
        <time>2022-08-09T11:05:09.265Z</time>
      </trkpt>
      <trkpt lat="48.54616" lon="2.18465">
        <ele>120</ele>
        <time>2022-08-09T11:05:14.233Z</time>
      </trkpt>
      <trkpt lat="48.54614" lon="2.18457">
        <ele>120</ele>
        <time>2022-08-09T11:05:18.233Z</time>
      </trkpt>
      <trkpt lat="48.54612" lon="2.1845">
        <ele>120</ele>
        <time>2022-08-09T11:05:22.246Z</time>
      </trkpt>
      <trkpt lat="48.5461" lon="2.18442">
        <ele>120</ele>
        <time>2022-08-09T11:05:27.243Z</time>
      </trkpt>
      <trkpt lat="48.54608" lon="2.18435">
        <ele>120</ele>
        <time>2022-08-09T11:05:31.258Z</time>
      </trkpt>
      <trkpt lat="48.54607" lon="2.18427">
        <ele>119</ele>
        <time>2022-08-09T11:05:36.221Z</time>
      </trkpt>
      <trkpt lat="48.54604" lon="2.18421">
        <ele>119</ele>
        <time>2022-08-09T11:05:40.240Z</time>
      </trkpt>
      <trkpt lat="48.54602" lon="2.18414">
        <ele>119</ele>
        <time>2022-08-09T11:05:44.254Z</time>
      </trkpt>
      <trkpt lat="48.546" lon="2.18404">
        <ele>119</ele>
        <time>2022-08-09T11:05:49.233Z</time>
      </trkpt>
      <trkpt lat="48.54597" lon="2.18399">
        <ele>116</ele>
        <time>2022-08-09T11:05:53.228Z</time>
      </trkpt>
      <trkpt lat="48.54595" lon="2.18392">
        <ele>116</ele>
        <time>2022-08-09T11:05:58.216Z</time>
      </trkpt>
      <trkpt lat="48.54592" lon="2.18385">
        <ele>116</ele>
        <time>2022-08-09T11:06:02.236Z</time>
      </trkpt>
      <trkpt lat="48.54587" lon="2.18377">
        <ele>116</ele>
        <time>2022-08-09T11:06:07.231Z</time>
      </trkpt>
      <trkpt lat="48.54581" lon="2.18368">
        <ele>115</ele>
        <time>2022-08-09T11:06:12.220Z</time>
      </trkpt>
      <trkpt lat="48.54578" lon="2.18363">
        <ele>115</ele>
        <time>2022-08-09T11:06:16.225Z</time>
      </trkpt>
      <trkpt lat="48.54574" lon="2.18357">
        <ele>115</ele>
        <time>2022-08-09T11:06:20.224Z</time>
      </trkpt>
      <trkpt lat="48.5457" lon="2.18353">
        <ele>115</ele>
        <time>2022-08-09T11:06:24.240Z</time>
      </trkpt>
      <trkpt lat="48.54567" lon="2.18346">
        <ele>113</ele>
        <time>2022-08-09T11:06:28.229Z</time>
      </trkpt>
      <trkpt lat="48.54562" lon="2.18337">
        <ele>113</ele>
        <time>2022-08-09T11:06:33.222Z</time>
      </trkpt>
      <trkpt lat="48.54555" lon="2.18327">
        <ele>113</ele>
        <time>2022-08-09T11:06:38.226Z</time>
      </trkpt>
      <trkpt lat="48.54551" lon="2.18318">
        <ele>110</ele>
        <time>2022-08-09T11:06:43.256Z</time>
      </trkpt>
      <trkpt lat="48.5455" lon="2.18313">
        <ele>110</ele>
        <time>2022-08-09T11:06:48.231Z</time>
      </trkpt>
      <trkpt lat="48.54547" lon="2.18309">
        <ele>110</ele>
        <time>2022-08-09T11:06:53.223Z</time>
      </trkpt>
      <trkpt lat="48.54543" lon="2.18305">
        <ele>110</ele>
        <time>2022-08-09T11:06:57.240Z</time>
      </trkpt>
      <trkpt lat="48.54538" lon="2.18301">
        <ele>109</ele>
        <time>2022-08-09T11:07:02.224Z</time>
      </trkpt>
      <trkpt lat="48.54531" lon="2.18293">
        <ele>109</ele>
        <time>2022-08-09T11:07:07.198Z</time>
      </trkpt>
      <trkpt lat="48.54514" lon="2.18291">
        <ele>107</ele>
        <time>2022-08-09T11:07:25.246Z</time>
      </trkpt>
      <trkpt lat="48.54511" lon="2.18286">
        <ele>104</ele>
        <time>2022-08-09T11:07:30.205Z</time>
      </trkpt>
      <trkpt lat="48.54509" lon="2.18281">
        <ele>104</ele>
        <time>2022-08-09T11:07:34.229Z</time>
      </trkpt>
      <trkpt lat="48.54505" lon="2.18277">
        <ele>104</ele>
        <time>2022-08-09T11:07:39.214Z</time>
      </trkpt>
      <trkpt lat="48.54502" lon="2.18273">
        <ele>104</ele>
        <time>2022-08-09T11:07:44.198Z</time>
      </trkpt>
      <trkpt lat="48.54499" lon="2.1827">
        <ele>104</ele>
        <time>2022-08-09T11:07:48.251Z</time>
      </trkpt>
      <trkpt lat="48.54497" lon="2.18265">
        <ele>104</ele>
        <time>2022-08-09T11:07:52.244Z</time>
      </trkpt>
      <trkpt lat="48.54494" lon="2.18258">
        <ele>103</ele>
        <time>2022-08-09T11:07:57.231Z</time>
      </trkpt>
      <trkpt lat="48.54492" lon="2.18251">
        <ele>103</ele>
        <time>2022-08-09T11:08:01.254Z</time>
      </trkpt>
      <trkpt lat="48.5449" lon="2.18246">
        <ele>103</ele>
        <time>2022-08-09T11:08:06.229Z</time>
      </trkpt>
      <trkpt lat="48.54487" lon="2.18243">
        <ele>103</ele>
        <time>2022-08-09T11:08:11.230Z</time>
      </trkpt>
      <trkpt lat="48.54483" lon="2.18237">
        <ele>101</ele>
        <time>2022-08-09T11:08:16.231Z</time>
      </trkpt>
      <trkpt lat="48.54483" lon="2.18229">
        <ele>100</ele>
        <time>2022-08-09T11:08:21.234Z</time>
      </trkpt>
      <trkpt lat="48.54483" lon="2.18221">
        <ele>100</ele>
        <time>2022-08-09T11:08:26.225Z</time>
      </trkpt>
      <trkpt lat="48.54483" lon="2.18213">
        <ele>100</ele>
        <time>2022-08-09T11:08:30.235Z</time>
      </trkpt>
      <trkpt lat="48.5448" lon="2.18208">
        <ele>99</ele>
        <time>2022-08-09T11:08:35.193Z</time>
      </trkpt>
      <trkpt lat="48.54484" lon="2.18199">
        <ele>99</ele>
        <time>2022-08-09T11:08:40.209Z</time>
      </trkpt>
      <trkpt lat="48.5448" lon="2.18185">
        <ele>99</ele>
        <time>2022-08-09T11:08:45.206Z</time>
      </trkpt>
      <trkpt lat="48.54477" lon="2.18178">
        <ele>98</ele>
        <time>2022-08-09T11:08:50.202Z</time>
      </trkpt>
      <trkpt lat="48.54477" lon="2.18172">
        <ele>98</ele>
        <time>2022-08-09T11:08:54.238Z</time>
      </trkpt>
      <trkpt lat="48.54477" lon="2.18164">
        <ele>98</ele>
        <time>2022-08-09T11:08:59.212Z</time>
      </trkpt>
      <trkpt lat="48.54475" lon="2.18152">
        <ele>96</ele>
        <time>2022-08-09T11:09:03.213Z</time>
      </trkpt>
      <trkpt lat="48.54471" lon="2.18141">
        <ele>96</ele>
        <time>2022-08-09T11:09:08.204Z</time>
      </trkpt>
      <trkpt lat="48.54469" lon="2.18133">
        <ele>96</ele>
        <time>2022-08-09T11:09:12.222Z</time>
      </trkpt>
      <trkpt lat="48.54467" lon="2.18124">
        <ele>95</ele>
        <time>2022-08-09T11:09:17.229Z</time>
      </trkpt>
      <trkpt lat="48.54464" lon="2.18114">
        <ele>95</ele>
        <time>2022-08-09T11:09:21.206Z</time>
      </trkpt>
      <trkpt lat="48.5446" lon="2.18102">
        <ele>95</ele>
        <time>2022-08-09T11:09:26.211Z</time>
      </trkpt>
      <trkpt lat="48.54458" lon="2.18096">
        <ele>92</ele>
        <time>2022-08-09T11:09:30.227Z</time>
      </trkpt>
      <trkpt lat="48.54454" lon="2.1809">
        <ele>92</ele>
        <time>2022-08-09T11:09:35.205Z</time>
      </trkpt>
      <trkpt lat="48.54449" lon="2.18088">
        <ele>92</ele>
        <time>2022-08-09T11:09:39.234Z</time>
      </trkpt>
      <trkpt lat="48.54442" lon="2.1809">
        <ele>92</ele>
        <time>2022-08-09T11:09:44.233Z</time>
      </trkpt>
      <trkpt lat="48.54435" lon="2.18093">
        <ele>92</ele>
        <time>2022-08-09T11:09:49.236Z</time>
      </trkpt>
      <trkpt lat="48.54429" lon="2.18097">
        <ele>89</ele>
        <time>2022-08-09T11:09:53.254Z</time>
      </trkpt>
      <trkpt lat="48.54422" lon="2.181">
        <ele>89</ele>
        <time>2022-08-09T11:09:58.236Z</time>
      </trkpt>
      <trkpt lat="48.54416" lon="2.18104">
        <ele>89</ele>
        <time>2022-08-09T11:10:03.230Z</time>
      </trkpt>
      <trkpt lat="48.54411" lon="2.18105">
        <ele>89</ele>
        <time>2022-08-09T11:10:08.214Z</time>
      </trkpt>
      <trkpt lat="48.54407" lon="2.18106">
        <ele>89</ele>
        <time>2022-08-09T11:10:12.227Z</time>
      </trkpt>
      <trkpt lat="48.54402" lon="2.18105">
        <ele>89</ele>
        <time>2022-08-09T11:10:26.226Z</time>
      </trkpt>
      <trkpt lat="48.54402" lon="2.18106">
        <ele>89</ele>
        <time>2022-08-09T11:10:31.195Z</time>
      </trkpt>
      <trkpt lat="48.54397" lon="2.181">
        <ele>89</ele>
        <time>2022-08-09T11:10:36.200Z</time>
      </trkpt>
      <trkpt lat="48.54394" lon="2.18103">
        <ele>89</ele>
        <time>2022-08-09T11:10:41.220Z</time>
      </trkpt>
      <trkpt lat="48.54391" lon="2.18099">
        <ele>89</ele>
        <time>2022-08-09T11:10:46.218Z</time>
      </trkpt>
      <trkpt lat="48.54388" lon="2.18094">
        <ele>88</ele>
        <time>2022-08-09T11:10:50.207Z</time>
      </trkpt>
      <trkpt lat="48.54382" lon="2.1809">
        <ele>88</ele>
        <time>2022-08-09T11:10:55.198Z</time>
      </trkpt>
      <trkpt lat="48.54378" lon="2.18085">
        <ele>88</ele>
        <time>2022-08-09T11:11:00.205Z</time>
      </trkpt>
      <trkpt lat="48.54375" lon="2.1808">
        <ele>89</ele>
        <time>2022-08-09T11:11:04.210Z</time>
      </trkpt>
      <trkpt lat="48.54368" lon="2.18076">
        <ele>89</ele>
        <time>2022-08-09T11:11:09.229Z</time>
      </trkpt>
      <trkpt lat="48.54363" lon="2.18069">
        <ele>88</ele>
        <time>2022-08-09T11:11:14.215Z</time>
      </trkpt>
      <trkpt lat="48.54357" lon="2.18061">
        <ele>88</ele>
        <time>2022-08-09T11:11:19.234Z</time>
      </trkpt>
      <trkpt lat="48.54352" lon="2.18055">
        <ele>88</ele>
        <time>2022-08-09T11:11:23.234Z</time>
      </trkpt>
      <trkpt lat="48.54347" lon="2.18049">
        <ele>88</ele>
        <time>2022-08-09T11:11:28.231Z</time>
      </trkpt>
      <trkpt lat="48.54342" lon="2.18046">
        <ele>88</ele>
        <time>2022-08-09T11:11:32.232Z</time>
      </trkpt>
      <trkpt lat="48.54338" lon="2.1804">
        <ele>87</ele>
        <time>2022-08-09T11:11:37.237Z</time>
      </trkpt>
      <trkpt lat="48.54333" lon="2.18035">
        <ele>87</ele>
        <time>2022-08-09T11:11:41.224Z</time>
      </trkpt>
      <trkpt lat="48.54327" lon="2.1803">
        <ele>87</ele>
        <time>2022-08-09T11:11:45.226Z</time>
      </trkpt>
      <trkpt lat="48.54323" lon="2.18024">
        <ele>87</ele>
        <time>2022-08-09T11:11:50.243Z</time>
      </trkpt>
      <trkpt lat="48.54316" lon="2.18018">
        <ele>87</ele>
        <time>2022-08-09T11:11:55.247Z</time>
      </trkpt>
      <trkpt lat="48.54309" lon="2.18011">
        <ele>87</ele>
        <time>2022-08-09T11:12:00.214Z</time>
      </trkpt>
      <trkpt lat="48.54305" lon="2.18005">
        <ele>87</ele>
        <time>2022-08-09T11:12:04.210Z</time>
      </trkpt>
      <trkpt lat="48.54298" lon="2.17999">
        <ele>87</ele>
        <time>2022-08-09T11:12:09.221Z</time>
      </trkpt>
      <trkpt lat="48.54294" lon="2.17996">
        <ele>87</ele>
        <time>2022-08-09T11:12:13.239Z</time>
      </trkpt>
      <trkpt lat="48.54288" lon="2.17991">
        <ele>86</ele>
        <time>2022-08-09T11:12:17.243Z</time>
      </trkpt>
      <trkpt lat="48.54283" lon="2.17983">
        <ele>87</ele>
        <time>2022-08-09T11:12:22.224Z</time>
      </trkpt>
      <trkpt lat="48.54276" lon="2.17977">
        <ele>87</ele>
        <time>2022-08-09T11:12:27.229Z</time>
      </trkpt>
      <trkpt lat="48.54269" lon="2.17973">
        <ele>87</ele>
        <time>2022-08-09T11:12:32.221Z</time>
      </trkpt>
      <trkpt lat="48.54266" lon="2.17969">
        <ele>87</ele>
        <time>2022-08-09T11:12:36.229Z</time>
      </trkpt>
      <trkpt lat="48.54258" lon="2.1796">
        <ele>87</ele>
        <time>2022-08-09T11:12:41.196Z</time>
      </trkpt>
      <trkpt lat="48.54257" lon="2.17947">
        <ele>89</ele>
        <time>2022-08-09T11:12:45.190Z</time>
      </trkpt>
      <trkpt lat="48.54264" lon="2.1794">
        <ele>89</ele>
        <time>2022-08-09T11:12:49.202Z</time>
      </trkpt>
      <trkpt lat="48.54256" lon="2.17933">
        <ele>89</ele>
        <time>2022-08-09T11:12:54.199Z</time>
      </trkpt>
      <trkpt lat="48.54243" lon="2.17935">
        <ele>89</ele>
        <time>2022-08-09T11:12:58.204Z</time>
      </trkpt>
      <trkpt lat="48.54236" lon="2.17932">
        <ele>89</ele>
        <time>2022-08-09T11:13:02.205Z</time>
      </trkpt>
      <trkpt lat="48.54228" lon="2.17931">
        <ele>89</ele>
        <time>2022-08-09T11:13:07.208Z</time>
      </trkpt>
      <trkpt lat="48.54221" lon="2.17929">
        <ele>91</ele>
        <time>2022-08-09T11:13:12.197Z</time>
      </trkpt>
      <trkpt lat="48.54215" lon="2.17926">
        <ele>91</ele>
        <time>2022-08-09T11:13:17.196Z</time>
      </trkpt>
      <trkpt lat="48.54211" lon="2.17924">
        <ele>91</ele>
        <time>2022-08-09T11:13:21.211Z</time>
      </trkpt>
      <trkpt lat="48.54204" lon="2.17919">
        <ele>92</ele>
        <time>2022-08-09T11:13:26.206Z</time>
      </trkpt>
      <trkpt lat="48.54197" lon="2.17914">
        <ele>92</ele>
        <time>2022-08-09T11:13:31.202Z</time>
      </trkpt>
      <trkpt lat="48.54192" lon="2.1791">
        <ele>92</ele>
        <time>2022-08-09T11:13:35.203Z</time>
      </trkpt>
      <trkpt lat="48.54186" lon="2.17906">
        <ele>92</ele>
        <time>2022-08-09T11:13:39.198Z</time>
      </trkpt>
      <trkpt lat="48.54178" lon="2.17905">
        <ele>91</ele>
        <time>2022-08-09T11:13:44.194Z</time>
      </trkpt>
      <trkpt lat="48.54174" lon="2.17896">
        <ele>92</ele>
        <time>2022-08-09T11:13:49.201Z</time>
      </trkpt>
      <trkpt lat="48.54175" lon="2.17885">
        <ele>92</ele>
        <time>2022-08-09T11:14:02.215Z</time>
      </trkpt>
      <trkpt lat="48.54176" lon="2.17877">
        <ele>92</ele>
        <time>2022-08-09T11:14:07.203Z</time>
      </trkpt>
      <trkpt lat="48.54173" lon="2.17871">
        <ele>91</ele>
        <time>2022-08-09T11:14:12.200Z</time>
      </trkpt>
      <trkpt lat="48.54172" lon="2.17867">
        <ele>91</ele>
        <time>2022-08-09T11:14:16.214Z</time>
      </trkpt>
      <trkpt lat="48.54169" lon="2.17861">
        <ele>91</ele>
        <time>2022-08-09T11:14:21.207Z</time>
      </trkpt>
      <trkpt lat="48.54164" lon="2.17854">
        <ele>91</ele>
        <time>2022-08-09T11:14:26.205Z</time>
      </trkpt>
      <trkpt lat="48.54157" lon="2.17851">
        <ele>91</ele>
        <time>2022-08-09T11:14:30.211Z</time>
      </trkpt>
      <trkpt lat="48.5415" lon="2.17846">
        <ele>91</ele>
        <time>2022-08-09T11:14:34.206Z</time>
      </trkpt>
      <trkpt lat="48.54146" lon="2.17845">
        <ele>91</ele>
        <time>2022-08-09T11:14:39.200Z</time>
      </trkpt>
      <trkpt lat="48.5414" lon="2.17846">
        <ele>91</ele>
        <time>2022-08-09T11:14:44.209Z</time>
      </trkpt>
      <trkpt lat="48.54135" lon="2.17847">
        <ele>91</ele>
        <time>2022-08-09T11:14:49.202Z</time>
      </trkpt>
      <trkpt lat="48.5413" lon="2.17849">
        <ele>91</ele>
        <time>2022-08-09T11:14:54.203Z</time>
      </trkpt>
      <trkpt lat="48.54124" lon="2.17849">
        <ele>91</ele>
        <time>2022-08-09T11:14:59.202Z</time>
      </trkpt>
      <trkpt lat="48.54123" lon="2.17851">
        <ele>91</ele>
        <time>2022-08-09T11:15:03.202Z</time>
      </trkpt>
      <trkpt lat="48.54118" lon="2.17855">
        <ele>91</ele>
        <time>2022-08-09T11:15:08.210Z</time>
      </trkpt>
      <trkpt lat="48.54116" lon="2.17863">
        <ele>91</ele>
        <time>2022-08-09T11:15:13.203Z</time>
      </trkpt>
      <trkpt lat="48.54114" lon="2.17871">
        <ele>91</ele>
        <time>2022-08-09T11:15:17.201Z</time>
      </trkpt>
      <trkpt lat="48.54116" lon="2.17878">
        <ele>91</ele>
        <time>2022-08-09T11:15:35.216Z</time>
      </trkpt>
      <trkpt lat="48.54116" lon="2.1788">
        <ele>91</ele>
        <time>2022-08-09T11:15:40.210Z</time>
      </trkpt>
      <trkpt lat="48.54119" lon="2.1788">
        <ele>91</ele>
        <time>2022-08-09T11:15:44.201Z</time>
      </trkpt>
      <trkpt lat="48.54121" lon="2.17881">
        <ele>91</ele>
        <time>2022-08-09T11:15:49.194Z</time>
      </trkpt>
      <trkpt lat="48.54124" lon="2.17886">
        <ele>91</ele>
        <time>2022-08-09T11:15:54.198Z</time>
      </trkpt>
      <trkpt lat="48.54123" lon="2.17888">
        <ele>91</ele>
        <time>2022-08-09T11:15:59.195Z</time>
      </trkpt>
      <trkpt lat="48.54126" lon="2.17889">
        <ele>91</ele>
        <time>2022-08-09T11:16:03.203Z</time>
      </trkpt>
      <trkpt lat="48.54129" lon="2.17895">
        <ele>91</ele>
        <time>2022-08-09T11:16:08.200Z</time>
      </trkpt>
      <trkpt lat="48.5413" lon="2.17901">
        <ele>91</ele>
        <time>2022-08-09T11:16:13.207Z</time>
      </trkpt>
      <trkpt lat="48.54132" lon="2.17905">
        <ele>91</ele>
        <time>2022-08-09T11:16:22.199Z</time>
      </trkpt>
      <trkpt lat="48.54135" lon="2.17908">
        <ele>91</ele>
        <time>2022-08-09T11:16:26.201Z</time>
      </trkpt>
      <trkpt lat="48.54136" lon="2.17912">
        <ele>91</ele>
        <time>2022-08-09T11:16:31.189Z</time>
      </trkpt>
      <trkpt lat="48.54136" lon="2.17914">
        <ele>91</ele>
        <time>2022-08-09T11:16:36.202Z</time>
      </trkpt>
      <trkpt lat="48.54136" lon="2.17916">
        <ele>91</ele>
        <time>2022-08-09T11:16:40.196Z</time>
      </trkpt>
      <trkpt lat="48.54134" lon="2.17913">
        <ele>91</ele>
        <time>2022-08-09T11:16:45.191Z</time>
      </trkpt>
      <trkpt lat="48.5413" lon="2.17912">
        <ele>91</ele>
        <time>2022-08-09T11:16:50.191Z</time>
      </trkpt>
      <trkpt lat="48.54128" lon="2.17911">
        <ele>91</ele>
        <time>2022-08-09T11:16:55.190Z</time>
      </trkpt>
      <trkpt lat="48.54124" lon="2.1791">
        <ele>91</ele>
        <time>2022-08-09T11:17:00.196Z</time>
      </trkpt>
      <trkpt lat="48.54128" lon="2.17896">
        <ele>91</ele>
        <time>2022-08-09T11:17:24.194Z</time>
      </trkpt>
      <trkpt lat="48.5413" lon="2.17895">
        <ele>91</ele>
        <time>2022-08-09T11:17:29.189Z</time>
      </trkpt>
      <trkpt lat="48.54131" lon="2.17888">
        <ele>91</ele>
        <time>2022-08-09T11:17:34.192Z</time>
      </trkpt>
      <trkpt lat="48.54132" lon="2.17886">
        <ele>91</ele>
        <time>2022-08-09T11:17:39.191Z</time>
      </trkpt>
      <trkpt lat="48.54137" lon="2.17884">
        <ele>91</ele>
        <time>2022-08-09T11:17:43.193Z</time>
      </trkpt>
      <trkpt lat="48.54129" lon="2.17882">
        <ele>91</ele>
        <time>2022-08-09T11:18:59.201Z</time>
      </trkpt>
      <trkpt lat="48.54129" lon="2.17879">
        <ele>91</ele>
        <time>2022-08-09T11:19:03.191Z</time>
      </trkpt>
      <trkpt lat="48.54128" lon="2.17878">
        <ele>91</ele>
        <time>2022-08-09T11:19:07.196Z</time>
      </trkpt>
      <trkpt lat="48.54127" lon="2.17879">
        <ele>91</ele>
        <time>2022-08-09T11:19:12.203Z</time>
      </trkpt>
      <trkpt lat="48.54123" lon="2.17882">
        <ele>91</ele>
        <time>2022-08-09T11:19:16.203Z</time>
      </trkpt>
      <trkpt lat="48.54123" lon="2.17881">
        <ele>91</ele>
        <time>2022-08-09T11:19:30.190Z</time>
      </trkpt>
      <trkpt lat="48.54121" lon="2.1788">
        <ele>91</ele>
        <time>2022-08-09T11:19:35.192Z</time>
      </trkpt>
      <trkpt lat="48.54118" lon="2.17881">
        <ele>91</ele>
        <time>2022-08-09T11:19:39.201Z</time>
      </trkpt>
      <trkpt lat="48.54113" lon="2.17883">
        <ele>91</ele>
        <time>2022-08-09T11:19:44.195Z</time>
      </trkpt>
      <trkpt lat="48.54109" lon="2.17888">
        <ele>91</ele>
        <time>2022-08-09T11:19:49.212Z</time>
      </trkpt>
      <trkpt lat="48.54106" lon="2.17891">
        <ele>91</ele>
        <time>2022-08-09T11:19:54.197Z</time>
      </trkpt>
      <trkpt lat="48.54105" lon="2.17898">
        <ele>91</ele>
        <time>2022-08-09T11:19:59.200Z</time>
      </trkpt>
      <trkpt lat="48.54108" lon="2.17902">
        <ele>91</ele>
        <time>2022-08-09T11:20:04.195Z</time>
      </trkpt>
      <trkpt lat="48.54108" lon="2.17906">
        <ele>91</ele>
        <time>2022-08-09T11:20:09.207Z</time>
      </trkpt>
      <trkpt lat="48.54106" lon="2.1791">
        <ele>91</ele>
        <time>2022-08-09T11:20:23.195Z</time>
      </trkpt>
      <trkpt lat="48.54107" lon="2.17909">
        <ele>91</ele>
        <time>2022-08-09T11:20:28.208Z</time>
      </trkpt>
      <trkpt lat="48.54109" lon="2.17909">
        <ele>91</ele>
        <time>2022-08-09T11:20:32.215Z</time>
      </trkpt>
      <trkpt lat="48.54113" lon="2.1791">
        <ele>91</ele>
        <time>2022-08-09T11:20:37.199Z</time>
      </trkpt>
      <trkpt lat="48.54116" lon="2.17905">
        <ele>91</ele>
        <time>2022-08-09T11:20:41.204Z</time>
      </trkpt>
      <trkpt lat="48.54111" lon="2.17907">
        <ele>91</ele>
        <time>2022-08-09T11:21:14.219Z</time>
      </trkpt>
      <trkpt lat="48.54109" lon="2.17908">
        <ele>91</ele>
        <time>2022-08-09T11:21:19.231Z</time>
      </trkpt>
      <trkpt lat="48.54109" lon="2.17908">
        <ele>91</ele>
        <time>2022-08-09T11:21:23.244Z</time>
      </trkpt>
      <trkpt lat="48.54108" lon="2.17909">
        <ele>91</ele>
        <time>2022-08-09T11:21:28.219Z</time>
      </trkpt>
      <trkpt lat="48.54107" lon="2.1791">
        <ele>91</ele>
        <time>2022-08-09T11:21:32.225Z</time>
      </trkpt>
      <trkpt lat="48.54107" lon="2.17911">
        <ele>91</ele>
        <time>2022-08-09T11:21:50.224Z</time>
      </trkpt>
      <trkpt lat="48.54109" lon="2.17913">
        <ele>91</ele>
        <time>2022-08-09T11:21:54.216Z</time>
      </trkpt>
      <trkpt lat="48.54112" lon="2.17917">
        <ele>91</ele>
        <time>2022-08-09T11:21:58.230Z</time>
      </trkpt>
      <trkpt lat="48.54114" lon="2.17919">
        <ele>91</ele>
        <time>2022-08-09T11:22:02.255Z</time>
      </trkpt>
      <trkpt lat="48.54116" lon="2.17921">
        <ele>91</ele>
        <time>2022-08-09T11:22:07.240Z</time>
      </trkpt>
      <trkpt lat="48.54122" lon="2.17924">
        <ele>91</ele>
        <time>2022-08-09T11:22:12.231Z</time>
      </trkpt>
      <trkpt lat="48.54128" lon="2.17928">
        <ele>91</ele>
        <time>2022-08-09T11:22:16.222Z</time>
      </trkpt>
      <trkpt lat="48.54134" lon="2.17933">
        <ele>91</ele>
        <time>2022-08-09T11:22:21.258Z</time>
      </trkpt>
      <trkpt lat="48.54139" lon="2.17933">
        <ele>91</ele>
        <time>2022-08-09T11:22:25.233Z</time>
      </trkpt>
      <trkpt lat="48.54142" lon="2.17931">
        <ele>91</ele>
        <time>2022-08-09T11:22:30.207Z</time>
      </trkpt>
      <trkpt lat="48.54148" lon="2.17929">
        <ele>91</ele>
        <time>2022-08-09T11:22:35.197Z</time>
      </trkpt>
      <trkpt lat="48.54153" lon="2.17925">
        <ele>91</ele>
        <time>2022-08-09T11:22:39.201Z</time>
      </trkpt>
      <trkpt lat="48.54157" lon="2.17919">
        <ele>91</ele>
        <time>2022-08-09T11:22:44.206Z</time>
      </trkpt>
      <trkpt lat="48.54161" lon="2.17914">
        <ele>91</ele>
        <time>2022-08-09T11:22:48.202Z</time>
      </trkpt>
      <trkpt lat="48.54162" lon="2.17909">
        <ele>91</ele>
        <time>2022-08-09T11:22:52.207Z</time>
      </trkpt>
      <trkpt lat="48.54163" lon="2.17905">
        <ele>91</ele>
        <time>2022-08-09T11:22:56.208Z</time>
      </trkpt>
      <trkpt lat="48.54167" lon="2.17899">
        <ele>92</ele>
        <time>2022-08-09T11:23:01.198Z</time>
      </trkpt>
      <trkpt lat="48.5417" lon="2.17895">
        <ele>92</ele>
        <time>2022-08-09T11:23:05.196Z</time>
      </trkpt>
      <trkpt lat="48.54172" lon="2.17892">
        <ele>92</ele>
        <time>2022-08-09T11:23:09.207Z</time>
      </trkpt>
      <trkpt lat="48.54174" lon="2.17882">
        <ele>92</ele>
        <time>2022-08-09T11:23:14.205Z</time>
      </trkpt>
      <trkpt lat="48.54175" lon="2.17875">
        <ele>92</ele>
        <time>2022-08-09T11:23:18.208Z</time>
      </trkpt>
      <trkpt lat="48.54178" lon="2.17871">
        <ele>91</ele>
        <time>2022-08-09T11:23:22.202Z</time>
      </trkpt>
      <trkpt lat="48.54182" lon="2.17867">
        <ele>91</ele>
        <time>2022-08-09T11:23:26.204Z</time>
      </trkpt>
      <trkpt lat="48.54187" lon="2.17863">
        <ele>91</ele>
        <time>2022-08-09T11:23:31.209Z</time>
      </trkpt>
      <trkpt lat="48.54192" lon="2.17863">
        <ele>91</ele>
        <time>2022-08-09T11:23:35.207Z</time>
      </trkpt>
      <trkpt lat="48.54196" lon="2.1786">
        <ele>91</ele>
        <time>2022-08-09T11:23:39.218Z</time>
      </trkpt>
      <trkpt lat="48.54199" lon="2.17858">
        <ele>91</ele>
        <time>2022-08-09T11:23:44.202Z</time>
      </trkpt>
      <trkpt lat="48.54201" lon="2.17854">
        <ele>91</ele>
        <time>2022-08-09T11:23:48.201Z</time>
      </trkpt>
      <trkpt lat="48.54204" lon="2.1785">
        <ele>91</ele>
        <time>2022-08-09T11:23:53.204Z</time>
      </trkpt>
      <trkpt lat="48.54203" lon="2.17843">
        <ele>90</ele>
        <time>2022-08-09T11:54:07.202Z</time>
      </trkpt>
      <trkpt lat="48.54201" lon="2.17845">
        <ele>90</ele>
        <time>2022-08-09T11:54:11.214Z</time>
      </trkpt>
      <trkpt lat="48.54199" lon="2.17846">
        <ele>90</ele>
        <time>2022-08-09T11:54:16.240Z</time>
      </trkpt>
      <trkpt lat="48.54197" lon="2.17847">
        <ele>91</ele>
        <time>2022-08-09T11:54:21.218Z</time>
      </trkpt>
      <trkpt lat="48.54195" lon="2.17849">
        <ele>91</ele>
        <time>2022-08-09T11:54:26.243Z</time>
      </trkpt>
      <trkpt lat="48.54192" lon="2.17853">
        <ele>91</ele>
        <time>2022-08-09T11:54:39.203Z</time>
      </trkpt>
      <trkpt lat="48.54186" lon="2.17863">
        <ele>91</ele>
        <time>2022-08-09T11:54:44.193Z</time>
      </trkpt>
      <trkpt lat="48.54184" lon="2.17871">
        <ele>91</ele>
        <time>2022-08-09T11:54:48.232Z</time>
      </trkpt>
      <trkpt lat="48.54181" lon="2.17876">
        <ele>92</ele>
        <time>2022-08-09T11:54:53.205Z</time>
      </trkpt>
      <trkpt lat="48.54176" lon="2.1788">
        <ele>92</ele>
        <time>2022-08-09T11:54:57.214Z</time>
      </trkpt>
      <trkpt lat="48.54167" lon="2.17876">
        <ele>92</ele>
        <time>2022-08-09T11:55:34.208Z</time>
      </trkpt>
      <trkpt lat="48.54167" lon="2.17872">
        <ele>91</ele>
        <time>2022-08-09T11:55:39.207Z</time>
      </trkpt>
      <trkpt lat="48.54165" lon="2.17868">
        <ele>91</ele>
        <time>2022-08-09T11:55:43.196Z</time>
      </trkpt>
      <trkpt lat="48.54162" lon="2.1786">
        <ele>91</ele>
        <time>2022-08-09T11:55:48.201Z</time>
      </trkpt>
      <trkpt lat="48.54158" lon="2.17856">
        <ele>91</ele>
        <time>2022-08-09T11:55:53.202Z</time>
      </trkpt>
      <trkpt lat="48.54153" lon="2.17855">
        <ele>91</ele>
        <time>2022-08-09T11:55:57.215Z</time>
      </trkpt>
      <trkpt lat="48.54147" lon="2.17855">
        <ele>91</ele>
        <time>2022-08-09T11:56:02.203Z</time>
      </trkpt>
      <trkpt lat="48.54142" lon="2.17854">
        <ele>91</ele>
        <time>2022-08-09T11:56:06.236Z</time>
      </trkpt>
      <trkpt lat="48.54137" lon="2.17851">
        <ele>91</ele>
        <time>2022-08-09T11:56:11.202Z</time>
      </trkpt>
      <trkpt lat="48.54131" lon="2.17848">
        <ele>91</ele>
        <time>2022-08-09T11:56:16.210Z</time>
      </trkpt>
      <trkpt lat="48.54129" lon="2.17846">
        <ele>91</ele>
        <time>2022-08-09T11:56:20.239Z</time>
      </trkpt>
      <trkpt lat="48.54124" lon="2.17842">
        <ele>91</ele>
        <time>2022-08-09T11:56:25.232Z</time>
      </trkpt>
      <trkpt lat="48.54119" lon="2.17844">
        <ele>91</ele>
        <time>2022-08-09T11:56:30.227Z</time>
      </trkpt>
      <trkpt lat="48.54114" lon="2.17842">
        <ele>91</ele>
        <time>2022-08-09T11:57:51.220Z</time>
      </trkpt>
      <trkpt lat="48.54113" lon="2.17852">
        <ele>91</ele>
        <time>2022-08-09T11:57:56.241Z</time>
      </trkpt>
      <trkpt lat="48.54113" lon="2.1786">
        <ele>91</ele>
        <time>2022-08-09T11:58:01.222Z</time>
      </trkpt>
      <trkpt lat="48.54111" lon="2.17865">
        <ele>91</ele>
        <time>2022-08-09T11:58:05.219Z</time>
      </trkpt>
      <trkpt lat="48.54109" lon="2.17875">
        <ele>91</ele>
        <time>2022-08-09T11:58:10.243Z</time>
      </trkpt>
      <trkpt lat="48.54106" lon="2.17882">
        <ele>91</ele>
        <time>2022-08-09T11:58:14.246Z</time>
      </trkpt>
      <trkpt lat="48.54104" lon="2.17892">
        <ele>91</ele>
        <time>2022-08-09T11:58:19.212Z</time>
      </trkpt>
      <trkpt lat="48.54104" lon="2.17902">
        <ele>91</ele>
        <time>2022-08-09T11:58:24.199Z</time>
      </trkpt>
      <trkpt lat="48.54107" lon="2.17906">
        <ele>91</ele>
        <time>2022-08-09T11:58:28.223Z</time>
      </trkpt>
      <trkpt lat="48.54112" lon="2.17909">
        <ele>91</ele>
        <time>2022-08-09T11:58:32.269Z</time>
      </trkpt>
      <trkpt lat="48.54115" lon="2.17916">
        <ele>91</ele>
        <time>2022-08-09T11:58:37.221Z</time>
      </trkpt>
      <trkpt lat="48.54119" lon="2.17921">
        <ele>91</ele>
        <time>2022-08-09T11:58:41.221Z</time>
      </trkpt>
      <trkpt lat="48.54124" lon="2.17925">
        <ele>91</ele>
        <time>2022-08-09T11:58:46.230Z</time>
      </trkpt>
      <trkpt lat="48.5413" lon="2.1793">
        <ele>91</ele>
        <time>2022-08-09T11:58:51.223Z</time>
      </trkpt>
      <trkpt lat="48.54135" lon="2.17933">
        <ele>91</ele>
        <time>2022-08-09T11:58:56.237Z</time>
      </trkpt>
      <trkpt lat="48.5414" lon="2.17937">
        <ele>91</ele>
        <time>2022-08-09T11:59:01.211Z</time>
      </trkpt>
      <trkpt lat="48.54145" lon="2.17942">
        <ele>91</ele>
        <time>2022-08-09T11:59:06.247Z</time>
      </trkpt>
      <trkpt lat="48.54148" lon="2.17948">
        <ele>91</ele>
        <time>2022-08-09T11:59:11.221Z</time>
      </trkpt>
      <trkpt lat="48.54147" lon="2.17959">
        <ele>90</ele>
        <time>2022-08-09T11:59:16.214Z</time>
      </trkpt>
      <trkpt lat="48.54144" lon="2.17968">
        <ele>90</ele>
        <time>2022-08-09T11:59:21.232Z</time>
      </trkpt>
      <trkpt lat="48.54142" lon="2.17979">
        <ele>90</ele>
        <time>2022-08-09T11:59:26.233Z</time>
      </trkpt>
      <trkpt lat="48.5414" lon="2.17989">
        <ele>89</ele>
        <time>2022-08-09T11:59:31.243Z</time>
      </trkpt>
      <trkpt lat="48.54139" lon="2.17999">
        <ele>89</ele>
        <time>2022-08-09T11:59:36.254Z</time>
      </trkpt>
      <trkpt lat="48.54137" lon="2.18008">
        <ele>89</ele>
        <time>2022-08-09T11:59:41.217Z</time>
      </trkpt>
      <trkpt lat="48.54135" lon="2.18016">
        <ele>89</ele>
        <time>2022-08-09T11:59:45.217Z</time>
      </trkpt>
      <trkpt lat="48.54133" lon="2.18023">
        <ele>89</ele>
        <time>2022-08-09T11:59:49.222Z</time>
      </trkpt>
      <trkpt lat="48.5413" lon="2.18031">
        <ele>89</ele>
        <time>2022-08-09T11:59:54.207Z</time>
      </trkpt>
      <trkpt lat="48.54129" lon="2.18038">
        <ele>89</ele>
        <time>2022-08-09T11:59:58.255Z</time>
      </trkpt>
      <trkpt lat="48.54126" lon="2.18046">
        <ele>90</ele>
        <time>2022-08-09T12:00:03.228Z</time>
      </trkpt>
      <trkpt lat="48.54124" lon="2.18056">
        <ele>91</ele>
        <time>2022-08-09T12:00:08.210Z</time>
      </trkpt>
      <trkpt lat="48.5412" lon="2.18063">
        <ele>91</ele>
        <time>2022-08-09T12:00:12.213Z</time>
      </trkpt>
      <trkpt lat="48.54118" lon="2.18068">
        <ele>91</ele>
        <time>2022-08-09T12:00:16.257Z</time>
      </trkpt>
      <trkpt lat="48.54115" lon="2.18076">
        <ele>91</ele>
        <time>2022-08-09T12:00:21.192Z</time>
      </trkpt>
      <trkpt lat="48.54112" lon="2.1808">
        <ele>91</ele>
        <time>2022-08-09T12:00:25.193Z</time>
      </trkpt>
      <trkpt lat="48.54112" lon="2.18087">
        <ele>91</ele>
        <time>2022-08-09T12:00:29.198Z</time>
      </trkpt>
      <trkpt lat="48.54109" lon="2.18093">
        <ele>91</ele>
        <time>2022-08-09T12:00:33.204Z</time>
      </trkpt>
      <trkpt lat="48.54104" lon="2.18099">
        <ele>91</ele>
        <time>2022-08-09T12:00:38.196Z</time>
      </trkpt>
      <trkpt lat="48.54101" lon="2.18105">
        <ele>91</ele>
        <time>2022-08-09T12:00:42.204Z</time>
      </trkpt>
      <trkpt lat="48.541" lon="2.18115">
        <ele>91</ele>
        <time>2022-08-09T12:00:47.201Z</time>
      </trkpt>
      <trkpt lat="48.54101" lon="2.18124">
        <ele>91</ele>
        <time>2022-08-09T12:00:52.208Z</time>
      </trkpt>
      <trkpt lat="48.54102" lon="2.18132">
        <ele>91</ele>
        <time>2022-08-09T12:00:56.200Z</time>
      </trkpt>
      <trkpt lat="48.54102" lon="2.1814">
        <ele>91</ele>
        <time>2022-08-09T12:01:00.207Z</time>
      </trkpt>
      <trkpt lat="48.54104" lon="2.1815">
        <ele>91</ele>
        <time>2022-08-09T12:01:05.190Z</time>
      </trkpt>
      <trkpt lat="48.54102" lon="2.18158">
        <ele>91</ele>
        <time>2022-08-09T12:01:10.200Z</time>
      </trkpt>
      <trkpt lat="48.54102" lon="2.18161">
        <ele>91</ele>
        <time>2022-08-09T12:01:15.207Z</time>
      </trkpt>
      <trkpt lat="48.54102" lon="2.1816">
        <ele>91</ele>
        <time>2022-08-09T12:01:20.209Z</time>
      </trkpt>
      <trkpt lat="48.54103" lon="2.18169">
        <ele>91</ele>
        <time>2022-08-09T12:01:25.210Z</time>
      </trkpt>
      <trkpt lat="48.54103" lon="2.18179">
        <ele>91</ele>
        <time>2022-08-09T12:01:29.211Z</time>
      </trkpt>
      <trkpt lat="48.54103" lon="2.18186">
        <ele>92</ele>
        <time>2022-08-09T12:01:33.209Z</time>
      </trkpt>
      <trkpt lat="48.54103" lon="2.18199">
        <ele>92</ele>
        <time>2022-08-09T12:01:38.208Z</time>
      </trkpt>
      <trkpt lat="48.54102" lon="2.1821">
        <ele>92</ele>
        <time>2022-08-09T12:01:43.202Z</time>
      </trkpt>
      <trkpt lat="48.54103" lon="2.18217">
        <ele>92</ele>
        <time>2022-08-09T12:01:47.243Z</time>
      </trkpt>
      <trkpt lat="48.54103" lon="2.18226">
        <ele>92</ele>
        <time>2022-08-09T12:01:51.248Z</time>
      </trkpt>
      <trkpt lat="48.54102" lon="2.18239">
        <ele>92</ele>
        <time>2022-08-09T12:01:56.257Z</time>
      </trkpt>
      <trkpt lat="48.54103" lon="2.1825">
        <ele>92</ele>
        <time>2022-08-09T12:02:01.248Z</time>
      </trkpt>
      <trkpt lat="48.54104" lon="2.18257">
        <ele>92</ele>
        <time>2022-08-09T12:02:05.244Z</time>
      </trkpt>
      <trkpt lat="48.54104" lon="2.18265">
        <ele>93</ele>
        <time>2022-08-09T12:02:10.231Z</time>
      </trkpt>
      <trkpt lat="48.54104" lon="2.18275">
        <ele>93</ele>
        <time>2022-08-09T12:02:15.234Z</time>
      </trkpt>
      <trkpt lat="48.54105" lon="2.18281">
        <ele>93</ele>
        <time>2022-08-09T12:02:19.211Z</time>
      </trkpt>
      <trkpt lat="48.54106" lon="2.18293">
        <ele>95</ele>
        <time>2022-08-09T12:02:24.253Z</time>
      </trkpt>
      <trkpt lat="48.54106" lon="2.18302">
        <ele>95</ele>
        <time>2022-08-09T12:02:29.232Z</time>
      </trkpt>
      <trkpt lat="48.54107" lon="2.18312">
        <ele>95</ele>
        <time>2022-08-09T12:02:34.292Z</time>
      </trkpt>
      <trkpt lat="48.54108" lon="2.18322">
        <ele>98</ele>
        <time>2022-08-09T12:02:39.225Z</time>
      </trkpt>
      <trkpt lat="48.54108" lon="2.18328">
        <ele>98</ele>
        <time>2022-08-09T12:02:43.242Z</time>
      </trkpt>
      <trkpt lat="48.54108" lon="2.18337">
        <ele>98</ele>
        <time>2022-08-09T12:02:48.262Z</time>
      </trkpt>
      <trkpt lat="48.54107" lon="2.18345">
        <ele>98</ele>
        <time>2022-08-09T12:02:53.249Z</time>
      </trkpt>
      <trkpt lat="48.54106" lon="2.18352">
        <ele>101</ele>
        <time>2022-08-09T12:02:57.256Z</time>
      </trkpt>
      <trkpt lat="48.54106" lon="2.18361">
        <ele>101</ele>
        <time>2022-08-09T12:03:02.238Z</time>
      </trkpt>
      <trkpt lat="48.54106" lon="2.18368">
        <ele>101</ele>
        <time>2022-08-09T12:03:06.246Z</time>
      </trkpt>
      <trkpt lat="48.54106" lon="2.18375">
        <ele>104</ele>
        <time>2022-08-09T12:03:10.243Z</time>
      </trkpt>
      <trkpt lat="48.54107" lon="2.18383">
        <ele>104</ele>
        <time>2022-08-09T12:03:15.220Z</time>
      </trkpt>
      <trkpt lat="48.54108" lon="2.1839">
        <ele>104</ele>
        <time>2022-08-09T12:03:19.226Z</time>
      </trkpt>
      <trkpt lat="48.54108" lon="2.18396">
        <ele>104</ele>
        <time>2022-08-09T12:03:23.236Z</time>
      </trkpt>
      <trkpt lat="48.54107" lon="2.18403">
        <ele>104</ele>
        <time>2022-08-09T12:03:27.216Z</time>
      </trkpt>
      <trkpt lat="48.54109" lon="2.1841">
        <ele>106</ele>
        <time>2022-08-09T12:03:31.257Z</time>
      </trkpt>
      <trkpt lat="48.54109" lon="2.18418">
        <ele>106</ele>
        <time>2022-08-09T12:03:35.245Z</time>
      </trkpt>
      <trkpt lat="48.54108" lon="2.18427">
        <ele>106</ele>
        <time>2022-08-09T12:03:40.254Z</time>
      </trkpt>
      <trkpt lat="48.54109" lon="2.18428">
        <ele>106</ele>
        <time>2022-08-09T12:03:55.195Z</time>
      </trkpt>
      <trkpt lat="48.54108" lon="2.1843">
        <ele>106</ele>
        <time>2022-08-09T12:04:00.199Z</time>
      </trkpt>
      <trkpt lat="48.5411" lon="2.18441">
        <ele>108</ele>
        <time>2022-08-09T12:04:05.199Z</time>
      </trkpt>
      <trkpt lat="48.54109" lon="2.18448">
        <ele>108</ele>
        <time>2022-08-09T12:04:09.223Z</time>
      </trkpt>
      <trkpt lat="48.54108" lon="2.18454">
        <ele>108</ele>
        <time>2022-08-09T12:04:14.205Z</time>
      </trkpt>
      <trkpt lat="48.54109" lon="2.18471">
        <ele>112</ele>
        <time>2022-08-09T12:04:28.209Z</time>
      </trkpt>
      <trkpt lat="48.54109" lon="2.18476">
        <ele>112</ele>
        <time>2022-08-09T12:04:33.205Z</time>
      </trkpt>
      <trkpt lat="48.54112" lon="2.18484">
        <ele>112</ele>
        <time>2022-08-09T12:04:37.211Z</time>
      </trkpt>
      <trkpt lat="48.5411" lon="2.18491">
        <ele>118</ele>
        <time>2022-08-09T12:04:42.201Z</time>
      </trkpt>
      <trkpt lat="48.54106" lon="2.18496">
        <ele>118</ele>
        <time>2022-08-09T12:04:46.252Z</time>
      </trkpt>
      <trkpt lat="48.54103" lon="2.18502">
        <ele>118</ele>
        <time>2022-08-09T12:04:51.209Z</time>
      </trkpt>
      <trkpt lat="48.541" lon="2.18507">
        <ele>118</ele>
        <time>2022-08-09T12:04:55.207Z</time>
      </trkpt>
      <trkpt lat="48.54097" lon="2.18512">
        <ele>117</ele>
        <time>2022-08-09T12:04:59.218Z</time>
      </trkpt>
      <trkpt lat="48.54093" lon="2.18518">
        <ele>122</ele>
        <time>2022-08-09T12:05:04.230Z</time>
      </trkpt>
      <trkpt lat="48.54091" lon="2.18523">
        <ele>122</ele>
        <time>2022-08-09T12:05:08.215Z</time>
      </trkpt>
      <trkpt lat="48.54091" lon="2.18529">
        <ele>122</ele>
        <time>2022-08-09T12:05:13.220Z</time>
      </trkpt>
      <trkpt lat="48.54091" lon="2.18536">
        <ele>122</ele>
        <time>2022-08-09T12:05:18.236Z</time>
      </trkpt>
      <trkpt lat="48.54091" lon="2.18543">
        <ele>127</ele>
        <time>2022-08-09T12:05:22.249Z</time>
      </trkpt>
      <trkpt lat="48.54091" lon="2.1855">
        <ele>127</ele>
        <time>2022-08-09T12:05:27.223Z</time>
      </trkpt>
      <trkpt lat="48.54092" lon="2.18559">
        <ele>127</ele>
        <time>2022-08-09T12:05:32.220Z</time>
      </trkpt>
      <trkpt lat="48.54091" lon="2.18566">
        <ele>127</ele>
        <time>2022-08-09T12:05:37.229Z</time>
      </trkpt>
      <trkpt lat="48.5409" lon="2.18573">
        <ele>131</ele>
        <time>2022-08-09T12:05:42.231Z</time>
      </trkpt>
      <trkpt lat="48.5409" lon="2.18581">
        <ele>131</ele>
        <time>2022-08-09T12:05:47.214Z</time>
      </trkpt>
      <trkpt lat="48.54091" lon="2.18585">
        <ele>131</ele>
        <time>2022-08-09T12:05:51.233Z</time>
      </trkpt>
      <trkpt lat="48.54089" lon="2.18592">
        <ele>131</ele>
        <time>2022-08-09T12:05:56.248Z</time>
      </trkpt>
      <trkpt lat="48.5409" lon="2.18599">
        <ele>135</ele>
        <time>2022-08-09T12:06:01.239Z</time>
      </trkpt>
      <trkpt lat="48.54091" lon="2.18607">
        <ele>135</ele>
        <time>2022-08-09T12:06:06.238Z</time>
      </trkpt>
      <trkpt lat="48.54091" lon="2.18613">
        <ele>135</ele>
        <time>2022-08-09T12:06:10.268Z</time>
      </trkpt>
      <trkpt lat="48.54092" lon="2.1862">
        <ele>135</ele>
        <time>2022-08-09T12:06:15.229Z</time>
      </trkpt>
      <trkpt lat="48.54091" lon="2.18626">
        <ele>141</ele>
        <time>2022-08-09T12:06:19.235Z</time>
      </trkpt>
      <trkpt lat="48.54089" lon="2.18635">
        <ele>141</ele>
        <time>2022-08-09T12:06:24.221Z</time>
      </trkpt>
      <trkpt lat="48.54088" lon="2.18641">
        <ele>141</ele>
        <time>2022-08-09T12:06:28.243Z</time>
      </trkpt>
      <trkpt lat="48.54087" lon="2.18647">
        <ele>141</ele>
        <time>2022-08-09T12:06:33.235Z</time>
      </trkpt>
      <trkpt lat="48.54087" lon="2.18654">
        <ele>145</ele>
        <time>2022-08-09T12:06:37.246Z</time>
      </trkpt>
      <trkpt lat="48.54087" lon="2.18661">
        <ele>145</ele>
        <time>2022-08-09T12:06:42.233Z</time>
      </trkpt>
      <trkpt lat="48.54088" lon="2.18667">
        <ele>145</ele>
        <time>2022-08-09T12:06:46.247Z</time>
      </trkpt>
      <trkpt lat="48.54088" lon="2.18675">
        <ele>145</ele>
        <time>2022-08-09T12:06:50.239Z</time>
      </trkpt>
      <trkpt lat="48.54087" lon="2.18682">
        <ele>148</ele>
        <time>2022-08-09T12:06:55.261Z</time>
      </trkpt>
      <trkpt lat="48.54086" lon="2.18688">
        <ele>148</ele>
        <time>2022-08-09T12:06:59.241Z</time>
      </trkpt>
      <trkpt lat="48.54085" lon="2.18697">
        <ele>148</ele>
        <time>2022-08-09T12:07:04.206Z</time>
      </trkpt>
      <trkpt lat="48.54084" lon="2.18704">
        <ele>148</ele>
        <time>2022-08-09T12:07:08.239Z</time>
      </trkpt>
      <trkpt lat="48.54083" lon="2.18711">
        <ele>150</ele>
        <time>2022-08-09T12:07:13.257Z</time>
      </trkpt>
      <trkpt lat="48.54083" lon="2.18721">
        <ele>150</ele>
        <time>2022-08-09T12:07:18.221Z</time>
      </trkpt>
      <trkpt lat="48.54083" lon="2.18727">
        <ele>150</ele>
        <time>2022-08-09T12:07:22.240Z</time>
      </trkpt>
      <trkpt lat="48.54084" lon="2.18734">
        <ele>150</ele>
        <time>2022-08-09T12:07:26.258Z</time>
      </trkpt>
      <trkpt lat="48.54085" lon="2.18745">
        <ele>152</ele>
        <time>2022-08-09T12:07:31.216Z</time>
      </trkpt>
      <trkpt lat="48.54085" lon="2.18751">
        <ele>152</ele>
        <time>2022-08-09T12:07:35.232Z</time>
      </trkpt>
      <trkpt lat="48.54085" lon="2.18762">
        <ele>152</ele>
        <time>2022-08-09T12:07:40.230Z</time>
      </trkpt>
      <trkpt lat="48.54086" lon="2.18773">
        <ele>153</ele>
        <time>2022-08-09T12:07:45.244Z</time>
      </trkpt>
      <trkpt lat="48.54088" lon="2.18784">
        <ele>153</ele>
        <time>2022-08-09T12:07:50.206Z</time>
      </trkpt>
      <trkpt lat="48.5409" lon="2.18792">
        <ele>154</ele>
        <time>2022-08-09T12:07:54.230Z</time>
      </trkpt>
      <trkpt lat="48.54092" lon="2.18801">
        <ele>154</ele>
        <time>2022-08-09T12:07:59.203Z</time>
      </trkpt>
      <trkpt lat="48.54092" lon="2.18808">
        <ele>154</ele>
        <time>2022-08-09T12:08:03.213Z</time>
      </trkpt>
      <trkpt lat="48.54095" lon="2.18816">
        <ele>154</ele>
        <time>2022-08-09T12:08:08.237Z</time>
      </trkpt>
      <trkpt lat="48.54098" lon="2.18826">
        <ele>155</ele>
        <time>2022-08-09T12:08:13.209Z</time>
      </trkpt>
      <trkpt lat="48.54099" lon="2.18835">
        <ele>155</ele>
        <time>2022-08-09T12:08:17.231Z</time>
      </trkpt>
      <trkpt lat="48.541" lon="2.18844">
        <ele>155</ele>
        <time>2022-08-09T12:08:22.236Z</time>
      </trkpt>
      <trkpt lat="48.54103" lon="2.18853">
        <ele>156</ele>
        <time>2022-08-09T12:08:27.218Z</time>
      </trkpt>
      <trkpt lat="48.54104" lon="2.18862">
        <ele>156</ele>
        <time>2022-08-09T12:08:32.213Z</time>
      </trkpt>
      <trkpt lat="48.54105" lon="2.1887">
        <ele>156</ele>
        <time>2022-08-09T12:08:37.218Z</time>
      </trkpt>
      <trkpt lat="48.54106" lon="2.18878">
        <ele>156</ele>
        <time>2022-08-09T12:08:42.224Z</time>
      </trkpt>
      <trkpt lat="48.54108" lon="2.18886">
        <ele>156</ele>
        <time>2022-08-09T12:08:47.211Z</time>
      </trkpt>
      <trkpt lat="48.54111" lon="2.18894">
        <ele>156</ele>
        <time>2022-08-09T12:08:52.215Z</time>
      </trkpt>
      <trkpt lat="48.54115" lon="2.18904">
        <ele>157</ele>
        <time>2022-08-09T12:08:57.221Z</time>
      </trkpt>
      <trkpt lat="48.54117" lon="2.18911">
        <ele>157</ele>
        <time>2022-08-09T12:09:01.210Z</time>
      </trkpt>
      <trkpt lat="48.54119" lon="2.18919">
        <ele>157</ele>
        <time>2022-08-09T12:09:05.217Z</time>
      </trkpt>
      <trkpt lat="48.54123" lon="2.18927">
        <ele>157</ele>
        <time>2022-08-09T12:09:10.230Z</time>
      </trkpt>
      <trkpt lat="48.54126" lon="2.18935">
        <ele>157</ele>
        <time>2022-08-09T12:09:15.200Z</time>
      </trkpt>
      <trkpt lat="48.5413" lon="2.18943">
        <ele>157</ele>
        <time>2022-08-09T12:09:19.224Z</time>
      </trkpt>
      <trkpt lat="48.54135" lon="2.18955">
        <ele>157</ele>
        <time>2022-08-09T12:09:24.229Z</time>
      </trkpt>
      <trkpt lat="48.54138" lon="2.18965">
        <ele>156</ele>
        <time>2022-08-09T12:09:29.208Z</time>
      </trkpt>
      <trkpt lat="48.54139" lon="2.18972">
        <ele>156</ele>
        <time>2022-08-09T12:09:33.216Z</time>
      </trkpt>
      <trkpt lat="48.5414" lon="2.18979">
        <ele>156</ele>
        <time>2022-08-09T12:09:38.218Z</time>
      </trkpt>
      <trkpt lat="48.54139" lon="2.18987">
        <ele>156</ele>
        <time>2022-08-09T12:09:43.220Z</time>
      </trkpt>
      <trkpt lat="48.54139" lon="2.18997">
        <ele>156</ele>
        <time>2022-08-09T12:09:48.207Z</time>
      </trkpt>
      <trkpt lat="48.54141" lon="2.19003">
        <ele>156</ele>
        <time>2022-08-09T12:09:52.209Z</time>
      </trkpt>
      <trkpt lat="48.54145" lon="2.19013">
        <ele>156</ele>
        <time>2022-08-09T12:09:57.204Z</time>
      </trkpt>
      <trkpt lat="48.54149" lon="2.19022">
        <ele>156</ele>
        <time>2022-08-09T12:10:02.203Z</time>
      </trkpt>
      <trkpt lat="48.54153" lon="2.1903">
        <ele>157</ele>
        <time>2022-08-09T12:10:07.207Z</time>
      </trkpt>
      <trkpt lat="48.54157" lon="2.19035">
        <ele>157</ele>
        <time>2022-08-09T12:10:11.207Z</time>
      </trkpt>
      <trkpt lat="48.5416" lon="2.19042">
        <ele>157</ele>
        <time>2022-08-09T12:10:16.205Z</time>
      </trkpt>
      <trkpt lat="48.54166" lon="2.19051">
        <ele>157</ele>
        <time>2022-08-09T12:10:21.208Z</time>
      </trkpt>
      <trkpt lat="48.5417" lon="2.19059">
        <ele>157</ele>
        <time>2022-08-09T12:10:26.237Z</time>
      </trkpt>
      <trkpt lat="48.54175" lon="2.19069">
        <ele>157</ele>
        <time>2022-08-09T12:10:31.206Z</time>
      </trkpt>
      <trkpt lat="48.54179" lon="2.19078">
        <ele>158</ele>
        <time>2022-08-09T12:10:36.213Z</time>
      </trkpt>
      <trkpt lat="48.54184" lon="2.19087">
        <ele>157</ele>
        <time>2022-08-09T12:10:41.213Z</time>
      </trkpt>
      <trkpt lat="48.54189" lon="2.19096">
        <ele>157</ele>
        <time>2022-08-09T12:10:46.203Z</time>
      </trkpt>
      <trkpt lat="48.54193" lon="2.19103">
        <ele>157</ele>
        <time>2022-08-09T12:10:50.212Z</time>
      </trkpt>
      <trkpt lat="48.54196" lon="2.19111">
        <ele>157</ele>
        <time>2022-08-09T12:10:55.193Z</time>
      </trkpt>
      <trkpt lat="48.54198" lon="2.19117">
        <ele>157</ele>
        <time>2022-08-09T12:10:59.201Z</time>
      </trkpt>
      <trkpt lat="48.542" lon="2.19124">
        <ele>157</ele>
        <time>2022-08-09T12:11:03.197Z</time>
      </trkpt>
      <trkpt lat="48.54203" lon="2.19133">
        <ele>156</ele>
        <time>2022-08-09T12:11:08.208Z</time>
      </trkpt>
      <trkpt lat="48.54204" lon="2.19142">
        <ele>156</ele>
        <time>2022-08-09T12:11:12.216Z</time>
      </trkpt>
      <trkpt lat="48.54205" lon="2.19153">
        <ele>155</ele>
        <time>2022-08-09T12:11:17.205Z</time>
      </trkpt>
      <trkpt lat="48.54203" lon="2.1916">
        <ele>155</ele>
        <time>2022-08-09T12:11:21.214Z</time>
      </trkpt>
      <trkpt lat="48.54201" lon="2.19165">
        <ele>155</ele>
        <time>2022-08-09T12:11:25.221Z</time>
      </trkpt>
      <trkpt lat="48.54199" lon="2.19172">
        <ele>155</ele>
        <time>2022-08-09T12:11:29.233Z</time>
      </trkpt>
      <trkpt lat="48.54196" lon="2.1918">
        <ele>155</ele>
        <time>2022-08-09T12:11:34.218Z</time>
      </trkpt>
      <trkpt lat="48.54196" lon="2.19189">
        <ele>155</ele>
        <time>2022-08-09T12:11:39.208Z</time>
      </trkpt>
      <trkpt lat="48.54197" lon="2.19199">
        <ele>155</ele>
        <time>2022-08-09T12:11:43.229Z</time>
      </trkpt>
      <trkpt lat="48.54202" lon="2.1921">
        <ele>155</ele>
        <time>2022-08-09T12:11:48.222Z</time>
      </trkpt>
      <trkpt lat="48.54207" lon="2.19217">
        <ele>155</ele>
        <time>2022-08-09T12:11:53.210Z</time>
      </trkpt>
      <trkpt lat="48.54213" lon="2.19223">
        <ele>155</ele>
        <time>2022-08-09T12:11:58.239Z</time>
      </trkpt>
      <trkpt lat="48.54217" lon="2.19231">
        <ele>155</ele>
        <time>2022-08-09T12:12:03.209Z</time>
      </trkpt>
      <trkpt lat="48.54222" lon="2.19235">
        <ele>155</ele>
        <time>2022-08-09T12:12:08.257Z</time>
      </trkpt>
      <trkpt lat="48.54225" lon="2.19242">
        <ele>156</ele>
        <time>2022-08-09T12:12:13.230Z</time>
      </trkpt>
      <trkpt lat="48.54229" lon="2.19251">
        <ele>156</ele>
        <time>2022-08-09T12:12:18.218Z</time>
      </trkpt>
      <trkpt lat="48.54234" lon="2.19263">
        <ele>156</ele>
        <time>2022-08-09T12:12:23.217Z</time>
      </trkpt>
      <trkpt lat="48.54237" lon="2.19274">
        <ele>156</ele>
        <time>2022-08-09T12:12:28.220Z</time>
      </trkpt>
      <trkpt lat="48.5424" lon="2.19283">
        <ele>156</ele>
        <time>2022-08-09T12:12:33.215Z</time>
      </trkpt>
      <trkpt lat="48.54243" lon="2.19287">
        <ele>156</ele>
        <time>2022-08-09T12:12:37.208Z</time>
      </trkpt>
      <trkpt lat="48.54246" lon="2.19293">
        <ele>155</ele>
        <time>2022-08-09T12:12:41.222Z</time>
      </trkpt>
      <trkpt lat="48.54249" lon="2.193">
        <ele>155</ele>
        <time>2022-08-09T12:12:46.207Z</time>
      </trkpt>
      <trkpt lat="48.54251" lon="2.19308">
        <ele>155</ele>
        <time>2022-08-09T12:12:51.228Z</time>
      </trkpt>
      <trkpt lat="48.54253" lon="2.19315">
        <ele>155</ele>
        <time>2022-08-09T12:12:55.215Z</time>
      </trkpt>
      <trkpt lat="48.54256" lon="2.19322">
        <ele>155</ele>
        <time>2022-08-09T12:12:59.231Z</time>
      </trkpt>
      <trkpt lat="48.54258" lon="2.19332">
        <ele>155</ele>
        <time>2022-08-09T12:13:04.213Z</time>
      </trkpt>
      <trkpt lat="48.5426" lon="2.1934">
        <ele>155</ele>
        <time>2022-08-09T12:13:08.221Z</time>
      </trkpt>
      <trkpt lat="48.54262" lon="2.19349">
        <ele>155</ele>
        <time>2022-08-09T12:13:12.222Z</time>
      </trkpt>
      <trkpt lat="48.54266" lon="2.19359">
        <ele>156</ele>
        <time>2022-08-09T12:13:17.214Z</time>
      </trkpt>
      <trkpt lat="48.54269" lon="2.1937">
        <ele>156</ele>
        <time>2022-08-09T12:13:22.219Z</time>
      </trkpt>
      <trkpt lat="48.54274" lon="2.1938">
        <ele>156</ele>
        <time>2022-08-09T12:13:26.227Z</time>
      </trkpt>
      <trkpt lat="48.54277" lon="2.19389">
        <ele>156</ele>
        <time>2022-08-09T12:13:30.216Z</time>
      </trkpt>
      <trkpt lat="48.54282" lon="2.19398">
        <ele>156</ele>
        <time>2022-08-09T12:13:35.230Z</time>
      </trkpt>
      <trkpt lat="48.54287" lon="2.19407">
        <ele>155</ele>
        <time>2022-08-09T12:13:40.201Z</time>
      </trkpt>
      <trkpt lat="48.5429" lon="2.19414">
        <ele>155</ele>
        <time>2022-08-09T12:13:44.218Z</time>
      </trkpt>
      <trkpt lat="48.54293" lon="2.1942">
        <ele>156</ele>
        <time>2022-08-09T12:13:48.234Z</time>
      </trkpt>
      <trkpt lat="48.54297" lon="2.19428">
        <ele>156</ele>
        <time>2022-08-09T12:13:53.224Z</time>
      </trkpt>
      <trkpt lat="48.54301" lon="2.19438">
        <ele>155</ele>
        <time>2022-08-09T12:13:58.219Z</time>
      </trkpt>
      <trkpt lat="48.54305" lon="2.19442">
        <ele>155</ele>
        <time>2022-08-09T12:14:02.223Z</time>
      </trkpt>
      <trkpt lat="48.5431" lon="2.19446">
        <ele>155</ele>
        <time>2022-08-09T12:14:07.217Z</time>
      </trkpt>
      <trkpt lat="48.54317" lon="2.19453">
        <ele>155</ele>
        <time>2022-08-09T12:14:12.217Z</time>
      </trkpt>
      <trkpt lat="48.54324" lon="2.1946">
        <ele>153</ele>
        <time>2022-08-09T12:14:17.219Z</time>
      </trkpt>
      <trkpt lat="48.5433" lon="2.19466">
        <ele>153</ele>
        <time>2022-08-09T12:14:22.230Z</time>
      </trkpt>
      <trkpt lat="48.54335" lon="2.1947">
        <ele>153</ele>
        <time>2022-08-09T12:14:27.219Z</time>
      </trkpt>
      <trkpt lat="48.5434" lon="2.19468">
        <ele>153</ele>
        <time>2022-08-09T12:14:32.219Z</time>
      </trkpt>
      <trkpt lat="48.54343" lon="2.19467">
        <ele>153</ele>
        <time>2022-08-09T12:14:36.213Z</time>
      </trkpt>
      <trkpt lat="48.54346" lon="2.19469">
        <ele>153</ele>
        <time>2022-08-09T12:14:41.233Z</time>
      </trkpt>
      <trkpt lat="48.54347" lon="2.19475">
        <ele>153</ele>
        <time>2022-08-09T12:14:46.205Z</time>
      </trkpt>
      <trkpt lat="48.54346" lon="2.19479">
        <ele>153</ele>
        <time>2022-08-09T12:14:50.230Z</time>
      </trkpt>
      <trkpt lat="48.54344" lon="2.19485">
        <ele>153</ele>
        <time>2022-08-09T12:14:55.227Z</time>
      </trkpt>
      <trkpt lat="48.5434" lon="2.19494">
        <ele>153</ele>
        <time>2022-08-09T12:15:00.206Z</time>
      </trkpt>
      <trkpt lat="48.54338" lon="2.19497">
        <ele>153</ele>
        <time>2022-08-09T12:15:04.222Z</time>
      </trkpt>
      <trkpt lat="48.54336" lon="2.19506">
        <ele>153</ele>
        <time>2022-08-09T12:15:09.216Z</time>
      </trkpt>
      <trkpt lat="48.54333" lon="2.19511">
        <ele>153</ele>
        <time>2022-08-09T12:15:13.211Z</time>
      </trkpt>
      <trkpt lat="48.54331" lon="2.19514">
        <ele>153</ele>
        <time>2022-08-09T12:15:17.214Z</time>
      </trkpt>
      <trkpt lat="48.54326" lon="2.19521">
        <ele>153</ele>
        <time>2022-08-09T12:15:22.221Z</time>
      </trkpt>
      <trkpt lat="48.54324" lon="2.19526">
        <ele>153</ele>
        <time>2022-08-09T12:15:26.227Z</time>
      </trkpt>
      <trkpt lat="48.5432" lon="2.19534">
        <ele>153</ele>
        <time>2022-08-09T12:15:31.215Z</time>
      </trkpt>
      <trkpt lat="48.54319" lon="2.19542">
        <ele>155</ele>
        <time>2022-08-09T12:15:35.227Z</time>
      </trkpt>
      <trkpt lat="48.54315" lon="2.19551">
        <ele>155</ele>
        <time>2022-08-09T12:15:40.227Z</time>
      </trkpt>
      <trkpt lat="48.54312" lon="2.19562">
        <ele>155</ele>
        <time>2022-08-09T12:15:45.201Z</time>
      </trkpt>
      <trkpt lat="48.54314" lon="2.1957">
        <ele>153</ele>
        <time>2022-08-09T12:15:49.214Z</time>
      </trkpt>
      <trkpt lat="48.54317" lon="2.19577">
        <ele>153</ele>
        <time>2022-08-09T12:15:54.227Z</time>
      </trkpt>
      <trkpt lat="48.54319" lon="2.19584">
        <ele>153</ele>
        <time>2022-08-09T12:15:58.223Z</time>
      </trkpt>
      <trkpt lat="48.5432" lon="2.1959">
        <ele>153</ele>
        <time>2022-08-09T12:16:02.228Z</time>
      </trkpt>
      <trkpt lat="48.54324" lon="2.19599">
        <ele>152</ele>
        <time>2022-08-09T12:16:07.211Z</time>
      </trkpt>
      <trkpt lat="48.54327" lon="2.19605">
        <ele>152</ele>
        <time>2022-08-09T12:16:11.232Z</time>
      </trkpt>
      <trkpt lat="48.54332" lon="2.19615">
        <ele>152</ele>
        <time>2022-08-09T12:16:16.211Z</time>
      </trkpt>
      <trkpt lat="48.54337" lon="2.19622">
        <ele>152</ele>
        <time>2022-08-09T12:16:20.226Z</time>
      </trkpt>
      <trkpt lat="48.54341" lon="2.19631">
        <ele>151</ele>
        <time>2022-08-09T12:16:25.222Z</time>
      </trkpt>
      <trkpt lat="48.54344" lon="2.19635">
        <ele>151</ele>
        <time>2022-08-09T12:16:29.224Z</time>
      </trkpt>
      <trkpt lat="48.54345" lon="2.19636">
        <ele>151</ele>
        <time>2022-08-09T12:16:33.225Z</time>
      </trkpt>
      <trkpt lat="48.54348" lon="2.19641">
        <ele>151</ele>
        <time>2022-08-09T12:16:38.211Z</time>
      </trkpt>
      <trkpt lat="48.5435" lon="2.19645">
        <ele>151</ele>
        <time>2022-08-09T12:16:42.228Z</time>
      </trkpt>
      <trkpt lat="48.54352" lon="2.1965">
        <ele>151</ele>
        <time>2022-08-09T12:16:47.222Z</time>
      </trkpt>
      <trkpt lat="48.54353" lon="2.19656">
        <ele>148</ele>
        <time>2022-08-09T12:16:52.223Z</time>
      </trkpt>
      <trkpt lat="48.54356" lon="2.19663">
        <ele>148</ele>
        <time>2022-08-09T12:16:56.243Z</time>
      </trkpt>
      <trkpt lat="48.54357" lon="2.19672">
        <ele>148</ele>
        <time>2022-08-09T12:17:01.208Z</time>
      </trkpt>
      <trkpt lat="48.54358" lon="2.19678">
        <ele>148</ele>
        <time>2022-08-09T12:17:05.234Z</time>
      </trkpt>
      <trkpt lat="48.54359" lon="2.19685">
        <ele>147</ele>
        <time>2022-08-09T12:17:10.223Z</time>
      </trkpt>
      <trkpt lat="48.54358" lon="2.19691">
        <ele>147</ele>
        <time>2022-08-09T12:17:14.226Z</time>
      </trkpt>
      <trkpt lat="48.54355" lon="2.19699">
        <ele>147</ele>
        <time>2022-08-09T12:17:19.206Z</time>
      </trkpt>
      <trkpt lat="48.54353" lon="2.19709">
        <ele>146</ele>
        <time>2022-08-09T12:17:24.223Z</time>
      </trkpt>
      <trkpt lat="48.54354" lon="2.19716">
        <ele>146</ele>
        <time>2022-08-09T12:17:29.210Z</time>
      </trkpt>
      <trkpt lat="48.54358" lon="2.19721">
        <ele>146</ele>
        <time>2022-08-09T12:17:34.244Z</time>
      </trkpt>
      <trkpt lat="48.54363" lon="2.19729">
        <ele>146</ele>
        <time>2022-08-09T12:17:39.213Z</time>
      </trkpt>
      <trkpt lat="48.54367" lon="2.19737">
        <ele>145</ele>
        <time>2022-08-09T12:17:43.211Z</time>
      </trkpt>
      <trkpt lat="48.54372" lon="2.19746">
        <ele>145</ele>
        <time>2022-08-09T12:17:48.217Z</time>
      </trkpt>
      <trkpt lat="48.54376" lon="2.19754">
        <ele>143</ele>
        <time>2022-08-09T12:17:53.214Z</time>
      </trkpt>
      <trkpt lat="48.54379" lon="2.19761">
        <ele>143</ele>
        <time>2022-08-09T12:17:57.207Z</time>
      </trkpt>
      <trkpt lat="48.54382" lon="2.1977">
        <ele>142</ele>
        <time>2022-08-09T12:18:02.202Z</time>
      </trkpt>
      <trkpt lat="48.54387" lon="2.19776">
        <ele>142</ele>
        <time>2022-08-09T12:18:06.214Z</time>
      </trkpt>
      <trkpt lat="48.54392" lon="2.19783">
        <ele>142</ele>
        <time>2022-08-09T12:18:10.220Z</time>
      </trkpt>
      <trkpt lat="48.54396" lon="2.19789">
        <ele>142</ele>
        <time>2022-08-09T12:18:15.225Z</time>
      </trkpt>
      <trkpt lat="48.54402" lon="2.19796">
        <ele>142</ele>
        <time>2022-08-09T12:18:20.221Z</time>
      </trkpt>
      <trkpt lat="48.54408" lon="2.19805">
        <ele>136</ele>
        <time>2022-08-09T12:18:25.218Z</time>
      </trkpt>
      <trkpt lat="48.54412" lon="2.19811">
        <ele>136</ele>
        <time>2022-08-09T12:18:29.222Z</time>
      </trkpt>
      <trkpt lat="48.54415" lon="2.19818">
        <ele>136</ele>
        <time>2022-08-09T12:18:34.218Z</time>
      </trkpt>
      <trkpt lat="48.54419" lon="2.19828">
        <ele>136</ele>
        <time>2022-08-09T12:18:39.213Z</time>
      </trkpt>
      <trkpt lat="48.54424" lon="2.19833">
        <ele>136</ele>
        <time>2022-08-09T12:18:43.219Z</time>
      </trkpt>
      <trkpt lat="48.54429" lon="2.19838">
        <ele>136</ele>
        <time>2022-08-09T12:18:47.205Z</time>
      </trkpt>
      <trkpt lat="48.54436" lon="2.19846">
        <ele>131</ele>
        <time>2022-08-09T12:18:52.235Z</time>
      </trkpt>
      <trkpt lat="48.54441" lon="2.19852">
        <ele>131</ele>
        <time>2022-08-09T12:18:57.209Z</time>
      </trkpt>
      <trkpt lat="48.54451" lon="2.19855">
        <ele>131</ele>
        <time>2022-08-09T12:20:01.207Z</time>
      </trkpt>
      <trkpt lat="48.54452" lon="2.19858">
        <ele>131</ele>
        <time>2022-08-09T12:20:06.215Z</time>
      </trkpt>
      <trkpt lat="48.54454" lon="2.19859">
        <ele>131</ele>
        <time>2022-08-09T12:20:11.209Z</time>
      </trkpt>
      <trkpt lat="48.54455" lon="2.19859">
        <ele>131</ele>
        <time>2022-08-09T12:20:15.212Z</time>
      </trkpt>
      <trkpt lat="48.54457" lon="2.19862">
        <ele>131</ele>
        <time>2022-08-09T12:20:19.220Z</time>
      </trkpt>
      <trkpt lat="48.54461" lon="2.19865">
        <ele>126</ele>
        <time>2022-08-09T12:20:33.220Z</time>
      </trkpt>
      <trkpt lat="48.54463" lon="2.19864">
        <ele>126</ele>
        <time>2022-08-09T12:20:38.194Z</time>
      </trkpt>
      <trkpt lat="48.54465" lon="2.19867">
        <ele>126</ele>
        <time>2022-08-09T12:20:42.209Z</time>
      </trkpt>
      <trkpt lat="48.54471" lon="2.19873">
        <ele>126</ele>
        <time>2022-08-09T12:20:46.214Z</time>
      </trkpt>
      <trkpt lat="48.54476" lon="2.19881">
        <ele>125</ele>
        <time>2022-08-09T12:20:50.218Z</time>
      </trkpt>
      <trkpt lat="48.54477" lon="2.19886">
        <ele>125</ele>
        <time>2022-08-09T12:20:54.228Z</time>
      </trkpt>
      <trkpt lat="48.54483" lon="2.1989">
        <ele>125</ele>
        <time>2022-08-09T12:20:59.194Z</time>
      </trkpt>
      <trkpt lat="48.54486" lon="2.19895">
        <ele>125</ele>
        <time>2022-08-09T12:21:03.197Z</time>
      </trkpt>
      <trkpt lat="48.54491" lon="2.19899">
        <ele>123</ele>
        <time>2022-08-09T12:21:08.204Z</time>
      </trkpt>
      <trkpt lat="48.54497" lon="2.19904">
        <ele>123</ele>
        <time>2022-08-09T12:21:13.202Z</time>
      </trkpt>
      <trkpt lat="48.545" lon="2.19908">
        <ele>123</ele>
        <time>2022-08-09T12:21:17.198Z</time>
      </trkpt>
      <trkpt lat="48.54503" lon="2.19912">
        <ele>123</ele>
        <time>2022-08-09T12:21:22.209Z</time>
      </trkpt>
      <trkpt lat="48.54507" lon="2.19916">
        <ele>123</ele>
        <time>2022-08-09T12:21:26.202Z</time>
      </trkpt>
      <trkpt lat="48.54514" lon="2.19921">
        <ele>120</ele>
        <time>2022-08-09T12:21:31.195Z</time>
      </trkpt>
      <trkpt lat="48.5452" lon="2.19929">
        <ele>120</ele>
        <time>2022-08-09T12:21:36.205Z</time>
      </trkpt>
      <trkpt lat="48.54528" lon="2.19933">
        <ele>119</ele>
        <time>2022-08-09T12:21:41.187Z</time>
      </trkpt>
      <trkpt lat="48.54532" lon="2.19938">
        <ele>119</ele>
        <time>2022-08-09T12:21:45.221Z</time>
      </trkpt>
      <trkpt lat="48.54537" lon="2.19947">
        <ele>119</ele>
        <time>2022-08-09T12:21:50.225Z</time>
      </trkpt>
      <trkpt lat="48.54542" lon="2.19952">
        <ele>119</ele>
        <time>2022-08-09T12:21:54.213Z</time>
      </trkpt>
      <trkpt lat="48.54546" lon="2.1996">
        <ele>115</ele>
        <time>2022-08-09T12:21:59.210Z</time>
      </trkpt>
      <trkpt lat="48.54552" lon="2.19968">
        <ele>115</ele>
        <time>2022-08-09T12:22:04.209Z</time>
      </trkpt>
      <trkpt lat="48.5456" lon="2.19972">
        <ele>115</ele>
        <time>2022-08-09T12:22:09.210Z</time>
      </trkpt>
      <trkpt lat="48.54567" lon="2.19977">
        <ele>115</ele>
        <time>2022-08-09T12:22:14.209Z</time>
      </trkpt>
      <trkpt lat="48.54571" lon="2.19982">
        <ele>114</ele>
        <time>2022-08-09T12:22:18.223Z</time>
      </trkpt>
      <trkpt lat="48.54577" lon="2.19987">
        <ele>109</ele>
        <time>2022-08-09T12:22:23.211Z</time>
      </trkpt>
      <trkpt lat="48.54582" lon="2.19994">
        <ele>109</ele>
        <time>2022-08-09T12:22:27.221Z</time>
      </trkpt>
      <trkpt lat="48.54588" lon="2.2">
        <ele>109</ele>
        <time>2022-08-09T12:22:32.212Z</time>
      </trkpt>
      <trkpt lat="48.54594" lon="2.20006">
        <ele>109</ele>
        <time>2022-08-09T12:22:37.224Z</time>
      </trkpt>
      <trkpt lat="48.546" lon="2.2001">
        <ele>111</ele>
        <time>2022-08-09T12:22:42.214Z</time>
      </trkpt>
      <trkpt lat="48.54605" lon="2.20012">
        <ele>111</ele>
        <time>2022-08-09T12:22:46.221Z</time>
      </trkpt>
      <trkpt lat="48.54611" lon="2.20016">
        <ele>108</ele>
        <time>2022-08-09T12:22:51.225Z</time>
      </trkpt>
      <trkpt lat="48.54618" lon="2.20023">
        <ele>108</ele>
        <time>2022-08-09T12:22:55.216Z</time>
      </trkpt>
      <trkpt lat="48.54625" lon="2.20033">
        <ele>108</ele>
        <time>2022-08-09T12:23:00.213Z</time>
      </trkpt>
      <trkpt lat="48.54631" lon="2.2004">
        <ele>110</ele>
        <time>2022-08-09T12:23:05.212Z</time>
      </trkpt>
      <trkpt lat="48.54637" lon="2.20045">
        <ele>108</ele>
        <time>2022-08-09T12:23:10.218Z</time>
      </trkpt>
      <trkpt lat="48.54642" lon="2.2005">
        <ele>108</ele>
        <time>2022-08-09T12:23:14.226Z</time>
      </trkpt>
      <trkpt lat="48.54647" lon="2.20053">
        <ele>108</ele>
        <time>2022-08-09T12:23:19.205Z</time>
      </trkpt>
      <trkpt lat="48.54652" lon="2.20055">
        <ele>108</ele>
        <time>2022-08-09T12:23:23.215Z</time>
      </trkpt>
      <trkpt lat="48.54658" lon="2.20061">
        <ele>110</ele>
        <time>2022-08-09T12:23:28.201Z</time>
      </trkpt>
      <trkpt lat="48.54662" lon="2.20068">
        <ele>110</ele>
        <time>2022-08-09T12:23:32.213Z</time>
      </trkpt>
      <trkpt lat="48.54668" lon="2.20076">
        <ele>107</ele>
        <time>2022-08-09T12:23:37.232Z</time>
      </trkpt>
      <trkpt lat="48.54673" lon="2.20081">
        <ele>107</ele>
        <time>2022-08-09T12:23:41.211Z</time>
      </trkpt>
      <trkpt lat="48.54679" lon="2.20087">
        <ele>107</ele>
        <time>2022-08-09T12:23:46.217Z</time>
      </trkpt>
      <trkpt lat="48.54686" lon="2.20092">
        <ele>106</ele>
        <time>2022-08-09T12:23:51.220Z</time>
      </trkpt>
      <trkpt lat="48.54693" lon="2.20096">
        <ele>106</ele>
        <time>2022-08-09T12:23:56.215Z</time>
      </trkpt>
      <trkpt lat="48.54699" lon="2.20101">
        <ele>105</ele>
        <time>2022-08-09T12:24:00.218Z</time>
      </trkpt>
      <trkpt lat="48.54704" lon="2.20103">
        <ele>105</ele>
        <time>2022-08-09T12:24:04.215Z</time>
      </trkpt>
      <trkpt lat="48.5471" lon="2.20108">
        <ele>105</ele>
        <time>2022-08-09T12:24:08.221Z</time>
      </trkpt>
      <trkpt lat="48.54716" lon="2.20113">
        <ele>105</ele>
        <time>2022-08-09T12:24:13.212Z</time>
      </trkpt>
      <trkpt lat="48.54722" lon="2.20118">
        <ele>105</ele>
        <time>2022-08-09T12:24:18.213Z</time>
      </trkpt>
      <trkpt lat="48.54728" lon="2.20123">
        <ele>105</ele>
        <time>2022-08-09T12:24:22.246Z</time>
      </trkpt>
      <trkpt lat="48.54735" lon="2.20129">
        <ele>105</ele>
        <time>2022-08-09T12:24:27.221Z</time>
      </trkpt>
      <trkpt lat="48.54742" lon="2.20134">
        <ele>106</ele>
        <time>2022-08-09T12:24:32.201Z</time>
      </trkpt>
      <trkpt lat="48.54746" lon="2.20139">
        <ele>106</ele>
        <time>2022-08-09T12:24:36.243Z</time>
      </trkpt>
      <trkpt lat="48.54752" lon="2.20143">
        <ele>106</ele>
        <time>2022-08-09T12:24:41.223Z</time>
      </trkpt>
      <trkpt lat="48.54758" lon="2.20146">
        <ele>106</ele>
        <time>2022-08-09T12:24:45.237Z</time>
      </trkpt>
      <trkpt lat="48.54764" lon="2.2015">
        <ele>106</ele>
        <time>2022-08-09T12:24:49.223Z</time>
      </trkpt>
      <trkpt lat="48.5477" lon="2.20154">
        <ele>106</ele>
        <time>2022-08-09T12:24:54.219Z</time>
      </trkpt>
      <trkpt lat="48.54774" lon="2.20158">
        <ele>106</ele>
        <time>2022-08-09T12:24:58.227Z</time>
      </trkpt>
      <trkpt lat="48.54781" lon="2.20162">
        <ele>106</ele>
        <time>2022-08-09T12:25:03.223Z</time>
      </trkpt>
      <trkpt lat="48.54786" lon="2.20166">
        <ele>106</ele>
        <time>2022-08-09T12:25:07.219Z</time>
      </trkpt>
      <trkpt lat="48.54789" lon="2.20172">
        <ele>106</ele>
        <time>2022-08-09T12:25:11.217Z</time>
      </trkpt>
      <trkpt lat="48.54789" lon="2.20181">
        <ele>105</ele>
        <time>2022-08-09T12:25:16.217Z</time>
      </trkpt>
      <trkpt lat="48.54784" lon="2.20185">
        <ele>105</ele>
        <time>2022-08-09T12:25:20.214Z</time>
      </trkpt>
      <trkpt lat="48.54779" lon="2.2019">
        <ele>105</ele>
        <time>2022-08-09T12:25:25.213Z</time>
      </trkpt>
      <trkpt lat="48.54774" lon="2.20197">
        <ele>105</ele>
        <time>2022-08-09T12:25:30.219Z</time>
      </trkpt>
      <trkpt lat="48.54771" lon="2.20203">
        <ele>105</ele>
        <time>2022-08-09T12:25:35.224Z</time>
      </trkpt>
      <trkpt lat="48.54767" lon="2.20207">
        <ele>105</ele>
        <time>2022-08-09T12:25:39.210Z</time>
      </trkpt>
      <trkpt lat="48.54761" lon="2.20213">
        <ele>105</ele>
        <time>2022-08-09T12:25:44.214Z</time>
      </trkpt>
      <trkpt lat="48.54755" lon="2.20219">
        <ele>105</ele>
        <time>2022-08-09T12:25:48.214Z</time>
      </trkpt>
      <trkpt lat="48.5475" lon="2.20223">
        <ele>105</ele>
        <time>2022-08-09T12:25:52.219Z</time>
      </trkpt>
      <trkpt lat="48.54745" lon="2.20229">
        <ele>105</ele>
        <time>2022-08-09T12:25:56.234Z</time>
      </trkpt>
      <trkpt lat="48.5474" lon="2.20233">
        <ele>105</ele>
        <time>2022-08-09T12:26:01.229Z</time>
      </trkpt>
      <trkpt lat="48.54735" lon="2.20238">
        <ele>105</ele>
        <time>2022-08-09T12:26:06.222Z</time>
      </trkpt>
      <trkpt lat="48.5473" lon="2.20243">
        <ele>105</ele>
        <time>2022-08-09T12:26:11.211Z</time>
      </trkpt>
      <trkpt lat="48.54725" lon="2.20247">
        <ele>105</ele>
        <time>2022-08-09T12:26:16.224Z</time>
      </trkpt>
      <trkpt lat="48.5472" lon="2.20254">
        <ele>105</ele>
        <time>2022-08-09T12:26:21.207Z</time>
      </trkpt>
      <trkpt lat="48.54714" lon="2.20263">
        <ele>105</ele>
        <time>2022-08-09T12:26:25.218Z</time>
      </trkpt>
      <trkpt lat="48.54709" lon="2.2027">
        <ele>105</ele>
        <time>2022-08-09T12:26:30.221Z</time>
      </trkpt>
      <trkpt lat="48.54705" lon="2.20275">
        <ele>105</ele>
        <time>2022-08-09T12:26:34.231Z</time>
      </trkpt>
      <trkpt lat="48.547" lon="2.20283">
        <ele>105</ele>
        <time>2022-08-09T12:26:39.219Z</time>
      </trkpt>
      <trkpt lat="48.54695" lon="2.20289">
        <ele>105</ele>
        <time>2022-08-09T12:26:43.227Z</time>
      </trkpt>
      <trkpt lat="48.5469" lon="2.20296">
        <ele>105</ele>
        <time>2022-08-09T12:26:48.227Z</time>
      </trkpt>
      <trkpt lat="48.54686" lon="2.20307">
        <ele>105</ele>
        <time>2022-08-09T12:26:53.221Z</time>
      </trkpt>
      <trkpt lat="48.54682" lon="2.20315">
        <ele>105</ele>
        <time>2022-08-09T12:26:58.215Z</time>
      </trkpt>
      <trkpt lat="48.54679" lon="2.20323">
        <ele>106</ele>
        <time>2022-08-09T12:27:03.205Z</time>
      </trkpt>
      <trkpt lat="48.54677" lon="2.20333">
        <ele>106</ele>
        <time>2022-08-09T12:27:08.214Z</time>
      </trkpt>
      <trkpt lat="48.54675" lon="2.20339">
        <ele>106</ele>
        <time>2022-08-09T12:27:12.219Z</time>
      </trkpt>
      <trkpt lat="48.54672" lon="2.20348">
        <ele>106</ele>
        <time>2022-08-09T12:27:16.229Z</time>
      </trkpt>
      <trkpt lat="48.5467" lon="2.20356">
        <ele>106</ele>
        <time>2022-08-09T12:27:20.224Z</time>
      </trkpt>
      <trkpt lat="48.54667" lon="2.20364">
        <ele>106</ele>
        <time>2022-08-09T12:27:25.210Z</time>
      </trkpt>
      <trkpt lat="48.54663" lon="2.20375">
        <ele>105</ele>
        <time>2022-08-09T12:27:30.227Z</time>
      </trkpt>
      <trkpt lat="48.5466" lon="2.20384">
        <ele>105</ele>
        <time>2022-08-09T12:27:34.227Z</time>
      </trkpt>
      <trkpt lat="48.54655" lon="2.20394">
        <ele>105</ele>
        <time>2022-08-09T12:27:39.221Z</time>
      </trkpt>
      <trkpt lat="48.54651" lon="2.20402">
        <ele>107</ele>
        <time>2022-08-09T12:27:44.222Z</time>
      </trkpt>
      <trkpt lat="48.54648" lon="2.20408">
        <ele>107</ele>
        <time>2022-08-09T12:27:48.232Z</time>
      </trkpt>
      <trkpt lat="48.54644" lon="2.20416">
        <ele>107</ele>
        <time>2022-08-09T12:27:53.225Z</time>
      </trkpt>
      <trkpt lat="48.5464" lon="2.20424">
        <ele>107</ele>
        <time>2022-08-09T12:27:58.227Z</time>
      </trkpt>
      <trkpt lat="48.54634" lon="2.2043">
        <ele>107</ele>
        <time>2022-08-09T12:28:03.217Z</time>
      </trkpt>
      <trkpt lat="48.54629" lon="2.20437">
        <ele>106</ele>
        <time>2022-08-09T12:28:08.228Z</time>
      </trkpt>
      <trkpt lat="48.54625" lon="2.20445">
        <ele>106</ele>
        <time>2022-08-09T12:28:13.213Z</time>
      </trkpt>
      <trkpt lat="48.54619" lon="2.2045">
        <ele>107</ele>
        <time>2022-08-09T12:28:17.212Z</time>
      </trkpt>
      <trkpt lat="48.54613" lon="2.20458">
        <ele>107</ele>
        <time>2022-08-09T12:28:22.222Z</time>
      </trkpt>
      <trkpt lat="48.54609" lon="2.20464">
        <ele>107</ele>
        <time>2022-08-09T12:28:26.224Z</time>
      </trkpt>
      <trkpt lat="48.54604" lon="2.20472">
        <ele>107</ele>
        <time>2022-08-09T12:28:31.200Z</time>
      </trkpt>
      <trkpt lat="48.54601" lon="2.20477">
        <ele>107</ele>
        <time>2022-08-09T12:28:35.220Z</time>
      </trkpt>
      <trkpt lat="48.54597" lon="2.20484">
        <ele>107</ele>
        <time>2022-08-09T12:28:40.236Z</time>
      </trkpt>
      <trkpt lat="48.54594" lon="2.20492">
        <ele>106</ele>
        <time>2022-08-09T12:28:44.234Z</time>
      </trkpt>
      <trkpt lat="48.54588" lon="2.20501">
        <ele>106</ele>
        <time>2022-08-09T12:28:49.207Z</time>
      </trkpt>
      <trkpt lat="48.54584" lon="2.20508">
        <ele>106</ele>
        <time>2022-08-09T12:28:53.222Z</time>
      </trkpt>
      <trkpt lat="48.5458" lon="2.20517">
        <ele>105</ele>
        <time>2022-08-09T12:28:58.220Z</time>
      </trkpt>
      <trkpt lat="48.54573" lon="2.20525">
        <ele>105</ele>
        <time>2022-08-09T12:29:03.222Z</time>
      </trkpt>
      <trkpt lat="48.54566" lon="2.20532">
        <ele>105</ele>
        <time>2022-08-09T12:29:08.211Z</time>
      </trkpt>
      <trkpt lat="48.54563" lon="2.20537">
        <ele>105</ele>
        <time>2022-08-09T12:29:12.212Z</time>
      </trkpt>
      <trkpt lat="48.54559" lon="2.20545">
        <ele>103</ele>
        <time>2022-08-09T12:29:17.230Z</time>
      </trkpt>
      <trkpt lat="48.54554" lon="2.20555">
        <ele>103</ele>
        <time>2022-08-09T12:29:22.214Z</time>
      </trkpt>
      <trkpt lat="48.54549" lon="2.20562">
        <ele>103</ele>
        <time>2022-08-09T12:29:27.221Z</time>
      </trkpt>
      <trkpt lat="48.54544" lon="2.20569">
        <ele>103</ele>
        <time>2022-08-09T12:29:32.219Z</time>
      </trkpt>
      <trkpt lat="48.5454" lon="2.20578">
        <ele>101</ele>
        <time>2022-08-09T12:29:36.229Z</time>
      </trkpt>
      <trkpt lat="48.54534" lon="2.20586">
        <ele>101</ele>
        <time>2022-08-09T12:29:41.218Z</time>
      </trkpt>
      <trkpt lat="48.54528" lon="2.20595">
        <ele>101</ele>
        <time>2022-08-09T12:29:46.214Z</time>
      </trkpt>
      <trkpt lat="48.54522" lon="2.20604">
        <ele>99</ele>
        <time>2022-08-09T12:29:50.224Z</time>
      </trkpt>
      <trkpt lat="48.54517" lon="2.20611">
        <ele>99</ele>
        <time>2022-08-09T12:29:54.218Z</time>
      </trkpt>
      <trkpt lat="48.5451" lon="2.20621">
        <ele>99</ele>
        <time>2022-08-09T12:29:59.210Z</time>
      </trkpt>
      <trkpt lat="48.54505" lon="2.20628">
        <ele>98</ele>
        <time>2022-08-09T12:30:03.208Z</time>
      </trkpt>
      <trkpt lat="48.54503" lon="2.20634">
        <ele>98</ele>
        <time>2022-08-09T12:30:07.232Z</time>
      </trkpt>
      <trkpt lat="48.54497" lon="2.20642">
        <ele>98</ele>
        <time>2022-08-09T12:30:12.229Z</time>
      </trkpt>
      <trkpt lat="48.54493" lon="2.2065">
        <ele>98</ele>
        <time>2022-08-09T12:30:17.209Z</time>
      </trkpt>
      <trkpt lat="48.54487" lon="2.20658">
        <ele>98</ele>
        <time>2022-08-09T12:30:22.222Z</time>
      </trkpt>
      <trkpt lat="48.54483" lon="2.20665">
        <ele>98</ele>
        <time>2022-08-09T12:30:26.218Z</time>
      </trkpt>
      <trkpt lat="48.54478" lon="2.20673">
        <ele>98</ele>
        <time>2022-08-09T12:30:31.240Z</time>
      </trkpt>
      <trkpt lat="48.54473" lon="2.2068">
        <ele>98</ele>
        <time>2022-08-09T12:30:36.215Z</time>
      </trkpt>
      <trkpt lat="48.54469" lon="2.20686">
        <ele>98</ele>
        <time>2022-08-09T12:30:40.224Z</time>
      </trkpt>
      <trkpt lat="48.54463" lon="2.20694">
        <ele>98</ele>
        <time>2022-08-09T12:30:45.225Z</time>
      </trkpt>
      <trkpt lat="48.54457" lon="2.20704">
        <ele>99</ele>
        <time>2022-08-09T12:30:50.222Z</time>
      </trkpt>
      <trkpt lat="48.54451" lon="2.20712">
        <ele>99</ele>
        <time>2022-08-09T12:30:55.216Z</time>
      </trkpt>
      <trkpt lat="48.54445" lon="2.2072">
        <ele>99</ele>
        <time>2022-08-09T12:31:00.222Z</time>
      </trkpt>
      <trkpt lat="48.54439" lon="2.20726">
        <ele>99</ele>
        <time>2022-08-09T12:31:05.233Z</time>
      </trkpt>
      <trkpt lat="48.54434" lon="2.20732">
        <ele>99</ele>
        <time>2022-08-09T12:31:10.230Z</time>
      </trkpt>
      <trkpt lat="48.5443" lon="2.20741">
        <ele>99</ele>
        <time>2022-08-09T12:31:14.220Z</time>
      </trkpt>
      <trkpt lat="48.54429" lon="2.20751">
        <ele>99</ele>
        <time>2022-08-09T12:31:18.218Z</time>
      </trkpt>
      <trkpt lat="48.54431" lon="2.20762">
        <ele>99</ele>
        <time>2022-08-09T12:31:23.208Z</time>
      </trkpt>
      <trkpt lat="48.54436" lon="2.20767">
        <ele>99</ele>
        <time>2022-08-09T12:31:27.208Z</time>
      </trkpt>
      <trkpt lat="48.5444" lon="2.20772">
        <ele>99</ele>
        <time>2022-08-09T12:31:31.228Z</time>
      </trkpt>
      <trkpt lat="48.54446" lon="2.20777">
        <ele>99</ele>
        <time>2022-08-09T12:31:36.218Z</time>
      </trkpt>
      <trkpt lat="48.54452" lon="2.20783">
        <ele>99</ele>
        <time>2022-08-09T12:31:40.230Z</time>
      </trkpt>
      <trkpt lat="48.54458" lon="2.20791">
        <ele>99</ele>
        <time>2022-08-09T12:31:45.201Z</time>
      </trkpt>
      <trkpt lat="48.54464" lon="2.20795">
        <ele>98</ele>
        <time>2022-08-09T12:31:49.227Z</time>
      </trkpt>
      <trkpt lat="48.54469" lon="2.20797">
        <ele>98</ele>
        <time>2022-08-09T12:31:53.216Z</time>
      </trkpt>
      <trkpt lat="48.54475" lon="2.20801">
        <ele>98</ele>
        <time>2022-08-09T12:31:58.237Z</time>
      </trkpt>
      <trkpt lat="48.54481" lon="2.20806">
        <ele>98</ele>
        <time>2022-08-09T12:32:03.239Z</time>
      </trkpt>
      <trkpt lat="48.54488" lon="2.20809">
        <ele>98</ele>
        <time>2022-08-09T12:32:08.216Z</time>
      </trkpt>
      <trkpt lat="48.54494" lon="2.20801">
        <ele>98</ele>
        <time>2022-08-09T12:32:13.220Z</time>
      </trkpt>
      <trkpt lat="48.54494" lon="2.20795">
        <ele>98</ele>
        <time>2022-08-09T12:33:16.209Z</time>
      </trkpt>
      <trkpt lat="48.54491" lon="2.20803">
        <ele>98</ele>
        <time>2022-08-09T12:33:20.223Z</time>
      </trkpt>
      <trkpt lat="48.54489" lon="2.20811">
        <ele>98</ele>
        <time>2022-08-09T12:33:24.213Z</time>
      </trkpt>
      <trkpt lat="48.54497" lon="2.20819">
        <ele>98</ele>
        <time>2022-08-09T12:33:29.219Z</time>
      </trkpt>
      <trkpt lat="48.54503" lon="2.20822">
        <ele>96</ele>
        <time>2022-08-09T12:33:33.223Z</time>
      </trkpt>
      <trkpt lat="48.5451" lon="2.20831">
        <ele>96</ele>
        <time>2022-08-09T12:33:38.215Z</time>
      </trkpt>
      <trkpt lat="48.54516" lon="2.20836">
        <ele>100</ele>
        <time>2022-08-09T12:33:42.225Z</time>
      </trkpt>
      <trkpt lat="48.54523" lon="2.20842">
        <ele>100</ele>
        <time>2022-08-09T12:33:47.219Z</time>
      </trkpt>
      <trkpt lat="48.54528" lon="2.20846">
        <ele>100</ele>
        <time>2022-08-09T12:33:51.214Z</time>
      </trkpt>
      <trkpt lat="48.54535" lon="2.20854">
        <ele>98</ele>
        <time>2022-08-09T12:33:56.222Z</time>
      </trkpt>
      <trkpt lat="48.54541" lon="2.20857">
        <ele>98</ele>
        <time>2022-08-09T12:34:00.226Z</time>
      </trkpt>
      <trkpt lat="48.54548" lon="2.20862">
        <ele>100</ele>
        <time>2022-08-09T12:34:05.220Z</time>
      </trkpt>
      <trkpt lat="48.54553" lon="2.20866">
        <ele>100</ele>
        <time>2022-08-09T12:34:09.234Z</time>
      </trkpt>
      <trkpt lat="48.5456" lon="2.20871">
        <ele>100</ele>
        <time>2022-08-09T12:34:14.220Z</time>
      </trkpt>
      <trkpt lat="48.54567" lon="2.20876">
        <ele>98</ele>
        <time>2022-08-09T12:34:19.210Z</time>
      </trkpt>
      <trkpt lat="48.54572" lon="2.2088">
        <ele>98</ele>
        <time>2022-08-09T12:34:23.220Z</time>
      </trkpt>
      <trkpt lat="48.54577" lon="2.20885">
        <ele>98</ele>
        <time>2022-08-09T12:34:27.210Z</time>
      </trkpt>
      <trkpt lat="48.54583" lon="2.2089">
        <ele>98</ele>
        <time>2022-08-09T12:34:31.205Z</time>
      </trkpt>
      <trkpt lat="48.5459" lon="2.20895">
        <ele>98</ele>
        <time>2022-08-09T12:34:36.212Z</time>
      </trkpt>
      <trkpt lat="48.54595" lon="2.20899">
        <ele>98</ele>
        <time>2022-08-09T12:34:40.218Z</time>
      </trkpt>
      <trkpt lat="48.54599" lon="2.20902">
        <ele>98</ele>
        <time>2022-08-09T12:34:44.222Z</time>
      </trkpt>
      <trkpt lat="48.54604" lon="2.20906">
        <ele>97</ele>
        <time>2022-08-09T12:35:12.221Z</time>
      </trkpt>
      <trkpt lat="48.54605" lon="2.20905">
        <ele>97</ele>
        <time>2022-08-09T12:35:16.216Z</time>
      </trkpt>
      <trkpt lat="48.54607" lon="2.20904">
        <ele>97</ele>
        <time>2022-08-09T12:35:21.215Z</time>
      </trkpt>
      <trkpt lat="48.54611" lon="2.20909">
        <ele>97</ele>
        <time>2022-08-09T12:35:26.218Z</time>
      </trkpt>
      <trkpt lat="48.54615" lon="2.20913">
        <ele>97</ele>
        <time>2022-08-09T12:35:31.210Z</time>
      </trkpt>
      <trkpt lat="48.54622" lon="2.20918">
        <ele>97</ele>
        <time>2022-08-09T12:35:36.213Z</time>
      </trkpt>
      <trkpt lat="48.54627" lon="2.20922">
        <ele>98</ele>
        <time>2022-08-09T12:35:40.207Z</time>
      </trkpt>
      <trkpt lat="48.54632" lon="2.20926">
        <ele>98</ele>
        <time>2022-08-09T12:35:44.222Z</time>
      </trkpt>
      <trkpt lat="48.54638" lon="2.2093">
        <ele>98</ele>
        <time>2022-08-09T12:35:49.211Z</time>
      </trkpt>
      <trkpt lat="48.54645" lon="2.20935">
        <ele>96</ele>
        <time>2022-08-09T12:35:54.223Z</time>
      </trkpt>
      <trkpt lat="48.54651" lon="2.20941">
        <ele>96</ele>
        <time>2022-08-09T12:35:59.214Z</time>
      </trkpt>
      <trkpt lat="48.54657" lon="2.20946">
        <ele>97</ele>
        <time>2022-08-09T12:36:03.217Z</time>
      </trkpt>
      <trkpt lat="48.54664" lon="2.20951">
        <ele>97</ele>
        <time>2022-08-09T12:36:08.218Z</time>
      </trkpt>
      <trkpt lat="48.54671" lon="2.20956">
        <ele>97</ele>
        <time>2022-08-09T12:36:13.214Z</time>
      </trkpt>
      <trkpt lat="48.54675" lon="2.20959">
        <ele>96</ele>
        <time>2022-08-09T12:36:17.219Z</time>
      </trkpt>
      <trkpt lat="48.54681" lon="2.20963">
        <ele>95</ele>
        <time>2022-08-09T12:36:22.204Z</time>
      </trkpt>
      <trkpt lat="48.54685" lon="2.20966">
        <ele>95</ele>
        <time>2022-08-09T12:36:26.213Z</time>
      </trkpt>
      <trkpt lat="48.54691" lon="2.20972">
        <ele>95</ele>
        <time>2022-08-09T12:36:31.205Z</time>
      </trkpt>
      <trkpt lat="48.54697" lon="2.20978">
        <ele>95</ele>
        <time>2022-08-09T12:36:35.211Z</time>
      </trkpt>
      <trkpt lat="48.54703" lon="2.20982">
        <ele>95</ele>
        <time>2022-08-09T12:36:40.217Z</time>
      </trkpt>
      <trkpt lat="48.54709" lon="2.20987">
        <ele>95</ele>
        <time>2022-08-09T12:36:45.221Z</time>
      </trkpt>
      <trkpt lat="48.54716" lon="2.20992">
        <ele>95</ele>
        <time>2022-08-09T12:36:50.213Z</time>
      </trkpt>
      <trkpt lat="48.54721" lon="2.20995">
        <ele>95</ele>
        <time>2022-08-09T12:36:54.214Z</time>
      </trkpt>
      <trkpt lat="48.54727" lon="2.21">
        <ele>95</ele>
        <time>2022-08-09T12:36:59.203Z</time>
      </trkpt>
      <trkpt lat="48.54734" lon="2.21006">
        <ele>95</ele>
        <time>2022-08-09T12:37:04.221Z</time>
      </trkpt>
      <trkpt lat="48.5474" lon="2.2101">
        <ele>95</ele>
        <time>2022-08-09T12:37:08.215Z</time>
      </trkpt>
      <trkpt lat="48.54748" lon="2.21017">
        <ele>95</ele>
        <time>2022-08-09T12:37:13.213Z</time>
      </trkpt>
      <trkpt lat="48.54754" lon="2.21023">
        <ele>95</ele>
        <time>2022-08-09T12:37:18.219Z</time>
      </trkpt>
      <trkpt lat="48.5476" lon="2.21027">
        <ele>95</ele>
        <time>2022-08-09T12:37:23.212Z</time>
      </trkpt>
      <trkpt lat="48.54767" lon="2.21032">
        <ele>94</ele>
        <time>2022-08-09T12:37:27.225Z</time>
      </trkpt>
      <trkpt lat="48.54774" lon="2.21036">
        <ele>94</ele>
        <time>2022-08-09T12:37:32.212Z</time>
      </trkpt>
      <trkpt lat="48.54781" lon="2.21041">
        <ele>94</ele>
        <time>2022-08-09T12:37:37.220Z</time>
      </trkpt>
      <trkpt lat="48.54789" lon="2.21047">
        <ele>93</ele>
        <time>2022-08-09T12:37:42.224Z</time>
      </trkpt>
      <trkpt lat="48.54796" lon="2.21051">
        <ele>93</ele>
        <time>2022-08-09T12:37:47.214Z</time>
      </trkpt>
      <trkpt lat="48.54801" lon="2.21054">
        <ele>93</ele>
        <time>2022-08-09T12:37:51.237Z</time>
      </trkpt>
      <trkpt lat="48.54807" lon="2.21057">
        <ele>93</ele>
        <time>2022-08-09T12:37:56.216Z</time>
      </trkpt>
      <trkpt lat="48.54811" lon="2.21061">
        <ele>93</ele>
        <time>2022-08-09T12:38:00.224Z</time>
      </trkpt>
      <trkpt lat="48.54816" lon="2.21065">
        <ele>93</ele>
        <time>2022-08-09T12:38:04.215Z</time>
      </trkpt>
      <trkpt lat="48.54822" lon="2.2107">
        <ele>94</ele>
        <time>2022-08-09T12:38:09.212Z</time>
      </trkpt>
      <trkpt lat="48.5483" lon="2.21075">
        <ele>94</ele>
        <time>2022-08-09T12:38:14.224Z</time>
      </trkpt>
      <trkpt lat="48.54837" lon="2.21081">
        <ele>94</ele>
        <time>2022-08-09T12:38:19.211Z</time>
      </trkpt>
      <trkpt lat="48.54842" lon="2.21086">
        <ele>94</ele>
        <time>2022-08-09T12:38:23.217Z</time>
      </trkpt>
      <trkpt lat="48.54848" lon="2.21092">
        <ele>94</ele>
        <time>2022-08-09T12:38:28.236Z</time>
      </trkpt>
      <trkpt lat="48.54855" lon="2.21096">
        <ele>94</ele>
        <time>2022-08-09T12:38:33.209Z</time>
      </trkpt>
      <trkpt lat="48.54862" lon="2.21102">
        <ele>94</ele>
        <time>2022-08-09T12:38:38.216Z</time>
      </trkpt>
      <trkpt lat="48.54868" lon="2.21106">
        <ele>94</ele>
        <time>2022-08-09T12:38:42.218Z</time>
      </trkpt>
      <trkpt lat="48.54873" lon="2.2111">
        <ele>94</ele>
        <time>2022-08-09T12:38:47.213Z</time>
      </trkpt>
      <trkpt lat="48.54872" lon="2.21117">
        <ele>94</ele>
        <time>2022-08-09T12:38:51.215Z</time>
      </trkpt>
      <trkpt lat="48.5487" lon="2.21128">
        <ele>93</ele>
        <time>2022-08-09T12:38:56.218Z</time>
      </trkpt>
      <trkpt lat="48.54867" lon="2.21138">
        <ele>93</ele>
        <time>2022-08-09T12:39:01.227Z</time>
      </trkpt>
      <trkpt lat="48.54864" lon="2.21148">
        <ele>93</ele>
        <time>2022-08-09T12:39:06.225Z</time>
      </trkpt>
      <trkpt lat="48.5486" lon="2.21156">
        <ele>93</ele>
        <time>2022-08-09T12:39:11.215Z</time>
      </trkpt>
      <trkpt lat="48.54856" lon="2.21166">
        <ele>93</ele>
        <time>2022-08-09T12:39:16.217Z</time>
      </trkpt>
      <trkpt lat="48.54853" lon="2.21174">
        <ele>93</ele>
        <time>2022-08-09T12:39:20.219Z</time>
      </trkpt>
      <trkpt lat="48.54849" lon="2.21185">
        <ele>92</ele>
        <time>2022-08-09T12:39:25.226Z</time>
      </trkpt>
      <trkpt lat="48.54846" lon="2.21193">
        <ele>93</ele>
        <time>2022-08-09T12:39:29.214Z</time>
      </trkpt>
      <trkpt lat="48.54842" lon="2.212">
        <ele>93</ele>
        <time>2022-08-09T12:39:33.213Z</time>
      </trkpt>
      <trkpt lat="48.54838" lon="2.21209">
        <ele>92</ele>
        <time>2022-08-09T12:39:38.223Z</time>
      </trkpt>
      <trkpt lat="48.54837" lon="2.21218">
        <ele>92</ele>
        <time>2022-08-09T12:39:43.214Z</time>
      </trkpt>
      <trkpt lat="48.54835" lon="2.21225">
        <ele>92</ele>
        <time>2022-08-09T12:39:47.220Z</time>
      </trkpt>
      <trkpt lat="48.54832" lon="2.21235">
        <ele>92</ele>
        <time>2022-08-09T12:39:52.216Z</time>
      </trkpt>
      <trkpt lat="48.54829" lon="2.21244">
        <ele>92</ele>
        <time>2022-08-09T12:39:56.225Z</time>
      </trkpt>
      <trkpt lat="48.54827" lon="2.21252">
        <ele>92</ele>
        <time>2022-08-09T12:40:00.226Z</time>
      </trkpt>
      <trkpt lat="48.54823" lon="2.21261">
        <ele>92</ele>
        <time>2022-08-09T12:40:05.216Z</time>
      </trkpt>
      <trkpt lat="48.54818" lon="2.21269">
        <ele>94</ele>
        <time>2022-08-09T12:40:10.219Z</time>
      </trkpt>
      <trkpt lat="48.54816" lon="2.21279">
        <ele>94</ele>
        <time>2022-08-09T12:40:14.240Z</time>
      </trkpt>
      <trkpt lat="48.54814" lon="2.21291">
        <ele>94</ele>
        <time>2022-08-09T12:40:19.218Z</time>
      </trkpt>
      <trkpt lat="48.54811" lon="2.21302">
        <ele>93</ele>
        <time>2022-08-09T12:40:24.214Z</time>
      </trkpt>
      <trkpt lat="48.54806" lon="2.21312">
        <ele>93</ele>
        <time>2022-08-09T12:40:29.216Z</time>
      </trkpt>
      <trkpt lat="48.54802" lon="2.21322">
        <ele>92</ele>
        <time>2022-08-09T12:40:34.215Z</time>
      </trkpt>
      <trkpt lat="48.548" lon="2.21331">
        <ele>92</ele>
        <time>2022-08-09T12:40:38.220Z</time>
      </trkpt>
      <trkpt lat="48.54796" lon="2.21341">
        <ele>92</ele>
        <time>2022-08-09T12:40:43.219Z</time>
      </trkpt>
      <trkpt lat="48.54794" lon="2.2135">
        <ele>92</ele>
        <time>2022-08-09T12:40:47.219Z</time>
      </trkpt>
      <trkpt lat="48.54791" lon="2.21358">
        <ele>94</ele>
        <time>2022-08-09T12:40:51.236Z</time>
      </trkpt>
      <trkpt lat="48.54788" lon="2.21368">
        <ele>94</ele>
        <time>2022-08-09T12:40:56.226Z</time>
      </trkpt>
      <trkpt lat="48.54785" lon="2.21379">
        <ele>93</ele>
        <time>2022-08-09T12:41:01.221Z</time>
      </trkpt>
      <trkpt lat="48.54782" lon="2.21386">
        <ele>93</ele>
        <time>2022-08-09T12:41:05.235Z</time>
      </trkpt>
      <trkpt lat="48.54779" lon="2.21397">
        <ele>93</ele>
        <time>2022-08-09T12:41:10.206Z</time>
      </trkpt>
      <trkpt lat="48.54775" lon="2.21407">
        <ele>93</ele>
        <time>2022-08-09T12:41:15.225Z</time>
      </trkpt>
      <trkpt lat="48.54771" lon="2.21417">
        <ele>93</ele>
        <time>2022-08-09T12:41:20.231Z</time>
      </trkpt>
      <trkpt lat="48.54767" lon="2.21424">
        <ele>93</ele>
        <time>2022-08-09T12:41:24.250Z</time>
      </trkpt>
      <trkpt lat="48.54765" lon="2.21434">
        <ele>92</ele>
        <time>2022-08-09T12:41:29.207Z</time>
      </trkpt>
      <trkpt lat="48.54763" lon="2.21442">
        <ele>94</ele>
        <time>2022-08-09T12:41:33.227Z</time>
      </trkpt>
      <trkpt lat="48.54761" lon="2.21451">
        <ele>94</ele>
        <time>2022-08-09T12:41:37.255Z</time>
      </trkpt>
      <trkpt lat="48.54759" lon="2.2146">
        <ele>94</ele>
        <time>2022-08-09T12:41:42.234Z</time>
      </trkpt>
      <trkpt lat="48.54757" lon="2.2147">
        <ele>94</ele>
        <time>2022-08-09T12:41:47.226Z</time>
      </trkpt>
      <trkpt lat="48.54754" lon="2.21477">
        <ele>94</ele>
        <time>2022-08-09T12:41:51.235Z</time>
      </trkpt>
      <trkpt lat="48.5475" lon="2.21488">
        <ele>94</ele>
        <time>2022-08-09T12:41:56.251Z</time>
      </trkpt>
      <trkpt lat="48.54745" lon="2.21499">
        <ele>94</ele>
        <time>2022-08-09T12:42:01.255Z</time>
      </trkpt>
      <trkpt lat="48.54741" lon="2.2151">
        <ele>94</ele>
        <time>2022-08-09T12:42:06.220Z</time>
      </trkpt>
      <trkpt lat="48.54739" lon="2.21518">
        <ele>94</ele>
        <time>2022-08-09T12:42:10.222Z</time>
      </trkpt>
      <trkpt lat="48.54736" lon="2.21528">
        <ele>95</ele>
        <time>2022-08-09T12:42:15.199Z</time>
      </trkpt>
      <trkpt lat="48.54733" lon="2.21535">
        <ele>95</ele>
        <time>2022-08-09T12:42:19.222Z</time>
      </trkpt>
      <trkpt lat="48.54731" lon="2.21544">
        <ele>95</ele>
        <time>2022-08-09T12:42:23.217Z</time>
      </trkpt>
      <trkpt lat="48.54727" lon="2.21551">
        <ele>95</ele>
        <time>2022-08-09T12:42:27.238Z</time>
      </trkpt>
      <trkpt lat="48.54725" lon="2.21559">
        <ele>95</ele>
        <time>2022-08-09T12:42:32.213Z</time>
      </trkpt>
      <trkpt lat="48.54723" lon="2.21569">
        <ele>95</ele>
        <time>2022-08-09T12:42:37.234Z</time>
      </trkpt>
      <trkpt lat="48.54724" lon="2.21577">
        <ele>94</ele>
        <time>2022-08-09T12:42:42.218Z</time>
      </trkpt>
      <trkpt lat="48.54729" lon="2.21587">
        <ele>94</ele>
        <time>2022-08-09T12:42:47.223Z</time>
      </trkpt>
      <trkpt lat="48.54733" lon="2.21592">
        <ele>94</ele>
        <time>2022-08-09T12:42:52.215Z</time>
      </trkpt>
      <trkpt lat="48.54739" lon="2.21598">
        <ele>93</ele>
        <time>2022-08-09T12:42:57.222Z</time>
      </trkpt>
      <trkpt lat="48.54746" lon="2.21604">
        <ele>93</ele>
        <time>2022-08-09T12:43:02.217Z</time>
      </trkpt>
      <trkpt lat="48.54751" lon="2.21607">
        <ele>93</ele>
        <time>2022-08-09T12:43:07.224Z</time>
      </trkpt>
      <trkpt lat="48.54755" lon="2.21612">
        <ele>93</ele>
        <time>2022-08-09T12:43:12.216Z</time>
      </trkpt>
      <trkpt lat="48.54759" lon="2.21611">
        <ele>93</ele>
        <time>2022-08-09T12:43:17.217Z</time>
      </trkpt>
      <trkpt lat="48.54759" lon="2.21609">
        <ele>93</ele>
        <time>2022-08-09T12:43:21.207Z</time>
      </trkpt>
      <trkpt lat="48.54761" lon="2.21608">
        <ele>93</ele>
        <time>2022-08-09T12:43:26.205Z</time>
      </trkpt>
      <trkpt lat="48.54764" lon="2.21612">
        <ele>93</ele>
        <time>2022-08-09T12:43:31.188Z</time>
      </trkpt>
      <trkpt lat="48.54768" lon="2.21624">
        <ele>92</ele>
        <time>2022-08-09T12:43:36.197Z</time>
      </trkpt>
      <trkpt lat="48.5476" lon="2.21626">
        <ele>93</ele>
        <time>2022-08-09T12:43:40.199Z</time>
      </trkpt>
      <trkpt lat="48.54753" lon="2.21632">
        <ele>93</ele>
        <time>2022-08-09T12:43:44.226Z</time>
      </trkpt>
      <trkpt lat="48.54746" lon="2.21639">
        <ele>93</ele>
        <time>2022-08-09T12:43:49.203Z</time>
      </trkpt>
      <trkpt lat="48.54746" lon="2.21638">
        <ele>93</ele>
        <time>2022-08-09T12:43:54.211Z</time>
      </trkpt>
      <trkpt lat="48.54749" lon="2.21642">
        <ele>93</ele>
        <time>2022-08-09T12:43:58.208Z</time>
      </trkpt>
      <trkpt lat="48.54754" lon="2.21646">
        <ele>93</ele>
        <time>2022-08-09T12:44:03.220Z</time>
      </trkpt>
      <trkpt lat="48.54759" lon="2.21649">
        <ele>93</ele>
        <time>2022-08-09T12:44:07.220Z</time>
      </trkpt>
      <trkpt lat="48.54763" lon="2.21653">
        <ele>93</ele>
        <time>2022-08-09T12:44:12.206Z</time>
      </trkpt>
      <trkpt lat="48.5476" lon="2.2165">
        <ele>93</ele>
        <time>2022-08-09T12:44:16.219Z</time>
      </trkpt>
      <trkpt lat="48.54756" lon="2.21648">
        <ele>93</ele>
        <time>2022-08-09T12:44:20.218Z</time>
      </trkpt>
      <trkpt lat="48.54749" lon="2.21644">
        <ele>93</ele>
        <time>2022-08-09T12:44:25.228Z</time>
      </trkpt>
      <trkpt lat="48.54743" lon="2.21639">
        <ele>93</ele>
        <time>2022-08-09T12:44:30.215Z</time>
      </trkpt>
      <trkpt lat="48.54738" lon="2.21634">
        <ele>93</ele>
        <time>2022-08-09T12:44:35.237Z</time>
      </trkpt>
      <trkpt lat="48.54732" lon="2.21631">
        <ele>93</ele>
        <time>2022-08-09T12:44:40.210Z</time>
      </trkpt>
      <trkpt lat="48.54726" lon="2.21628">
        <ele>93</ele>
        <time>2022-08-09T12:44:44.211Z</time>
      </trkpt>
      <trkpt lat="48.54719" lon="2.21625">
        <ele>93</ele>
        <time>2022-08-09T12:44:49.216Z</time>
      </trkpt>
      <trkpt lat="48.54713" lon="2.21627">
        <ele>93</ele>
        <time>2022-08-09T12:44:53.227Z</time>
      </trkpt>
      <trkpt lat="48.54709" lon="2.21634">
        <ele>93</ele>
        <time>2022-08-09T12:44:58.198Z</time>
      </trkpt>
      <trkpt lat="48.54706" lon="2.21641">
        <ele>94</ele>
        <time>2022-08-09T12:45:02.222Z</time>
      </trkpt>
      <trkpt lat="48.54703" lon="2.2165">
        <ele>94</ele>
        <time>2022-08-09T12:45:07.219Z</time>
      </trkpt>
      <trkpt lat="48.547" lon="2.21659">
        <ele>94</ele>
        <time>2022-08-09T12:45:12.199Z</time>
      </trkpt>
      <trkpt lat="48.54699" lon="2.21666">
        <ele>94</ele>
        <time>2022-08-09T12:45:16.227Z</time>
      </trkpt>
      <trkpt lat="48.54695" lon="2.21676">
        <ele>94</ele>
        <time>2022-08-09T12:45:21.215Z</time>
      </trkpt>
      <trkpt lat="48.54692" lon="2.21688">
        <ele>95</ele>
        <time>2022-08-09T12:45:26.221Z</time>
      </trkpt>
      <trkpt lat="48.54687" lon="2.21697">
        <ele>95</ele>
        <time>2022-08-09T12:45:31.224Z</time>
      </trkpt>
      <trkpt lat="48.54684" lon="2.21707">
        <ele>95</ele>
        <time>2022-08-09T12:45:36.215Z</time>
      </trkpt>
      <trkpt lat="48.54682" lon="2.21715">
        <ele>95</ele>
        <time>2022-08-09T12:45:40.214Z</time>
      </trkpt>
      <trkpt lat="48.54678" lon="2.21724">
        <ele>95</ele>
        <time>2022-08-09T12:45:45.214Z</time>
      </trkpt>
      <trkpt lat="48.54676" lon="2.21733">
        <ele>95</ele>
        <time>2022-08-09T12:45:49.210Z</time>
      </trkpt>
      <trkpt lat="48.54674" lon="2.21742">
        <ele>95</ele>
        <time>2022-08-09T12:45:54.219Z</time>
      </trkpt>
      <trkpt lat="48.54671" lon="2.2175">
        <ele>95</ele>
        <time>2022-08-09T12:45:58.228Z</time>
      </trkpt>
      <trkpt lat="48.54667" lon="2.2176">
        <ele>95</ele>
        <time>2022-08-09T12:46:03.216Z</time>
      </trkpt>
      <trkpt lat="48.54663" lon="2.21769">
        <ele>96</ele>
        <time>2022-08-09T12:46:08.223Z</time>
      </trkpt>
      <trkpt lat="48.54661" lon="2.21779">
        <ele>96</ele>
        <time>2022-08-09T12:46:13.232Z</time>
      </trkpt>
      <trkpt lat="48.54659" lon="2.21788">
        <ele>96</ele>
        <time>2022-08-09T12:46:18.221Z</time>
      </trkpt>
      <trkpt lat="48.54657" lon="2.21797">
        <ele>97</ele>
        <time>2022-08-09T12:46:23.208Z</time>
      </trkpt>
      <trkpt lat="48.54656" lon="2.21802">
        <ele>97</ele>
        <time>2022-08-09T12:46:27.229Z</time>
      </trkpt>
      <trkpt lat="48.54652" lon="2.2181">
        <ele>96</ele>
        <time>2022-08-09T12:46:32.205Z</time>
      </trkpt>
      <trkpt lat="48.54649" lon="2.2182">
        <ele>97</ele>
        <time>2022-08-09T12:46:36.204Z</time>
      </trkpt>
      <trkpt lat="48.54644" lon="2.21828">
        <ele>97</ele>
        <time>2022-08-09T12:46:40.215Z</time>
      </trkpt>
      <trkpt lat="48.54642" lon="2.21836">
        <ele>97</ele>
        <time>2022-08-09T12:46:44.208Z</time>
      </trkpt>
      <trkpt lat="48.54637" lon="2.21844">
        <ele>97</ele>
        <time>2022-08-09T12:46:49.210Z</time>
      </trkpt>
      <trkpt lat="48.54633" lon="2.21854">
        <ele>97</ele>
        <time>2022-08-09T12:46:54.214Z</time>
      </trkpt>
      <trkpt lat="48.54631" lon="2.21861">
        <ele>97</ele>
        <time>2022-08-09T12:46:58.207Z</time>
      </trkpt>
      <trkpt lat="48.54629" lon="2.2187">
        <ele>97</ele>
        <time>2022-08-09T12:47:02.215Z</time>
      </trkpt>
      <trkpt lat="48.54627" lon="2.21878">
        <ele>97</ele>
        <time>2022-08-09T12:47:06.213Z</time>
      </trkpt>
      <trkpt lat="48.54625" lon="2.21888">
        <ele>97</ele>
        <time>2022-08-09T12:47:11.204Z</time>
      </trkpt>
      <trkpt lat="48.54621" lon="2.21898">
        <ele>97</ele>
        <time>2022-08-09T12:47:16.206Z</time>
      </trkpt>
      <trkpt lat="48.54617" lon="2.21906">
        <ele>97</ele>
        <time>2022-08-09T12:47:21.212Z</time>
      </trkpt>
      <trkpt lat="48.54615" lon="2.21913">
        <ele>97</ele>
        <time>2022-08-09T12:47:25.218Z</time>
      </trkpt>
      <trkpt lat="48.54611" lon="2.21921">
        <ele>97</ele>
        <time>2022-08-09T12:47:30.206Z</time>
      </trkpt>
      <trkpt lat="48.54607" lon="2.21932">
        <ele>96</ele>
        <time>2022-08-09T12:47:35.204Z</time>
      </trkpt>
      <trkpt lat="48.54603" lon="2.21943">
        <ele>96</ele>
        <time>2022-08-09T12:47:40.218Z</time>
      </trkpt>
      <trkpt lat="48.546" lon="2.21951">
        <ele>96</ele>
        <time>2022-08-09T12:47:44.206Z</time>
      </trkpt>
      <trkpt lat="48.54596" lon="2.21961">
        <ele>97</ele>
        <time>2022-08-09T12:47:49.219Z</time>
      </trkpt>
      <trkpt lat="48.54593" lon="2.21971">
        <ele>97</ele>
        <time>2022-08-09T12:47:54.215Z</time>
      </trkpt>
      <trkpt lat="48.54589" lon="2.21982">
        <ele>97</ele>
        <time>2022-08-09T12:47:59.207Z</time>
      </trkpt>
      <trkpt lat="48.54586" lon="2.21993">
        <ele>97</ele>
        <time>2022-08-09T12:48:04.210Z</time>
      </trkpt>
      <trkpt lat="48.54586" lon="2.21996">
        <ele>97</ele>
        <time>2022-08-09T12:48:09.209Z</time>
      </trkpt>
      <trkpt lat="48.54588" lon="2.22">
        <ele>97</ele>
        <time>2022-08-09T12:48:14.207Z</time>
      </trkpt>
      <trkpt lat="48.54588" lon="2.21999">
        <ele>97</ele>
        <time>2022-08-09T12:48:19.201Z</time>
      </trkpt>
      <trkpt lat="48.54587" lon="2.21999">
        <ele>97</ele>
        <time>2022-08-09T12:48:23.207Z</time>
      </trkpt>
      <trkpt lat="48.54584" lon="2.22003">
        <ele>97</ele>
        <time>2022-08-09T12:48:27.202Z</time>
      </trkpt>
      <trkpt lat="48.5458" lon="2.22008">
        <ele>97</ele>
        <time>2022-08-09T12:48:31.204Z</time>
      </trkpt>
      <trkpt lat="48.54577" lon="2.22018">
        <ele>97</ele>
        <time>2022-08-09T12:48:36.205Z</time>
      </trkpt>
      <trkpt lat="48.54573" lon="2.22028">
        <ele>97</ele>
        <time>2022-08-09T12:48:41.202Z</time>
      </trkpt>
      <trkpt lat="48.54569" lon="2.22037">
        <ele>98</ele>
        <time>2022-08-09T12:48:46.200Z</time>
      </trkpt>
      <trkpt lat="48.54567" lon="2.22046">
        <ele>98</ele>
        <time>2022-08-09T12:48:50.206Z</time>
      </trkpt>
      <trkpt lat="48.54564" lon="2.22055">
        <ele>98</ele>
        <time>2022-08-09T12:48:55.218Z</time>
      </trkpt>
      <trkpt lat="48.54562" lon="2.22064">
        <ele>98</ele>
        <time>2022-08-09T12:48:59.209Z</time>
      </trkpt>
      <trkpt lat="48.5456" lon="2.22073">
        <ele>97</ele>
        <time>2022-08-09T12:49:04.201Z</time>
      </trkpt>
      <trkpt lat="48.54558" lon="2.22081">
        <ele>97</ele>
        <time>2022-08-09T12:49:08.212Z</time>
      </trkpt>
      <trkpt lat="48.54558" lon="2.22092">
        <ele>97</ele>
        <time>2022-08-09T12:49:13.208Z</time>
      </trkpt>
      <trkpt lat="48.54557" lon="2.22103">
        <ele>96</ele>
        <time>2022-08-09T12:49:18.209Z</time>
      </trkpt>
      <trkpt lat="48.54557" lon="2.22112">
        <ele>96</ele>
        <time>2022-08-09T12:49:22.208Z</time>
      </trkpt>
      <trkpt lat="48.54558" lon="2.22121">
        <ele>96</ele>
        <time>2022-08-09T12:49:26.208Z</time>
      </trkpt>
      <trkpt lat="48.54559" lon="2.22131">
        <ele>96</ele>
        <time>2022-08-09T12:49:31.216Z</time>
      </trkpt>
      <trkpt lat="48.54559" lon="2.22143">
        <ele>96</ele>
        <time>2022-08-09T12:49:36.211Z</time>
      </trkpt>
      <trkpt lat="48.54559" lon="2.22151">
        <ele>96</ele>
        <time>2022-08-09T12:49:40.212Z</time>
      </trkpt>
      <trkpt lat="48.54559" lon="2.22162">
        <ele>96</ele>
        <time>2022-08-09T12:49:45.228Z</time>
      </trkpt>
      <trkpt lat="48.54559" lon="2.22171">
        <ele>96</ele>
        <time>2022-08-09T12:49:49.207Z</time>
      </trkpt>
      <trkpt lat="48.5456" lon="2.22184">
        <ele>97</ele>
        <time>2022-08-09T12:49:54.216Z</time>
      </trkpt>
      <trkpt lat="48.54561" lon="2.22196">
        <ele>97</ele>
        <time>2022-08-09T12:49:59.211Z</time>
      </trkpt>
      <trkpt lat="48.54562" lon="2.22207">
        <ele>97</ele>
        <time>2022-08-09T12:50:04.211Z</time>
      </trkpt>
      <trkpt lat="48.54561" lon="2.22217">
        <ele>97</ele>
        <time>2022-08-09T12:50:09.208Z</time>
      </trkpt>
      <trkpt lat="48.5456" lon="2.22227">
        <ele>97</ele>
        <time>2022-08-09T12:50:13.206Z</time>
      </trkpt>
      <trkpt lat="48.54559" lon="2.22236">
        <ele>97</ele>
        <time>2022-08-09T12:50:17.215Z</time>
      </trkpt>
      <trkpt lat="48.54557" lon="2.22245">
        <ele>97</ele>
        <time>2022-08-09T12:50:21.218Z</time>
      </trkpt>
      <trkpt lat="48.54555" lon="2.22256">
        <ele>97</ele>
        <time>2022-08-09T12:50:26.212Z</time>
      </trkpt>
      <trkpt lat="48.54554" lon="2.22265">
        <ele>96</ele>
        <time>2022-08-09T12:50:31.203Z</time>
      </trkpt>
      <trkpt lat="48.54552" lon="2.22273">
        <ele>96</ele>
        <time>2022-08-09T12:50:35.205Z</time>
      </trkpt>
      <trkpt lat="48.54549" lon="2.22283">
        <ele>96</ele>
        <time>2022-08-09T12:50:40.206Z</time>
      </trkpt>
      <trkpt lat="48.54546" lon="2.22293">
        <ele>95</ele>
        <time>2022-08-09T12:50:45.212Z</time>
      </trkpt>
      <trkpt lat="48.54542" lon="2.22304">
        <ele>95</ele>
        <time>2022-08-09T12:50:50.205Z</time>
      </trkpt>
      <trkpt lat="48.5454" lon="2.22312">
        <ele>96</ele>
        <time>2022-08-09T12:50:54.213Z</time>
      </trkpt>
      <trkpt lat="48.54536" lon="2.2232">
        <ele>96</ele>
        <time>2022-08-09T12:50:58.217Z</time>
      </trkpt>
      <trkpt lat="48.54533" lon="2.22332">
        <ele>96</ele>
        <time>2022-08-09T12:51:03.215Z</time>
      </trkpt>
      <trkpt lat="48.54529" lon="2.22343">
        <ele>96</ele>
        <time>2022-08-09T12:51:08.211Z</time>
      </trkpt>
      <trkpt lat="48.54526" lon="2.22348">
        <ele>95</ele>
        <time>2022-08-09T12:51:12.208Z</time>
      </trkpt>
      <trkpt lat="48.54524" lon="2.22356">
        <ele>95</ele>
        <time>2022-08-09T12:51:16.209Z</time>
      </trkpt>
      <trkpt lat="48.54522" lon="2.22365">
        <ele>95</ele>
        <time>2022-08-09T12:51:20.212Z</time>
      </trkpt>
      <trkpt lat="48.54521" lon="2.22375">
        <ele>95</ele>
        <time>2022-08-09T12:51:25.218Z</time>
      </trkpt>
      <trkpt lat="48.5452" lon="2.22386">
        <ele>95</ele>
        <time>2022-08-09T12:51:30.204Z</time>
      </trkpt>
      <trkpt lat="48.54519" lon="2.22393">
        <ele>95</ele>
        <time>2022-08-09T12:51:34.216Z</time>
      </trkpt>
      <trkpt lat="48.54514" lon="2.22398">
        <ele>94</ele>
        <time>2022-08-09T12:51:39.204Z</time>
      </trkpt>
      <trkpt lat="48.54508" lon="2.224">
        <ele>94</ele>
        <time>2022-08-09T12:51:43.208Z</time>
      </trkpt>
      <trkpt lat="48.54499" lon="2.224">
        <ele>94</ele>
        <time>2022-08-09T12:51:48.211Z</time>
      </trkpt>
      <trkpt lat="48.54492" lon="2.224">
        <ele>94</ele>
        <time>2022-08-09T12:51:53.232Z</time>
      </trkpt>
      <trkpt lat="48.54485" lon="2.224">
        <ele>93</ele>
        <time>2022-08-09T12:51:58.211Z</time>
      </trkpt>
      <trkpt lat="48.54477" lon="2.22401">
        <ele>93</ele>
        <time>2022-08-09T12:52:03.221Z</time>
      </trkpt>
      <trkpt lat="48.54469" lon="2.22401">
        <ele>93</ele>
        <time>2022-08-09T12:52:08.205Z</time>
      </trkpt>
      <trkpt lat="48.54461" lon="2.224">
        <ele>93</ele>
        <time>2022-08-09T12:52:13.213Z</time>
      </trkpt>
      <trkpt lat="48.54455" lon="2.224">
        <ele>93</ele>
        <time>2022-08-09T12:52:17.209Z</time>
      </trkpt>
      <trkpt lat="48.54449" lon="2.22401">
        <ele>93</ele>
        <time>2022-08-09T12:52:22.203Z</time>
      </trkpt>
      <trkpt lat="48.54443" lon="2.22402">
        <ele>93</ele>
        <time>2022-08-09T12:52:26.218Z</time>
      </trkpt>
      <trkpt lat="48.54438" lon="2.22402">
        <ele>93</ele>
        <time>2022-08-09T12:52:30.210Z</time>
      </trkpt>
      <trkpt lat="48.5443" lon="2.22402">
        <ele>94</ele>
        <time>2022-08-09T12:52:35.206Z</time>
      </trkpt>
      <trkpt lat="48.54424" lon="2.22403">
        <ele>94</ele>
        <time>2022-08-09T12:52:39.209Z</time>
      </trkpt>
      <trkpt lat="48.54418" lon="2.22405">
        <ele>94</ele>
        <time>2022-08-09T12:52:43.213Z</time>
      </trkpt>
      <trkpt lat="48.54409" lon="2.22404">
        <ele>94</ele>
        <time>2022-08-09T12:52:48.225Z</time>
      </trkpt>
      <trkpt lat="48.54403" lon="2.22404">
        <ele>94</ele>
        <time>2022-08-09T12:52:52.229Z</time>
      </trkpt>
      <trkpt lat="48.54395" lon="2.22404">
        <ele>94</ele>
        <time>2022-08-09T12:52:57.217Z</time>
      </trkpt>
      <trkpt lat="48.54388" lon="2.22403">
        <ele>94</ele>
        <time>2022-08-09T12:53:02.214Z</time>
      </trkpt>
      <trkpt lat="48.54381" lon="2.22406">
        <ele>94</ele>
        <time>2022-08-09T12:53:07.216Z</time>
      </trkpt>
      <trkpt lat="48.54373" lon="2.22407">
        <ele>94</ele>
        <time>2022-08-09T12:53:12.200Z</time>
      </trkpt>
      <trkpt lat="48.54366" lon="2.22408">
        <ele>94</ele>
        <time>2022-08-09T12:53:17.207Z</time>
      </trkpt>
      <trkpt lat="48.5436" lon="2.22408">
        <ele>94</ele>
        <time>2022-08-09T12:53:21.231Z</time>
      </trkpt>
      <trkpt lat="48.54352" lon="2.22408">
        <ele>94</ele>
        <time>2022-08-09T12:53:26.218Z</time>
      </trkpt>
      <trkpt lat="48.54345" lon="2.22409">
        <ele>94</ele>
        <time>2022-08-09T12:53:31.212Z</time>
      </trkpt>
      <trkpt lat="48.54337" lon="2.2241">
        <ele>94</ele>
        <time>2022-08-09T12:53:36.222Z</time>
      </trkpt>
      <trkpt lat="48.5433" lon="2.22411">
        <ele>94</ele>
        <time>2022-08-09T12:53:41.218Z</time>
      </trkpt>
      <trkpt lat="48.54323" lon="2.22412">
        <ele>94</ele>
        <time>2022-08-09T12:53:46.208Z</time>
      </trkpt>
      <trkpt lat="48.54317" lon="2.22412">
        <ele>93</ele>
        <time>2022-08-09T12:53:50.221Z</time>
      </trkpt>
      <trkpt lat="48.54309" lon="2.22413">
        <ele>93</ele>
        <time>2022-08-09T12:53:55.210Z</time>
      </trkpt>
      <trkpt lat="48.54301" lon="2.22414">
        <ele>93</ele>
        <time>2022-08-09T12:54:00.212Z</time>
      </trkpt>
      <trkpt lat="48.54293" lon="2.22414">
        <ele>93</ele>
        <time>2022-08-09T12:54:05.215Z</time>
      </trkpt>
      <trkpt lat="48.54288" lon="2.22415">
        <ele>92</ele>
        <time>2022-08-09T12:54:09.213Z</time>
      </trkpt>
      <trkpt lat="48.54281" lon="2.22415">
        <ele>92</ele>
        <time>2022-08-09T12:54:14.216Z</time>
      </trkpt>
      <trkpt lat="48.54273" lon="2.22415">
        <ele>92</ele>
        <time>2022-08-09T12:54:19.207Z</time>
      </trkpt>
      <trkpt lat="48.54264" lon="2.22415">
        <ele>92</ele>
        <time>2022-08-09T12:54:24.219Z</time>
      </trkpt>
      <trkpt lat="48.54258" lon="2.22416">
        <ele>94</ele>
        <time>2022-08-09T12:54:28.217Z</time>
      </trkpt>
      <trkpt lat="48.54251" lon="2.22415">
        <ele>94</ele>
        <time>2022-08-09T12:54:33.211Z</time>
      </trkpt>
      <trkpt lat="48.54244" lon="2.22415">
        <ele>94</ele>
        <time>2022-08-09T12:54:38.227Z</time>
      </trkpt>
      <trkpt lat="48.54235" lon="2.22415">
        <ele>96</ele>
        <time>2022-08-09T12:54:43.211Z</time>
      </trkpt>
      <trkpt lat="48.54228" lon="2.22416">
        <ele>96</ele>
        <time>2022-08-09T12:54:48.205Z</time>
      </trkpt>
      <trkpt lat="48.5422" lon="2.22417">
        <ele>96</ele>
        <time>2022-08-09T12:54:53.229Z</time>
      </trkpt>
      <trkpt lat="48.54211" lon="2.22417">
        <ele>96</ele>
        <time>2022-08-09T12:54:58.237Z</time>
      </trkpt>
      <trkpt lat="48.54203" lon="2.22418">
        <ele>96</ele>
        <time>2022-08-09T12:55:03.211Z</time>
      </trkpt>
      <trkpt lat="48.54198" lon="2.22419">
        <ele>96</ele>
        <time>2022-08-09T12:55:07.217Z</time>
      </trkpt>
      <trkpt lat="48.54192" lon="2.2242">
        <ele>96</ele>
        <time>2022-08-09T12:55:12.223Z</time>
      </trkpt>
      <trkpt lat="48.54186" lon="2.22422">
        <ele>96</ele>
        <time>2022-08-09T12:55:17.215Z</time>
      </trkpt>
      <trkpt lat="48.54179" lon="2.22422">
        <ele>97</ele>
        <time>2022-08-09T12:55:22.208Z</time>
      </trkpt>
      <trkpt lat="48.54173" lon="2.22423">
        <ele>97</ele>
        <time>2022-08-09T12:55:26.211Z</time>
      </trkpt>
      <trkpt lat="48.54166" lon="2.22424">
        <ele>97</ele>
        <time>2022-08-09T12:55:30.233Z</time>
      </trkpt>
      <trkpt lat="48.54158" lon="2.22425">
        <ele>97</ele>
        <time>2022-08-09T12:55:35.221Z</time>
      </trkpt>
      <trkpt lat="48.54151" lon="2.22427">
        <ele>97</ele>
        <time>2022-08-09T12:55:40.216Z</time>
      </trkpt>
      <trkpt lat="48.5414" lon="2.22431">
        <ele>98</ele>
        <time>2022-08-09T12:58:54.204Z</time>
      </trkpt>
      <trkpt lat="48.54139" lon="2.2243">
        <ele>97</ele>
        <time>2022-08-09T12:58:59.198Z</time>
      </trkpt>
      <trkpt lat="48.54139" lon="2.2243">
        <ele>97</ele>
        <time>2022-08-09T12:59:04.213Z</time>
      </trkpt>
      <trkpt lat="48.54139" lon="2.2243">
        <ele>97</ele>
        <time>2022-08-09T12:59:08.218Z</time>
      </trkpt>
      <trkpt lat="48.54135" lon="2.2243">
        <ele>97</ele>
        <time>2022-08-09T12:59:12.219Z</time>
      </trkpt>
      <trkpt lat="48.54131" lon="2.2243">
        <ele>97</ele>
        <time>2022-08-09T12:59:16.226Z</time>
      </trkpt>
      <trkpt lat="48.54126" lon="2.22429">
        <ele>97</ele>
        <time>2022-08-09T12:59:21.231Z</time>
      </trkpt>
      <trkpt lat="48.5412" lon="2.2243">
        <ele>98</ele>
        <time>2022-08-09T12:59:25.227Z</time>
      </trkpt>
      <trkpt lat="48.54113" lon="2.22432">
        <ele>99</ele>
        <time>2022-08-09T12:59:30.193Z</time>
      </trkpt>
      <trkpt lat="48.54105" lon="2.22428">
        <ele>98</ele>
        <time>2022-08-09T12:59:34.200Z</time>
      </trkpt>
      <trkpt lat="48.54098" lon="2.2243">
        <ele>98</ele>
        <time>2022-08-09T12:59:38.186Z</time>
      </trkpt>
      <trkpt lat="48.54091" lon="2.22431">
        <ele>100</ele>
        <time>2022-08-09T12:59:42.204Z</time>
      </trkpt>
      <trkpt lat="48.54087" lon="2.2243">
        <ele>100</ele>
        <time>2022-08-09T12:59:46.208Z</time>
      </trkpt>
      <trkpt lat="48.5408" lon="2.2243">
        <ele>100</ele>
        <time>2022-08-09T12:59:51.209Z</time>
      </trkpt>
      <trkpt lat="48.54073" lon="2.22432">
        <ele>100</ele>
        <time>2022-08-09T12:59:56.201Z</time>
      </trkpt>
      <trkpt lat="48.54067" lon="2.22432">
        <ele>100</ele>
        <time>2022-08-09T13:00:00.204Z</time>
      </trkpt>
      <trkpt lat="48.54061" lon="2.22432">
        <ele>100</ele>
        <time>2022-08-09T13:00:04.205Z</time>
      </trkpt>
      <trkpt lat="48.54054" lon="2.22431">
        <ele>100</ele>
        <time>2022-08-09T13:00:09.193Z</time>
      </trkpt>
      <trkpt lat="48.54049" lon="2.2243">
        <ele>101</ele>
        <time>2022-08-09T13:00:13.209Z</time>
      </trkpt>
      <trkpt lat="48.54041" lon="2.2243">
        <ele>102</ele>
        <time>2022-08-09T13:00:18.192Z</time>
      </trkpt>
      <trkpt lat="48.54034" lon="2.22427">
        <ele>102</ele>
        <time>2022-08-09T13:00:23.191Z</time>
      </trkpt>
      <trkpt lat="48.54028" lon="2.22428">
        <ele>102</ele>
        <time>2022-08-09T13:00:28.191Z</time>
      </trkpt>
      <trkpt lat="48.54021" lon="2.22426">
        <ele>102</ele>
        <time>2022-08-09T13:00:32.201Z</time>
      </trkpt>
      <trkpt lat="48.54016" lon="2.22428">
        <ele>102</ele>
        <time>2022-08-09T13:00:36.209Z</time>
      </trkpt>
      <trkpt lat="48.54009" lon="2.22427">
        <ele>107</ele>
        <time>2022-08-09T13:00:41.197Z</time>
      </trkpt>
      <trkpt lat="48.54004" lon="2.22429">
        <ele>107</ele>
        <time>2022-08-09T13:00:46.198Z</time>
      </trkpt>
      <trkpt lat="48.53999" lon="2.22428">
        <ele>107</ele>
        <time>2022-08-09T13:00:51.188Z</time>
      </trkpt>
      <trkpt lat="48.53992" lon="2.22429">
        <ele>107</ele>
        <time>2022-08-09T13:00:56.199Z</time>
      </trkpt>
      <trkpt lat="48.53985" lon="2.22429">
        <ele>113</ele>
        <time>2022-08-09T13:01:00.195Z</time>
      </trkpt>
      <trkpt lat="48.53978" lon="2.22431">
        <ele>112</ele>
        <time>2022-08-09T13:01:04.214Z</time>
      </trkpt>
      <trkpt lat="48.53973" lon="2.22429">
        <ele>113</ele>
        <time>2022-08-09T13:01:08.212Z</time>
      </trkpt>
      <trkpt lat="48.53965" lon="2.22428">
        <ele>113</ele>
        <time>2022-08-09T13:01:13.215Z</time>
      </trkpt>
      <trkpt lat="48.53959" lon="2.22426">
        <ele>113</ele>
        <time>2022-08-09T13:01:17.218Z</time>
      </trkpt>
      <trkpt lat="48.53953" lon="2.22423">
        <ele>113</ele>
        <time>2022-08-09T13:01:22.214Z</time>
      </trkpt>
      <trkpt lat="48.5395" lon="2.22422">
        <ele>113</ele>
        <time>2022-08-09T13:01:26.223Z</time>
      </trkpt>
      <trkpt lat="48.53942" lon="2.22423">
        <ele>113</ele>
        <time>2022-08-09T13:01:31.214Z</time>
      </trkpt>
      <trkpt lat="48.53938" lon="2.22422">
        <ele>113</ele>
        <time>2022-08-09T13:01:35.211Z</time>
      </trkpt>
      <trkpt lat="48.53931" lon="2.22422">
        <ele>113</ele>
        <time>2022-08-09T13:01:40.214Z</time>
      </trkpt>
      <trkpt lat="48.53924" lon="2.22422">
        <ele>116</ele>
        <time>2022-08-09T13:01:45.235Z</time>
      </trkpt>
      <trkpt lat="48.53919" lon="2.22421">
        <ele>116</ele>
        <time>2022-08-09T13:01:50.222Z</time>
      </trkpt>
      <trkpt lat="48.53912" lon="2.22422">
        <ele>116</ele>
        <time>2022-08-09T13:01:55.229Z</time>
      </trkpt>
      <trkpt lat="48.53905" lon="2.22423">
        <ele>116</ele>
        <time>2022-08-09T13:02:00.216Z</time>
      </trkpt>
      <trkpt lat="48.539" lon="2.22423">
        <ele>120</ele>
        <time>2022-08-09T13:02:04.222Z</time>
      </trkpt>
      <trkpt lat="48.53894" lon="2.22424">
        <ele>120</ele>
        <time>2022-08-09T13:02:09.202Z</time>
      </trkpt>
      <trkpt lat="48.5389" lon="2.22424">
        <ele>120</ele>
        <time>2022-08-09T13:02:13.225Z</time>
      </trkpt>
      <trkpt lat="48.53876" lon="2.22427">
        <ele>120</ele>
        <time>2022-08-09T13:02:49.210Z</time>
      </trkpt>
      <trkpt lat="48.53876" lon="2.22427">
        <ele>120</ele>
        <time>2022-08-09T13:02:53.248Z</time>
      </trkpt>
      <trkpt lat="48.53876" lon="2.22427">
        <ele>120</ele>
        <time>2022-08-09T13:02:58.212Z</time>
      </trkpt>
      <trkpt lat="48.53876" lon="2.22426">
        <ele>120</ele>
        <time>2022-08-09T13:03:02.212Z</time>
      </trkpt>
      <trkpt lat="48.53874" lon="2.22425">
        <ele>124</ele>
        <time>2022-08-09T13:03:07.221Z</time>
      </trkpt>
      <trkpt lat="48.53869" lon="2.22426">
        <ele>124</ele>
        <time>2022-08-09T13:03:12.206Z</time>
      </trkpt>
      <trkpt lat="48.53864" lon="2.22425">
        <ele>124</ele>
        <time>2022-08-09T13:03:16.221Z</time>
      </trkpt>
      <trkpt lat="48.53859" lon="2.22425">
        <ele>124</ele>
        <time>2022-08-09T13:03:20.218Z</time>
      </trkpt>
      <trkpt lat="48.53854" lon="2.22424">
        <ele>124</ele>
        <time>2022-08-09T13:03:24.241Z</time>
      </trkpt>
      <trkpt lat="48.5385" lon="2.22421">
        <ele>124</ele>
        <time>2022-08-09T13:03:29.205Z</time>
      </trkpt>
      <trkpt lat="48.53845" lon="2.22419">
        <ele>125</ele>
        <time>2022-08-09T13:03:33.224Z</time>
      </trkpt>
      <trkpt lat="48.53841" lon="2.22419">
        <ele>125</ele>
        <time>2022-08-09T13:03:38.211Z</time>
      </trkpt>
      <trkpt lat="48.53836" lon="2.22418">
        <ele>125</ele>
        <time>2022-08-09T13:03:42.236Z</time>
      </trkpt>
      <trkpt lat="48.5383" lon="2.22416">
        <ele>125</ele>
        <time>2022-08-09T13:03:47.218Z</time>
      </trkpt>
      <trkpt lat="48.53824" lon="2.22416">
        <ele>125</ele>
        <time>2022-08-09T13:03:52.230Z</time>
      </trkpt>
      <trkpt lat="48.53819" lon="2.22413">
        <ele>127</ele>
        <time>2022-08-09T13:03:57.221Z</time>
      </trkpt>
      <trkpt lat="48.53814" lon="2.22411">
        <ele>127</ele>
        <time>2022-08-09T13:04:01.244Z</time>
      </trkpt>
      <trkpt lat="48.53808" lon="2.22411">
        <ele>127</ele>
        <time>2022-08-09T13:04:06.213Z</time>
      </trkpt>
      <trkpt lat="48.53802" lon="2.2241">
        <ele>127</ele>
        <time>2022-08-09T13:04:11.218Z</time>
      </trkpt>
      <trkpt lat="48.53798" lon="2.2241">
        <ele>127</ele>
        <time>2022-08-09T13:04:15.217Z</time>
      </trkpt>
      <trkpt lat="48.53792" lon="2.22408">
        <ele>132</ele>
        <time>2022-08-09T13:04:20.205Z</time>
      </trkpt>
      <trkpt lat="48.53787" lon="2.22404">
        <ele>132</ele>
        <time>2022-08-09T13:04:24.223Z</time>
      </trkpt>
      <trkpt lat="48.53781" lon="2.22403">
        <ele>132</ele>
        <time>2022-08-09T13:04:29.211Z</time>
      </trkpt>
      <trkpt lat="48.53777" lon="2.22403">
        <ele>132</ele>
        <time>2022-08-09T13:04:33.233Z</time>
      </trkpt>
      <trkpt lat="48.53771" lon="2.224">
        <ele>132</ele>
        <time>2022-08-09T13:04:38.227Z</time>
      </trkpt>
      <trkpt lat="48.53764" lon="2.22397">
        <ele>132</ele>
        <time>2022-08-09T13:04:43.234Z</time>
      </trkpt>
      <trkpt lat="48.5376" lon="2.22398">
        <ele>136</ele>
        <time>2022-08-09T13:04:48.211Z</time>
      </trkpt>
      <trkpt lat="48.53755" lon="2.22395">
        <ele>136</ele>
        <time>2022-08-09T13:04:52.213Z</time>
      </trkpt>
      <trkpt lat="48.5375" lon="2.22393">
        <ele>136</ele>
        <time>2022-08-09T13:04:56.225Z</time>
      </trkpt>
      <trkpt lat="48.53742" lon="2.22389">
        <ele>136</ele>
        <time>2022-08-09T13:05:01.213Z</time>
      </trkpt>
      <trkpt lat="48.53736" lon="2.22387">
        <ele>136</ele>
        <time>2022-08-09T13:05:05.217Z</time>
      </trkpt>
      <trkpt lat="48.53729" lon="2.22385">
        <ele>144</ele>
        <time>2022-08-09T13:05:10.229Z</time>
      </trkpt>
      <trkpt lat="48.53725" lon="2.22382">
        <ele>144</ele>
        <time>2022-08-09T13:05:14.246Z</time>
      </trkpt>
      <trkpt lat="48.53719" lon="2.22378">
        <ele>144</ele>
        <time>2022-08-09T13:05:19.191Z</time>
      </trkpt>
      <trkpt lat="48.53713" lon="2.22377">
        <ele>144</ele>
        <time>2022-08-09T13:05:23.223Z</time>
      </trkpt>
      <trkpt lat="48.53706" lon="2.22376">
        <ele>146</ele>
        <time>2022-08-09T13:05:27.227Z</time>
      </trkpt>
      <trkpt lat="48.53701" lon="2.22374">
        <ele>147</ele>
        <time>2022-08-09T13:05:32.240Z</time>
      </trkpt>
      <trkpt lat="48.53695" lon="2.22373">
        <ele>147</ele>
        <time>2022-08-09T13:05:36.225Z</time>
      </trkpt>
      <trkpt lat="48.53689" lon="2.22371">
        <ele>147</ele>
        <time>2022-08-09T13:05:40.228Z</time>
      </trkpt>
      <trkpt lat="48.53683" lon="2.22369">
        <ele>147</ele>
        <time>2022-08-09T13:05:45.201Z</time>
      </trkpt>
      <trkpt lat="48.53678" lon="2.22367">
        <ele>146</ele>
        <time>2022-08-09T13:05:49.213Z</time>
      </trkpt>
      <trkpt lat="48.53672" lon="2.22365">
        <ele>146</ele>
        <time>2022-08-09T13:05:53.235Z</time>
      </trkpt>
      <trkpt lat="48.53665" lon="2.22363">
        <ele>146</ele>
        <time>2022-08-09T13:05:58.216Z</time>
      </trkpt>
      <trkpt lat="48.53659" lon="2.22359">
        <ele>146</ele>
        <time>2022-08-09T13:06:03.230Z</time>
      </trkpt>
      <trkpt lat="48.53653" lon="2.22354">
        <ele>145</ele>
        <time>2022-08-09T13:06:08.216Z</time>
      </trkpt>
      <trkpt lat="48.53648" lon="2.22349">
        <ele>145</ele>
        <time>2022-08-09T13:06:12.250Z</time>
      </trkpt>
      <trkpt lat="48.53643" lon="2.22343">
        <ele>145</ele>
        <time>2022-08-09T13:06:17.205Z</time>
      </trkpt>
      <trkpt lat="48.53638" lon="2.22341">
        <ele>145</ele>
        <time>2022-08-09T13:06:21.224Z</time>
      </trkpt>
      <trkpt lat="48.53633" lon="2.22338">
        <ele>145</ele>
        <time>2022-08-09T13:06:25.245Z</time>
      </trkpt>
      <trkpt lat="48.53627" lon="2.22333">
        <ele>145</ele>
        <time>2022-08-09T13:06:30.228Z</time>
      </trkpt>
      <trkpt lat="48.5362" lon="2.2233">
        <ele>146</ele>
        <time>2022-08-09T13:06:35.236Z</time>
      </trkpt>
      <trkpt lat="48.53613" lon="2.22327">
        <ele>146</ele>
        <time>2022-08-09T13:06:40.239Z</time>
      </trkpt>
      <trkpt lat="48.53605" lon="2.22325">
        <ele>146</ele>
        <time>2022-08-09T13:06:45.250Z</time>
      </trkpt>
      <trkpt lat="48.536" lon="2.22323">
        <ele>146</ele>
        <time>2022-08-09T13:06:49.208Z</time>
      </trkpt>
      <trkpt lat="48.53594" lon="2.2232">
        <ele>145</ele>
        <time>2022-08-09T13:06:54.240Z</time>
      </trkpt>
      <trkpt lat="48.53587" lon="2.22316">
        <ele>145</ele>
        <time>2022-08-09T13:06:59.208Z</time>
      </trkpt>
      <trkpt lat="48.53583" lon="2.22313">
        <ele>145</ele>
        <time>2022-08-09T13:07:03.228Z</time>
      </trkpt>
      <trkpt lat="48.53577" lon="2.22307">
        <ele>145</ele>
        <time>2022-08-09T13:07:08.241Z</time>
      </trkpt>
      <trkpt lat="48.53573" lon="2.22305">
        <ele>145</ele>
        <time>2022-08-09T13:07:12.238Z</time>
      </trkpt>
      <trkpt lat="48.53569" lon="2.22304">
        <ele>145</ele>
        <time>2022-08-09T13:07:17.203Z</time>
      </trkpt>
      <trkpt lat="48.53568" lon="2.22306">
        <ele>145</ele>
        <time>2022-08-09T13:07:22.205Z</time>
      </trkpt>
      <trkpt lat="48.53568" lon="2.22312">
        <ele>145</ele>
        <time>2022-08-09T13:07:26.223Z</time>
      </trkpt>
      <trkpt lat="48.53571" lon="2.22321">
        <ele>145</ele>
        <time>2022-08-09T13:07:31.245Z</time>
      </trkpt>
      <trkpt lat="48.53575" lon="2.22329">
        <ele>145</ele>
        <time>2022-08-09T13:07:36.223Z</time>
      </trkpt>
      <trkpt lat="48.53581" lon="2.22334">
        <ele>145</ele>
        <time>2022-08-09T13:07:41.232Z</time>
      </trkpt>
      <trkpt lat="48.53586" lon="2.22339">
        <ele>145</ele>
        <time>2022-08-09T13:07:46.229Z</time>
      </trkpt>
      <trkpt lat="48.53592" lon="2.22344">
        <ele>145</ele>
        <time>2022-08-09T13:07:51.201Z</time>
      </trkpt>
      <trkpt lat="48.53598" lon="2.22348">
        <ele>146</ele>
        <time>2022-08-09T13:07:56.203Z</time>
      </trkpt>
      <trkpt lat="48.53601" lon="2.22353">
        <ele>146</ele>
        <time>2022-08-09T13:08:00.209Z</time>
      </trkpt>
      <trkpt lat="48.53602" lon="2.22358">
        <ele>146</ele>
        <time>2022-08-09T13:08:04.220Z</time>
      </trkpt>
      <trkpt lat="48.53601" lon="2.22368">
        <ele>146</ele>
        <time>2022-08-09T13:08:09.212Z</time>
      </trkpt>
      <trkpt lat="48.53599" lon="2.22376">
        <ele>146</ele>
        <time>2022-08-09T13:08:13.223Z</time>
      </trkpt>
      <trkpt lat="48.53596" lon="2.22382">
        <ele>145</ele>
        <time>2022-08-09T13:08:17.218Z</time>
      </trkpt>
      <trkpt lat="48.53593" lon="2.22389">
        <ele>145</ele>
        <time>2022-08-09T13:08:22.237Z</time>
      </trkpt>
      <trkpt lat="48.53588" lon="2.22399">
        <ele>145</ele>
        <time>2022-08-09T13:08:27.216Z</time>
      </trkpt>
      <trkpt lat="48.53584" lon="2.22408">
        <ele>145</ele>
        <time>2022-08-09T13:08:32.222Z</time>
      </trkpt>
      <trkpt lat="48.53579" lon="2.22417">
        <ele>145</ele>
        <time>2022-08-09T13:08:37.217Z</time>
      </trkpt>
      <trkpt lat="48.53576" lon="2.22424">
        <ele>145</ele>
        <time>2022-08-09T13:08:41.238Z</time>
      </trkpt>
      <trkpt lat="48.53573" lon="2.22431">
        <ele>144</ele>
        <time>2022-08-09T13:08:45.239Z</time>
      </trkpt>
      <trkpt lat="48.53568" lon="2.22441">
        <ele>144</ele>
        <time>2022-08-09T13:08:50.211Z</time>
      </trkpt>
      <trkpt lat="48.53564" lon="2.22449">
        <ele>144</ele>
        <time>2022-08-09T13:08:55.233Z</time>
      </trkpt>
      <trkpt lat="48.53559" lon="2.2246">
        <ele>144</ele>
        <time>2022-08-09T13:09:00.231Z</time>
      </trkpt>
      <trkpt lat="48.53554" lon="2.22468">
        <ele>144</ele>
        <time>2022-08-09T13:09:05.216Z</time>
      </trkpt>
      <trkpt lat="48.53549" lon="2.22477">
        <ele>144</ele>
        <time>2022-08-09T13:09:10.227Z</time>
      </trkpt>
      <trkpt lat="48.53545" lon="2.22486">
        <ele>144</ele>
        <time>2022-08-09T13:09:15.235Z</time>
      </trkpt>
      <trkpt lat="48.53541" lon="2.22495">
        <ele>145</ele>
        <time>2022-08-09T13:09:20.245Z</time>
      </trkpt>
      <trkpt lat="48.53537" lon="2.22502">
        <ele>145</ele>
        <time>2022-08-09T13:09:24.254Z</time>
      </trkpt>
      <trkpt lat="48.53532" lon="2.22511">
        <ele>145</ele>
        <time>2022-08-09T13:09:29.217Z</time>
      </trkpt>
      <trkpt lat="48.53528" lon="2.2252">
        <ele>144</ele>
        <time>2022-08-09T13:09:34.225Z</time>
      </trkpt>
      <trkpt lat="48.53523" lon="2.2253">
        <ele>144</ele>
        <time>2022-08-09T13:09:39.211Z</time>
      </trkpt>
      <trkpt lat="48.5352" lon="2.22537">
        <ele>144</ele>
        <time>2022-08-09T13:09:43.235Z</time>
      </trkpt>
      <trkpt lat="48.53515" lon="2.22546">
        <ele>143</ele>
        <time>2022-08-09T13:09:48.205Z</time>
      </trkpt>
      <trkpt lat="48.53511" lon="2.22553">
        <ele>143</ele>
        <time>2022-08-09T13:09:52.229Z</time>
      </trkpt>
      <trkpt lat="48.53508" lon="2.22559">
        <ele>143</ele>
        <time>2022-08-09T13:09:56.231Z</time>
      </trkpt>
      <trkpt lat="48.53503" lon="2.22569">
        <ele>143</ele>
        <time>2022-08-09T13:10:01.234Z</time>
      </trkpt>
      <trkpt lat="48.535" lon="2.22577">
        <ele>142</ele>
        <time>2022-08-09T13:10:05.229Z</time>
      </trkpt>
      <trkpt lat="48.53495" lon="2.22586">
        <ele>142</ele>
        <time>2022-08-09T13:10:10.230Z</time>
      </trkpt>
      <trkpt lat="48.53491" lon="2.22593">
        <ele>142</ele>
        <time>2022-08-09T13:10:14.242Z</time>
      </trkpt>
      <trkpt lat="48.53487" lon="2.22602">
        <ele>142</ele>
        <time>2022-08-09T13:10:19.211Z</time>
      </trkpt>
      <trkpt lat="48.53483" lon="2.2261">
        <ele>143</ele>
        <time>2022-08-09T13:10:23.238Z</time>
      </trkpt>
      <trkpt lat="48.53479" lon="2.22619">
        <ele>143</ele>
        <time>2022-08-09T13:10:28.236Z</time>
      </trkpt>
      <trkpt lat="48.53474" lon="2.22627">
        <ele>143</ele>
        <time>2022-08-09T13:10:33.237Z</time>
      </trkpt>
      <trkpt lat="48.53469" lon="2.22637">
        <ele>143</ele>
        <time>2022-08-09T13:10:38.241Z</time>
      </trkpt>
      <trkpt lat="48.53465" lon="2.22647">
        <ele>143</ele>
        <time>2022-08-09T13:10:43.225Z</time>
      </trkpt>
      <trkpt lat="48.53461" lon="2.22653">
        <ele>143</ele>
        <time>2022-08-09T13:10:47.259Z</time>
      </trkpt>
      <trkpt lat="48.53457" lon="2.22662">
        <ele>144</ele>
        <time>2022-08-09T13:10:52.267Z</time>
      </trkpt>
      <trkpt lat="48.53453" lon="2.22672">
        <ele>144</ele>
        <time>2022-08-09T13:10:57.245Z</time>
      </trkpt>
      <trkpt lat="48.53449" lon="2.2268">
        <ele>144</ele>
        <time>2022-08-09T13:11:02.226Z</time>
      </trkpt>
      <trkpt lat="48.53445" lon="2.22686">
        <ele>144</ele>
        <time>2022-08-09T13:11:06.235Z</time>
      </trkpt>
      <trkpt lat="48.53439" lon="2.22697">
        <ele>144</ele>
        <time>2022-08-09T13:11:11.229Z</time>
      </trkpt>
      <trkpt lat="48.53434" lon="2.22707">
        <ele>144</ele>
        <time>2022-08-09T13:11:16.207Z</time>
      </trkpt>
      <trkpt lat="48.5343" lon="2.22716">
        <ele>143</ele>
        <time>2022-08-09T13:11:21.210Z</time>
      </trkpt>
      <trkpt lat="48.53427" lon="2.22723">
        <ele>143</ele>
        <time>2022-08-09T13:11:25.211Z</time>
      </trkpt>
      <trkpt lat="48.53421" lon="2.22734">
        <ele>143</ele>
        <time>2022-08-09T13:11:30.222Z</time>
      </trkpt>
      <trkpt lat="48.53417" lon="2.22743">
        <ele>142</ele>
        <time>2022-08-09T13:11:35.191Z</time>
      </trkpt>
      <trkpt lat="48.53413" lon="2.22749">
        <ele>142</ele>
        <time>2022-08-09T13:11:39.208Z</time>
      </trkpt>
      <trkpt lat="48.53409" lon="2.22757">
        <ele>142</ele>
        <time>2022-08-09T13:11:43.232Z</time>
      </trkpt>
      <trkpt lat="48.53404" lon="2.22766">
        <ele>142</ele>
        <time>2022-08-09T13:11:48.250Z</time>
      </trkpt>
      <trkpt lat="48.53399" lon="2.22775">
        <ele>143</ele>
        <time>2022-08-09T13:11:53.232Z</time>
      </trkpt>
      <trkpt lat="48.53394" lon="2.22784">
        <ele>143</ele>
        <time>2022-08-09T13:11:58.229Z</time>
      </trkpt>
      <trkpt lat="48.5339" lon="2.22791">
        <ele>143</ele>
        <time>2022-08-09T13:12:02.234Z</time>
      </trkpt>
      <trkpt lat="48.53387" lon="2.22799">
        <ele>143</ele>
        <time>2022-08-09T13:12:06.228Z</time>
      </trkpt>
      <trkpt lat="48.53381" lon="2.22807">
        <ele>143</ele>
        <time>2022-08-09T13:12:11.217Z</time>
      </trkpt>
      <trkpt lat="48.53377" lon="2.22816">
        <ele>143</ele>
        <time>2022-08-09T13:12:16.224Z</time>
      </trkpt>
      <trkpt lat="48.53373" lon="2.22827">
        <ele>144</ele>
        <time>2022-08-09T13:12:21.231Z</time>
      </trkpt>
      <trkpt lat="48.5337" lon="2.22834">
        <ele>144</ele>
        <time>2022-08-09T13:12:25.247Z</time>
      </trkpt>
      <trkpt lat="48.53363" lon="2.22837">
        <ele>144</ele>
        <time>2022-08-09T13:12:30.222Z</time>
      </trkpt>
      <trkpt lat="48.53358" lon="2.22836">
        <ele>144</ele>
        <time>2022-08-09T13:12:34.234Z</time>
      </trkpt>
      <trkpt lat="48.53353" lon="2.22833">
        <ele>144</ele>
        <time>2022-08-09T13:12:38.222Z</time>
      </trkpt>
      <trkpt lat="48.53346" lon="2.22828">
        <ele>143</ele>
        <time>2022-08-09T13:12:43.214Z</time>
      </trkpt>
      <trkpt lat="48.5334" lon="2.22825">
        <ele>143</ele>
        <time>2022-08-09T13:12:48.194Z</time>
      </trkpt>
      <trkpt lat="48.53336" lon="2.22822">
        <ele>143</ele>
        <time>2022-08-09T13:12:52.201Z</time>
      </trkpt>
      <trkpt lat="48.53331" lon="2.22818">
        <ele>142</ele>
        <time>2022-08-09T13:12:56.203Z</time>
      </trkpt>
      <trkpt lat="48.53324" lon="2.22811">
        <ele>142</ele>
        <time>2022-08-09T13:13:01.196Z</time>
      </trkpt>
      <trkpt lat="48.53318" lon="2.22806">
        <ele>143</ele>
        <time>2022-08-09T13:13:06.198Z</time>
      </trkpt>
      <trkpt lat="48.53313" lon="2.22803">
        <ele>143</ele>
        <time>2022-08-09T13:13:10.198Z</time>
      </trkpt>
      <trkpt lat="48.53306" lon="2.22798">
        <ele>143</ele>
        <time>2022-08-09T13:13:15.200Z</time>
      </trkpt>
      <trkpt lat="48.533" lon="2.22794">
        <ele>143</ele>
        <time>2022-08-09T13:13:19.189Z</time>
      </trkpt>
      <trkpt lat="48.53294" lon="2.2279">
        <ele>143</ele>
        <time>2022-08-09T13:13:23.203Z</time>
      </trkpt>
      <trkpt lat="48.5329" lon="2.22787">
        <ele>142</ele>
        <time>2022-08-09T13:13:27.207Z</time>
      </trkpt>
      <trkpt lat="48.53283" lon="2.22782">
        <ele>142</ele>
        <time>2022-08-09T13:13:32.219Z</time>
      </trkpt>
      <trkpt lat="48.53277" lon="2.22779">
        <ele>142</ele>
        <time>2022-08-09T13:13:36.220Z</time>
      </trkpt>
      <trkpt lat="48.5327" lon="2.22775">
        <ele>142</ele>
        <time>2022-08-09T13:13:41.214Z</time>
      </trkpt>
      <trkpt lat="48.53265" lon="2.22771">
        <ele>142</ele>
        <time>2022-08-09T13:13:45.220Z</time>
      </trkpt>
      <trkpt lat="48.53258" lon="2.22766">
        <ele>142</ele>
        <time>2022-08-09T13:13:50.215Z</time>
      </trkpt>
      <trkpt lat="48.5325" lon="2.22761">
        <ele>144</ele>
        <time>2022-08-09T13:13:55.210Z</time>
      </trkpt>
      <trkpt lat="48.53241" lon="2.22757">
        <ele>144</ele>
        <time>2022-08-09T13:14:00.225Z</time>
      </trkpt>
      <trkpt lat="48.53235" lon="2.22755">
        <ele>144</ele>
        <time>2022-08-09T13:14:04.219Z</time>
      </trkpt>
      <trkpt lat="48.53228" lon="2.22754">
        <ele>144</ele>
        <time>2022-08-09T13:14:09.212Z</time>
      </trkpt>
      <trkpt lat="48.53221" lon="2.22751">
        <ele>144</ele>
        <time>2022-08-09T13:14:14.208Z</time>
      </trkpt>
      <trkpt lat="48.53216" lon="2.22749">
        <ele>144</ele>
        <time>2022-08-09T13:14:18.212Z</time>
      </trkpt>
      <trkpt lat="48.53212" lon="2.22746">
        <ele>144</ele>
        <time>2022-08-09T13:14:22.213Z</time>
      </trkpt>
      <trkpt lat="48.53207" lon="2.22742">
        <ele>144</ele>
        <time>2022-08-09T13:14:27.236Z</time>
      </trkpt>
      <trkpt lat="48.53202" lon="2.22736">
        <ele>144</ele>
        <time>2022-08-09T13:14:32.234Z</time>
      </trkpt>
      <trkpt lat="48.53196" lon="2.22731">
        <ele>146</ele>
        <time>2022-08-09T13:14:36.208Z</time>
      </trkpt>
      <trkpt lat="48.53189" lon="2.22725">
        <ele>146</ele>
        <time>2022-08-09T13:14:41.209Z</time>
      </trkpt>
      <trkpt lat="48.53183" lon="2.2272">
        <ele>146</ele>
        <time>2022-08-09T13:14:45.207Z</time>
      </trkpt>
      <trkpt lat="48.53177" lon="2.22714">
        <ele>146</ele>
        <time>2022-08-09T13:14:50.221Z</time>
      </trkpt>
      <trkpt lat="48.53171" lon="2.2271">
        <ele>146</ele>
        <time>2022-08-09T13:14:55.215Z</time>
      </trkpt>
      <trkpt lat="48.53164" lon="2.22705">
        <ele>147</ele>
        <time>2022-08-09T13:15:00.210Z</time>
      </trkpt>
      <trkpt lat="48.53158" lon="2.227">
        <ele>147</ele>
        <time>2022-08-09T13:15:05.202Z</time>
      </trkpt>
      <trkpt lat="48.53151" lon="2.22694">
        <ele>148</ele>
        <time>2022-08-09T13:15:10.205Z</time>
      </trkpt>
      <trkpt lat="48.53144" lon="2.22688">
        <ele>148</ele>
        <time>2022-08-09T13:15:15.211Z</time>
      </trkpt>
      <trkpt lat="48.53139" lon="2.22683">
        <ele>148</ele>
        <time>2022-08-09T13:15:20.222Z</time>
      </trkpt>
      <trkpt lat="48.53132" lon="2.22678">
        <ele>148</ele>
        <time>2022-08-09T13:15:25.221Z</time>
      </trkpt>
      <trkpt lat="48.53127" lon="2.22672">
        <ele>148</ele>
        <time>2022-08-09T13:15:30.229Z</time>
      </trkpt>
      <trkpt lat="48.53121" lon="2.22665">
        <ele>147</ele>
        <time>2022-08-09T13:15:35.222Z</time>
      </trkpt>
      <trkpt lat="48.53114" lon="2.22661">
        <ele>147</ele>
        <time>2022-08-09T13:15:40.200Z</time>
      </trkpt>
      <trkpt lat="48.53109" lon="2.22656">
        <ele>147</ele>
        <time>2022-08-09T13:15:44.196Z</time>
      </trkpt>
      <trkpt lat="48.53106" lon="2.22651">
        <ele>148</ele>
        <time>2022-08-09T13:15:48.198Z</time>
      </trkpt>
      <trkpt lat="48.53101" lon="2.22645">
        <ele>148</ele>
        <time>2022-08-09T13:15:53.207Z</time>
      </trkpt>
      <trkpt lat="48.53095" lon="2.22639">
        <ele>147</ele>
        <time>2022-08-09T13:15:58.198Z</time>
      </trkpt>
      <trkpt lat="48.53092" lon="2.22637">
        <ele>147</ele>
        <time>2022-08-09T13:16:03.208Z</time>
      </trkpt>
      <trkpt lat="48.53089" lon="2.22633">
        <ele>147</ele>
        <time>2022-08-09T13:16:08.203Z</time>
      </trkpt>
      <trkpt lat="48.53084" lon="2.22628">
        <ele>147</ele>
        <time>2022-08-09T13:16:12.202Z</time>
      </trkpt>
      <trkpt lat="48.5308" lon="2.2262">
        <ele>148</ele>
        <time>2022-08-09T13:16:17.184Z</time>
      </trkpt>
      <trkpt lat="48.53073" lon="2.22614">
        <ele>148</ele>
        <time>2022-08-09T13:16:22.191Z</time>
      </trkpt>
      <trkpt lat="48.53069" lon="2.2261">
        <ele>148</ele>
        <time>2022-08-09T13:16:26.205Z</time>
      </trkpt>
      <trkpt lat="48.53064" lon="2.22603">
        <ele>148</ele>
        <time>2022-08-09T13:16:31.195Z</time>
      </trkpt>
      <trkpt lat="48.5306" lon="2.22597">
        <ele>148</ele>
        <time>2022-08-09T13:16:35.201Z</time>
      </trkpt>
      <trkpt lat="48.53055" lon="2.22592">
        <ele>150</ele>
        <time>2022-08-09T13:16:39.198Z</time>
      </trkpt>
      <trkpt lat="48.53049" lon="2.22589">
        <ele>150</ele>
        <time>2022-08-09T13:16:43.191Z</time>
      </trkpt>
      <trkpt lat="48.53038" lon="2.22584">
        <ele>148</ele>
        <time>2022-08-09T13:17:04.201Z</time>
      </trkpt>
      <trkpt lat="48.53036" lon="2.22589">
        <ele>148</ele>
        <time>2022-08-09T13:17:08.201Z</time>
      </trkpt>
      <trkpt lat="48.53033" lon="2.22595">
        <ele>148</ele>
        <time>2022-08-09T13:17:12.201Z</time>
      </trkpt>
      <trkpt lat="48.53031" lon="2.22606">
        <ele>147</ele>
        <time>2022-08-09T13:17:17.194Z</time>
      </trkpt>
      <trkpt lat="48.5303" lon="2.22614">
        <ele>147</ele>
        <time>2022-08-09T13:17:21.199Z</time>
      </trkpt>
      <trkpt lat="48.53029" lon="2.22618">
        <ele>147</ele>
        <time>2022-08-09T13:17:30.202Z</time>
      </trkpt>
      <trkpt lat="48.53027" lon="2.22619">
        <ele>147</ele>
        <time>2022-08-09T13:17:34.196Z</time>
      </trkpt>
      <trkpt lat="48.53028" lon="2.22626">
        <ele>146</ele>
        <time>2022-08-09T13:17:38.197Z</time>
      </trkpt>
      <trkpt lat="48.5303" lon="2.22631">
        <ele>146</ele>
        <time>2022-08-09T13:17:42.197Z</time>
      </trkpt>
      <trkpt lat="48.53029" lon="2.22633">
        <ele>146</ele>
        <time>2022-08-09T13:17:47.193Z</time>
      </trkpt>
      <trkpt lat="48.53031" lon="2.22638">
        <ele>146</ele>
        <time>2022-08-09T13:17:51.191Z</time>
      </trkpt>
      <trkpt lat="48.53033" lon="2.22643">
        <ele>146</ele>
        <time>2022-08-09T13:17:55.187Z</time>
      </trkpt>
      <trkpt lat="48.53036" lon="2.22647">
        <ele>146</ele>
        <time>2022-08-09T13:18:00.199Z</time>
      </trkpt>
      <trkpt lat="48.53037" lon="2.2265">
        <ele>146</ele>
        <time>2022-08-09T13:18:05.198Z</time>
      </trkpt>
      <trkpt lat="48.53041" lon="2.22653">
        <ele>145</ele>
        <time>2022-08-09T13:18:14.199Z</time>
      </trkpt>
      <trkpt lat="48.53043" lon="2.22655">
        <ele>146</ele>
        <time>2022-08-09T13:18:18.215Z</time>
      </trkpt>
      <trkpt lat="48.53045" lon="2.22656">
        <ele>146</ele>
        <time>2022-08-09T13:18:23.203Z</time>
      </trkpt>
      <trkpt lat="48.53045" lon="2.22656">
        <ele>146</ele>
        <time>2022-08-09T13:18:28.204Z</time>
      </trkpt>
      <trkpt lat="48.53046" lon="2.22656">
        <ele>146</ele>
        <time>2022-08-09T13:18:33.222Z</time>
      </trkpt>
      <trkpt lat="48.53045" lon="2.22658">
        <ele>146</ele>
        <time>2022-08-09T13:18:35.215Z</time>
      </trkpt>
      <trkpt lat="48.53045" lon="2.22665">
        <ele>146</ele>
        <time>2022-08-09T13:18:42.199Z</time>
      </trkpt>
      <trkpt lat="48.53043" lon="2.22672">
        <ele>146</ele>
        <time>2022-08-09T13:18:47.200Z</time>
      </trkpt>
      <trkpt lat="48.5304" lon="2.22681">
        <ele>144</ele>
        <time>2022-08-09T13:18:52.205Z</time>
      </trkpt>
      <trkpt lat="48.53039" lon="2.22687">
        <ele>144</ele>
        <time>2022-08-09T13:18:55.198Z</time>
      </trkpt>
      <trkpt lat="48.53036" lon="2.22699">
        <ele>144</ele>
        <time>2022-08-09T13:19:01.203Z</time>
      </trkpt>
      <trkpt lat="48.53033" lon="2.22706">
        <ele>144</ele>
        <time>2022-08-09T13:19:05.199Z</time>
      </trkpt>
      <trkpt lat="48.53032" lon="2.22713">
        <ele>143</ele>
        <time>2022-08-09T13:19:09.196Z</time>
      </trkpt>
      <trkpt lat="48.53031" lon="2.22719">
        <ele>143</ele>
        <time>2022-08-09T13:19:12.200Z</time>
      </trkpt>
      <trkpt lat="48.53027" lon="2.2273">
        <ele>143</ele>
        <time>2022-08-09T13:19:18.200Z</time>
      </trkpt>
      <trkpt lat="48.53026" lon="2.22739">
        <ele>143</ele>
        <time>2022-08-09T13:19:22.207Z</time>
      </trkpt>
      <trkpt lat="48.53026" lon="2.22739">
        <ele>143</ele>
        <time>2022-08-09T13:19:27.206Z</time>
      </trkpt>
      <trkpt lat="48.53017" lon="2.22742">
        <ele>143</ele>
        <time>2022-08-09T13:26:00.216Z</time>
      </trkpt>
      <trkpt lat="48.53017" lon="2.22746">
        <ele>143</ele>
        <time>2022-08-09T13:26:05.193Z</time>
      </trkpt>
      <trkpt lat="48.53016" lon="2.22751">
        <ele>143</ele>
        <time>2022-08-09T13:26:10.209Z</time>
      </trkpt>
      <trkpt lat="48.53016" lon="2.22758">
        <ele>143</ele>
        <time>2022-08-09T13:26:15.196Z</time>
      </trkpt>
      <trkpt lat="48.53014" lon="2.22767">
        <ele>142</ele>
        <time>2022-08-09T13:26:19.204Z</time>
      </trkpt>
      <trkpt lat="48.53012" lon="2.22777">
        <ele>143</ele>
        <time>2022-08-09T13:26:24.226Z</time>
      </trkpt>
      <trkpt lat="48.5301" lon="2.22783">
        <ele>143</ele>
        <time>2022-08-09T13:26:28.214Z</time>
      </trkpt>
      <trkpt lat="48.53008" lon="2.2279">
        <ele>143</ele>
        <time>2022-08-09T13:26:33.204Z</time>
      </trkpt>
      <trkpt lat="48.53006" lon="2.22797">
        <ele>142</ele>
        <time>2022-08-09T13:26:37.204Z</time>
      </trkpt>
      <trkpt lat="48.53003" lon="2.22807">
        <ele>142</ele>
        <time>2022-08-09T13:26:42.209Z</time>
      </trkpt>
      <trkpt lat="48.53" lon="2.22814">
        <ele>142</ele>
        <time>2022-08-09T13:26:46.218Z</time>
      </trkpt>
      <trkpt lat="48.52999" lon="2.22821">
        <ele>141</ele>
        <time>2022-08-09T13:26:51.201Z</time>
      </trkpt>
      <trkpt lat="48.52996" lon="2.22831">
        <ele>141</ele>
        <time>2022-08-09T13:26:56.219Z</time>
      </trkpt>
      <trkpt lat="48.52994" lon="2.22839">
        <ele>141</ele>
        <time>2022-08-09T13:27:00.230Z</time>
      </trkpt>
      <trkpt lat="48.52991" lon="2.22849">
        <ele>141</ele>
        <time>2022-08-09T13:27:05.206Z</time>
      </trkpt>
      <trkpt lat="48.52989" lon="2.22855">
        <ele>141</ele>
        <time>2022-08-09T13:27:09.219Z</time>
      </trkpt>
      <trkpt lat="48.52985" lon="2.22867">
        <ele>142</ele>
        <time>2022-08-09T13:27:14.208Z</time>
      </trkpt>
      <trkpt lat="48.52982" lon="2.22876">
        <ele>143</ele>
        <time>2022-08-09T13:27:18.219Z</time>
      </trkpt>
      <trkpt lat="48.52979" lon="2.22886">
        <ele>143</ele>
        <time>2022-08-09T13:27:23.198Z</time>
      </trkpt>
      <trkpt lat="48.52976" lon="2.22895">
        <ele>143</ele>
        <time>2022-08-09T13:27:27.213Z</time>
      </trkpt>
      <trkpt lat="48.52973" lon="2.22906">
        <ele>143</ele>
        <time>2022-08-09T13:27:32.209Z</time>
      </trkpt>
      <trkpt lat="48.52971" lon="2.22918">
        <ele>143</ele>
        <time>2022-08-09T13:27:37.202Z</time>
      </trkpt>
      <trkpt lat="48.52972" lon="2.22929">
        <ele>143</ele>
        <time>2022-08-09T13:27:42.219Z</time>
      </trkpt>
      <trkpt lat="48.52976" lon="2.22939">
        <ele>143</ele>
        <time>2022-08-09T13:27:47.199Z</time>
      </trkpt>
      <trkpt lat="48.5298" lon="2.22948">
        <ele>143</ele>
        <time>2022-08-09T13:27:52.203Z</time>
      </trkpt>
      <trkpt lat="48.5298" lon="2.22955">
        <ele>143</ele>
        <time>2022-08-09T13:27:56.215Z</time>
      </trkpt>
      <trkpt lat="48.52976" lon="2.22964">
        <ele>143</ele>
        <time>2022-08-09T13:28:01.199Z</time>
      </trkpt>
      <trkpt lat="48.52972" lon="2.22972">
        <ele>143</ele>
        <time>2022-08-09T13:28:05.205Z</time>
      </trkpt>
      <trkpt lat="48.52968" lon="2.22981">
        <ele>143</ele>
        <time>2022-08-09T13:28:10.221Z</time>
      </trkpt>
      <trkpt lat="48.52965" lon="2.22988">
        <ele>142</ele>
        <time>2022-08-09T13:28:14.216Z</time>
      </trkpt>
      <trkpt lat="48.52962" lon="2.22995">
        <ele>142</ele>
        <time>2022-08-09T13:28:18.220Z</time>
      </trkpt>
      <trkpt lat="48.52958" lon="2.23004">
        <ele>141</ele>
        <time>2022-08-09T13:28:23.208Z</time>
      </trkpt>
      <trkpt lat="48.52954" lon="2.23014">
        <ele>141</ele>
        <time>2022-08-09T13:28:28.209Z</time>
      </trkpt>
      <trkpt lat="48.52951" lon="2.23021">
        <ele>141</ele>
        <time>2022-08-09T13:28:32.207Z</time>
      </trkpt>
      <trkpt lat="48.52946" lon="2.2303">
        <ele>141</ele>
        <time>2022-08-09T13:28:37.217Z</time>
      </trkpt>
      <trkpt lat="48.52942" lon="2.2304">
        <ele>141</ele>
        <time>2022-08-09T13:28:42.220Z</time>
      </trkpt>
      <trkpt lat="48.52939" lon="2.2305">
        <ele>141</ele>
        <time>2022-08-09T13:28:47.187Z</time>
      </trkpt>
      <trkpt lat="48.52937" lon="2.23056">
        <ele>141</ele>
        <time>2022-08-09T13:28:51.192Z</time>
      </trkpt>
      <trkpt lat="48.52934" lon="2.23061">
        <ele>141</ele>
        <time>2022-08-09T13:28:56.201Z</time>
      </trkpt>
      <trkpt lat="48.52929" lon="2.23071">
        <ele>141</ele>
        <time>2022-08-09T13:29:01.188Z</time>
      </trkpt>
      <trkpt lat="48.52927" lon="2.23078">
        <ele>141</ele>
        <time>2022-08-09T13:29:05.195Z</time>
      </trkpt>
      <trkpt lat="48.52922" lon="2.23083">
        <ele>141</ele>
        <time>2022-08-09T13:29:09.199Z</time>
      </trkpt>
      <trkpt lat="48.52918" lon="2.23092">
        <ele>141</ele>
        <time>2022-08-09T13:29:13.208Z</time>
      </trkpt>
      <trkpt lat="48.52915" lon="2.231">
        <ele>142</ele>
        <time>2022-08-09T13:29:18.221Z</time>
      </trkpt>
      <trkpt lat="48.52913" lon="2.23108">
        <ele>142</ele>
        <time>2022-08-09T13:29:22.223Z</time>
      </trkpt>
      <trkpt lat="48.52909" lon="2.23118">
        <ele>142</ele>
        <time>2022-08-09T13:29:27.204Z</time>
      </trkpt>
      <trkpt lat="48.52905" lon="2.23128">
        <ele>141</ele>
        <time>2022-08-09T13:29:32.214Z</time>
      </trkpt>
      <trkpt lat="48.52902" lon="2.23136">
        <ele>142</ele>
        <time>2022-08-09T13:29:37.208Z</time>
      </trkpt>
      <trkpt lat="48.52899" lon="2.23144">
        <ele>142</ele>
        <time>2022-08-09T13:29:41.207Z</time>
      </trkpt>
      <trkpt lat="48.52896" lon="2.23151">
        <ele>142</ele>
        <time>2022-08-09T13:29:45.205Z</time>
      </trkpt>
      <trkpt lat="48.52892" lon="2.23163">
        <ele>142</ele>
        <time>2022-08-09T13:29:50.218Z</time>
      </trkpt>
      <trkpt lat="48.52887" lon="2.23173">
        <ele>142</ele>
        <time>2022-08-09T13:29:55.214Z</time>
      </trkpt>
      <trkpt lat="48.52883" lon="2.23183">
        <ele>141</ele>
        <time>2022-08-09T13:30:00.224Z</time>
      </trkpt>
      <trkpt lat="48.5288" lon="2.2319">
        <ele>141</ele>
        <time>2022-08-09T13:30:04.220Z</time>
      </trkpt>
      <trkpt lat="48.52877" lon="2.23197">
        <ele>141</ele>
        <time>2022-08-09T13:30:08.220Z</time>
      </trkpt>
      <trkpt lat="48.52873" lon="2.23207">
        <ele>141</ele>
        <time>2022-08-09T13:30:13.210Z</time>
      </trkpt>
      <trkpt lat="48.52869" lon="2.23216">
        <ele>141</ele>
        <time>2022-08-09T13:30:18.216Z</time>
      </trkpt>
      <trkpt lat="48.52865" lon="2.23225">
        <ele>141</ele>
        <time>2022-08-09T13:30:23.201Z</time>
      </trkpt>
      <trkpt lat="48.5286" lon="2.23234">
        <ele>141</ele>
        <time>2022-08-09T13:30:28.220Z</time>
      </trkpt>
      <trkpt lat="48.52856" lon="2.23244">
        <ele>140</ele>
        <time>2022-08-09T13:30:33.206Z</time>
      </trkpt>
      <trkpt lat="48.52854" lon="2.23252">
        <ele>140</ele>
        <time>2022-08-09T13:30:37.211Z</time>
      </trkpt>
      <trkpt lat="48.52851" lon="2.23262">
        <ele>140</ele>
        <time>2022-08-09T13:30:42.214Z</time>
      </trkpt>
      <trkpt lat="48.5285" lon="2.23272">
        <ele>139</ele>
        <time>2022-08-09T13:30:46.226Z</time>
      </trkpt>
      <trkpt lat="48.52849" lon="2.23285">
        <ele>139</ele>
        <time>2022-08-09T13:30:51.205Z</time>
      </trkpt>
      <trkpt lat="48.52849" lon="2.23296">
        <ele>137</ele>
        <time>2022-08-09T13:30:56.219Z</time>
      </trkpt>
      <trkpt lat="48.52848" lon="2.23305">
        <ele>137</ele>
        <time>2022-08-09T13:31:00.220Z</time>
      </trkpt>
      <trkpt lat="48.52847" lon="2.23315">
        <ele>137</ele>
        <time>2022-08-09T13:31:05.208Z</time>
      </trkpt>
      <trkpt lat="48.52847" lon="2.23326">
        <ele>133</ele>
        <time>2022-08-09T13:31:10.228Z</time>
      </trkpt>
      <trkpt lat="48.52845" lon="2.23337">
        <ele>133</ele>
        <time>2022-08-09T13:31:15.211Z</time>
      </trkpt>
      <trkpt lat="48.52843" lon="2.23346">
        <ele>133</ele>
        <time>2022-08-09T13:31:20.213Z</time>
      </trkpt>
      <trkpt lat="48.52842" lon="2.2336">
        <ele>133</ele>
        <time>2022-08-09T13:31:25.208Z</time>
      </trkpt>
      <trkpt lat="48.52841" lon="2.23372">
        <ele>133</ele>
        <time>2022-08-09T13:31:30.206Z</time>
      </trkpt>
      <trkpt lat="48.5284" lon="2.23381">
        <ele>134</ele>
        <time>2022-08-09T13:31:34.210Z</time>
      </trkpt>
      <trkpt lat="48.52839" lon="2.23389">
        <ele>134</ele>
        <time>2022-08-09T13:31:38.218Z</time>
      </trkpt>
      <trkpt lat="48.52835" lon="2.23396">
        <ele>134</ele>
        <time>2022-08-09T13:31:43.197Z</time>
      </trkpt>
      <trkpt lat="48.52829" lon="2.23401">
        <ele>134</ele>
        <time>2022-08-09T13:31:47.213Z</time>
      </trkpt>
      <trkpt lat="48.52823" lon="2.23403">
        <ele>136</ele>
        <time>2022-08-09T13:31:52.227Z</time>
      </trkpt>
      <trkpt lat="48.52816" lon="2.23401">
        <ele>134</ele>
        <time>2022-08-09T13:31:57.197Z</time>
      </trkpt>
      <trkpt lat="48.52811" lon="2.23399">
        <ele>134</ele>
        <time>2022-08-09T13:32:01.214Z</time>
      </trkpt>
      <trkpt lat="48.52804" lon="2.23397">
        <ele>134</ele>
        <time>2022-08-09T13:32:06.219Z</time>
      </trkpt>
      <trkpt lat="48.52798" lon="2.23392">
        <ele>134</ele>
        <time>2022-08-09T13:32:11.201Z</time>
      </trkpt>
      <trkpt lat="48.52793" lon="2.23388">
        <ele>134</ele>
        <time>2022-08-09T13:32:15.206Z</time>
      </trkpt>
      <trkpt lat="48.52786" lon="2.23384">
        <ele>134</ele>
        <time>2022-08-09T13:32:20.226Z</time>
      </trkpt>
      <trkpt lat="48.5278" lon="2.23381">
        <ele>134</ele>
        <time>2022-08-09T13:32:24.208Z</time>
      </trkpt>
      <trkpt lat="48.52774" lon="2.23377">
        <ele>134</ele>
        <time>2022-08-09T13:32:29.199Z</time>
      </trkpt>
      <trkpt lat="48.52769" lon="2.23373">
        <ele>132</ele>
        <time>2022-08-09T13:32:33.227Z</time>
      </trkpt>
      <trkpt lat="48.52761" lon="2.23368">
        <ele>135</ele>
        <time>2022-08-09T13:32:38.219Z</time>
      </trkpt>
      <trkpt lat="48.52754" lon="2.23363">
        <ele>135</ele>
        <time>2022-08-09T13:32:43.210Z</time>
      </trkpt>
      <trkpt lat="48.52747" lon="2.2336">
        <ele>135</ele>
        <time>2022-08-09T13:32:48.216Z</time>
      </trkpt>
      <trkpt lat="48.52741" lon="2.23355">
        <ele>135</ele>
        <time>2022-08-09T13:32:53.216Z</time>
      </trkpt>
      <trkpt lat="48.52734" lon="2.23352">
        <ele>138</ele>
        <time>2022-08-09T13:32:58.210Z</time>
      </trkpt>
      <trkpt lat="48.52727" lon="2.23349">
        <ele>138</ele>
        <time>2022-08-09T13:33:03.210Z</time>
      </trkpt>
      <trkpt lat="48.52722" lon="2.23346">
        <ele>134</ele>
        <time>2022-08-09T13:33:07.209Z</time>
      </trkpt>
      <trkpt lat="48.52715" lon="2.23345">
        <ele>134</ele>
        <time>2022-08-09T13:33:12.223Z</time>
      </trkpt>
      <trkpt lat="48.52708" lon="2.23345">
        <ele>133</ele>
        <time>2022-08-09T13:33:17.202Z</time>
      </trkpt>
      <trkpt lat="48.52701" lon="2.23345">
        <ele>133</ele>
        <time>2022-08-09T13:33:21.211Z</time>
      </trkpt>
      <trkpt lat="48.52693" lon="2.23346">
        <ele>133</ele>
        <time>2022-08-09T13:33:26.202Z</time>
      </trkpt>
      <trkpt lat="48.52688" lon="2.23346">
        <ele>133</ele>
        <time>2022-08-09T13:33:30.214Z</time>
      </trkpt>
      <trkpt lat="48.52683" lon="2.23349">
        <ele>137</ele>
        <time>2022-08-09T13:33:35.223Z</time>
      </trkpt>
      <trkpt lat="48.52677" lon="2.2335">
        <ele>135</ele>
        <time>2022-08-09T13:33:40.213Z</time>
      </trkpt>
      <trkpt lat="48.5267" lon="2.23351">
        <ele>135</ele>
        <time>2022-08-09T13:33:45.219Z</time>
      </trkpt>
      <trkpt lat="48.52664" lon="2.23353">
        <ele>135</ele>
        <time>2022-08-09T13:33:50.216Z</time>
      </trkpt>
      <trkpt lat="48.52658" lon="2.23357">
        <ele>135</ele>
        <time>2022-08-09T13:33:54.212Z</time>
      </trkpt>
      <trkpt lat="48.5265" lon="2.23361">
        <ele>134</ele>
        <time>2022-08-09T13:33:59.207Z</time>
      </trkpt>
      <trkpt lat="48.52645" lon="2.23365">
        <ele>134</ele>
        <time>2022-08-09T13:34:03.210Z</time>
      </trkpt>
      <trkpt lat="48.52639" lon="2.23366">
        <ele>134</ele>
        <time>2022-08-09T13:34:07.217Z</time>
      </trkpt>
      <trkpt lat="48.52632" lon="2.23369">
        <ele>134</ele>
        <time>2022-08-09T13:34:12.215Z</time>
      </trkpt>
      <trkpt lat="48.52627" lon="2.23372">
        <ele>134</ele>
        <time>2022-08-09T13:34:16.230Z</time>
      </trkpt>
      <trkpt lat="48.52621" lon="2.23375">
        <ele>135</ele>
        <time>2022-08-09T13:34:20.216Z</time>
      </trkpt>
      <trkpt lat="48.52614" lon="2.23378">
        <ele>138</ele>
        <time>2022-08-09T13:34:25.210Z</time>
      </trkpt>
      <trkpt lat="48.52609" lon="2.23383">
        <ele>138</ele>
        <time>2022-08-09T13:34:29.196Z</time>
      </trkpt>
      <trkpt lat="48.52602" lon="2.23385">
        <ele>138</ele>
        <time>2022-08-09T13:34:33.229Z</time>
      </trkpt>
      <trkpt lat="48.52594" lon="2.23386">
        <ele>139</ele>
        <time>2022-08-09T13:34:38.219Z</time>
      </trkpt>
      <trkpt lat="48.52586" lon="2.23384">
        <ele>139</ele>
        <time>2022-08-09T13:34:43.206Z</time>
      </trkpt>
      <trkpt lat="48.5258" lon="2.23384">
        <ele>139</ele>
        <time>2022-08-09T13:34:47.219Z</time>
      </trkpt>
      <trkpt lat="48.52571" lon="2.23383">
        <ele>139</ele>
        <time>2022-08-09T13:34:52.222Z</time>
      </trkpt>
      <trkpt lat="48.52566" lon="2.23382">
        <ele>136</ele>
        <time>2022-08-09T13:34:56.234Z</time>
      </trkpt>
      <trkpt lat="48.5256" lon="2.23382">
        <ele>136</ele>
        <time>2022-08-09T13:35:00.221Z</time>
      </trkpt>
      <trkpt lat="48.52552" lon="2.23384">
        <ele>136</ele>
        <time>2022-08-09T13:35:05.204Z</time>
      </trkpt>
      <trkpt lat="48.52544" lon="2.23387">
        <ele>136</ele>
        <time>2022-08-09T13:35:10.229Z</time>
      </trkpt>
      <trkpt lat="48.52535" lon="2.2339">
        <ele>131</ele>
        <time>2022-08-09T13:35:15.221Z</time>
      </trkpt>
      <trkpt lat="48.52528" lon="2.23392">
        <ele>131</ele>
        <time>2022-08-09T13:35:20.224Z</time>
      </trkpt>
      <trkpt lat="48.52521" lon="2.23394">
        <ele>131</ele>
        <time>2022-08-09T13:35:25.228Z</time>
      </trkpt>
      <trkpt lat="48.52513" lon="2.23397">
        <ele>127</ele>
        <time>2022-08-09T13:35:30.220Z</time>
      </trkpt>
      <trkpt lat="48.52506" lon="2.23393">
        <ele>127</ele>
        <time>2022-08-09T13:35:35.190Z</time>
      </trkpt>
      <trkpt lat="48.52505" lon="2.23395">
        <ele>127</ele>
        <time>2022-08-09T13:35:39.188Z</time>
      </trkpt>
      <trkpt lat="48.525" lon="2.23397">
        <ele>127</ele>
        <time>2022-08-09T13:35:43.192Z</time>
      </trkpt>
      <trkpt lat="48.52495" lon="2.23401">
        <ele>127</ele>
        <time>2022-08-09T13:35:47.214Z</time>
      </trkpt>
      <trkpt lat="48.5249" lon="2.23404">
        <ele>129</ele>
        <time>2022-08-09T13:35:51.203Z</time>
      </trkpt>
      <trkpt lat="48.52484" lon="2.23404">
        <ele>126</ele>
        <time>2022-08-09T13:35:55.225Z</time>
      </trkpt>
      <trkpt lat="48.52479" lon="2.23409">
        <ele>126</ele>
        <time>2022-08-09T13:36:00.218Z</time>
      </trkpt>
      <trkpt lat="48.52475" lon="2.23415">
        <ele>126</ele>
        <time>2022-08-09T13:36:04.215Z</time>
      </trkpt>
      <trkpt lat="48.52472" lon="2.23426">
        <ele>126</ele>
        <time>2022-08-09T13:36:09.213Z</time>
      </trkpt>
      <trkpt lat="48.5247" lon="2.23436">
        <ele>127</ele>
        <time>2022-08-09T13:36:13.227Z</time>
      </trkpt>
      <trkpt lat="48.52469" lon="2.23445">
        <ele>127</ele>
        <time>2022-08-09T13:36:17.211Z</time>
      </trkpt>
      <trkpt lat="48.52469" lon="2.23455">
        <ele>127</ele>
        <time>2022-08-09T13:36:22.206Z</time>
      </trkpt>
      <trkpt lat="48.52467" lon="2.23467">
        <ele>128</ele>
        <time>2022-08-09T13:36:27.210Z</time>
      </trkpt>
      <trkpt lat="48.52465" lon="2.23478">
        <ele>128</ele>
        <time>2022-08-09T13:36:32.220Z</time>
      </trkpt>
      <trkpt lat="48.52463" lon="2.23488">
        <ele>129</ele>
        <time>2022-08-09T13:36:37.217Z</time>
      </trkpt>
      <trkpt lat="48.52461" lon="2.23498">
        <ele>129</ele>
        <time>2022-08-09T13:36:42.223Z</time>
      </trkpt>
      <trkpt lat="48.52459" lon="2.23506">
        <ele>129</ele>
        <time>2022-08-09T13:36:46.234Z</time>
      </trkpt>
      <trkpt lat="48.52457" lon="2.23515">
        <ele>126</ele>
        <time>2022-08-09T13:36:51.209Z</time>
      </trkpt>
      <trkpt lat="48.52455" lon="2.23524">
        <ele>126</ele>
        <time>2022-08-09T13:36:55.222Z</time>
      </trkpt>
      <trkpt lat="48.52452" lon="2.23536">
        <ele>126</ele>
        <time>2022-08-09T13:37:00.210Z</time>
      </trkpt>
      <trkpt lat="48.5245" lon="2.23543">
        <ele>126</ele>
        <time>2022-08-09T13:37:04.228Z</time>
      </trkpt>
      <trkpt lat="48.52448" lon="2.23549">
        <ele>126</ele>
        <time>2022-08-09T13:37:08.217Z</time>
      </trkpt>
      <trkpt lat="48.52445" lon="2.23559">
        <ele>126</ele>
        <time>2022-08-09T13:37:13.201Z</time>
      </trkpt>
      <trkpt lat="48.52442" lon="2.23569">
        <ele>126</ele>
        <time>2022-08-09T13:37:18.221Z</time>
      </trkpt>
      <trkpt lat="48.5244" lon="2.23577">
        <ele>127</ele>
        <time>2022-08-09T13:37:22.230Z</time>
      </trkpt>
      <trkpt lat="48.52437" lon="2.23587">
        <ele>127</ele>
        <time>2022-08-09T13:37:27.209Z</time>
      </trkpt>
      <trkpt lat="48.52434" lon="2.23596">
        <ele>127</ele>
        <time>2022-08-09T13:37:31.211Z</time>
      </trkpt>
      <trkpt lat="48.52429" lon="2.23606">
        <ele>127</ele>
        <time>2022-08-09T13:37:36.225Z</time>
      </trkpt>
      <trkpt lat="48.52426" lon="2.23613">
        <ele>127</ele>
        <time>2022-08-09T13:37:40.213Z</time>
      </trkpt>
      <trkpt lat="48.52422" lon="2.23623">
        <ele>127</ele>
        <time>2022-08-09T13:37:45.205Z</time>
      </trkpt>
      <trkpt lat="48.52418" lon="2.2363">
        <ele>127</ele>
        <time>2022-08-09T13:37:49.225Z</time>
      </trkpt>
      <trkpt lat="48.52414" lon="2.23638">
        <ele>127</ele>
        <time>2022-08-09T13:37:53.224Z</time>
      </trkpt>
      <trkpt lat="48.5241" lon="2.23647">
        <ele>127</ele>
        <time>2022-08-09T13:37:58.231Z</time>
      </trkpt>
      <trkpt lat="48.52405" lon="2.23655">
        <ele>126</ele>
        <time>2022-08-09T13:38:03.232Z</time>
      </trkpt>
      <trkpt lat="48.524" lon="2.23661">
        <ele>125</ele>
        <time>2022-08-09T13:38:08.225Z</time>
      </trkpt>
      <trkpt lat="48.52396" lon="2.23667">
        <ele>125</ele>
        <time>2022-08-09T13:38:12.221Z</time>
      </trkpt>
      <trkpt lat="48.52391" lon="2.23674">
        <ele>125</ele>
        <time>2022-08-09T13:38:17.221Z</time>
      </trkpt>
      <trkpt lat="48.52386" lon="2.23681">
        <ele>125</ele>
        <time>2022-08-09T13:38:21.209Z</time>
      </trkpt>
      <trkpt lat="48.52381" lon="2.23689">
        <ele>125</ele>
        <time>2022-08-09T13:38:26.220Z</time>
      </trkpt>
      <trkpt lat="48.52378" lon="2.23694">
        <ele>125</ele>
        <time>2022-08-09T13:38:30.223Z</time>
      </trkpt>
      <trkpt lat="48.52374" lon="2.23701">
        <ele>125</ele>
        <time>2022-08-09T13:38:34.215Z</time>
      </trkpt>
      <trkpt lat="48.52368" lon="2.23708">
        <ele>125</ele>
        <time>2022-08-09T13:38:39.202Z</time>
      </trkpt>
      <trkpt lat="48.52363" lon="2.23714">
        <ele>129</ele>
        <time>2022-08-09T13:38:44.199Z</time>
      </trkpt>
      <trkpt lat="48.52359" lon="2.23715">
        <ele>129</ele>
        <time>2022-08-09T13:38:48.211Z</time>
      </trkpt>
      <trkpt lat="48.52356" lon="2.23714">
        <ele>129</ele>
        <time>2022-08-09T13:38:52.207Z</time>
      </trkpt>
      <trkpt lat="48.52352" lon="2.23708">
        <ele>125</ele>
        <time>2022-08-09T13:38:57.217Z</time>
      </trkpt>
      <trkpt lat="48.52346" lon="2.23705">
        <ele>128</ele>
        <time>2022-08-09T13:39:01.222Z</time>
      </trkpt>
      <trkpt lat="48.5234" lon="2.23701">
        <ele>128</ele>
        <time>2022-08-09T13:39:06.212Z</time>
      </trkpt>
      <trkpt lat="48.52332" lon="2.23696">
        <ele>128</ele>
        <time>2022-08-09T13:39:11.212Z</time>
      </trkpt>
      <trkpt lat="48.52327" lon="2.23693">
        <ele>128</ele>
        <time>2022-08-09T13:39:15.211Z</time>
      </trkpt>
      <trkpt lat="48.52322" lon="2.23689">
        <ele>128</ele>
        <time>2022-08-09T13:39:19.215Z</time>
      </trkpt>
      <trkpt lat="48.52315" lon="2.23685">
        <ele>131</ele>
        <time>2022-08-09T13:39:24.215Z</time>
      </trkpt>
      <trkpt lat="48.52308" lon="2.2368">
        <ele>127</ele>
        <time>2022-08-09T13:39:29.215Z</time>
      </trkpt>
      <trkpt lat="48.52305" lon="2.23676">
        <ele>127</ele>
        <time>2022-08-09T13:39:34.194Z</time>
      </trkpt>
      <trkpt lat="48.52299" lon="2.2367">
        <ele>127</ele>
        <time>2022-08-09T13:39:38.216Z</time>
      </trkpt>
      <trkpt lat="48.52291" lon="2.23667">
        <ele>131</ele>
        <time>2022-08-09T13:39:43.202Z</time>
      </trkpt>
      <trkpt lat="48.52286" lon="2.23664">
        <ele>131</ele>
        <time>2022-08-09T13:39:47.205Z</time>
      </trkpt>
      <trkpt lat="48.52281" lon="2.2366">
        <ele>131</ele>
        <time>2022-08-09T13:39:52.202Z</time>
      </trkpt>
      <trkpt lat="48.52277" lon="2.23657">
        <ele>131</ele>
        <time>2022-08-09T13:39:56.218Z</time>
      </trkpt>
      <trkpt lat="48.52271" lon="2.23651">
        <ele>126</ele>
        <time>2022-08-09T13:40:01.192Z</time>
      </trkpt>
      <trkpt lat="48.52265" lon="2.23646">
        <ele>126</ele>
        <time>2022-08-09T13:40:05.220Z</time>
      </trkpt>
      <trkpt lat="48.52259" lon="2.23643">
        <ele>130</ele>
        <time>2022-08-09T13:40:09.215Z</time>
      </trkpt>
      <trkpt lat="48.52253" lon="2.2364">
        <ele>130</ele>
        <time>2022-08-09T13:40:14.214Z</time>
      </trkpt>
      <trkpt lat="48.52244" lon="2.23636">
        <ele>130</ele>
        <time>2022-08-09T13:40:19.206Z</time>
      </trkpt>
      <trkpt lat="48.52238" lon="2.23634">
        <ele>130</ele>
        <time>2022-08-09T13:40:23.203Z</time>
      </trkpt>
      <trkpt lat="48.52233" lon="2.2363">
        <ele>136</ele>
        <time>2022-08-09T13:40:28.211Z</time>
      </trkpt>
      <trkpt lat="48.52227" lon="2.23623">
        <ele>131</ele>
        <time>2022-08-09T13:40:33.210Z</time>
      </trkpt>
      <trkpt lat="48.52223" lon="2.23618">
        <ele>131</ele>
        <time>2022-08-09T13:40:37.216Z</time>
      </trkpt>
      <trkpt lat="48.52219" lon="2.23613">
        <ele>131</ele>
        <time>2022-08-09T13:40:42.206Z</time>
      </trkpt>
      <trkpt lat="48.52216" lon="2.23608">
        <ele>131</ele>
        <time>2022-08-09T13:40:46.208Z</time>
      </trkpt>
      <trkpt lat="48.52214" lon="2.23599">
        <ele>131</ele>
        <time>2022-08-09T13:40:51.212Z</time>
      </trkpt>
      <trkpt lat="48.52211" lon="2.2359">
        <ele>128</ele>
        <time>2022-08-09T13:40:55.207Z</time>
      </trkpt>
      <trkpt lat="48.52205" lon="2.23583">
        <ele>137</ele>
        <time>2022-08-09T13:41:00.226Z</time>
      </trkpt>
      <trkpt lat="48.52204" lon="2.23578">
        <ele>137</ele>
        <time>2022-08-09T13:41:05.214Z</time>
      </trkpt>
      <trkpt lat="48.52201" lon="2.23571">
        <ele>137</ele>
        <time>2022-08-09T13:41:10.211Z</time>
      </trkpt>
      <trkpt lat="48.52194" lon="2.23557">
        <ele>137</ele>
        <time>2022-08-09T13:41:15.205Z</time>
      </trkpt>
      <trkpt lat="48.52187" lon="2.23551">
        <ele>137</ele>
        <time>2022-08-09T13:41:19.212Z</time>
      </trkpt>
      <trkpt lat="48.52181" lon="2.23546">
        <ele>137</ele>
        <time>2022-08-09T13:41:23.211Z</time>
      </trkpt>
      <trkpt lat="48.52175" lon="2.23543">
        <ele>146</ele>
        <time>2022-08-09T13:41:28.212Z</time>
      </trkpt>
      <trkpt lat="48.5217" lon="2.23543">
        <ele>146</ele>
        <time>2022-08-09T13:41:33.205Z</time>
      </trkpt>
      <trkpt lat="48.52165" lon="2.2354">
        <ele>145</ele>
        <time>2022-08-09T13:41:37.218Z</time>
      </trkpt>
      <trkpt lat="48.52161" lon="2.23535">
        <ele>145</ele>
        <time>2022-08-09T13:41:42.217Z</time>
      </trkpt>
      <trkpt lat="48.52159" lon="2.23533">
        <ele>145</ele>
        <time>2022-08-09T13:41:46.220Z</time>
      </trkpt>
      <trkpt lat="48.52156" lon="2.23529">
        <ele>145</ele>
        <time>2022-08-09T13:41:51.214Z</time>
      </trkpt>
      <trkpt lat="48.5215" lon="2.23524">
        <ele>146</ele>
        <time>2022-08-09T13:41:56.215Z</time>
      </trkpt>
      <trkpt lat="48.52146" lon="2.23518">
        <ele>146</ele>
        <time>2022-08-09T13:42:01.205Z</time>
      </trkpt>
      <trkpt lat="48.52143" lon="2.23511">
        <ele>145</ele>
        <time>2022-08-09T13:42:06.204Z</time>
      </trkpt>
      <trkpt lat="48.5214" lon="2.23507">
        <ele>145</ele>
        <time>2022-08-09T13:42:10.209Z</time>
      </trkpt>
      <trkpt lat="48.52137" lon="2.23508">
        <ele>145</ele>
        <time>2022-08-09T13:42:15.207Z</time>
      </trkpt>
      <trkpt lat="48.52132" lon="2.23509">
        <ele>145</ele>
        <time>2022-08-09T13:42:19.224Z</time>
      </trkpt>
      <trkpt lat="48.5213" lon="2.23509">
        <ele>145</ele>
        <time>2022-08-09T13:42:24.211Z</time>
      </trkpt>
      <trkpt lat="48.52128" lon="2.23508">
        <ele>145</ele>
        <time>2022-08-09T13:42:29.214Z</time>
      </trkpt>
      <trkpt lat="48.52126" lon="2.23503">
        <ele>145</ele>
        <time>2022-08-09T13:42:33.223Z</time>
      </trkpt>
      <trkpt lat="48.52125" lon="2.23501">
        <ele>145</ele>
        <time>2022-08-09T13:42:37.203Z</time>
      </trkpt>
      <trkpt lat="48.52121" lon="2.23503">
        <ele>143</ele>
        <time>2022-08-09T13:43:30.215Z</time>
      </trkpt>
      <trkpt lat="48.5212" lon="2.23504">
        <ele>143</ele>
        <time>2022-08-09T13:43:35.202Z</time>
      </trkpt>
      <trkpt lat="48.52119" lon="2.23503">
        <ele>143</ele>
        <time>2022-08-09T13:43:40.213Z</time>
      </trkpt>
      <trkpt lat="48.52119" lon="2.23506">
        <ele>143</ele>
        <time>2022-08-09T13:43:44.207Z</time>
      </trkpt>
      <trkpt lat="48.52118" lon="2.23514">
        <ele>143</ele>
        <time>2022-08-09T13:43:49.219Z</time>
      </trkpt>
      <trkpt lat="48.52118" lon="2.23518">
        <ele>144</ele>
        <time>2022-08-09T13:43:53.199Z</time>
      </trkpt>
      <trkpt lat="48.52118" lon="2.23527">
        <ele>144</ele>
        <time>2022-08-09T13:43:58.206Z</time>
      </trkpt>
      <trkpt lat="48.52117" lon="2.23534">
        <ele>144</ele>
        <time>2022-08-09T13:44:02.208Z</time>
      </trkpt>
      <trkpt lat="48.52112" lon="2.23541">
        <ele>144</ele>
        <time>2022-08-09T13:44:07.202Z</time>
      </trkpt>
      <trkpt lat="48.52111" lon="2.2355">
        <ele>145</ele>
        <time>2022-08-09T13:44:12.230Z</time>
      </trkpt>
      <trkpt lat="48.52107" lon="2.2356">
        <ele>145</ele>
        <time>2022-08-09T13:44:17.203Z</time>
      </trkpt>
      <trkpt lat="48.52104" lon="2.23567">
        <ele>145</ele>
        <time>2022-08-09T13:44:22.214Z</time>
      </trkpt>
      <trkpt lat="48.52101" lon="2.23572">
        <ele>147</ele>
        <time>2022-08-09T13:44:26.197Z</time>
      </trkpt>
      <trkpt lat="48.52097" lon="2.23578">
        <ele>148</ele>
        <time>2022-08-09T13:44:30.208Z</time>
      </trkpt>
      <trkpt lat="48.52092" lon="2.23584">
        <ele>148</ele>
        <time>2022-08-09T13:44:35.203Z</time>
      </trkpt>
      <trkpt lat="48.52085" lon="2.23588">
        <ele>148</ele>
        <time>2022-08-09T13:44:40.223Z</time>
      </trkpt>
      <trkpt lat="48.52078" lon="2.23594">
        <ele>148</ele>
        <time>2022-08-09T13:44:45.214Z</time>
      </trkpt>
      <trkpt lat="48.52072" lon="2.23599">
        <ele>151</ele>
        <time>2022-08-09T13:44:50.211Z</time>
      </trkpt>
      <trkpt lat="48.52066" lon="2.23602">
        <ele>152</ele>
        <time>2022-08-09T13:44:55.207Z</time>
      </trkpt>
      <trkpt lat="48.52062" lon="2.23606">
        <ele>152</ele>
        <time>2022-08-09T13:44:59.214Z</time>
      </trkpt>
      <trkpt lat="48.52058" lon="2.23611">
        <ele>152</ele>
        <time>2022-08-09T13:45:03.210Z</time>
      </trkpt>
      <trkpt lat="48.52052" lon="2.23618">
        <ele>152</ele>
        <time>2022-08-09T13:45:08.217Z</time>
      </trkpt>
      <trkpt lat="48.52051" lon="2.23624">
        <ele>152</ele>
        <time>2022-08-09T13:45:12.216Z</time>
      </trkpt>
      <trkpt lat="48.52052" lon="2.23632">
        <ele>155</ele>
        <time>2022-08-09T13:45:16.212Z</time>
      </trkpt>
      <trkpt lat="48.52054" lon="2.23643">
        <ele>155</ele>
        <time>2022-08-09T13:45:21.211Z</time>
      </trkpt>
      <trkpt lat="48.52056" lon="2.23648">
        <ele>155</ele>
        <time>2022-08-09T13:45:25.225Z</time>
      </trkpt>
      <trkpt lat="48.52058" lon="2.23656">
        <ele>156</ele>
        <time>2022-08-09T13:45:30.231Z</time>
      </trkpt>
      <trkpt lat="48.5206" lon="2.23664">
        <ele>156</ele>
        <time>2022-08-09T13:45:34.203Z</time>
      </trkpt>
      <trkpt lat="48.52064" lon="2.23674">
        <ele>156</ele>
        <time>2022-08-09T13:45:39.225Z</time>
      </trkpt>
      <trkpt lat="48.52066" lon="2.23685">
        <ele>157</ele>
        <time>2022-08-09T13:45:44.209Z</time>
      </trkpt>
      <trkpt lat="48.52067" lon="2.23695">
        <ele>157</ele>
        <time>2022-08-09T13:45:49.203Z</time>
      </trkpt>
      <trkpt lat="48.52067" lon="2.23703">
        <ele>157</ele>
        <time>2022-08-09T13:45:53.205Z</time>
      </trkpt>
      <trkpt lat="48.52066" lon="2.23714">
        <ele>157</ele>
        <time>2022-08-09T13:45:58.204Z</time>
      </trkpt>
      <trkpt lat="48.52067" lon="2.23722">
        <ele>157</ele>
        <time>2022-08-09T13:46:02.216Z</time>
      </trkpt>
      <trkpt lat="48.52068" lon="2.2373">
        <ele>157</ele>
        <time>2022-08-09T13:46:07.194Z</time>
      </trkpt>
      <trkpt lat="48.5207" lon="2.23739">
        <ele>157</ele>
        <time>2022-08-09T13:46:11.198Z</time>
      </trkpt>
      <trkpt lat="48.52072" lon="2.23747">
        <ele>157</ele>
        <time>2022-08-09T13:46:15.191Z</time>
      </trkpt>
      <trkpt lat="48.52077" lon="2.23756">
        <ele>157</ele>
        <time>2022-08-09T13:46:20.196Z</time>
      </trkpt>
      <trkpt lat="48.52078" lon="2.23764">
        <ele>157</ele>
        <time>2022-08-09T13:46:24.198Z</time>
      </trkpt>
      <trkpt lat="48.5208" lon="2.23773">
        <ele>157</ele>
        <time>2022-08-09T13:46:29.190Z</time>
      </trkpt>
      <trkpt lat="48.52083" lon="2.23779">
        <ele>157</ele>
        <time>2022-08-09T13:46:33.203Z</time>
      </trkpt>
      <trkpt lat="48.52087" lon="2.23784">
        <ele>157</ele>
        <time>2022-08-09T13:46:38.203Z</time>
      </trkpt>
      <trkpt lat="48.5209" lon="2.2379">
        <ele>157</ele>
        <time>2022-08-09T13:46:42.212Z</time>
      </trkpt>
      <trkpt lat="48.52093" lon="2.238">
        <ele>157</ele>
        <time>2022-08-09T13:46:47.210Z</time>
      </trkpt>
      <trkpt lat="48.52094" lon="2.2381">
        <ele>157</ele>
        <time>2022-08-09T13:46:52.205Z</time>
      </trkpt>
      <trkpt lat="48.52096" lon="2.23819">
        <ele>157</ele>
        <time>2022-08-09T13:46:56.200Z</time>
      </trkpt>
      <trkpt lat="48.521" lon="2.23829">
        <ele>158</ele>
        <time>2022-08-09T13:47:00.207Z</time>
      </trkpt>
      <trkpt lat="48.52104" lon="2.2384">
        <ele>158</ele>
        <time>2022-08-09T13:47:04.207Z</time>
      </trkpt>
      <trkpt lat="48.52108" lon="2.23852">
        <ele>159</ele>
        <time>2022-08-09T13:47:09.233Z</time>
      </trkpt>
      <trkpt lat="48.52109" lon="2.23862">
        <ele>159</ele>
        <time>2022-08-09T13:47:14.212Z</time>
      </trkpt>
      <trkpt lat="48.52111" lon="2.23869">
        <ele>159</ele>
        <time>2022-08-09T13:47:19.213Z</time>
      </trkpt>
      <trkpt lat="48.52113" lon="2.23876">
        <ele>159</ele>
        <time>2022-08-09T13:47:23.212Z</time>
      </trkpt>
      <trkpt lat="48.52114" lon="2.23887">
        <ele>159</ele>
        <time>2022-08-09T13:47:28.238Z</time>
      </trkpt>
      <trkpt lat="48.52118" lon="2.23902">
        <ele>159</ele>
        <time>2022-08-09T13:47:33.220Z</time>
      </trkpt>
      <trkpt lat="48.5212" lon="2.23912">
        <ele>159</ele>
        <time>2022-08-09T13:47:37.241Z</time>
      </trkpt>
      <trkpt lat="48.52123" lon="2.23918">
        <ele>159</ele>
        <time>2022-08-09T13:47:41.233Z</time>
      </trkpt>
      <trkpt lat="48.52127" lon="2.23927">
        <ele>160</ele>
        <time>2022-08-09T13:47:46.232Z</time>
      </trkpt>
      <trkpt lat="48.52131" lon="2.23938">
        <ele>161</ele>
        <time>2022-08-09T13:47:51.199Z</time>
      </trkpt>
      <trkpt lat="48.52132" lon="2.23944">
        <ele>161</ele>
        <time>2022-08-09T13:47:55.226Z</time>
      </trkpt>
      <trkpt lat="48.52136" lon="2.23952">
        <ele>161</ele>
        <time>2022-08-09T13:48:00.220Z</time>
      </trkpt>
      <trkpt lat="48.52139" lon="2.23961">
        <ele>162</ele>
        <time>2022-08-09T13:48:05.192Z</time>
      </trkpt>
      <trkpt lat="48.52143" lon="2.2397">
        <ele>162</ele>
        <time>2022-08-09T13:48:09.203Z</time>
      </trkpt>
      <trkpt lat="48.52147" lon="2.23975">
        <ele>162</ele>
        <time>2022-08-09T13:48:13.218Z</time>
      </trkpt>
      <trkpt lat="48.5215" lon="2.23985">
        <ele>162</ele>
        <time>2022-08-09T13:48:18.226Z</time>
      </trkpt>
      <trkpt lat="48.52155" lon="2.23993">
        <ele>163</ele>
        <time>2022-08-09T13:48:23.230Z</time>
      </trkpt>
      <trkpt lat="48.52158" lon="2.24005">
        <ele>163</ele>
        <time>2022-08-09T13:48:28.225Z</time>
      </trkpt>
      <trkpt lat="48.52161" lon="2.24016">
        <ele>163</ele>
        <time>2022-08-09T13:48:32.233Z</time>
      </trkpt>
      <trkpt lat="48.52165" lon="2.24025">
        <ele>163</ele>
        <time>2022-08-09T13:48:37.202Z</time>
      </trkpt>
      <trkpt lat="48.52167" lon="2.24032">
        <ele>163</ele>
        <time>2022-08-09T13:48:41.208Z</time>
      </trkpt>
      <trkpt lat="48.52169" lon="2.24043">
        <ele>163</ele>
        <time>2022-08-09T13:48:46.217Z</time>
      </trkpt>
      <trkpt lat="48.5217" lon="2.24055">
        <ele>163</ele>
        <time>2022-08-09T13:48:51.229Z</time>
      </trkpt>
      <trkpt lat="48.52173" lon="2.24065">
        <ele>163</ele>
        <time>2022-08-09T13:48:55.215Z</time>
      </trkpt>
      <trkpt lat="48.52177" lon="2.24075">
        <ele>163</ele>
        <time>2022-08-09T13:49:00.227Z</time>
      </trkpt>
      <trkpt lat="48.5218" lon="2.24087">
        <ele>163</ele>
        <time>2022-08-09T13:49:05.205Z</time>
      </trkpt>
      <trkpt lat="48.52182" lon="2.24094">
        <ele>163</ele>
        <time>2022-08-09T13:49:09.205Z</time>
      </trkpt>
      <trkpt lat="48.52186" lon="2.24103">
        <ele>162</ele>
        <time>2022-08-09T13:49:13.218Z</time>
      </trkpt>
      <trkpt lat="48.52191" lon="2.24114">
        <ele>162</ele>
        <time>2022-08-09T13:49:18.224Z</time>
      </trkpt>
      <trkpt lat="48.52193" lon="2.2412">
        <ele>162</ele>
        <time>2022-08-09T13:49:23.211Z</time>
      </trkpt>
      <trkpt lat="48.52195" lon="2.24127">
        <ele>162</ele>
        <time>2022-08-09T13:49:28.240Z</time>
      </trkpt>
      <trkpt lat="48.52199" lon="2.2414">
        <ele>162</ele>
        <time>2022-08-09T13:49:33.210Z</time>
      </trkpt>
      <trkpt lat="48.52205" lon="2.2415">
        <ele>162</ele>
        <time>2022-08-09T13:49:38.228Z</time>
      </trkpt>
      <trkpt lat="48.5221" lon="2.24163">
        <ele>159</ele>
        <time>2022-08-09T13:49:43.228Z</time>
      </trkpt>
      <trkpt lat="48.52213" lon="2.24172">
        <ele>159</ele>
        <time>2022-08-09T13:49:48.230Z</time>
      </trkpt>
      <trkpt lat="48.52217" lon="2.24177">
        <ele>159</ele>
        <time>2022-08-09T13:49:53.218Z</time>
      </trkpt>
      <trkpt lat="48.5222" lon="2.24188">
        <ele>159</ele>
        <time>2022-08-09T13:49:58.217Z</time>
      </trkpt>
      <trkpt lat="48.52224" lon="2.24197">
        <ele>159</ele>
        <time>2022-08-09T13:50:02.208Z</time>
      </trkpt>
      <trkpt lat="48.52227" lon="2.24202">
        <ele>159</ele>
        <time>2022-08-09T13:50:06.211Z</time>
      </trkpt>
      <trkpt lat="48.52228" lon="2.24211">
        <ele>159</ele>
        <time>2022-08-09T13:50:11.221Z</time>
      </trkpt>
      <trkpt lat="48.5223" lon="2.24222">
        <ele>159</ele>
        <time>2022-08-09T13:50:16.227Z</time>
      </trkpt>
      <trkpt lat="48.52233" lon="2.24231">
        <ele>159</ele>
        <time>2022-08-09T13:50:20.223Z</time>
      </trkpt>
      <trkpt lat="48.52237" lon="2.24239">
        <ele>157</ele>
        <time>2022-08-09T13:50:25.214Z</time>
      </trkpt>
      <trkpt lat="48.5224" lon="2.24249">
        <ele>157</ele>
        <time>2022-08-09T13:50:30.220Z</time>
      </trkpt>
      <trkpt lat="48.52243" lon="2.24256">
        <ele>157</ele>
        <time>2022-08-09T13:50:34.227Z</time>
      </trkpt>
      <trkpt lat="48.52245" lon="2.24267">
        <ele>158</ele>
        <time>2022-08-09T13:50:39.220Z</time>
      </trkpt>
      <trkpt lat="48.52248" lon="2.24278">
        <ele>158</ele>
        <time>2022-08-09T13:50:44.232Z</time>
      </trkpt>
      <trkpt lat="48.5225" lon="2.24287">
        <ele>158</ele>
        <time>2022-08-09T13:50:48.213Z</time>
      </trkpt>
      <trkpt lat="48.52253" lon="2.24297">
        <ele>159</ele>
        <time>2022-08-09T13:50:53.231Z</time>
      </trkpt>
      <trkpt lat="48.52256" lon="2.24309">
        <ele>159</ele>
        <time>2022-08-09T13:50:58.212Z</time>
      </trkpt>
      <trkpt lat="48.52257" lon="2.2432">
        <ele>159</ele>
        <time>2022-08-09T13:51:03.216Z</time>
      </trkpt>
      <trkpt lat="48.52261" lon="2.24329">
        <ele>159</ele>
        <time>2022-08-09T13:51:08.226Z</time>
      </trkpt>
      <trkpt lat="48.52264" lon="2.24339">
        <ele>159</ele>
        <time>2022-08-09T13:51:13.229Z</time>
      </trkpt>
      <trkpt lat="48.52265" lon="2.24352">
        <ele>159</ele>
        <time>2022-08-09T13:51:18.221Z</time>
      </trkpt>
      <trkpt lat="48.52268" lon="2.24361">
        <ele>159</ele>
        <time>2022-08-09T13:51:22.213Z</time>
      </trkpt>
      <trkpt lat="48.5227" lon="2.24372">
        <ele>159</ele>
        <time>2022-08-09T13:51:27.217Z</time>
      </trkpt>
      <trkpt lat="48.52271" lon="2.24384">
        <ele>160</ele>
        <time>2022-08-09T13:51:32.224Z</time>
      </trkpt>
      <trkpt lat="48.52275" lon="2.24391">
        <ele>160</ele>
        <time>2022-08-09T13:51:36.221Z</time>
      </trkpt>
      <trkpt lat="48.52278" lon="2.24398">
        <ele>160</ele>
        <time>2022-08-09T13:51:40.215Z</time>
      </trkpt>
      <trkpt lat="48.52282" lon="2.2441">
        <ele>163</ele>
        <time>2022-08-09T13:51:45.205Z</time>
      </trkpt>
      <trkpt lat="48.52288" lon="2.24416">
        <ele>163</ele>
        <time>2022-08-09T13:51:49.214Z</time>
      </trkpt>
      <trkpt lat="48.52291" lon="2.24423">
        <ele>163</ele>
        <time>2022-08-09T13:51:53.228Z</time>
      </trkpt>
      <trkpt lat="48.52291" lon="2.2443">
        <ele>163</ele>
        <time>2022-08-09T13:51:57.221Z</time>
      </trkpt>
      <trkpt lat="48.52286" lon="2.24436">
        <ele>164</ele>
        <time>2022-08-09T13:52:02.238Z</time>
      </trkpt>
      <trkpt lat="48.52279" lon="2.24441">
        <ele>164</ele>
        <time>2022-08-09T13:52:07.217Z</time>
      </trkpt>
      <trkpt lat="48.52276" lon="2.24443">
        <ele>164</ele>
        <time>2022-08-09T13:52:11.215Z</time>
      </trkpt>
      <trkpt lat="48.52272" lon="2.24447">
        <ele>164</ele>
        <time>2022-08-09T13:52:15.210Z</time>
      </trkpt>
      <trkpt lat="48.52266" lon="2.24449">
        <ele>164</ele>
        <time>2022-08-09T13:52:20.222Z</time>
      </trkpt>
      <trkpt lat="48.52261" lon="2.24452">
        <ele>163</ele>
        <time>2022-08-09T13:52:24.223Z</time>
      </trkpt>
      <trkpt lat="48.52256" lon="2.24454">
        <ele>163</ele>
        <time>2022-08-09T13:52:28.229Z</time>
      </trkpt>
      <trkpt lat="48.52249" lon="2.24459">
        <ele>164</ele>
        <time>2022-08-09T13:52:33.231Z</time>
      </trkpt>
      <trkpt lat="48.52242" lon="2.24464">
        <ele>164</ele>
        <time>2022-08-09T13:52:38.225Z</time>
      </trkpt>
      <trkpt lat="48.52235" lon="2.24465">
        <ele>162</ele>
        <time>2022-08-09T13:52:43.224Z</time>
      </trkpt>
      <trkpt lat="48.52227" lon="2.24467">
        <ele>162</ele>
        <time>2022-08-09T13:52:48.214Z</time>
      </trkpt>
      <trkpt lat="48.52219" lon="2.24471">
        <ele>162</ele>
        <time>2022-08-09T13:52:52.227Z</time>
      </trkpt>
      <trkpt lat="48.52211" lon="2.24475">
        <ele>162</ele>
        <time>2022-08-09T13:52:57.218Z</time>
      </trkpt>
      <trkpt lat="48.52206" lon="2.24478">
        <ele>159</ele>
        <time>2022-08-09T13:53:02.229Z</time>
      </trkpt>
      <trkpt lat="48.52199" lon="2.24482">
        <ele>159</ele>
        <time>2022-08-09T13:53:07.209Z</time>
      </trkpt>
      <trkpt lat="48.52194" lon="2.24483">
        <ele>159</ele>
        <time>2022-08-09T13:53:11.214Z</time>
      </trkpt>
      <trkpt lat="48.52186" lon="2.24485">
        <ele>159</ele>
        <time>2022-08-09T13:53:16.208Z</time>
      </trkpt>
      <trkpt lat="48.52179" lon="2.24486">
        <ele>157</ele>
        <time>2022-08-09T13:53:20.200Z</time>
      </trkpt>
      <trkpt lat="48.52172" lon="2.24492">
        <ele>157</ele>
        <time>2022-08-09T13:53:25.221Z</time>
      </trkpt>
      <trkpt lat="48.52166" lon="2.24496">
        <ele>157</ele>
        <time>2022-08-09T13:53:30.239Z</time>
      </trkpt>
      <trkpt lat="48.52161" lon="2.24502">
        <ele>157</ele>
        <time>2022-08-09T13:53:35.222Z</time>
      </trkpt>
      <trkpt lat="48.52161" lon="2.2451">
        <ele>157</ele>
        <time>2022-08-09T13:53:40.213Z</time>
      </trkpt>
      <trkpt lat="48.5216" lon="2.24515">
        <ele>157</ele>
        <time>2022-08-09T13:53:44.220Z</time>
      </trkpt>
      <trkpt lat="48.5216" lon="2.24524">
        <ele>157</ele>
        <time>2022-08-09T13:53:48.222Z</time>
      </trkpt>
      <trkpt lat="48.52161" lon="2.24534">
        <ele>157</ele>
        <time>2022-08-09T13:53:53.239Z</time>
      </trkpt>
      <trkpt lat="48.52164" lon="2.24547">
        <ele>156</ele>
        <time>2022-08-09T13:53:58.210Z</time>
      </trkpt>
      <trkpt lat="48.52167" lon="2.24556">
        <ele>156</ele>
        <time>2022-08-09T13:54:03.201Z</time>
      </trkpt>
      <trkpt lat="48.52169" lon="2.24572">
        <ele>156</ele>
        <time>2022-08-09T13:54:08.190Z</time>
      </trkpt>
      <trkpt lat="48.52169" lon="2.2458">
        <ele>156</ele>
        <time>2022-08-09T13:54:12.209Z</time>
      </trkpt>
      <trkpt lat="48.52169" lon="2.24588">
        <ele>156</ele>
        <time>2022-08-09T13:54:16.233Z</time>
      </trkpt>
      <trkpt lat="48.52169" lon="2.24599">
        <ele>156</ele>
        <time>2022-08-09T13:54:21.214Z</time>
      </trkpt>
      <trkpt lat="48.52171" lon="2.24609">
        <ele>156</ele>
        <time>2022-08-09T13:54:25.224Z</time>
      </trkpt>
      <trkpt lat="48.52172" lon="2.24618">
        <ele>156</ele>
        <time>2022-08-09T13:54:30.210Z</time>
      </trkpt>
      <trkpt lat="48.52173" lon="2.24626">
        <ele>156</ele>
        <time>2022-08-09T13:54:34.231Z</time>
      </trkpt>
      <trkpt lat="48.52174" lon="2.24633">
        <ele>156</ele>
        <time>2022-08-09T13:54:38.229Z</time>
      </trkpt>
      <trkpt lat="48.52176" lon="2.24641">
        <ele>156</ele>
        <time>2022-08-09T13:54:43.206Z</time>
      </trkpt>
      <trkpt lat="48.5218" lon="2.24651">
        <ele>156</ele>
        <time>2022-08-09T13:54:48.229Z</time>
      </trkpt>
      <trkpt lat="48.52182" lon="2.24663">
        <ele>155</ele>
        <time>2022-08-09T13:54:53.220Z</time>
      </trkpt>
      <trkpt lat="48.52182" lon="2.2467">
        <ele>155</ele>
        <time>2022-08-09T13:54:57.205Z</time>
      </trkpt>
      <trkpt lat="48.52183" lon="2.24677">
        <ele>155</ele>
        <time>2022-08-09T13:55:02.229Z</time>
      </trkpt>
      <trkpt lat="48.52184" lon="2.24688">
        <ele>154</ele>
        <time>2022-08-09T13:55:07.216Z</time>
      </trkpt>
      <trkpt lat="48.52185" lon="2.24698">
        <ele>154</ele>
        <time>2022-08-09T13:55:11.222Z</time>
      </trkpt>
      <trkpt lat="48.52186" lon="2.24708">
        <ele>154</ele>
        <time>2022-08-09T13:55:16.214Z</time>
      </trkpt>
      <trkpt lat="48.52187" lon="2.24715">
        <ele>153</ele>
        <time>2022-08-09T13:55:20.217Z</time>
      </trkpt>
      <trkpt lat="48.52186" lon="2.24728">
        <ele>153</ele>
        <time>2022-08-09T13:55:25.205Z</time>
      </trkpt>
      <trkpt lat="48.52183" lon="2.24737">
        <ele>152</ele>
        <time>2022-08-09T13:55:29.227Z</time>
      </trkpt>
      <trkpt lat="48.52184" lon="2.24748">
        <ele>152</ele>
        <time>2022-08-09T13:55:34.223Z</time>
      </trkpt>
      <trkpt lat="48.52187" lon="2.24761">
        <ele>152</ele>
        <time>2022-08-09T13:55:39.220Z</time>
      </trkpt>
      <trkpt lat="48.52188" lon="2.24772">
        <ele>151</ele>
        <time>2022-08-09T13:55:44.216Z</time>
      </trkpt>
      <trkpt lat="48.52187" lon="2.24783">
        <ele>151</ele>
        <time>2022-08-09T13:55:49.218Z</time>
      </trkpt>
      <trkpt lat="48.52188" lon="2.24793">
        <ele>151</ele>
        <time>2022-08-09T13:55:54.226Z</time>
      </trkpt>
      <trkpt lat="48.52188" lon="2.24804">
        <ele>151</ele>
        <time>2022-08-09T13:55:59.219Z</time>
      </trkpt>
      <trkpt lat="48.52189" lon="2.24811">
        <ele>151</ele>
        <time>2022-08-09T13:56:03.221Z</time>
      </trkpt>
      <trkpt lat="48.5219" lon="2.24823">
        <ele>151</ele>
        <time>2022-08-09T13:56:08.215Z</time>
      </trkpt>
      <trkpt lat="48.5219" lon="2.24832">
        <ele>151</ele>
        <time>2022-08-09T13:56:12.228Z</time>
      </trkpt>
      <trkpt lat="48.52192" lon="2.24844">
        <ele>151</ele>
        <time>2022-08-09T13:56:17.212Z</time>
      </trkpt>
      <trkpt lat="48.52193" lon="2.24856">
        <ele>150</ele>
        <time>2022-08-09T13:56:22.213Z</time>
      </trkpt>
      <trkpt lat="48.52196" lon="2.24865">
        <ele>150</ele>
        <time>2022-08-09T13:56:26.214Z</time>
      </trkpt>
      <trkpt lat="48.52197" lon="2.24877">
        <ele>149</ele>
        <time>2022-08-09T13:56:31.207Z</time>
      </trkpt>
      <trkpt lat="48.522" lon="2.24888">
        <ele>149</ele>
        <time>2022-08-09T13:56:36.216Z</time>
      </trkpt>
      <trkpt lat="48.52203" lon="2.24898">
        <ele>149</ele>
        <time>2022-08-09T13:56:41.211Z</time>
      </trkpt>
      <trkpt lat="48.52203" lon="2.24905">
        <ele>148</ele>
        <time>2022-08-09T13:56:45.215Z</time>
      </trkpt>
      <trkpt lat="48.52206" lon="2.24915">
        <ele>148</ele>
        <time>2022-08-09T13:56:50.221Z</time>
      </trkpt>
      <trkpt lat="48.52209" lon="2.24926">
        <ele>152</ele>
        <time>2022-08-09T13:56:55.199Z</time>
      </trkpt>
      <trkpt lat="48.52212" lon="2.24937">
        <ele>151</ele>
        <time>2022-08-09T13:57:00.209Z</time>
      </trkpt>
      <trkpt lat="48.52214" lon="2.24947">
        <ele>151</ele>
        <time>2022-08-09T13:57:05.198Z</time>
      </trkpt>
      <trkpt lat="48.52216" lon="2.24956">
        <ele>151</ele>
        <time>2022-08-09T13:57:09.218Z</time>
      </trkpt>
      <trkpt lat="48.52215" lon="2.24965">
        <ele>150</ele>
        <time>2022-08-09T13:57:14.209Z</time>
      </trkpt>
      <trkpt lat="48.52213" lon="2.24976">
        <ele>150</ele>
        <time>2022-08-09T13:57:19.206Z</time>
      </trkpt>
      <trkpt lat="48.52214" lon="2.2499">
        <ele>148</ele>
        <time>2022-08-09T13:57:23.213Z</time>
      </trkpt>
      <trkpt lat="48.52213" lon="2.24997">
        <ele>148</ele>
        <time>2022-08-09T13:57:27.216Z</time>
      </trkpt>
      <trkpt lat="48.52212" lon="2.25005">
        <ele>148</ele>
        <time>2022-08-09T13:57:31.234Z</time>
      </trkpt>
      <trkpt lat="48.52211" lon="2.25019">
        <ele>146</ele>
        <time>2022-08-09T13:57:36.221Z</time>
      </trkpt>
      <trkpt lat="48.52214" lon="2.2503">
        <ele>146</ele>
        <time>2022-08-09T13:57:40.226Z</time>
      </trkpt>
      <trkpt lat="48.52218" lon="2.25042">
        <ele>144</ele>
        <time>2022-08-09T13:57:45.228Z</time>
      </trkpt>
      <trkpt lat="48.52222" lon="2.25053">
        <ele>144</ele>
        <time>2022-08-09T13:57:50.233Z</time>
      </trkpt>
      <trkpt lat="48.52226" lon="2.25061">
        <ele>144</ele>
        <time>2022-08-09T13:57:54.242Z</time>
      </trkpt>
      <trkpt lat="48.52228" lon="2.25069">
        <ele>144</ele>
        <time>2022-08-09T13:57:59.206Z</time>
      </trkpt>
      <trkpt lat="48.52231" lon="2.25076">
        <ele>142</ele>
        <time>2022-08-09T13:58:03.218Z</time>
      </trkpt>
      <trkpt lat="48.52234" lon="2.25082">
        <ele>142</ele>
        <time>2022-08-09T13:58:07.223Z</time>
      </trkpt>
      <trkpt lat="48.52239" lon="2.25093">
        <ele>147</ele>
        <time>2022-08-09T13:58:12.242Z</time>
      </trkpt>
      <trkpt lat="48.52242" lon="2.25105">
        <ele>145</ele>
        <time>2022-08-09T13:58:17.219Z</time>
      </trkpt>
      <trkpt lat="48.52246" lon="2.25114">
        <ele>145</ele>
        <time>2022-08-09T13:58:21.218Z</time>
      </trkpt>
      <trkpt lat="48.52252" lon="2.25124">
        <ele>145</ele>
        <time>2022-08-09T13:58:26.238Z</time>
      </trkpt>
      <trkpt lat="48.52254" lon="2.25134">
        <ele>143</ele>
        <time>2022-08-09T13:58:30.247Z</time>
      </trkpt>
      <trkpt lat="48.52257" lon="2.25143">
        <ele>143</ele>
        <time>2022-08-09T13:58:34.234Z</time>
      </trkpt>
      <trkpt lat="48.52258" lon="2.25151">
        <ele>143</ele>
        <time>2022-08-09T13:58:39.200Z</time>
      </trkpt>
      <trkpt lat="48.5226" lon="2.25157">
        <ele>140</ele>
        <time>2022-08-09T13:58:43.233Z</time>
      </trkpt>
      <trkpt lat="48.52262" lon="2.25162">
        <ele>140</ele>
        <time>2022-08-09T13:58:48.238Z</time>
      </trkpt>
      <trkpt lat="48.52262" lon="2.25172">
        <ele>140</ele>
        <time>2022-08-09T13:58:53.223Z</time>
      </trkpt>
      <trkpt lat="48.5226" lon="2.25179">
        <ele>140</ele>
        <time>2022-08-09T13:58:58.261Z</time>
      </trkpt>
      <trkpt lat="48.52257" lon="2.25187">
        <ele>137</ele>
        <time>2022-08-09T13:59:03.216Z</time>
      </trkpt>
      <trkpt lat="48.52255" lon="2.25195">
        <ele>137</ele>
        <time>2022-08-09T13:59:08.240Z</time>
      </trkpt>
      <trkpt lat="48.52252" lon="2.25208">
        <ele>137</ele>
        <time>2022-08-09T13:59:13.223Z</time>
      </trkpt>
      <trkpt lat="48.5225" lon="2.25214">
        <ele>134</ele>
        <time>2022-08-09T13:59:17.251Z</time>
      </trkpt>
      <trkpt lat="48.52248" lon="2.25222">
        <ele>134</ele>
        <time>2022-08-09T13:59:22.231Z</time>
      </trkpt>
      <trkpt lat="48.52246" lon="2.25231">
        <ele>134</ele>
        <time>2022-08-09T13:59:27.237Z</time>
      </trkpt>
      <trkpt lat="48.52245" lon="2.25241">
        <ele>132</ele>
        <time>2022-08-09T13:59:32.216Z</time>
      </trkpt>
      <trkpt lat="48.52244" lon="2.25249">
        <ele>132</ele>
        <time>2022-08-09T13:59:36.206Z</time>
      </trkpt>
      <trkpt lat="48.52246" lon="2.25257">
        <ele>132</ele>
        <time>2022-08-09T13:59:41.220Z</time>
      </trkpt>
      <trkpt lat="48.52245" lon="2.25265">
        <ele>130</ele>
        <time>2022-08-09T13:59:46.231Z</time>
      </trkpt>
      <trkpt lat="48.52244" lon="2.25273">
        <ele>130</ele>
        <time>2022-08-09T13:59:50.218Z</time>
      </trkpt>
      <trkpt lat="48.52244" lon="2.25284">
        <ele>130</ele>
        <time>2022-08-09T13:59:55.223Z</time>
      </trkpt>
      <trkpt lat="48.52242" lon="2.25294">
        <ele>129</ele>
        <time>2022-08-09T14:00:00.213Z</time>
      </trkpt>
      <trkpt lat="48.52241" lon="2.25303">
        <ele>129</ele>
        <time>2022-08-09T14:00:05.229Z</time>
      </trkpt>
      <trkpt lat="48.52238" lon="2.25311">
        <ele>129</ele>
        <time>2022-08-09T14:00:10.219Z</time>
      </trkpt>
      <trkpt lat="48.52235" lon="2.25315">
        <ele>120</ele>
        <time>2022-08-09T14:00:14.249Z</time>
      </trkpt>
      <trkpt lat="48.52231" lon="2.25322">
        <ele>120</ele>
        <time>2022-08-09T14:00:19.204Z</time>
      </trkpt>
      <trkpt lat="48.52228" lon="2.25329">
        <ele>120</ele>
        <time>2022-08-09T14:00:23.219Z</time>
      </trkpt>
      <trkpt lat="48.52226" lon="2.25334">
        <ele>120</ele>
        <time>2022-08-09T14:00:27.228Z</time>
      </trkpt>
      <trkpt lat="48.5222" lon="2.25341">
        <ele>120</ele>
        <time>2022-08-09T14:00:32.225Z</time>
      </trkpt>
      <trkpt lat="48.52216" lon="2.25347">
        <ele>118</ele>
        <time>2022-08-09T14:00:37.222Z</time>
      </trkpt>
      <trkpt lat="48.52212" lon="2.2535">
        <ele>118</ele>
        <time>2022-08-09T14:00:41.235Z</time>
      </trkpt>
      <trkpt lat="48.52207" lon="2.25353">
        <ele>112</ele>
        <time>2022-08-09T14:00:46.217Z</time>
      </trkpt>
      <trkpt lat="48.52201" lon="2.2536">
        <ele>112</ele>
        <time>2022-08-09T14:00:51.216Z</time>
      </trkpt>
      <trkpt lat="48.52195" lon="2.25368">
        <ele>112</ele>
        <time>2022-08-09T14:00:56.249Z</time>
      </trkpt>
      <trkpt lat="48.5219" lon="2.25375">
        <ele>110</ele>
        <time>2022-08-09T14:01:01.204Z</time>
      </trkpt>
      <trkpt lat="48.52187" lon="2.2538">
        <ele>110</ele>
        <time>2022-08-09T14:01:05.205Z</time>
      </trkpt>
      <trkpt lat="48.52185" lon="2.25388">
        <ele>110</ele>
        <time>2022-08-09T14:01:10.223Z</time>
      </trkpt>
      <trkpt lat="48.52182" lon="2.25398">
        <ele>110</ele>
        <time>2022-08-09T14:01:14.232Z</time>
      </trkpt>
      <trkpt lat="48.5218" lon="2.25412">
        <ele>105</ele>
        <time>2022-08-09T14:01:19.193Z</time>
      </trkpt>
      <trkpt lat="48.52177" lon="2.25418">
        <ele>105</ele>
        <time>2022-08-09T14:01:23.205Z</time>
      </trkpt>
      <trkpt lat="48.52175" lon="2.25426">
        <ele>105</ele>
        <time>2022-08-09T14:01:28.222Z</time>
      </trkpt>
      <trkpt lat="48.52173" lon="2.25434">
        <ele>102</ele>
        <time>2022-08-09T14:01:33.222Z</time>
      </trkpt>
      <trkpt lat="48.5217" lon="2.25442">
        <ele>102</ele>
        <time>2022-08-09T14:01:38.219Z</time>
      </trkpt>
      <trkpt lat="48.52167" lon="2.2545">
        <ele>102</ele>
        <time>2022-08-09T14:01:43.224Z</time>
      </trkpt>
      <trkpt lat="48.52163" lon="2.25459">
        <ele>98</ele>
        <time>2022-08-09T14:01:48.198Z</time>
      </trkpt>
      <trkpt lat="48.52161" lon="2.25466">
        <ele>98</ele>
        <time>2022-08-09T14:01:52.206Z</time>
      </trkpt>
      <trkpt lat="48.52158" lon="2.25474">
        <ele>98</ele>
        <time>2022-08-09T14:01:56.238Z</time>
      </trkpt>
      <trkpt lat="48.52154" lon="2.25482">
        <ele>98</ele>
        <time>2022-08-09T14:02:00.243Z</time>
      </trkpt>
      <trkpt lat="48.5215" lon="2.25492">
        <ele>91</ele>
        <time>2022-08-09T14:02:05.252Z</time>
      </trkpt>
      <trkpt lat="48.52146" lon="2.25499">
        <ele>91</ele>
        <time>2022-08-09T14:02:10.219Z</time>
      </trkpt>
      <trkpt lat="48.52144" lon="2.25506">
        <ele>91</ele>
        <time>2022-08-09T14:02:14.255Z</time>
      </trkpt>
      <trkpt lat="48.52141" lon="2.25516">
        <ele>91</ele>
        <time>2022-08-09T14:02:19.221Z</time>
      </trkpt>
      <trkpt lat="48.5214" lon="2.25527">
        <ele>91</ele>
        <time>2022-08-09T14:02:24.230Z</time>
      </trkpt>
      <trkpt lat="48.52138" lon="2.25533">
        <ele>91</ele>
        <time>2022-08-09T14:02:28.257Z</time>
      </trkpt>
      <trkpt lat="48.52134" lon="2.25543">
        <ele>89</ele>
        <time>2022-08-09T14:02:33.217Z</time>
      </trkpt>
      <trkpt lat="48.5213" lon="2.25552">
        <ele>89</ele>
        <time>2022-08-09T14:02:38.223Z</time>
      </trkpt>
      <trkpt lat="48.52126" lon="2.25558">
        <ele>89</ele>
        <time>2022-08-09T14:02:42.233Z</time>
      </trkpt>
      <trkpt lat="48.52121" lon="2.25568">
        <ele>87</ele>
        <time>2022-08-09T14:02:47.220Z</time>
      </trkpt>
      <trkpt lat="48.52116" lon="2.25572">
        <ele>85</ele>
        <time>2022-08-09T14:02:51.215Z</time>
      </trkpt>
      <trkpt lat="48.52109" lon="2.25572">
        <ele>85</ele>
        <time>2022-08-09T14:02:56.230Z</time>
      </trkpt>
      <trkpt lat="48.52104" lon="2.25571">
        <ele>85</ele>
        <time>2022-08-09T14:03:01.231Z</time>
      </trkpt>
      <trkpt lat="48.52101" lon="2.25566">
        <ele>87</ele>
        <time>2022-08-09T14:03:06.221Z</time>
      </trkpt>
      <trkpt lat="48.52099" lon="2.25558">
        <ele>87</ele>
        <time>2022-08-09T14:03:10.229Z</time>
      </trkpt>
      <trkpt lat="48.52095" lon="2.25551">
        <ele>85</ele>
        <time>2022-08-09T14:03:15.235Z</time>
      </trkpt>
      <trkpt lat="48.5209" lon="2.25541">
        <ele>85</ele>
        <time>2022-08-09T14:03:20.217Z</time>
      </trkpt>
      <trkpt lat="48.52087" lon="2.25537">
        <ele>85</ele>
        <time>2022-08-09T14:03:24.219Z</time>
      </trkpt>
      <trkpt lat="48.52052" lon="2.25571">
        <ele>82</ele>
        <time>2022-08-09T14:03:53.213Z</time>
      </trkpt>
      <trkpt lat="48.52051" lon="2.25576">
        <ele>82</ele>
        <time>2022-08-09T14:03:57.217Z</time>
      </trkpt>
      <trkpt lat="48.52048" lon="2.25581">
        <ele>82</ele>
        <time>2022-08-09T14:04:02.222Z</time>
      </trkpt>
      <trkpt lat="48.52051" lon="2.25585">
        <ele>82</ele>
        <time>2022-08-09T14:04:07.225Z</time>
      </trkpt>
      <trkpt lat="48.52052" lon="2.25586">
        <ele>82</ele>
        <time>2022-08-09T14:04:11.219Z</time>
      </trkpt>
      <trkpt lat="48.52053" lon="2.25591">
        <ele>82</ele>
        <time>2022-08-09T14:04:16.215Z</time>
      </trkpt>
      <trkpt lat="48.52054" lon="2.25593">
        <ele>82</ele>
        <time>2022-08-09T14:04:20.220Z</time>
      </trkpt>
      <trkpt lat="48.52056" lon="2.25591">
        <ele>82</ele>
        <time>2022-08-09T14:04:29.219Z</time>
      </trkpt>
      <trkpt lat="48.52055" lon="2.25589">
        <ele>82</ele>
        <time>2022-08-09T14:04:33.221Z</time>
      </trkpt>
      <trkpt lat="48.52056" lon="2.25593">
        <ele>82</ele>
        <time>2022-08-09T14:04:38.214Z</time>
      </trkpt>
      <trkpt lat="48.52055" lon="2.25602">
        <ele>82</ele>
        <time>2022-08-09T14:04:43.198Z</time>
      </trkpt>
      <trkpt lat="48.52056" lon="2.2561">
        <ele>82</ele>
        <time>2022-08-09T14:04:47.236Z</time>
      </trkpt>
      <trkpt lat="48.52059" lon="2.25618">
        <ele>82</ele>
        <time>2022-08-09T14:04:52.230Z</time>
      </trkpt>
      <trkpt lat="48.5206" lon="2.25625">
        <ele>82</ele>
        <time>2022-08-09T14:04:56.261Z</time>
      </trkpt>
      <trkpt lat="48.52064" lon="2.25632">
        <ele>81</ele>
        <time>2022-08-09T14:05:00.257Z</time>
      </trkpt>
      <trkpt lat="48.52067" lon="2.25642">
        <ele>81</ele>
        <time>2022-08-09T14:05:05.229Z</time>
      </trkpt>
      <trkpt lat="48.52068" lon="2.25651">
        <ele>81</ele>
        <time>2022-08-09T14:05:10.235Z</time>
      </trkpt>
      <trkpt lat="48.52071" lon="2.25658">
        <ele>82</ele>
        <time>2022-08-09T14:05:14.228Z</time>
      </trkpt>
      <trkpt lat="48.52072" lon="2.25663">
        <ele>82</ele>
        <time>2022-08-09T14:05:18.232Z</time>
      </trkpt>
      <trkpt lat="48.5207" lon="2.25666">
        <ele>82</ele>
        <time>2022-08-09T14:05:23.239Z</time>
      </trkpt>
    </trkseg>
  </trk>
</gpx>